<?xml version="1.0" encoding="UTF-8" standalone="no" ?>
<gpx xmlns="http://www.topografix.com/GPX/1/1" xmlns:xsi="http://www.w3.org/2001/XMLSchema-instance" xsi:schemaLocation="http://www.topografix.com/GPX/1/1 http://www.topografix.com/GPX/1/1/gpx.xsd" version="1.1" creator="VisuGPX - https://www.visugpx.com">
  <metadata>
    <name>Variante_voie_verte_VESOUL</name>
    <desc><![CDATA[randonnée VTT voie verte entre LOULANS / VESOUL]]></desc>
  </metadata>
  <trk>
    <name><![CDATA[Variante_voie_verte_VESOUL_2014-09-11-01]]></name>
    <trkseg>
      <trkpt lat="47.43818" lon="6.21161">
        <ele>244.4</ele>
        <time>2014-09-11T08:05:50Z</time>
      </trkpt>
      <trkpt lat="47.43818" lon="6.21161">
        <ele>244.5</ele>
        <time>2014-09-11T08:05:51Z</time>
      </trkpt>
      <trkpt lat="47.4381" lon="6.21153">
        <ele>244.9</ele>
        <time>2014-09-11T08:07:24Z</time>
      </trkpt>
      <trkpt lat="47.43818" lon="6.21161">
        <ele>244.8</ele>
        <time>2014-09-11T08:07:49Z</time>
      </trkpt>
      <trkpt lat="47.43807" lon="6.21159">
        <ele>244.8</ele>
        <time>2014-09-11T08:08:39Z</time>
      </trkpt>
      <trkpt lat="47.4381" lon="6.21174">
        <ele>244.9</ele>
        <time>2014-09-11T08:08:45Z</time>
      </trkpt>
      <trkpt lat="47.43817" lon="6.21184">
        <ele>244.9</ele>
        <time>2014-09-11T08:08:50Z</time>
      </trkpt>
      <trkpt lat="47.43824" lon="6.21195">
        <ele>244.8</ele>
        <time>2014-09-11T08:08:55Z</time>
      </trkpt>
      <trkpt lat="47.43829" lon="6.21205">
        <ele>245</ele>
        <time>2014-09-11T08:09:00Z</time>
      </trkpt>
      <trkpt lat="47.43835" lon="6.21216">
        <ele>244.9</ele>
        <time>2014-09-11T08:09:05Z</time>
      </trkpt>
      <trkpt lat="47.43843" lon="6.21228">
        <ele>244.9</ele>
        <time>2014-09-11T08:09:10Z</time>
      </trkpt>
      <trkpt lat="47.43849" lon="6.21241">
        <ele>245.2</ele>
        <time>2014-09-11T08:09:15Z</time>
      </trkpt>
      <trkpt lat="47.43856" lon="6.21254">
        <ele>245.8</ele>
        <time>2014-09-11T08:09:20Z</time>
      </trkpt>
      <trkpt lat="47.43864" lon="6.21266">
        <ele>245.9</ele>
        <time>2014-09-11T08:09:25Z</time>
      </trkpt>
      <trkpt lat="47.43871" lon="6.21276">
        <ele>246.3</ele>
        <time>2014-09-11T08:09:29Z</time>
      </trkpt>
      <trkpt lat="47.43877" lon="6.21286">
        <ele>246.6</ele>
        <time>2014-09-11T08:09:33Z</time>
      </trkpt>
      <trkpt lat="47.43884" lon="6.21298">
        <ele>246.9</ele>
        <time>2014-09-11T08:09:38Z</time>
      </trkpt>
      <trkpt lat="47.43891" lon="6.21307">
        <ele>247.4</ele>
        <time>2014-09-11T08:09:42Z</time>
      </trkpt>
      <trkpt lat="47.43898" lon="6.21317">
        <ele>247.9</ele>
        <time>2014-09-11T08:09:47Z</time>
      </trkpt>
      <trkpt lat="47.43905" lon="6.21327">
        <ele>248.2</ele>
        <time>2014-09-11T08:09:51Z</time>
      </trkpt>
      <trkpt lat="47.43912" lon="6.21337">
        <ele>248.7</ele>
        <time>2014-09-11T08:09:56Z</time>
      </trkpt>
      <trkpt lat="47.43919" lon="6.21348">
        <ele>249.3</ele>
        <time>2014-09-11T08:10:01Z</time>
      </trkpt>
      <trkpt lat="47.43926" lon="6.21359">
        <ele>250.1</ele>
        <time>2014-09-11T08:10:06Z</time>
      </trkpt>
      <trkpt lat="47.43934" lon="6.21367">
        <ele>250.5</ele>
        <time>2014-09-11T08:10:10Z</time>
      </trkpt>
      <trkpt lat="47.43941" lon="6.21379">
        <ele>250.7</ele>
        <time>2014-09-11T08:10:15Z</time>
      </trkpt>
      <trkpt lat="47.43948" lon="6.21392">
        <ele>250.9</ele>
        <time>2014-09-11T08:10:20Z</time>
      </trkpt>
      <trkpt lat="47.43952" lon="6.21407">
        <ele>251.1</ele>
        <time>2014-09-11T08:10:25Z</time>
      </trkpt>
      <trkpt lat="47.43955" lon="6.21423">
        <ele>251</ele>
        <time>2014-09-11T08:10:30Z</time>
      </trkpt>
      <trkpt lat="47.4395" lon="6.21437">
        <ele>251.1</ele>
        <time>2014-09-11T08:10:35Z</time>
      </trkpt>
      <trkpt lat="47.43947" lon="6.2145">
        <ele>251.2</ele>
        <time>2014-09-11T08:10:41Z</time>
      </trkpt>
      <trkpt lat="47.43955" lon="6.21458">
        <ele>251.1</ele>
        <time>2014-09-11T08:10:46Z</time>
      </trkpt>
      <trkpt lat="47.43963" lon="6.21467">
        <ele>251.1</ele>
        <time>2014-09-11T08:10:51Z</time>
      </trkpt>
      <trkpt lat="47.4397" lon="6.21475">
        <ele>251.3</ele>
        <time>2014-09-11T08:10:55Z</time>
      </trkpt>
      <trkpt lat="47.43978" lon="6.21486">
        <ele>251.4</ele>
        <time>2014-09-11T08:11:00Z</time>
      </trkpt>
      <trkpt lat="47.43984" lon="6.21496">
        <ele>251.5</ele>
        <time>2014-09-11T08:11:05Z</time>
      </trkpt>
      <trkpt lat="47.4399" lon="6.21508">
        <ele>251.5</ele>
        <time>2014-09-11T08:11:11Z</time>
      </trkpt>
      <trkpt lat="47.43997" lon="6.21521">
        <ele>251.5</ele>
        <time>2014-09-11T08:11:17Z</time>
      </trkpt>
      <trkpt lat="47.44003" lon="6.21534">
        <ele>251.7</ele>
        <time>2014-09-11T08:11:22Z</time>
      </trkpt>
      <trkpt lat="47.4401" lon="6.21544">
        <ele>251.8</ele>
        <time>2014-09-11T08:11:26Z</time>
      </trkpt>
      <trkpt lat="47.44016" lon="6.21556">
        <ele>252</ele>
        <time>2014-09-11T08:11:31Z</time>
      </trkpt>
      <trkpt lat="47.44022" lon="6.21568">
        <ele>252.2</ele>
        <time>2014-09-11T08:11:35Z</time>
      </trkpt>
      <trkpt lat="47.44028" lon="6.21581">
        <ele>252.3</ele>
        <time>2014-09-11T08:11:40Z</time>
      </trkpt>
      <trkpt lat="47.44033" lon="6.21594">
        <ele>252.7</ele>
        <time>2014-09-11T08:11:45Z</time>
      </trkpt>
      <trkpt lat="47.44038" lon="6.21608">
        <ele>252.9</ele>
        <time>2014-09-11T08:11:50Z</time>
      </trkpt>
      <trkpt lat="47.44044" lon="6.21621">
        <ele>253</ele>
        <time>2014-09-11T08:11:54Z</time>
      </trkpt>
      <trkpt lat="47.44049" lon="6.21633">
        <ele>253.4</ele>
        <time>2014-09-11T08:11:58Z</time>
      </trkpt>
      <trkpt lat="47.44054" lon="6.21646">
        <ele>253.4</ele>
        <time>2014-09-11T08:12:02Z</time>
      </trkpt>
      <trkpt lat="47.44059" lon="6.21659">
        <ele>253.3</ele>
        <time>2014-09-11T08:12:06Z</time>
      </trkpt>
      <trkpt lat="47.44064" lon="6.21672">
        <ele>253.3</ele>
        <time>2014-09-11T08:12:10Z</time>
      </trkpt>
      <trkpt lat="47.44069" lon="6.21685">
        <ele>253.3</ele>
        <time>2014-09-11T08:12:14Z</time>
      </trkpt>
      <trkpt lat="47.44073" lon="6.21698">
        <ele>253.2</ele>
        <time>2014-09-11T08:12:18Z</time>
      </trkpt>
      <trkpt lat="47.44078" lon="6.21711">
        <ele>253.5</ele>
        <time>2014-09-11T08:12:22Z</time>
      </trkpt>
      <trkpt lat="47.44082" lon="6.21724">
        <ele>254.1</ele>
        <time>2014-09-11T08:12:26Z</time>
      </trkpt>
      <trkpt lat="47.44087" lon="6.21737">
        <ele>254.1</ele>
        <time>2014-09-11T08:12:30Z</time>
      </trkpt>
      <trkpt lat="47.44092" lon="6.21751">
        <ele>254.3</ele>
        <time>2014-09-11T08:12:34Z</time>
      </trkpt>
      <trkpt lat="47.44097" lon="6.21766">
        <ele>254.6</ele>
        <time>2014-09-11T08:12:38Z</time>
      </trkpt>
      <trkpt lat="47.44102" lon="6.21779">
        <ele>254.7</ele>
        <time>2014-09-11T08:12:42Z</time>
      </trkpt>
      <trkpt lat="47.44107" lon="6.21794">
        <ele>254.9</ele>
        <time>2014-09-11T08:12:46Z</time>
      </trkpt>
      <trkpt lat="47.44112" lon="6.21807">
        <ele>254.9</ele>
        <time>2014-09-11T08:12:50Z</time>
      </trkpt>
      <trkpt lat="47.44117" lon="6.2182">
        <ele>254.9</ele>
        <time>2014-09-11T08:12:54Z</time>
      </trkpt>
      <trkpt lat="47.44122" lon="6.21835">
        <ele>255.1</ele>
        <time>2014-09-11T08:12:58Z</time>
      </trkpt>
      <trkpt lat="47.44127" lon="6.21849">
        <ele>255.4</ele>
        <time>2014-09-11T08:13:02Z</time>
      </trkpt>
      <trkpt lat="47.44132" lon="6.21864">
        <ele>255.9</ele>
        <time>2014-09-11T08:13:06Z</time>
      </trkpt>
      <trkpt lat="47.44137" lon="6.21879">
        <ele>255.8</ele>
        <time>2014-09-11T08:13:10Z</time>
      </trkpt>
      <trkpt lat="47.44143" lon="6.21894">
        <ele>256.5</ele>
        <time>2014-09-11T08:13:14Z</time>
      </trkpt>
      <trkpt lat="47.44149" lon="6.21905">
        <ele>256.7</ele>
        <time>2014-09-11T08:13:18Z</time>
      </trkpt>
      <trkpt lat="47.44153" lon="6.21918">
        <ele>257</ele>
        <time>2014-09-11T08:13:22Z</time>
      </trkpt>
      <trkpt lat="47.44158" lon="6.21931">
        <ele>257.1</ele>
        <time>2014-09-11T08:13:26Z</time>
      </trkpt>
      <trkpt lat="47.44164" lon="6.21945">
        <ele>257.5</ele>
        <time>2014-09-11T08:13:30Z</time>
      </trkpt>
      <trkpt lat="47.4417" lon="6.21959">
        <ele>257.7</ele>
        <time>2014-09-11T08:13:34Z</time>
      </trkpt>
      <trkpt lat="47.44177" lon="6.21973">
        <ele>258.2</ele>
        <time>2014-09-11T08:13:38Z</time>
      </trkpt>
      <trkpt lat="47.44183" lon="6.21987">
        <ele>258</ele>
        <time>2014-09-11T08:13:42Z</time>
      </trkpt>
      <trkpt lat="47.4419" lon="6.22001">
        <ele>257.8</ele>
        <time>2014-09-11T08:13:46Z</time>
      </trkpt>
      <trkpt lat="47.44196" lon="6.22013">
        <ele>257.9</ele>
        <time>2014-09-11T08:13:50Z</time>
      </trkpt>
      <trkpt lat="47.44203" lon="6.22025">
        <ele>258</ele>
        <time>2014-09-11T08:13:54Z</time>
      </trkpt>
      <trkpt lat="47.44212" lon="6.22036">
        <ele>258.2</ele>
        <time>2014-09-11T08:13:58Z</time>
      </trkpt>
      <trkpt lat="47.44219" lon="6.22047">
        <ele>258.5</ele>
        <time>2014-09-11T08:14:02Z</time>
      </trkpt>
      <trkpt lat="47.44227" lon="6.22059">
        <ele>258.2</ele>
        <time>2014-09-11T08:14:06Z</time>
      </trkpt>
      <trkpt lat="47.44235" lon="6.22068">
        <ele>258.5</ele>
        <time>2014-09-11T08:14:10Z</time>
      </trkpt>
      <trkpt lat="47.44241" lon="6.22079">
        <ele>258.7</ele>
        <time>2014-09-11T08:14:14Z</time>
      </trkpt>
      <trkpt lat="47.44248" lon="6.22089">
        <ele>258.7</ele>
        <time>2014-09-11T08:14:18Z</time>
      </trkpt>
      <trkpt lat="47.44255" lon="6.22099">
        <ele>258.8</ele>
        <time>2014-09-11T08:14:22Z</time>
      </trkpt>
      <trkpt lat="47.44262" lon="6.22109">
        <ele>259.1</ele>
        <time>2014-09-11T08:14:26Z</time>
      </trkpt>
      <trkpt lat="47.4427" lon="6.22121">
        <ele>259.4</ele>
        <time>2014-09-11T08:14:30Z</time>
      </trkpt>
      <trkpt lat="47.44277" lon="6.22132">
        <ele>259.5</ele>
        <time>2014-09-11T08:14:34Z</time>
      </trkpt>
      <trkpt lat="47.44284" lon="6.22141">
        <ele>259.6</ele>
        <time>2014-09-11T08:14:38Z</time>
      </trkpt>
      <trkpt lat="47.44291" lon="6.22152">
        <ele>259.9</ele>
        <time>2014-09-11T08:14:42Z</time>
      </trkpt>
      <trkpt lat="47.44298" lon="6.22162">
        <ele>260.1</ele>
        <time>2014-09-11T08:14:46Z</time>
      </trkpt>
      <trkpt lat="47.44306" lon="6.22173">
        <ele>260.3</ele>
        <time>2014-09-11T08:14:50Z</time>
      </trkpt>
      <trkpt lat="47.44314" lon="6.22184">
        <ele>260.3</ele>
        <time>2014-09-11T08:14:54Z</time>
      </trkpt>
      <trkpt lat="47.44322" lon="6.22191">
        <ele>260.5</ele>
        <time>2014-09-11T08:14:58Z</time>
      </trkpt>
      <trkpt lat="47.4433" lon="6.22202">
        <ele>260.9</ele>
        <time>2014-09-11T08:15:03Z</time>
      </trkpt>
      <trkpt lat="47.44337" lon="6.22211">
        <ele>261.2</ele>
        <time>2014-09-11T08:15:07Z</time>
      </trkpt>
      <trkpt lat="47.44344" lon="6.22221">
        <ele>261.1</ele>
        <time>2014-09-11T08:15:11Z</time>
      </trkpt>
      <trkpt lat="47.44352" lon="6.22229">
        <ele>261.2</ele>
        <time>2014-09-11T08:15:15Z</time>
      </trkpt>
      <trkpt lat="47.4436" lon="6.22238">
        <ele>261.4</ele>
        <time>2014-09-11T08:15:19Z</time>
      </trkpt>
      <trkpt lat="47.44368" lon="6.22245">
        <ele>261.5</ele>
        <time>2014-09-11T08:15:22Z</time>
      </trkpt>
      <trkpt lat="47.44377" lon="6.22253">
        <ele>261.6</ele>
        <time>2014-09-11T08:15:26Z</time>
      </trkpt>
      <trkpt lat="47.44386" lon="6.2226">
        <ele>262</ele>
        <time>2014-09-11T08:15:30Z</time>
      </trkpt>
      <trkpt lat="47.44395" lon="6.22268">
        <ele>262.2</ele>
        <time>2014-09-11T08:15:35Z</time>
      </trkpt>
      <trkpt lat="47.44402" lon="6.22277">
        <ele>262.5</ele>
        <time>2014-09-11T08:15:39Z</time>
      </trkpt>
      <trkpt lat="47.4441" lon="6.22284">
        <ele>262.7</ele>
        <time>2014-09-11T08:15:42Z</time>
      </trkpt>
      <trkpt lat="47.44418" lon="6.22292">
        <ele>262.8</ele>
        <time>2014-09-11T08:15:45Z</time>
      </trkpt>
      <trkpt lat="47.44427" lon="6.22297">
        <ele>263.2</ele>
        <time>2014-09-11T08:15:48Z</time>
      </trkpt>
      <trkpt lat="47.44439" lon="6.22304">
        <ele>263.3</ele>
        <time>2014-09-11T08:15:51Z</time>
      </trkpt>
      <trkpt lat="47.44448" lon="6.22309">
        <ele>263.3</ele>
        <time>2014-09-11T08:15:53Z</time>
      </trkpt>
      <trkpt lat="47.44459" lon="6.22314">
        <ele>263.5</ele>
        <time>2014-09-11T08:15:56Z</time>
      </trkpt>
      <trkpt lat="47.44468" lon="6.22323">
        <ele>263.7</ele>
        <time>2014-09-11T08:16:00Z</time>
      </trkpt>
      <trkpt lat="47.44477" lon="6.22332">
        <ele>263.7</ele>
        <time>2014-09-11T08:16:04Z</time>
      </trkpt>
      <trkpt lat="47.44483" lon="6.22342">
        <ele>264.2</ele>
        <time>2014-09-11T08:16:09Z</time>
      </trkpt>
      <trkpt lat="47.44492" lon="6.22348">
        <ele>264.5</ele>
        <time>2014-09-11T08:16:13Z</time>
      </trkpt>
      <trkpt lat="47.44501" lon="6.22356">
        <ele>264.7</ele>
        <time>2014-09-11T08:16:18Z</time>
      </trkpt>
      <trkpt lat="47.44512" lon="6.22364">
        <ele>264.9</ele>
        <time>2014-09-11T08:16:22Z</time>
      </trkpt>
      <trkpt lat="47.44523" lon="6.22371">
        <ele>265</ele>
        <time>2014-09-11T08:16:25Z</time>
      </trkpt>
      <trkpt lat="47.44532" lon="6.22373">
        <ele>265</ele>
        <time>2014-09-11T08:16:28Z</time>
      </trkpt>
      <trkpt lat="47.44541" lon="6.2238">
        <ele>265.5</ele>
        <time>2014-09-11T08:16:33Z</time>
      </trkpt>
      <trkpt lat="47.44549" lon="6.2239">
        <ele>265.8</ele>
        <time>2014-09-11T08:16:38Z</time>
      </trkpt>
      <trkpt lat="47.44558" lon="6.22397">
        <ele>266.1</ele>
        <time>2014-09-11T08:16:43Z</time>
      </trkpt>
      <trkpt lat="47.44566" lon="6.22406">
        <ele>266.2</ele>
        <time>2014-09-11T08:16:50Z</time>
      </trkpt>
      <trkpt lat="47.44575" lon="6.22412">
        <ele>266.3</ele>
        <time>2014-09-11T08:16:53Z</time>
      </trkpt>
      <trkpt lat="47.44586" lon="6.22417">
        <ele>266.2</ele>
        <time>2014-09-11T08:16:56Z</time>
      </trkpt>
      <trkpt lat="47.44595" lon="6.22424">
        <ele>266.2</ele>
        <time>2014-09-11T08:16:59Z</time>
      </trkpt>
      <trkpt lat="47.44604" lon="6.22428">
        <ele>266.2</ele>
        <time>2014-09-11T08:17:00Z</time>
      </trkpt>
      <trkpt lat="47.44613" lon="6.22433">
        <ele>266.4</ele>
        <time>2014-09-11T08:17:02Z</time>
      </trkpt>
      <trkpt lat="47.44624" lon="6.22439">
        <ele>266.4</ele>
        <time>2014-09-11T08:17:05Z</time>
      </trkpt>
      <trkpt lat="47.44633" lon="6.22446">
        <ele>266.8</ele>
        <time>2014-09-11T08:17:09Z</time>
      </trkpt>
      <trkpt lat="47.44643" lon="6.22451">
        <ele>267.2</ele>
        <time>2014-09-11T08:17:12Z</time>
      </trkpt>
      <trkpt lat="47.44651" lon="6.22455">
        <ele>267.3</ele>
        <time>2014-09-11T08:17:15Z</time>
      </trkpt>
      <trkpt lat="47.44661" lon="6.22461">
        <ele>267.4</ele>
        <time>2014-09-11T08:17:19Z</time>
      </trkpt>
      <trkpt lat="47.4467" lon="6.22466">
        <ele>267.4</ele>
        <time>2014-09-11T08:17:23Z</time>
      </trkpt>
      <trkpt lat="47.4468" lon="6.2247">
        <ele>267.5</ele>
        <time>2014-09-11T08:17:25Z</time>
      </trkpt>
      <trkpt lat="47.4469" lon="6.22474">
        <ele>267.8</ele>
        <time>2014-09-11T08:17:27Z</time>
      </trkpt>
      <trkpt lat="47.44699" lon="6.2248">
        <ele>268</ele>
        <time>2014-09-11T08:17:30Z</time>
      </trkpt>
      <trkpt lat="47.44709" lon="6.22482">
        <ele>268.2</ele>
        <time>2014-09-11T08:17:32Z</time>
      </trkpt>
      <trkpt lat="47.44718" lon="6.22489">
        <ele>268.3</ele>
        <time>2014-09-11T08:17:35Z</time>
      </trkpt>
      <trkpt lat="47.44729" lon="6.22495">
        <ele>268.2</ele>
        <time>2014-09-11T08:17:38Z</time>
      </trkpt>
      <trkpt lat="47.44739" lon="6.225">
        <ele>268.3</ele>
        <time>2014-09-11T08:17:41Z</time>
      </trkpt>
      <trkpt lat="47.44748" lon="6.22505">
        <ele>268.6</ele>
        <time>2014-09-11T08:17:45Z</time>
      </trkpt>
      <trkpt lat="47.44758" lon="6.2251">
        <ele>269</ele>
        <time>2014-09-11T08:17:49Z</time>
      </trkpt>
      <trkpt lat="47.44768" lon="6.22517">
        <ele>269.4</ele>
        <time>2014-09-11T08:17:53Z</time>
      </trkpt>
      <trkpt lat="47.44777" lon="6.22525">
        <ele>269.5</ele>
        <time>2014-09-11T08:17:59Z</time>
      </trkpt>
      <trkpt lat="47.44789" lon="6.22529">
        <ele>269.6</ele>
        <time>2014-09-11T08:18:02Z</time>
      </trkpt>
      <trkpt lat="47.44798" lon="6.22533">
        <ele>269.6</ele>
        <time>2014-09-11T08:18:04Z</time>
      </trkpt>
      <trkpt lat="47.44807" lon="6.22538">
        <ele>269.6</ele>
        <time>2014-09-11T08:18:07Z</time>
      </trkpt>
      <trkpt lat="47.44815" lon="6.22546">
        <ele>269.9</ele>
        <time>2014-09-11T08:18:11Z</time>
      </trkpt>
      <trkpt lat="47.44823" lon="6.22557">
        <ele>270.3</ele>
        <time>2014-09-11T08:18:16Z</time>
      </trkpt>
      <trkpt lat="47.4483" lon="6.22564">
        <ele>270.5</ele>
        <time>2014-09-11T08:18:19Z</time>
      </trkpt>
      <trkpt lat="47.44838" lon="6.22571">
        <ele>270.4</ele>
        <time>2014-09-11T08:18:23Z</time>
      </trkpt>
      <trkpt lat="47.44845" lon="6.22582">
        <ele>270.7</ele>
        <time>2014-09-11T08:18:28Z</time>
      </trkpt>
      <trkpt lat="47.44852" lon="6.22593">
        <ele>270.9</ele>
        <time>2014-09-11T08:18:33Z</time>
      </trkpt>
      <trkpt lat="47.44862" lon="6.22601">
        <ele>271</ele>
        <time>2014-09-11T08:18:36Z</time>
      </trkpt>
      <trkpt lat="47.44874" lon="6.22604">
        <ele>271.1</ele>
        <time>2014-09-11T08:18:38Z</time>
      </trkpt>
      <trkpt lat="47.44887" lon="6.22608">
        <ele>271.2</ele>
        <time>2014-09-11T08:18:40Z</time>
      </trkpt>
      <trkpt lat="47.44898" lon="6.22611">
        <ele>271.3</ele>
        <time>2014-09-11T08:18:42Z</time>
      </trkpt>
      <trkpt lat="47.44906" lon="6.22619">
        <ele>271.5</ele>
        <time>2014-09-11T08:18:45Z</time>
      </trkpt>
      <trkpt lat="47.4491" lon="6.22633">
        <ele>271.7</ele>
        <time>2014-09-11T08:18:49Z</time>
      </trkpt>
      <trkpt lat="47.44914" lon="6.22647">
        <ele>271.7</ele>
        <time>2014-09-11T08:18:54Z</time>
      </trkpt>
      <trkpt lat="47.44922" lon="6.2266">
        <ele>272.2</ele>
        <time>2014-09-11T08:18:59Z</time>
      </trkpt>
      <trkpt lat="47.44933" lon="6.22669">
        <ele>272.2</ele>
        <time>2014-09-11T08:19:02Z</time>
      </trkpt>
      <trkpt lat="47.44942" lon="6.22677">
        <ele>272.5</ele>
        <time>2014-09-11T08:19:06Z</time>
      </trkpt>
      <trkpt lat="47.44954" lon="6.22688">
        <ele>272.6</ele>
        <time>2014-09-11T08:19:10Z</time>
      </trkpt>
      <trkpt lat="47.44964" lon="6.22695">
        <ele>272.8</ele>
        <time>2014-09-11T08:19:13Z</time>
      </trkpt>
      <trkpt lat="47.44973" lon="6.22701">
        <ele>272.9</ele>
        <time>2014-09-11T08:19:16Z</time>
      </trkpt>
      <trkpt lat="47.44981" lon="6.22711">
        <ele>273</ele>
        <time>2014-09-11T08:19:20Z</time>
      </trkpt>
      <trkpt lat="47.44989" lon="6.2272">
        <ele>273.3</ele>
        <time>2014-09-11T08:19:24Z</time>
      </trkpt>
      <trkpt lat="47.44997" lon="6.22727">
        <ele>273.6</ele>
        <time>2014-09-11T08:19:27Z</time>
      </trkpt>
      <trkpt lat="47.45007" lon="6.22734">
        <ele>273.6</ele>
        <time>2014-09-11T08:19:30Z</time>
      </trkpt>
      <trkpt lat="47.45016" lon="6.22741">
        <ele>273.8</ele>
        <time>2014-09-11T08:19:33Z</time>
      </trkpt>
      <trkpt lat="47.45024" lon="6.22747">
        <ele>273.9</ele>
        <time>2014-09-11T08:19:36Z</time>
      </trkpt>
      <trkpt lat="47.45032" lon="6.22754">
        <ele>274</ele>
        <time>2014-09-11T08:19:39Z</time>
      </trkpt>
      <trkpt lat="47.45041" lon="6.22762">
        <ele>274.2</ele>
        <time>2014-09-11T08:19:42Z</time>
      </trkpt>
      <trkpt lat="47.45048" lon="6.22772">
        <ele>274.3</ele>
        <time>2014-09-11T08:19:47Z</time>
      </trkpt>
      <trkpt lat="47.45056" lon="6.22781">
        <ele>274.3</ele>
        <time>2014-09-11T08:19:51Z</time>
      </trkpt>
      <trkpt lat="47.45064" lon="6.22787">
        <ele>274.4</ele>
        <time>2014-09-11T08:19:54Z</time>
      </trkpt>
      <trkpt lat="47.45072" lon="6.22795">
        <ele>274.6</ele>
        <time>2014-09-11T08:19:57Z</time>
      </trkpt>
      <trkpt lat="47.45082" lon="6.22805">
        <ele>274.7</ele>
        <time>2014-09-11T08:20:01Z</time>
      </trkpt>
      <trkpt lat="47.45089" lon="6.22814">
        <ele>275</ele>
        <time>2014-09-11T08:20:04Z</time>
      </trkpt>
      <trkpt lat="47.45099" lon="6.22823">
        <ele>275.5</ele>
        <time>2014-09-11T08:20:07Z</time>
      </trkpt>
      <trkpt lat="47.45109" lon="6.22831">
        <ele>275.7</ele>
        <time>2014-09-11T08:20:10Z</time>
      </trkpt>
      <trkpt lat="47.45118" lon="6.22837">
        <ele>275.9</ele>
        <time>2014-09-11T08:20:12Z</time>
      </trkpt>
      <trkpt lat="47.45127" lon="6.22844">
        <ele>276</ele>
        <time>2014-09-11T08:20:15Z</time>
      </trkpt>
      <trkpt lat="47.45135" lon="6.22854">
        <ele>276.4</ele>
        <time>2014-09-11T08:20:20Z</time>
      </trkpt>
      <trkpt lat="47.45144" lon="6.2286">
        <ele>276.5</ele>
        <time>2014-09-11T08:20:23Z</time>
      </trkpt>
      <trkpt lat="47.45154" lon="6.22864">
        <ele>276.7</ele>
        <time>2014-09-11T08:20:27Z</time>
      </trkpt>
      <trkpt lat="47.45165" lon="6.22872">
        <ele>276.9</ele>
        <time>2014-09-11T08:20:32Z</time>
      </trkpt>
      <trkpt lat="47.45172" lon="6.22881">
        <ele>277.3</ele>
        <time>2014-09-11T08:20:37Z</time>
      </trkpt>
      <trkpt lat="47.4518" lon="6.22886">
        <ele>277.3</ele>
        <time>2014-09-11T08:20:40Z</time>
      </trkpt>
      <trkpt lat="47.45189" lon="6.2289">
        <ele>277.5</ele>
        <time>2014-09-11T08:20:42Z</time>
      </trkpt>
      <trkpt lat="47.45198" lon="6.22895">
        <ele>277.5</ele>
        <time>2014-09-11T08:20:43Z</time>
      </trkpt>
      <trkpt lat="47.45209" lon="6.22904">
        <ele>277.6</ele>
        <time>2014-09-11T08:20:46Z</time>
      </trkpt>
      <trkpt lat="47.45218" lon="6.22911">
        <ele>278</ele>
        <time>2014-09-11T08:20:50Z</time>
      </trkpt>
      <trkpt lat="47.45227" lon="6.22918">
        <ele>278.3</ele>
        <time>2014-09-11T08:20:53Z</time>
      </trkpt>
      <trkpt lat="47.45236" lon="6.22925">
        <ele>278.6</ele>
        <time>2014-09-11T08:20:57Z</time>
      </trkpt>
      <trkpt lat="47.45246" lon="6.22932">
        <ele>278.6</ele>
        <time>2014-09-11T08:21:00Z</time>
      </trkpt>
      <trkpt lat="47.45255" lon="6.22938">
        <ele>278.6</ele>
        <time>2014-09-11T08:21:03Z</time>
      </trkpt>
      <trkpt lat="47.45265" lon="6.22942">
        <ele>278.6</ele>
        <time>2014-09-11T08:21:06Z</time>
      </trkpt>
      <trkpt lat="47.45274" lon="6.22947">
        <ele>278.5</ele>
        <time>2014-09-11T08:21:09Z</time>
      </trkpt>
      <trkpt lat="47.45282" lon="6.22953">
        <ele>278.7</ele>
        <time>2014-09-11T08:21:13Z</time>
      </trkpt>
      <trkpt lat="47.45292" lon="6.22957">
        <ele>278.8</ele>
        <time>2014-09-11T08:21:16Z</time>
      </trkpt>
      <trkpt lat="47.45302" lon="6.22963">
        <ele>279</ele>
        <time>2014-09-11T08:21:19Z</time>
      </trkpt>
      <trkpt lat="47.4531" lon="6.22969">
        <ele>279.1</ele>
        <time>2014-09-11T08:21:22Z</time>
      </trkpt>
      <trkpt lat="47.4532" lon="6.22976">
        <ele>279.4</ele>
        <time>2014-09-11T08:21:26Z</time>
      </trkpt>
      <trkpt lat="47.4533" lon="6.22981">
        <ele>279.6</ele>
        <time>2014-09-11T08:21:29Z</time>
      </trkpt>
      <trkpt lat="47.45341" lon="6.22987">
        <ele>279.5</ele>
        <time>2014-09-11T08:21:33Z</time>
      </trkpt>
      <trkpt lat="47.45351" lon="6.22995">
        <ele>279.5</ele>
        <time>2014-09-11T08:21:37Z</time>
      </trkpt>
      <trkpt lat="47.45362" lon="6.23">
        <ele>279.8</ele>
        <time>2014-09-11T08:21:41Z</time>
      </trkpt>
      <trkpt lat="47.45375" lon="6.23008">
        <ele>280.1</ele>
        <time>2014-09-11T08:21:45Z</time>
      </trkpt>
      <trkpt lat="47.45385" lon="6.23012">
        <ele>280.3</ele>
        <time>2014-09-11T08:21:47Z</time>
      </trkpt>
      <trkpt lat="47.45395" lon="6.23018">
        <ele>280.6</ele>
        <time>2014-09-11T08:21:50Z</time>
      </trkpt>
      <trkpt lat="47.45406" lon="6.23024">
        <ele>280.6</ele>
        <time>2014-09-11T08:21:54Z</time>
      </trkpt>
      <trkpt lat="47.45416" lon="6.23031">
        <ele>281.1</ele>
        <time>2014-09-11T08:21:58Z</time>
      </trkpt>
      <trkpt lat="47.45427" lon="6.23036">
        <ele>281.3</ele>
        <time>2014-09-11T08:22:01Z</time>
      </trkpt>
      <trkpt lat="47.45436" lon="6.23042">
        <ele>281.5</ele>
        <time>2014-09-11T08:22:04Z</time>
      </trkpt>
      <trkpt lat="47.45445" lon="6.23048">
        <ele>281.7</ele>
        <time>2014-09-11T08:22:08Z</time>
      </trkpt>
      <trkpt lat="47.45453" lon="6.23053">
        <ele>281.9</ele>
        <time>2014-09-11T08:22:12Z</time>
      </trkpt>
      <trkpt lat="47.4547" lon="6.23061">
        <ele>282.2</ele>
        <time>2014-09-11T08:22:16Z</time>
      </trkpt>
      <trkpt lat="47.4548" lon="6.23066">
        <ele>282.3</ele>
        <time>2014-09-11T08:22:18Z</time>
      </trkpt>
      <trkpt lat="47.4549" lon="6.23072">
        <ele>282.3</ele>
        <time>2014-09-11T08:22:21Z</time>
      </trkpt>
      <trkpt lat="47.455" lon="6.23078">
        <ele>282.6</ele>
        <time>2014-09-11T08:22:25Z</time>
      </trkpt>
      <trkpt lat="47.45508" lon="6.23084">
        <ele>283</ele>
        <time>2014-09-11T08:22:28Z</time>
      </trkpt>
      <trkpt lat="47.45519" lon="6.23092">
        <ele>283.3</ele>
        <time>2014-09-11T08:22:32Z</time>
      </trkpt>
      <trkpt lat="47.45527" lon="6.23096">
        <ele>283.5</ele>
        <time>2014-09-11T08:22:36Z</time>
      </trkpt>
      <trkpt lat="47.45537" lon="6.231">
        <ele>283.6</ele>
        <time>2014-09-11T08:22:39Z</time>
      </trkpt>
      <trkpt lat="47.45546" lon="6.23102">
        <ele>283.7</ele>
        <time>2014-09-11T08:22:42Z</time>
      </trkpt>
      <trkpt lat="47.45555" lon="6.23111">
        <ele>283.8</ele>
        <time>2014-09-11T08:22:46Z</time>
      </trkpt>
      <trkpt lat="47.45561" lon="6.2312">
        <ele>283.9</ele>
        <time>2014-09-11T08:22:49Z</time>
      </trkpt>
      <trkpt lat="47.45572" lon="6.23127">
        <ele>284.2</ele>
        <time>2014-09-11T08:22:53Z</time>
      </trkpt>
      <trkpt lat="47.4558" lon="6.23131">
        <ele>284.3</ele>
        <time>2014-09-11T08:22:56Z</time>
      </trkpt>
      <trkpt lat="47.45588" lon="6.23139">
        <ele>284.1</ele>
        <time>2014-09-11T08:22:59Z</time>
      </trkpt>
      <trkpt lat="47.45598" lon="6.23145">
        <ele>284.6</ele>
        <time>2014-09-11T08:23:02Z</time>
      </trkpt>
      <trkpt lat="47.45606" lon="6.23152">
        <ele>285</ele>
        <time>2014-09-11T08:23:05Z</time>
      </trkpt>
      <trkpt lat="47.45615" lon="6.23164">
        <ele>285.3</ele>
        <time>2014-09-11T08:23:09Z</time>
      </trkpt>
      <trkpt lat="47.45623" lon="6.23172">
        <ele>285.3</ele>
        <time>2014-09-11T08:23:12Z</time>
      </trkpt>
      <trkpt lat="47.45632" lon="6.23177">
        <ele>285.5</ele>
        <time>2014-09-11T08:23:14Z</time>
      </trkpt>
      <trkpt lat="47.45641" lon="6.23185">
        <ele>285.6</ele>
        <time>2014-09-11T08:23:17Z</time>
      </trkpt>
      <trkpt lat="47.45652" lon="6.23191">
        <ele>285.8</ele>
        <time>2014-09-11T08:23:19Z</time>
      </trkpt>
      <trkpt lat="47.45658" lon="6.23202">
        <ele>286</ele>
        <time>2014-09-11T08:23:23Z</time>
      </trkpt>
      <trkpt lat="47.45668" lon="6.23216">
        <ele>286.2</ele>
        <time>2014-09-11T08:23:28Z</time>
      </trkpt>
      <trkpt lat="47.45675" lon="6.23227">
        <ele>286.3</ele>
        <time>2014-09-11T08:23:31Z</time>
      </trkpt>
      <trkpt lat="47.45681" lon="6.2324">
        <ele>286.7</ele>
        <time>2014-09-11T08:23:35Z</time>
      </trkpt>
      <trkpt lat="47.45689" lon="6.23253">
        <ele>286.9</ele>
        <time>2014-09-11T08:23:39Z</time>
      </trkpt>
      <trkpt lat="47.45696" lon="6.23262">
        <ele>287.2</ele>
        <time>2014-09-11T08:23:42Z</time>
      </trkpt>
      <trkpt lat="47.45707" lon="6.23273">
        <ele>287.4</ele>
        <time>2014-09-11T08:23:46Z</time>
      </trkpt>
      <trkpt lat="47.45717" lon="6.23281">
        <ele>287.4</ele>
        <time>2014-09-11T08:23:48Z</time>
      </trkpt>
      <trkpt lat="47.45725" lon="6.23288">
        <ele>287.3</ele>
        <time>2014-09-11T08:23:49Z</time>
      </trkpt>
      <trkpt lat="47.45732" lon="6.23299">
        <ele>287.5</ele>
        <time>2014-09-11T08:23:51Z</time>
      </trkpt>
      <trkpt lat="47.4574" lon="6.23309">
        <ele>287.7</ele>
        <time>2014-09-11T08:23:54Z</time>
      </trkpt>
      <trkpt lat="47.45749" lon="6.23318">
        <ele>287.8</ele>
        <time>2014-09-11T08:23:57Z</time>
      </trkpt>
      <trkpt lat="47.45757" lon="6.2333">
        <ele>287.6</ele>
        <time>2014-09-11T08:24:01Z</time>
      </trkpt>
      <trkpt lat="47.45764" lon="6.23338">
        <ele>287.8</ele>
        <time>2014-09-11T08:24:05Z</time>
      </trkpt>
      <trkpt lat="47.45773" lon="6.23346">
        <ele>288.1</ele>
        <time>2014-09-11T08:24:09Z</time>
      </trkpt>
      <trkpt lat="47.4578" lon="6.23356">
        <ele>288.2</ele>
        <time>2014-09-11T08:24:12Z</time>
      </trkpt>
      <trkpt lat="47.45788" lon="6.23368">
        <ele>288.2</ele>
        <time>2014-09-11T08:24:16Z</time>
      </trkpt>
      <trkpt lat="47.45796" lon="6.23376">
        <ele>288.5</ele>
        <time>2014-09-11T08:24:20Z</time>
      </trkpt>
      <trkpt lat="47.45803" lon="6.23385">
        <ele>288.7</ele>
        <time>2014-09-11T08:24:24Z</time>
      </trkpt>
      <trkpt lat="47.4581" lon="6.23396">
        <ele>288.6</ele>
        <time>2014-09-11T08:24:32Z</time>
      </trkpt>
      <trkpt lat="47.45817" lon="6.23403">
        <ele>288.9</ele>
        <time>2014-09-11T08:24:38Z</time>
      </trkpt>
      <trkpt lat="47.45824" lon="6.23414">
        <ele>289</ele>
        <time>2014-09-11T08:24:45Z</time>
      </trkpt>
      <trkpt lat="47.45831" lon="6.23425">
        <ele>289</ele>
        <time>2014-09-11T08:24:51Z</time>
      </trkpt>
      <trkpt lat="47.45841" lon="6.23431">
        <ele>289.3</ele>
        <time>2014-09-11T08:24:56Z</time>
      </trkpt>
      <trkpt lat="47.45849" lon="6.23439">
        <ele>289.5</ele>
        <time>2014-09-11T08:25:00Z</time>
      </trkpt>
      <trkpt lat="47.45854" lon="6.23453">
        <ele>289.5</ele>
        <time>2014-09-11T08:25:05Z</time>
      </trkpt>
      <trkpt lat="47.45861" lon="6.23463">
        <ele>289.7</ele>
        <time>2014-09-11T08:25:10Z</time>
      </trkpt>
      <trkpt lat="47.45869" lon="6.23471">
        <ele>290.2</ele>
        <time>2014-09-11T08:25:14Z</time>
      </trkpt>
      <trkpt lat="47.45876" lon="6.23479">
        <ele>290.4</ele>
        <time>2014-09-11T08:25:18Z</time>
      </trkpt>
      <trkpt lat="47.45888" lon="6.2349">
        <ele>290.5</ele>
        <time>2014-09-11T08:25:22Z</time>
      </trkpt>
      <trkpt lat="47.45899" lon="6.23498">
        <ele>290.6</ele>
        <time>2014-09-11T08:25:25Z</time>
      </trkpt>
      <trkpt lat="47.45908" lon="6.23509">
        <ele>290.8</ele>
        <time>2014-09-11T08:25:29Z</time>
      </trkpt>
      <trkpt lat="47.45917" lon="6.23516">
        <ele>290.9</ele>
        <time>2014-09-11T08:25:32Z</time>
      </trkpt>
      <trkpt lat="47.45925" lon="6.23525">
        <ele>291.1</ele>
        <time>2014-09-11T08:25:36Z</time>
      </trkpt>
      <trkpt lat="47.45935" lon="6.23532">
        <ele>291.5</ele>
        <time>2014-09-11T08:25:40Z</time>
      </trkpt>
      <trkpt lat="47.45944" lon="6.23537">
        <ele>291.7</ele>
        <time>2014-09-11T08:25:43Z</time>
      </trkpt>
      <trkpt lat="47.45953" lon="6.23545">
        <ele>291.8</ele>
        <time>2014-09-11T08:25:47Z</time>
      </trkpt>
      <trkpt lat="47.45963" lon="6.23553">
        <ele>291.8</ele>
        <time>2014-09-11T08:25:51Z</time>
      </trkpt>
      <trkpt lat="47.45973" lon="6.23558">
        <ele>292.1</ele>
        <time>2014-09-11T08:25:54Z</time>
      </trkpt>
      <trkpt lat="47.45982" lon="6.23563">
        <ele>292.2</ele>
        <time>2014-09-11T08:25:57Z</time>
      </trkpt>
      <trkpt lat="47.45991" lon="6.2357">
        <ele>292.3</ele>
        <time>2014-09-11T08:26:01Z</time>
      </trkpt>
      <trkpt lat="47.46001" lon="6.23576">
        <ele>292.4</ele>
        <time>2014-09-11T08:26:05Z</time>
      </trkpt>
      <trkpt lat="47.46011" lon="6.2358">
        <ele>292.5</ele>
        <time>2014-09-11T08:26:08Z</time>
      </trkpt>
      <trkpt lat="47.46021" lon="6.23582">
        <ele>292.8</ele>
        <time>2014-09-11T08:26:11Z</time>
      </trkpt>
      <trkpt lat="47.4603" lon="6.23584">
        <ele>293</ele>
        <time>2014-09-11T08:26:14Z</time>
      </trkpt>
      <trkpt lat="47.46039" lon="6.23587">
        <ele>293.3</ele>
        <time>2014-09-11T08:26:18Z</time>
      </trkpt>
      <trkpt lat="47.46049" lon="6.2359">
        <ele>293.4</ele>
        <time>2014-09-11T08:26:21Z</time>
      </trkpt>
      <trkpt lat="47.46062" lon="6.23594">
        <ele>293.7</ele>
        <time>2014-09-11T08:26:24Z</time>
      </trkpt>
      <trkpt lat="47.46071" lon="6.23595">
        <ele>293.8</ele>
        <time>2014-09-11T08:26:26Z</time>
      </trkpt>
      <trkpt lat="47.46081" lon="6.23598">
        <ele>293.9</ele>
        <time>2014-09-11T08:26:29Z</time>
      </trkpt>
      <trkpt lat="47.46092" lon="6.23601">
        <ele>293.9</ele>
        <time>2014-09-11T08:26:33Z</time>
      </trkpt>
      <trkpt lat="47.46101" lon="6.23604">
        <ele>294.1</ele>
        <time>2014-09-11T08:26:38Z</time>
      </trkpt>
      <trkpt lat="47.4611" lon="6.23609">
        <ele>294.1</ele>
        <time>2014-09-11T08:26:46Z</time>
      </trkpt>
      <trkpt lat="47.46119" lon="6.23615">
        <ele>294.2</ele>
        <time>2014-09-11T08:29:07Z</time>
      </trkpt>
      <trkpt lat="47.46129" lon="6.23622">
        <ele>294.4</ele>
        <time>2014-09-11T08:29:11Z</time>
      </trkpt>
      <trkpt lat="47.4614" lon="6.23625">
        <ele>294.9</ele>
        <time>2014-09-11T08:29:14Z</time>
      </trkpt>
      <trkpt lat="47.46153" lon="6.23629">
        <ele>295.2</ele>
        <time>2014-09-11T08:29:17Z</time>
      </trkpt>
      <trkpt lat="47.46163" lon="6.23632">
        <ele>295.4</ele>
        <time>2014-09-11T08:29:19Z</time>
      </trkpt>
      <trkpt lat="47.46172" lon="6.23635">
        <ele>295.5</ele>
        <time>2014-09-11T08:29:21Z</time>
      </trkpt>
      <trkpt lat="47.46186" lon="6.23638">
        <ele>295.7</ele>
        <time>2014-09-11T08:29:24Z</time>
      </trkpt>
      <trkpt lat="47.46196" lon="6.23641">
        <ele>296</ele>
        <time>2014-09-11T08:29:26Z</time>
      </trkpt>
      <trkpt lat="47.46207" lon="6.23644">
        <ele>296.3</ele>
        <time>2014-09-11T08:29:28Z</time>
      </trkpt>
      <trkpt lat="47.46218" lon="6.23648">
        <ele>296.6</ele>
        <time>2014-09-11T08:29:30Z</time>
      </trkpt>
      <trkpt lat="47.46229" lon="6.23652">
        <ele>296.7</ele>
        <time>2014-09-11T08:29:32Z</time>
      </trkpt>
      <trkpt lat="47.46238" lon="6.23655">
        <ele>296.8</ele>
        <time>2014-09-11T08:29:34Z</time>
      </trkpt>
      <trkpt lat="47.46251" lon="6.23663">
        <ele>297.3</ele>
        <time>2014-09-11T08:29:37Z</time>
      </trkpt>
      <trkpt lat="47.46262" lon="6.23667">
        <ele>297.5</ele>
        <time>2014-09-11T08:29:39Z</time>
      </trkpt>
      <trkpt lat="47.46272" lon="6.23671">
        <ele>297.7</ele>
        <time>2014-09-11T08:29:41Z</time>
      </trkpt>
      <trkpt lat="47.46283" lon="6.23674">
        <ele>297.9</ele>
        <time>2014-09-11T08:29:43Z</time>
      </trkpt>
      <trkpt lat="47.46291" lon="6.2368">
        <ele>298.1</ele>
        <time>2014-09-11T08:29:45Z</time>
      </trkpt>
      <trkpt lat="47.46303" lon="6.23682">
        <ele>298.2</ele>
        <time>2014-09-11T08:29:47Z</time>
      </trkpt>
      <trkpt lat="47.46315" lon="6.23684">
        <ele>298.3</ele>
        <time>2014-09-11T08:29:49Z</time>
      </trkpt>
      <trkpt lat="47.46327" lon="6.23685">
        <ele>298.4</ele>
        <time>2014-09-11T08:29:51Z</time>
      </trkpt>
      <trkpt lat="47.46339" lon="6.23684">
        <ele>298.8</ele>
        <time>2014-09-11T08:29:53Z</time>
      </trkpt>
      <trkpt lat="47.4635" lon="6.23684">
        <ele>299</ele>
        <time>2014-09-11T08:29:55Z</time>
      </trkpt>
      <trkpt lat="47.4636" lon="6.23685">
        <ele>299.2</ele>
        <time>2014-09-11T08:29:57Z</time>
      </trkpt>
      <trkpt lat="47.46371" lon="6.23684">
        <ele>299.1</ele>
        <time>2014-09-11T08:29:59Z</time>
      </trkpt>
      <trkpt lat="47.46382" lon="6.23684">
        <ele>299</ele>
        <time>2014-09-11T08:30:01Z</time>
      </trkpt>
      <trkpt lat="47.46392" lon="6.23684">
        <ele>299.1</ele>
        <time>2014-09-11T08:30:03Z</time>
      </trkpt>
      <trkpt lat="47.46402" lon="6.23683">
        <ele>299.1</ele>
        <time>2014-09-11T08:30:05Z</time>
      </trkpt>
      <trkpt lat="47.46414" lon="6.23682">
        <ele>299.2</ele>
        <time>2014-09-11T08:30:08Z</time>
      </trkpt>
      <trkpt lat="47.46423" lon="6.23681">
        <ele>299.3</ele>
        <time>2014-09-11T08:30:11Z</time>
      </trkpt>
      <trkpt lat="47.46432" lon="6.23673">
        <ele>299.1</ele>
        <time>2014-09-11T08:30:16Z</time>
      </trkpt>
      <trkpt lat="47.46431" lon="6.23654">
        <ele>298.6</ele>
        <time>2014-09-11T08:30:20Z</time>
      </trkpt>
      <trkpt lat="47.46429" lon="6.23638">
        <ele>298.3</ele>
        <time>2014-09-11T08:30:22Z</time>
      </trkpt>
      <trkpt lat="47.46432" lon="6.2362">
        <ele>297.4</ele>
        <time>2014-09-11T08:30:24Z</time>
      </trkpt>
      <trkpt lat="47.4644" lon="6.23598">
        <ele>296.1</ele>
        <time>2014-09-11T08:30:26Z</time>
      </trkpt>
      <trkpt lat="47.46448" lon="6.23574">
        <ele>295.2</ele>
        <time>2014-09-11T08:30:28Z</time>
      </trkpt>
      <trkpt lat="47.46452" lon="6.23561">
        <ele>294.5</ele>
        <time>2014-09-11T08:30:29Z</time>
      </trkpt>
      <trkpt lat="47.46456" lon="6.23548">
        <ele>294</ele>
        <time>2014-09-11T08:30:30Z</time>
      </trkpt>
      <trkpt lat="47.46461" lon="6.23536">
        <ele>293.6</ele>
        <time>2014-09-11T08:30:31Z</time>
      </trkpt>
      <trkpt lat="47.46466" lon="6.23524">
        <ele>293.2</ele>
        <time>2014-09-11T08:30:32Z</time>
      </trkpt>
      <trkpt lat="47.46471" lon="6.23512">
        <ele>292.7</ele>
        <time>2014-09-11T08:30:33Z</time>
      </trkpt>
      <trkpt lat="47.46475" lon="6.235">
        <ele>292.4</ele>
        <time>2014-09-11T08:30:34Z</time>
      </trkpt>
      <trkpt lat="47.46483" lon="6.23478">
        <ele>291.8</ele>
        <time>2014-09-11T08:30:36Z</time>
      </trkpt>
      <trkpt lat="47.46491" lon="6.23456">
        <ele>291.6</ele>
        <time>2014-09-11T08:30:38Z</time>
      </trkpt>
      <trkpt lat="47.46497" lon="6.23436">
        <ele>291.1</ele>
        <time>2014-09-11T08:30:40Z</time>
      </trkpt>
      <trkpt lat="47.46503" lon="6.23419">
        <ele>291</ele>
        <time>2014-09-11T08:30:42Z</time>
      </trkpt>
      <trkpt lat="47.46508" lon="6.23405">
        <ele>291.3</ele>
        <time>2014-09-11T08:30:44Z</time>
      </trkpt>
      <trkpt lat="47.46513" lon="6.23391">
        <ele>291.7</ele>
        <time>2014-09-11T08:30:47Z</time>
      </trkpt>
      <trkpt lat="47.46517" lon="6.23378">
        <ele>292.8</ele>
        <time>2014-09-11T08:30:51Z</time>
      </trkpt>
      <trkpt lat="47.46524" lon="6.23368">
        <ele>293.8</ele>
        <time>2014-09-11T08:30:58Z</time>
      </trkpt>
      <trkpt lat="47.46527" lon="6.23354">
        <ele>294.6</ele>
        <time>2014-09-11T08:31:05Z</time>
      </trkpt>
      <trkpt lat="47.46526" lon="6.2334">
        <ele>296</ele>
        <time>2014-09-11T08:42:23Z</time>
      </trkpt>
      <trkpt lat="47.4653" lon="6.23326">
        <ele>296.2</ele>
        <time>2014-09-11T08:42:28Z</time>
      </trkpt>
      <trkpt lat="47.46537" lon="6.23314">
        <ele>296.8</ele>
        <time>2014-09-11T08:42:32Z</time>
      </trkpt>
      <trkpt lat="47.46543" lon="6.23302">
        <ele>297.5</ele>
        <time>2014-09-11T08:42:36Z</time>
      </trkpt>
      <trkpt lat="47.46549" lon="6.2329">
        <ele>297.8</ele>
        <time>2014-09-11T08:42:40Z</time>
      </trkpt>
      <trkpt lat="47.46556" lon="6.23279">
        <ele>298.5</ele>
        <time>2014-09-11T08:42:44Z</time>
      </trkpt>
      <trkpt lat="47.46563" lon="6.23267">
        <ele>299</ele>
        <time>2014-09-11T08:42:48Z</time>
      </trkpt>
      <trkpt lat="47.4657" lon="6.23256">
        <ele>299.4</ele>
        <time>2014-09-11T08:42:52Z</time>
      </trkpt>
      <trkpt lat="47.46579" lon="6.23247">
        <ele>300.2</ele>
        <time>2014-09-11T08:42:56Z</time>
      </trkpt>
      <trkpt lat="47.46586" lon="6.23237">
        <ele>300.8</ele>
        <time>2014-09-11T08:43:00Z</time>
      </trkpt>
      <trkpt lat="47.46592" lon="6.23227">
        <ele>301.2</ele>
        <time>2014-09-11T08:43:04Z</time>
      </trkpt>
      <trkpt lat="47.466" lon="6.23217">
        <ele>301.9</ele>
        <time>2014-09-11T08:43:08Z</time>
      </trkpt>
      <trkpt lat="47.46607" lon="6.23208">
        <ele>302.6</ele>
        <time>2014-09-11T08:43:12Z</time>
      </trkpt>
      <trkpt lat="47.46615" lon="6.23199">
        <ele>303.2</ele>
        <time>2014-09-11T08:43:16Z</time>
      </trkpt>
      <trkpt lat="47.46623" lon="6.2319">
        <ele>304.2</ele>
        <time>2014-09-11T08:43:20Z</time>
      </trkpt>
      <trkpt lat="47.4663" lon="6.2318">
        <ele>304.6</ele>
        <time>2014-09-11T08:43:24Z</time>
      </trkpt>
      <trkpt lat="47.46639" lon="6.23172">
        <ele>305.1</ele>
        <time>2014-09-11T08:43:28Z</time>
      </trkpt>
      <trkpt lat="47.46647" lon="6.23162">
        <ele>305.4</ele>
        <time>2014-09-11T08:43:32Z</time>
      </trkpt>
      <trkpt lat="47.46656" lon="6.23154">
        <ele>305.7</ele>
        <time>2014-09-11T08:43:36Z</time>
      </trkpt>
      <trkpt lat="47.46665" lon="6.23154">
        <ele>306.3</ele>
        <time>2014-09-11T08:43:40Z</time>
      </trkpt>
      <trkpt lat="47.46673" lon="6.23166">
        <ele>307.3</ele>
        <time>2014-09-11T08:43:45Z</time>
      </trkpt>
      <trkpt lat="47.46678" lon="6.23177">
        <ele>308.1</ele>
        <time>2014-09-11T08:43:49Z</time>
      </trkpt>
      <trkpt lat="47.46684" lon="6.23187">
        <ele>308.6</ele>
        <time>2014-09-11T08:43:53Z</time>
      </trkpt>
      <trkpt lat="47.4669" lon="6.23198">
        <ele>309.2</ele>
        <time>2014-09-11T08:43:57Z</time>
      </trkpt>
      <trkpt lat="47.46696" lon="6.23208">
        <ele>309.8</ele>
        <time>2014-09-11T08:44:01Z</time>
      </trkpt>
      <trkpt lat="47.46703" lon="6.23219">
        <ele>310.3</ele>
        <time>2014-09-11T08:44:05Z</time>
      </trkpt>
      <trkpt lat="47.46708" lon="6.2323">
        <ele>310.9</ele>
        <time>2014-09-11T08:44:09Z</time>
      </trkpt>
      <trkpt lat="47.46711" lon="6.23244">
        <ele>311.5</ele>
        <time>2014-09-11T08:44:13Z</time>
      </trkpt>
      <trkpt lat="47.46713" lon="6.23259">
        <ele>311.7</ele>
        <time>2014-09-11T08:44:17Z</time>
      </trkpt>
      <trkpt lat="47.46719" lon="6.23272">
        <ele>312.1</ele>
        <time>2014-09-11T08:44:21Z</time>
      </trkpt>
      <trkpt lat="47.46725" lon="6.23284">
        <ele>312.5</ele>
        <time>2014-09-11T08:44:25Z</time>
      </trkpt>
      <trkpt lat="47.46732" lon="6.23296">
        <ele>312.6</ele>
        <time>2014-09-11T08:44:29Z</time>
      </trkpt>
      <trkpt lat="47.46738" lon="6.23308">
        <ele>313</ele>
        <time>2014-09-11T08:44:33Z</time>
      </trkpt>
      <trkpt lat="47.46745" lon="6.2332">
        <ele>313.4</ele>
        <time>2014-09-11T08:44:37Z</time>
      </trkpt>
      <trkpt lat="47.46751" lon="6.23334">
        <ele>313.7</ele>
        <time>2014-09-11T08:44:41Z</time>
      </trkpt>
      <trkpt lat="47.4676" lon="6.23343">
        <ele>313.8</ele>
        <time>2014-09-11T08:44:45Z</time>
      </trkpt>
      <trkpt lat="47.46768" lon="6.23352">
        <ele>314.1</ele>
        <time>2014-09-11T08:44:49Z</time>
      </trkpt>
      <trkpt lat="47.46776" lon="6.23365">
        <ele>314.3</ele>
        <time>2014-09-11T08:44:53Z</time>
      </trkpt>
      <trkpt lat="47.46784" lon="6.23378">
        <ele>314.4</ele>
        <time>2014-09-11T08:44:57Z</time>
      </trkpt>
      <trkpt lat="47.4679" lon="6.23388">
        <ele>314.6</ele>
        <time>2014-09-11T08:45:00Z</time>
      </trkpt>
      <trkpt lat="47.46797" lon="6.23398">
        <ele>314.7</ele>
        <time>2014-09-11T08:45:03Z</time>
      </trkpt>
      <trkpt lat="47.46803" lon="6.23408">
        <ele>314.8</ele>
        <time>2014-09-11T08:45:06Z</time>
      </trkpt>
      <trkpt lat="47.46811" lon="6.2342">
        <ele>314.8</ele>
        <time>2014-09-11T08:45:10Z</time>
      </trkpt>
      <trkpt lat="47.46818" lon="6.2343">
        <ele>314.5</ele>
        <time>2014-09-11T08:45:13Z</time>
      </trkpt>
      <trkpt lat="47.46825" lon="6.23442">
        <ele>314.1</ele>
        <time>2014-09-11T08:45:16Z</time>
      </trkpt>
      <trkpt lat="47.46834" lon="6.23454">
        <ele>313.7</ele>
        <time>2014-09-11T08:45:19Z</time>
      </trkpt>
      <trkpt lat="47.46841" lon="6.23465">
        <ele>313.5</ele>
        <time>2014-09-11T08:45:21Z</time>
      </trkpt>
      <trkpt lat="47.4685" lon="6.23477">
        <ele>312.7</ele>
        <time>2014-09-11T08:45:23Z</time>
      </trkpt>
      <trkpt lat="47.46859" lon="6.23491">
        <ele>312</ele>
        <time>2014-09-11T08:45:25Z</time>
      </trkpt>
      <trkpt lat="47.46869" lon="6.23506">
        <ele>311.1</ele>
        <time>2014-09-11T08:45:27Z</time>
      </trkpt>
      <trkpt lat="47.4688" lon="6.23521">
        <ele>310.2</ele>
        <time>2014-09-11T08:45:29Z</time>
      </trkpt>
      <trkpt lat="47.4689" lon="6.23536">
        <ele>309.7</ele>
        <time>2014-09-11T08:45:31Z</time>
      </trkpt>
      <trkpt lat="47.469" lon="6.2355">
        <ele>308.9</ele>
        <time>2014-09-11T08:45:33Z</time>
      </trkpt>
      <trkpt lat="47.46908" lon="6.23561">
        <ele>308.5</ele>
        <time>2014-09-11T08:45:35Z</time>
      </trkpt>
      <trkpt lat="47.46915" lon="6.23572">
        <ele>308.1</ele>
        <time>2014-09-11T08:45:37Z</time>
      </trkpt>
      <trkpt lat="47.46925" lon="6.23584">
        <ele>308</ele>
        <time>2014-09-11T08:45:40Z</time>
      </trkpt>
      <trkpt lat="47.46932" lon="6.23594">
        <ele>308</ele>
        <time>2014-09-11T08:45:43Z</time>
      </trkpt>
      <trkpt lat="47.46939" lon="6.23606">
        <ele>308.2</ele>
        <time>2014-09-11T08:45:47Z</time>
      </trkpt>
      <trkpt lat="47.46947" lon="6.23616">
        <ele>308.3</ele>
        <time>2014-09-11T08:45:51Z</time>
      </trkpt>
      <trkpt lat="47.46954" lon="6.23627">
        <ele>308.5</ele>
        <time>2014-09-11T08:45:55Z</time>
      </trkpt>
      <trkpt lat="47.46961" lon="6.23638">
        <ele>308.6</ele>
        <time>2014-09-11T08:45:59Z</time>
      </trkpt>
      <trkpt lat="47.46969" lon="6.2365">
        <ele>309</ele>
        <time>2014-09-11T08:46:03Z</time>
      </trkpt>
      <trkpt lat="47.46977" lon="6.23661">
        <ele>309.4</ele>
        <time>2014-09-11T08:46:07Z</time>
      </trkpt>
      <trkpt lat="47.46986" lon="6.23672">
        <ele>309.7</ele>
        <time>2014-09-11T08:46:11Z</time>
      </trkpt>
      <trkpt lat="47.46994" lon="6.23685">
        <ele>309.8</ele>
        <time>2014-09-11T08:46:15Z</time>
      </trkpt>
      <trkpt lat="47.47001" lon="6.23696">
        <ele>310.1</ele>
        <time>2014-09-11T08:46:19Z</time>
      </trkpt>
      <trkpt lat="47.47009" lon="6.23707">
        <ele>310.4</ele>
        <time>2014-09-11T08:46:23Z</time>
      </trkpt>
      <trkpt lat="47.47017" lon="6.23717">
        <ele>310</ele>
        <time>2014-09-11T08:46:27Z</time>
      </trkpt>
      <trkpt lat="47.47024" lon="6.23729">
        <ele>310.6</ele>
        <time>2014-09-11T08:46:31Z</time>
      </trkpt>
      <trkpt lat="47.47031" lon="6.23738">
        <ele>310.5</ele>
        <time>2014-09-11T08:46:34Z</time>
      </trkpt>
      <trkpt lat="47.47038" lon="6.23748">
        <ele>310.1</ele>
        <time>2014-09-11T08:46:37Z</time>
      </trkpt>
      <trkpt lat="47.47045" lon="6.23758">
        <ele>310</ele>
        <time>2014-09-11T08:46:40Z</time>
      </trkpt>
      <trkpt lat="47.47052" lon="6.23768">
        <ele>309.9</ele>
        <time>2014-09-11T08:46:43Z</time>
      </trkpt>
      <trkpt lat="47.47061" lon="6.23779">
        <ele>309.8</ele>
        <time>2014-09-11T08:46:47Z</time>
      </trkpt>
      <trkpt lat="47.47067" lon="6.23788">
        <ele>309.6</ele>
        <time>2014-09-11T08:46:50Z</time>
      </trkpt>
      <trkpt lat="47.47074" lon="6.23798">
        <ele>309.2</ele>
        <time>2014-09-11T08:46:53Z</time>
      </trkpt>
      <trkpt lat="47.4708" lon="6.23807">
        <ele>308.6</ele>
        <time>2014-09-11T08:46:56Z</time>
      </trkpt>
      <trkpt lat="47.47087" lon="6.23816">
        <ele>308.1</ele>
        <time>2014-09-11T08:46:59Z</time>
      </trkpt>
      <trkpt lat="47.47094" lon="6.23827">
        <ele>308.1</ele>
        <time>2014-09-11T08:47:02Z</time>
      </trkpt>
      <trkpt lat="47.47102" lon="6.23838">
        <ele>307.9</ele>
        <time>2014-09-11T08:47:05Z</time>
      </trkpt>
      <trkpt lat="47.4711" lon="6.2385">
        <ele>307.7</ele>
        <time>2014-09-11T08:47:08Z</time>
      </trkpt>
      <trkpt lat="47.47118" lon="6.23862">
        <ele>307.3</ele>
        <time>2014-09-11T08:47:11Z</time>
      </trkpt>
      <trkpt lat="47.47126" lon="6.23874">
        <ele>307.2</ele>
        <time>2014-09-11T08:47:14Z</time>
      </trkpt>
      <trkpt lat="47.47134" lon="6.23886">
        <ele>306.8</ele>
        <time>2014-09-11T08:47:17Z</time>
      </trkpt>
      <trkpt lat="47.47143" lon="6.23898">
        <ele>306.5</ele>
        <time>2014-09-11T08:47:20Z</time>
      </trkpt>
      <trkpt lat="47.47151" lon="6.2391">
        <ele>306</ele>
        <time>2014-09-11T08:47:23Z</time>
      </trkpt>
      <trkpt lat="47.47159" lon="6.23922">
        <ele>305.5</ele>
        <time>2014-09-11T08:47:26Z</time>
      </trkpt>
      <trkpt lat="47.47168" lon="6.23935">
        <ele>305.3</ele>
        <time>2014-09-11T08:47:29Z</time>
      </trkpt>
      <trkpt lat="47.47177" lon="6.23948">
        <ele>304.9</ele>
        <time>2014-09-11T08:47:32Z</time>
      </trkpt>
      <trkpt lat="47.47186" lon="6.23961">
        <ele>304.6</ele>
        <time>2014-09-11T08:47:35Z</time>
      </trkpt>
      <trkpt lat="47.47195" lon="6.23975">
        <ele>304.8</ele>
        <time>2014-09-11T08:47:38Z</time>
      </trkpt>
      <trkpt lat="47.47205" lon="6.23988">
        <ele>304</ele>
        <time>2014-09-11T08:47:41Z</time>
      </trkpt>
      <trkpt lat="47.47215" lon="6.24002">
        <ele>303.3</ele>
        <time>2014-09-11T08:47:44Z</time>
      </trkpt>
      <trkpt lat="47.47221" lon="6.24012">
        <ele>303</ele>
        <time>2014-09-11T08:47:46Z</time>
      </trkpt>
      <trkpt lat="47.47231" lon="6.24025">
        <ele>302.5</ele>
        <time>2014-09-11T08:47:49Z</time>
      </trkpt>
      <trkpt lat="47.4724" lon="6.24027">
        <ele>301.9</ele>
        <time>2014-09-11T08:47:52Z</time>
      </trkpt>
      <trkpt lat="47.47247" lon="6.24015">
        <ele>301.7</ele>
        <time>2014-09-11T08:47:55Z</time>
      </trkpt>
      <trkpt lat="47.47255" lon="6.24003">
        <ele>301.6</ele>
        <time>2014-09-11T08:47:58Z</time>
      </trkpt>
      <trkpt lat="47.47261" lon="6.2399">
        <ele>301.3</ele>
        <time>2014-09-11T08:48:01Z</time>
      </trkpt>
      <trkpt lat="47.47266" lon="6.23977">
        <ele>301.4</ele>
        <time>2014-09-11T08:48:04Z</time>
      </trkpt>
      <trkpt lat="47.47272" lon="6.23966">
        <ele>301.3</ele>
        <time>2014-09-11T08:48:06Z</time>
      </trkpt>
      <trkpt lat="47.47279" lon="6.23956">
        <ele>301.2</ele>
        <time>2014-09-11T08:48:08Z</time>
      </trkpt>
      <trkpt lat="47.47288" lon="6.23943">
        <ele>301</ele>
        <time>2014-09-11T08:48:11Z</time>
      </trkpt>
      <trkpt lat="47.47296" lon="6.2393">
        <ele>301.2</ele>
        <time>2014-09-11T08:48:14Z</time>
      </trkpt>
      <trkpt lat="47.47303" lon="6.23919">
        <ele>301.4</ele>
        <time>2014-09-11T08:48:17Z</time>
      </trkpt>
      <trkpt lat="47.4731" lon="6.23908">
        <ele>301.3</ele>
        <time>2014-09-11T08:48:20Z</time>
      </trkpt>
      <trkpt lat="47.47317" lon="6.23897">
        <ele>301.4</ele>
        <time>2014-09-11T08:48:23Z</time>
      </trkpt>
      <trkpt lat="47.47325" lon="6.23886">
        <ele>301.1</ele>
        <time>2014-09-11T08:48:26Z</time>
      </trkpt>
      <trkpt lat="47.47332" lon="6.23876">
        <ele>300.9</ele>
        <time>2014-09-11T08:48:29Z</time>
      </trkpt>
      <trkpt lat="47.47341" lon="6.23864">
        <ele>300.6</ele>
        <time>2014-09-11T08:48:32Z</time>
      </trkpt>
      <trkpt lat="47.4735" lon="6.23851">
        <ele>300.2</ele>
        <time>2014-09-11T08:48:35Z</time>
      </trkpt>
      <trkpt lat="47.47358" lon="6.2384">
        <ele>299.8</ele>
        <time>2014-09-11T08:48:38Z</time>
      </trkpt>
      <trkpt lat="47.47363" lon="6.23825">
        <ele>299</ele>
        <time>2014-09-11T08:48:42Z</time>
      </trkpt>
      <trkpt lat="47.47356" lon="6.23812">
        <ele>298.1</ele>
        <time>2014-09-11T08:48:45Z</time>
      </trkpt>
      <trkpt lat="47.47346" lon="6.23802">
        <ele>297.2</ele>
        <time>2014-09-11T08:48:48Z</time>
      </trkpt>
      <trkpt lat="47.47335" lon="6.23792">
        <ele>296.5</ele>
        <time>2014-09-11T08:48:51Z</time>
      </trkpt>
      <trkpt lat="47.47325" lon="6.23783">
        <ele>295.8</ele>
        <time>2014-09-11T08:48:54Z</time>
      </trkpt>
      <trkpt lat="47.47314" lon="6.23773">
        <ele>294.9</ele>
        <time>2014-09-11T08:48:57Z</time>
      </trkpt>
      <trkpt lat="47.47305" lon="6.23764">
        <ele>294.3</ele>
        <time>2014-09-11T08:49:00Z</time>
      </trkpt>
      <trkpt lat="47.47305" lon="6.23749">
        <ele>294</ele>
        <time>2014-09-11T08:49:04Z</time>
      </trkpt>
      <trkpt lat="47.47316" lon="6.23748">
        <ele>293.7</ele>
        <time>2014-09-11T08:49:07Z</time>
      </trkpt>
      <trkpt lat="47.47325" lon="6.23744">
        <ele>293.2</ele>
        <time>2014-09-11T08:49:10Z</time>
      </trkpt>
      <trkpt lat="47.47329" lon="6.23726">
        <ele>292.4</ele>
        <time>2014-09-11T08:49:14Z</time>
      </trkpt>
      <trkpt lat="47.47332" lon="6.23713">
        <ele>292.4</ele>
        <time>2014-09-11T08:49:17Z</time>
      </trkpt>
      <trkpt lat="47.47341" lon="6.23707">
        <ele>292.1</ele>
        <time>2014-09-11T08:49:20Z</time>
      </trkpt>
      <trkpt lat="47.47351" lon="6.23703">
        <ele>292.1</ele>
        <time>2014-09-11T08:49:23Z</time>
      </trkpt>
      <trkpt lat="47.47362" lon="6.23699">
        <ele>292.1</ele>
        <time>2014-09-11T08:49:26Z</time>
      </trkpt>
      <trkpt lat="47.47371" lon="6.23695">
        <ele>291.7</ele>
        <time>2014-09-11T08:49:29Z</time>
      </trkpt>
      <trkpt lat="47.47377" lon="6.23684">
        <ele>291.7</ele>
        <time>2014-09-11T08:49:32Z</time>
      </trkpt>
      <trkpt lat="47.47377" lon="6.23669">
        <ele>291.5</ele>
        <time>2014-09-11T08:49:35Z</time>
      </trkpt>
      <trkpt lat="47.47379" lon="6.23654">
        <ele>291.6</ele>
        <time>2014-09-11T08:49:38Z</time>
      </trkpt>
      <trkpt lat="47.47388" lon="6.23649">
        <ele>291.8</ele>
        <time>2014-09-11T08:49:41Z</time>
      </trkpt>
      <trkpt lat="47.47399" lon="6.23646">
        <ele>291.7</ele>
        <time>2014-09-11T08:49:44Z</time>
      </trkpt>
      <trkpt lat="47.4741" lon="6.23642">
        <ele>291.5</ele>
        <time>2014-09-11T08:49:47Z</time>
      </trkpt>
      <trkpt lat="47.47421" lon="6.23639">
        <ele>291.6</ele>
        <time>2014-09-11T08:49:50Z</time>
      </trkpt>
      <trkpt lat="47.47431" lon="6.23635">
        <ele>291.6</ele>
        <time>2014-09-11T08:49:53Z</time>
      </trkpt>
      <trkpt lat="47.47442" lon="6.2363">
        <ele>291.6</ele>
        <time>2014-09-11T08:49:56Z</time>
      </trkpt>
      <trkpt lat="47.47451" lon="6.23626">
        <ele>291.6</ele>
        <time>2014-09-11T08:49:59Z</time>
      </trkpt>
      <trkpt lat="47.47462" lon="6.23622">
        <ele>291.7</ele>
        <time>2014-09-11T08:50:02Z</time>
      </trkpt>
      <trkpt lat="47.47473" lon="6.23617">
        <ele>291.6</ele>
        <time>2014-09-11T08:50:05Z</time>
      </trkpt>
      <trkpt lat="47.47484" lon="6.23613">
        <ele>291.6</ele>
        <time>2014-09-11T08:50:08Z</time>
      </trkpt>
      <trkpt lat="47.47495" lon="6.23608">
        <ele>291.9</ele>
        <time>2014-09-11T08:50:11Z</time>
      </trkpt>
      <trkpt lat="47.47507" lon="6.23603">
        <ele>291.9</ele>
        <time>2014-09-11T08:50:14Z</time>
      </trkpt>
      <trkpt lat="47.47518" lon="6.236">
        <ele>291.8</ele>
        <time>2014-09-11T08:50:17Z</time>
      </trkpt>
      <trkpt lat="47.47529" lon="6.23597">
        <ele>291.7</ele>
        <time>2014-09-11T08:50:20Z</time>
      </trkpt>
      <trkpt lat="47.47539" lon="6.23593">
        <ele>291.7</ele>
        <time>2014-09-11T08:50:23Z</time>
      </trkpt>
      <trkpt lat="47.47549" lon="6.23588">
        <ele>291.8</ele>
        <time>2014-09-11T08:50:26Z</time>
      </trkpt>
      <trkpt lat="47.47558" lon="6.23583">
        <ele>291.9</ele>
        <time>2014-09-11T08:50:29Z</time>
      </trkpt>
      <trkpt lat="47.47569" lon="6.23578">
        <ele>292</ele>
        <time>2014-09-11T08:50:32Z</time>
      </trkpt>
      <trkpt lat="47.47579" lon="6.23573">
        <ele>291.8</ele>
        <time>2014-09-11T08:50:35Z</time>
      </trkpt>
      <trkpt lat="47.4759" lon="6.23569">
        <ele>291.8</ele>
        <time>2014-09-11T08:50:38Z</time>
      </trkpt>
      <trkpt lat="47.47599" lon="6.23563">
        <ele>292</ele>
        <time>2014-09-11T08:50:41Z</time>
      </trkpt>
      <trkpt lat="47.4761" lon="6.2356">
        <ele>292</ele>
        <time>2014-09-11T08:50:44Z</time>
      </trkpt>
      <trkpt lat="47.4762" lon="6.23555">
        <ele>291.8</ele>
        <time>2014-09-11T08:50:47Z</time>
      </trkpt>
      <trkpt lat="47.47629" lon="6.23551">
        <ele>291.6</ele>
        <time>2014-09-11T08:50:50Z</time>
      </trkpt>
      <trkpt lat="47.4764" lon="6.23546">
        <ele>291.6</ele>
        <time>2014-09-11T08:50:53Z</time>
      </trkpt>
      <trkpt lat="47.47651" lon="6.23541">
        <ele>291.5</ele>
        <time>2014-09-11T08:50:56Z</time>
      </trkpt>
      <trkpt lat="47.47662" lon="6.23536">
        <ele>291.2</ele>
        <time>2014-09-11T08:50:59Z</time>
      </trkpt>
      <trkpt lat="47.47673" lon="6.23532">
        <ele>291.1</ele>
        <time>2014-09-11T08:51:02Z</time>
      </trkpt>
      <trkpt lat="47.47684" lon="6.23527">
        <ele>291.1</ele>
        <time>2014-09-11T08:51:05Z</time>
      </trkpt>
      <trkpt lat="47.47695" lon="6.23522">
        <ele>290.8</ele>
        <time>2014-09-11T08:51:08Z</time>
      </trkpt>
      <trkpt lat="47.47704" lon="6.23518">
        <ele>290.7</ele>
        <time>2014-09-11T08:51:11Z</time>
      </trkpt>
      <trkpt lat="47.47715" lon="6.23513">
        <ele>290.8</ele>
        <time>2014-09-11T08:51:14Z</time>
      </trkpt>
      <trkpt lat="47.47727" lon="6.23511">
        <ele>290.8</ele>
        <time>2014-09-11T08:51:17Z</time>
      </trkpt>
      <trkpt lat="47.47738" lon="6.2351">
        <ele>290.6</ele>
        <time>2014-09-11T08:51:20Z</time>
      </trkpt>
      <trkpt lat="47.47747" lon="6.23506">
        <ele>290.6</ele>
        <time>2014-09-11T08:51:23Z</time>
      </trkpt>
      <trkpt lat="47.47757" lon="6.23502">
        <ele>290.4</ele>
        <time>2014-09-11T08:51:26Z</time>
      </trkpt>
      <trkpt lat="47.47767" lon="6.23498">
        <ele>290.1</ele>
        <time>2014-09-11T08:51:29Z</time>
      </trkpt>
      <trkpt lat="47.47777" lon="6.23496">
        <ele>289.9</ele>
        <time>2014-09-11T08:51:32Z</time>
      </trkpt>
      <trkpt lat="47.47788" lon="6.23493">
        <ele>290</ele>
        <time>2014-09-11T08:51:35Z</time>
      </trkpt>
      <trkpt lat="47.47799" lon="6.2349">
        <ele>289.6</ele>
        <time>2014-09-11T08:51:38Z</time>
      </trkpt>
      <trkpt lat="47.47811" lon="6.23488">
        <ele>289.2</ele>
        <time>2014-09-11T08:51:41Z</time>
      </trkpt>
      <trkpt lat="47.47823" lon="6.23486">
        <ele>289.1</ele>
        <time>2014-09-11T08:51:44Z</time>
      </trkpt>
      <trkpt lat="47.47836" lon="6.23483">
        <ele>288.9</ele>
        <time>2014-09-11T08:51:47Z</time>
      </trkpt>
      <trkpt lat="47.47848" lon="6.2348">
        <ele>288.6</ele>
        <time>2014-09-11T08:51:50Z</time>
      </trkpt>
      <trkpt lat="47.47859" lon="6.23478">
        <ele>288.4</ele>
        <time>2014-09-11T08:51:53Z</time>
      </trkpt>
      <trkpt lat="47.47871" lon="6.23476">
        <ele>288.1</ele>
        <time>2014-09-11T08:51:56Z</time>
      </trkpt>
      <trkpt lat="47.47884" lon="6.23475">
        <ele>287.9</ele>
        <time>2014-09-11T08:51:59Z</time>
      </trkpt>
      <trkpt lat="47.47896" lon="6.23475">
        <ele>287.5</ele>
        <time>2014-09-11T08:52:02Z</time>
      </trkpt>
      <trkpt lat="47.47908" lon="6.23475">
        <ele>287.5</ele>
        <time>2014-09-11T08:52:05Z</time>
      </trkpt>
      <trkpt lat="47.4792" lon="6.23475">
        <ele>287.4</ele>
        <time>2014-09-11T08:52:08Z</time>
      </trkpt>
      <trkpt lat="47.47934" lon="6.23474">
        <ele>287</ele>
        <time>2014-09-11T08:52:11Z</time>
      </trkpt>
      <trkpt lat="47.47946" lon="6.23474">
        <ele>287</ele>
        <time>2014-09-11T08:52:14Z</time>
      </trkpt>
      <trkpt lat="47.47959" lon="6.23474">
        <ele>286.8</ele>
        <time>2014-09-11T08:52:17Z</time>
      </trkpt>
      <trkpt lat="47.47971" lon="6.23475">
        <ele>286.7</ele>
        <time>2014-09-11T08:52:20Z</time>
      </trkpt>
      <trkpt lat="47.47984" lon="6.23475">
        <ele>286.5</ele>
        <time>2014-09-11T08:52:23Z</time>
      </trkpt>
      <trkpt lat="47.47996" lon="6.23475">
        <ele>286.3</ele>
        <time>2014-09-11T08:52:26Z</time>
      </trkpt>
      <trkpt lat="47.48009" lon="6.23476">
        <ele>286.1</ele>
        <time>2014-09-11T08:52:29Z</time>
      </trkpt>
      <trkpt lat="47.48023" lon="6.23476">
        <ele>286</ele>
        <time>2014-09-11T08:52:32Z</time>
      </trkpt>
      <trkpt lat="47.48035" lon="6.23477">
        <ele>285.7</ele>
        <time>2014-09-11T08:52:35Z</time>
      </trkpt>
      <trkpt lat="47.48048" lon="6.23477">
        <ele>285.5</ele>
        <time>2014-09-11T08:52:38Z</time>
      </trkpt>
      <trkpt lat="47.4806" lon="6.23479">
        <ele>285.1</ele>
        <time>2014-09-11T08:52:41Z</time>
      </trkpt>
      <trkpt lat="47.48072" lon="6.23479">
        <ele>284.6</ele>
        <time>2014-09-11T08:52:44Z</time>
      </trkpt>
      <trkpt lat="47.48084" lon="6.2348">
        <ele>284.2</ele>
        <time>2014-09-11T08:52:47Z</time>
      </trkpt>
      <trkpt lat="47.48096" lon="6.2348">
        <ele>284</ele>
        <time>2014-09-11T08:52:50Z</time>
      </trkpt>
      <trkpt lat="47.48106" lon="6.2348">
        <ele>284</ele>
        <time>2014-09-11T08:52:52Z</time>
      </trkpt>
      <trkpt lat="47.48118" lon="6.23479">
        <ele>283.9</ele>
        <time>2014-09-11T08:52:55Z</time>
      </trkpt>
      <trkpt lat="47.48128" lon="6.23478">
        <ele>283.7</ele>
        <time>2014-09-11T08:52:57Z</time>
      </trkpt>
      <trkpt lat="47.48138" lon="6.23478">
        <ele>283.5</ele>
        <time>2014-09-11T08:52:59Z</time>
      </trkpt>
      <trkpt lat="47.48147" lon="6.23476">
        <ele>283.3</ele>
        <time>2014-09-11T08:53:01Z</time>
      </trkpt>
      <trkpt lat="47.48156" lon="6.23476">
        <ele>283.1</ele>
        <time>2014-09-11T08:53:03Z</time>
      </trkpt>
      <trkpt lat="47.4817" lon="6.23476">
        <ele>282.8</ele>
        <time>2014-09-11T08:53:06Z</time>
      </trkpt>
      <trkpt lat="47.48179" lon="6.23475">
        <ele>282.7</ele>
        <time>2014-09-11T08:53:08Z</time>
      </trkpt>
      <trkpt lat="47.48192" lon="6.23475">
        <ele>282.8</ele>
        <time>2014-09-11T08:53:11Z</time>
      </trkpt>
      <trkpt lat="47.48201" lon="6.23474">
        <ele>282.4</ele>
        <time>2014-09-11T08:53:13Z</time>
      </trkpt>
      <trkpt lat="47.4821" lon="6.23473">
        <ele>282.1</ele>
        <time>2014-09-11T08:53:15Z</time>
      </trkpt>
      <trkpt lat="47.48219" lon="6.23472">
        <ele>282</ele>
        <time>2014-09-11T08:53:17Z</time>
      </trkpt>
      <trkpt lat="47.48233" lon="6.2347">
        <ele>281.7</ele>
        <time>2014-09-11T08:53:20Z</time>
      </trkpt>
      <trkpt lat="47.48246" lon="6.23466">
        <ele>281.7</ele>
        <time>2014-09-11T08:53:23Z</time>
      </trkpt>
      <trkpt lat="47.48258" lon="6.23462">
        <ele>281.2</ele>
        <time>2014-09-11T08:53:26Z</time>
      </trkpt>
      <trkpt lat="47.4827" lon="6.23458">
        <ele>281.1</ele>
        <time>2014-09-11T08:53:29Z</time>
      </trkpt>
      <trkpt lat="47.48281" lon="6.23453">
        <ele>280.7</ele>
        <time>2014-09-11T08:53:32Z</time>
      </trkpt>
      <trkpt lat="47.48293" lon="6.23449">
        <ele>280.3</ele>
        <time>2014-09-11T08:53:35Z</time>
      </trkpt>
      <trkpt lat="47.48305" lon="6.23443">
        <ele>280.2</ele>
        <time>2014-09-11T08:53:38Z</time>
      </trkpt>
      <trkpt lat="47.48317" lon="6.23436">
        <ele>280.2</ele>
        <time>2014-09-11T08:53:41Z</time>
      </trkpt>
      <trkpt lat="47.48329" lon="6.23429">
        <ele>279.7</ele>
        <time>2014-09-11T08:53:44Z</time>
      </trkpt>
      <trkpt lat="47.48337" lon="6.2342">
        <ele>279.6</ele>
        <time>2014-09-11T08:53:47Z</time>
      </trkpt>
      <trkpt lat="47.48348" lon="6.23411">
        <ele>279.4</ele>
        <time>2014-09-11T08:53:50Z</time>
      </trkpt>
      <trkpt lat="47.48358" lon="6.23402">
        <ele>279.5</ele>
        <time>2014-09-11T08:53:53Z</time>
      </trkpt>
      <trkpt lat="47.48367" lon="6.23393">
        <ele>279.3</ele>
        <time>2014-09-11T08:53:56Z</time>
      </trkpt>
      <trkpt lat="47.48378" lon="6.23384">
        <ele>279.3</ele>
        <time>2014-09-11T08:53:59Z</time>
      </trkpt>
      <trkpt lat="47.48389" lon="6.23374">
        <ele>279.1</ele>
        <time>2014-09-11T08:54:02Z</time>
      </trkpt>
      <trkpt lat="47.48397" lon="6.23364">
        <ele>278.9</ele>
        <time>2014-09-11T08:54:05Z</time>
      </trkpt>
      <trkpt lat="47.48406" lon="6.23354">
        <ele>278.7</ele>
        <time>2014-09-11T08:54:08Z</time>
      </trkpt>
      <trkpt lat="47.48414" lon="6.23347">
        <ele>278.7</ele>
        <time>2014-09-11T08:54:10Z</time>
      </trkpt>
      <trkpt lat="47.48425" lon="6.23339">
        <ele>278.6</ele>
        <time>2014-09-11T08:54:12Z</time>
      </trkpt>
      <trkpt lat="47.48434" lon="6.23332">
        <ele>278.7</ele>
        <time>2014-09-11T08:54:14Z</time>
      </trkpt>
      <trkpt lat="47.48443" lon="6.23325">
        <ele>278.6</ele>
        <time>2014-09-11T08:54:16Z</time>
      </trkpt>
      <trkpt lat="47.48452" lon="6.23314">
        <ele>278.5</ele>
        <time>2014-09-11T08:54:18Z</time>
      </trkpt>
      <trkpt lat="47.4846" lon="6.23306">
        <ele>278.1</ele>
        <time>2014-09-11T08:54:20Z</time>
      </trkpt>
      <trkpt lat="47.48471" lon="6.23295">
        <ele>277.8</ele>
        <time>2014-09-11T08:54:23Z</time>
      </trkpt>
      <trkpt lat="47.48478" lon="6.23286">
        <ele>277.6</ele>
        <time>2014-09-11T08:54:25Z</time>
      </trkpt>
      <trkpt lat="47.48485" lon="6.23277">
        <ele>277.5</ele>
        <time>2014-09-11T08:54:27Z</time>
      </trkpt>
      <trkpt lat="47.48491" lon="6.23267">
        <ele>277.3</ele>
        <time>2014-09-11T08:54:29Z</time>
      </trkpt>
      <trkpt lat="47.48498" lon="6.23257">
        <ele>277.1</ele>
        <time>2014-09-11T08:54:31Z</time>
      </trkpt>
      <trkpt lat="47.48506" lon="6.23243">
        <ele>277.1</ele>
        <time>2014-09-11T08:54:34Z</time>
      </trkpt>
      <trkpt lat="47.48512" lon="6.23229">
        <ele>276.9</ele>
        <time>2014-09-11T08:54:37Z</time>
      </trkpt>
      <trkpt lat="47.48519" lon="6.23216">
        <ele>276.6</ele>
        <time>2014-09-11T08:54:40Z</time>
      </trkpt>
      <trkpt lat="47.48526" lon="6.23201">
        <ele>276.4</ele>
        <time>2014-09-11T08:54:43Z</time>
      </trkpt>
      <trkpt lat="47.48533" lon="6.23185">
        <ele>276.2</ele>
        <time>2014-09-11T08:54:46Z</time>
      </trkpt>
      <trkpt lat="47.48538" lon="6.23166">
        <ele>276.1</ele>
        <time>2014-09-11T08:54:49Z</time>
      </trkpt>
      <trkpt lat="47.48542" lon="6.23148">
        <ele>276</ele>
        <time>2014-09-11T08:54:52Z</time>
      </trkpt>
      <trkpt lat="47.48546" lon="6.23137">
        <ele>275.9</ele>
        <time>2014-09-11T08:54:54Z</time>
      </trkpt>
      <trkpt lat="47.48551" lon="6.23122">
        <ele>275.7</ele>
        <time>2014-09-11T08:54:57Z</time>
      </trkpt>
      <trkpt lat="47.48556" lon="6.23106">
        <ele>275.4</ele>
        <time>2014-09-11T08:55:00Z</time>
      </trkpt>
      <trkpt lat="47.48559" lon="6.2309">
        <ele>275.2</ele>
        <time>2014-09-11T08:55:03Z</time>
      </trkpt>
      <trkpt lat="47.48562" lon="6.23075">
        <ele>275.1</ele>
        <time>2014-09-11T08:55:06Z</time>
      </trkpt>
      <trkpt lat="47.4857" lon="6.23062">
        <ele>274.8</ele>
        <time>2014-09-11T08:55:08Z</time>
      </trkpt>
      <trkpt lat="47.48573" lon="6.23043">
        <ele>274.5</ele>
        <time>2014-09-11T08:55:11Z</time>
      </trkpt>
      <trkpt lat="47.4858" lon="6.23025">
        <ele>274.2</ele>
        <time>2014-09-11T08:55:14Z</time>
      </trkpt>
      <trkpt lat="47.48582" lon="6.23012">
        <ele>273.9</ele>
        <time>2014-09-11T08:55:16Z</time>
      </trkpt>
      <trkpt lat="47.48585" lon="6.22993">
        <ele>273.6</ele>
        <time>2014-09-11T08:55:19Z</time>
      </trkpt>
      <trkpt lat="47.48587" lon="6.22979">
        <ele>273.5</ele>
        <time>2014-09-11T08:55:21Z</time>
      </trkpt>
      <trkpt lat="47.48592" lon="6.22967">
        <ele>273.3</ele>
        <time>2014-09-11T08:55:23Z</time>
      </trkpt>
      <trkpt lat="47.48594" lon="6.22949">
        <ele>273</ele>
        <time>2014-09-11T08:55:26Z</time>
      </trkpt>
      <trkpt lat="47.48596" lon="6.2293">
        <ele>273.2</ele>
        <time>2014-09-11T08:55:29Z</time>
      </trkpt>
      <trkpt lat="47.48602" lon="6.22918">
        <ele>273</ele>
        <time>2014-09-11T08:55:31Z</time>
      </trkpt>
      <trkpt lat="47.48607" lon="6.22901">
        <ele>272.6</ele>
        <time>2014-09-11T08:55:34Z</time>
      </trkpt>
      <trkpt lat="47.4861" lon="6.22885">
        <ele>272.3</ele>
        <time>2014-09-11T08:55:37Z</time>
      </trkpt>
      <trkpt lat="47.48614" lon="6.2287">
        <ele>272.2</ele>
        <time>2014-09-11T08:55:40Z</time>
      </trkpt>
      <trkpt lat="47.48618" lon="6.22858">
        <ele>271.8</ele>
        <time>2014-09-11T08:55:42Z</time>
      </trkpt>
      <trkpt lat="47.48624" lon="6.2284">
        <ele>271.3</ele>
        <time>2014-09-11T08:55:45Z</time>
      </trkpt>
      <trkpt lat="47.48628" lon="6.22823">
        <ele>271.4</ele>
        <time>2014-09-11T08:55:48Z</time>
      </trkpt>
      <trkpt lat="47.48631" lon="6.22809">
        <ele>271.2</ele>
        <time>2014-09-11T08:55:50Z</time>
      </trkpt>
      <trkpt lat="47.48632" lon="6.22794">
        <ele>270.6</ele>
        <time>2014-09-11T08:55:52Z</time>
      </trkpt>
      <trkpt lat="47.48632" lon="6.2278">
        <ele>270.1</ele>
        <time>2014-09-11T08:55:54Z</time>
      </trkpt>
      <trkpt lat="47.4863" lon="6.22763">
        <ele>269</ele>
        <time>2014-09-11T08:55:56Z</time>
      </trkpt>
      <trkpt lat="47.48628" lon="6.22747">
        <ele>268.8</ele>
        <time>2014-09-11T08:55:59Z</time>
      </trkpt>
      <trkpt lat="47.4863" lon="6.22733">
        <ele>268.1</ele>
        <time>2014-09-11T08:56:02Z</time>
      </trkpt>
      <trkpt lat="47.48639" lon="6.22736">
        <ele>267.7</ele>
        <time>2014-09-11T08:56:05Z</time>
      </trkpt>
      <trkpt lat="47.48642" lon="6.22751">
        <ele>267</ele>
        <time>2014-09-11T08:56:08Z</time>
      </trkpt>
      <trkpt lat="47.48649" lon="6.22763">
        <ele>265.9</ele>
        <time>2014-09-11T08:56:11Z</time>
      </trkpt>
      <trkpt lat="47.48658" lon="6.22766">
        <ele>264.9</ele>
        <time>2014-09-11T08:56:14Z</time>
      </trkpt>
      <trkpt lat="47.48667" lon="6.22763">
        <ele>263.7</ele>
        <time>2014-09-11T08:57:37Z</time>
      </trkpt>
      <trkpt lat="47.48668" lon="6.22747">
        <ele>264</ele>
        <time>2014-09-11T08:57:45Z</time>
      </trkpt>
      <trkpt lat="47.48667" lon="6.22733">
        <ele>264.9</ele>
        <time>2014-09-11T08:57:51Z</time>
      </trkpt>
      <trkpt lat="47.48669" lon="6.22719">
        <ele>266.5</ele>
        <time>2014-09-11T08:57:58Z</time>
      </trkpt>
      <trkpt lat="47.48675" lon="6.22706">
        <ele>267.7</ele>
        <time>2014-09-11T08:58:04Z</time>
      </trkpt>
      <trkpt lat="47.4868" lon="6.22694">
        <ele>268.2</ele>
        <time>2014-09-11T08:58:09Z</time>
      </trkpt>
      <trkpt lat="47.48686" lon="6.22681">
        <ele>268.6</ele>
        <time>2014-09-11T08:58:14Z</time>
      </trkpt>
      <trkpt lat="47.48695" lon="6.2267">
        <ele>268.6</ele>
        <time>2014-09-11T08:58:19Z</time>
      </trkpt>
      <trkpt lat="47.48702" lon="6.22659">
        <ele>268.6</ele>
        <time>2014-09-11T08:58:23Z</time>
      </trkpt>
      <trkpt lat="47.48711" lon="6.22649">
        <ele>268.4</ele>
        <time>2014-09-11T08:58:27Z</time>
      </trkpt>
      <trkpt lat="47.48718" lon="6.22638">
        <ele>268</ele>
        <time>2014-09-11T08:58:31Z</time>
      </trkpt>
      <trkpt lat="47.48726" lon="6.22627">
        <ele>268.3</ele>
        <time>2014-09-11T08:58:35Z</time>
      </trkpt>
      <trkpt lat="47.48733" lon="6.22616">
        <ele>268.1</ele>
        <time>2014-09-11T08:58:38Z</time>
      </trkpt>
      <trkpt lat="47.4874" lon="6.22604">
        <ele>268.1</ele>
        <time>2014-09-11T08:58:41Z</time>
      </trkpt>
      <trkpt lat="47.48747" lon="6.22594">
        <ele>268</ele>
        <time>2014-09-11T08:58:44Z</time>
      </trkpt>
      <trkpt lat="47.48755" lon="6.22584">
        <ele>267.9</ele>
        <time>2014-09-11T08:58:47Z</time>
      </trkpt>
      <trkpt lat="47.48763" lon="6.22575">
        <ele>267.6</ele>
        <time>2014-09-11T08:58:50Z</time>
      </trkpt>
      <trkpt lat="47.48771" lon="6.22565">
        <ele>267.8</ele>
        <time>2014-09-11T08:58:54Z</time>
      </trkpt>
      <trkpt lat="47.4878" lon="6.22553">
        <ele>267.4</ele>
        <time>2014-09-11T08:58:58Z</time>
      </trkpt>
      <trkpt lat="47.48789" lon="6.22543">
        <ele>267.1</ele>
        <time>2014-09-11T08:59:01Z</time>
      </trkpt>
      <trkpt lat="47.48798" lon="6.22531">
        <ele>266.9</ele>
        <time>2014-09-11T08:59:04Z</time>
      </trkpt>
      <trkpt lat="47.48807" lon="6.22521">
        <ele>266.7</ele>
        <time>2014-09-11T08:59:07Z</time>
      </trkpt>
      <trkpt lat="47.48816" lon="6.22512">
        <ele>266.6</ele>
        <time>2014-09-11T08:59:10Z</time>
      </trkpt>
      <trkpt lat="47.48825" lon="6.22503">
        <ele>266.5</ele>
        <time>2014-09-11T08:59:13Z</time>
      </trkpt>
      <trkpt lat="47.48835" lon="6.22495">
        <ele>266.2</ele>
        <time>2014-09-11T08:59:16Z</time>
      </trkpt>
      <trkpt lat="47.48846" lon="6.22486">
        <ele>266.1</ele>
        <time>2014-09-11T08:59:19Z</time>
      </trkpt>
      <trkpt lat="47.48857" lon="6.22475">
        <ele>265.8</ele>
        <time>2014-09-11T08:59:22Z</time>
      </trkpt>
      <trkpt lat="47.48869" lon="6.22466">
        <ele>265.7</ele>
        <time>2014-09-11T08:59:25Z</time>
      </trkpt>
      <trkpt lat="47.48881" lon="6.22457">
        <ele>265.7</ele>
        <time>2014-09-11T08:59:28Z</time>
      </trkpt>
      <trkpt lat="47.48889" lon="6.22451">
        <ele>265.5</ele>
        <time>2014-09-11T08:59:30Z</time>
      </trkpt>
      <trkpt lat="47.48898" lon="6.22446">
        <ele>265.5</ele>
        <time>2014-09-11T08:59:32Z</time>
      </trkpt>
      <trkpt lat="47.4891" lon="6.22439">
        <ele>265.1</ele>
        <time>2014-09-11T08:59:35Z</time>
      </trkpt>
      <trkpt lat="47.48923" lon="6.22433">
        <ele>265.2</ele>
        <time>2014-09-11T08:59:38Z</time>
      </trkpt>
      <trkpt lat="47.48934" lon="6.22427">
        <ele>265</ele>
        <time>2014-09-11T08:59:41Z</time>
      </trkpt>
      <trkpt lat="47.48947" lon="6.22418">
        <ele>264.7</ele>
        <time>2014-09-11T08:59:44Z</time>
      </trkpt>
      <trkpt lat="47.48959" lon="6.22412">
        <ele>264.4</ele>
        <time>2014-09-11T08:59:47Z</time>
      </trkpt>
      <trkpt lat="47.48971" lon="6.22407">
        <ele>264.2</ele>
        <time>2014-09-11T08:59:50Z</time>
      </trkpt>
      <trkpt lat="47.48984" lon="6.22403">
        <ele>263.9</ele>
        <time>2014-09-11T08:59:53Z</time>
      </trkpt>
      <trkpt lat="47.48995" lon="6.22401">
        <ele>263.9</ele>
        <time>2014-09-11T08:59:56Z</time>
      </trkpt>
      <trkpt lat="47.49007" lon="6.224">
        <ele>264.1</ele>
        <time>2014-09-11T08:59:59Z</time>
      </trkpt>
      <trkpt lat="47.49017" lon="6.22397">
        <ele>263.9</ele>
        <time>2014-09-11T09:00:02Z</time>
      </trkpt>
      <trkpt lat="47.49026" lon="6.22396">
        <ele>263.4</ele>
        <time>2014-09-11T09:00:07Z</time>
      </trkpt>
      <trkpt lat="47.49037" lon="6.22398">
        <ele>262.9</ele>
        <time>2014-09-11T09:00:12Z</time>
      </trkpt>
      <trkpt lat="47.49048" lon="6.22397">
        <ele>262.8</ele>
        <time>2014-09-11T09:00:16Z</time>
      </trkpt>
      <trkpt lat="47.4906" lon="6.22398">
        <ele>262.7</ele>
        <time>2014-09-11T09:00:20Z</time>
      </trkpt>
      <trkpt lat="47.49071" lon="6.22399">
        <ele>262.9</ele>
        <time>2014-09-11T09:00:24Z</time>
      </trkpt>
      <trkpt lat="47.49081" lon="6.22399">
        <ele>262.9</ele>
        <time>2014-09-11T09:00:27Z</time>
      </trkpt>
      <trkpt lat="47.49092" lon="6.224">
        <ele>263</ele>
        <time>2014-09-11T09:00:30Z</time>
      </trkpt>
      <trkpt lat="47.49103" lon="6.22401">
        <ele>262.9</ele>
        <time>2014-09-11T09:00:33Z</time>
      </trkpt>
      <trkpt lat="47.49115" lon="6.22403">
        <ele>263</ele>
        <time>2014-09-11T09:00:36Z</time>
      </trkpt>
      <trkpt lat="47.49128" lon="6.22403">
        <ele>262.9</ele>
        <time>2014-09-11T09:00:39Z</time>
      </trkpt>
      <trkpt lat="47.4914" lon="6.22406">
        <ele>263.1</ele>
        <time>2014-09-11T09:00:42Z</time>
      </trkpt>
      <trkpt lat="47.4915" lon="6.22407">
        <ele>262.9</ele>
        <time>2014-09-11T09:00:45Z</time>
      </trkpt>
      <trkpt lat="47.4916" lon="6.22412">
        <ele>262.8</ele>
        <time>2014-09-11T09:00:48Z</time>
      </trkpt>
      <trkpt lat="47.49169" lon="6.22416">
        <ele>263</ele>
        <time>2014-09-11T09:00:51Z</time>
      </trkpt>
      <trkpt lat="47.49181" lon="6.2242">
        <ele>263</ele>
        <time>2014-09-11T09:00:54Z</time>
      </trkpt>
      <trkpt lat="47.49192" lon="6.22423">
        <ele>263</ele>
        <time>2014-09-11T09:00:57Z</time>
      </trkpt>
      <trkpt lat="47.49205" lon="6.22427">
        <ele>263.1</ele>
        <time>2014-09-11T09:01:00Z</time>
      </trkpt>
      <trkpt lat="47.49215" lon="6.22432">
        <ele>263</ele>
        <time>2014-09-11T09:01:02Z</time>
      </trkpt>
      <trkpt lat="47.49224" lon="6.22437">
        <ele>262.9</ele>
        <time>2014-09-11T09:01:04Z</time>
      </trkpt>
      <trkpt lat="47.49234" lon="6.22444">
        <ele>262.9</ele>
        <time>2014-09-11T09:01:07Z</time>
      </trkpt>
      <trkpt lat="47.49244" lon="6.22451">
        <ele>263.1</ele>
        <time>2014-09-11T09:01:10Z</time>
      </trkpt>
      <trkpt lat="47.49254" lon="6.22456">
        <ele>263.2</ele>
        <time>2014-09-11T09:01:13Z</time>
      </trkpt>
      <trkpt lat="47.49268" lon="6.22453">
        <ele>263.2</ele>
        <time>2014-09-11T09:01:15Z</time>
      </trkpt>
      <trkpt lat="47.49278" lon="6.22455">
        <ele>263.2</ele>
        <time>2014-09-11T09:01:17Z</time>
      </trkpt>
      <trkpt lat="47.49287" lon="6.22457">
        <ele>263.2</ele>
        <time>2014-09-11T09:01:19Z</time>
      </trkpt>
      <trkpt lat="47.49297" lon="6.22458">
        <ele>263.4</ele>
        <time>2014-09-11T09:01:21Z</time>
      </trkpt>
      <trkpt lat="47.49307" lon="6.2246">
        <ele>263.5</ele>
        <time>2014-09-11T09:01:23Z</time>
      </trkpt>
      <trkpt lat="47.49317" lon="6.22464">
        <ele>263.4</ele>
        <time>2014-09-11T09:01:26Z</time>
      </trkpt>
      <trkpt lat="47.49329" lon="6.22468">
        <ele>263.2</ele>
        <time>2014-09-11T09:01:29Z</time>
      </trkpt>
      <trkpt lat="47.49342" lon="6.22473">
        <ele>263.4</ele>
        <time>2014-09-11T09:01:32Z</time>
      </trkpt>
      <trkpt lat="47.49352" lon="6.22478">
        <ele>263.4</ele>
        <time>2014-09-11T09:01:35Z</time>
      </trkpt>
      <trkpt lat="47.49365" lon="6.22482">
        <ele>263.5</ele>
        <time>2014-09-11T09:01:38Z</time>
      </trkpt>
      <trkpt lat="47.49378" lon="6.22486">
        <ele>263.2</ele>
        <time>2014-09-11T09:01:41Z</time>
      </trkpt>
      <trkpt lat="47.49388" lon="6.22489">
        <ele>263.3</ele>
        <time>2014-09-11T09:01:43Z</time>
      </trkpt>
      <trkpt lat="47.49397" lon="6.22492">
        <ele>263.3</ele>
        <time>2014-09-11T09:01:45Z</time>
      </trkpt>
      <trkpt lat="47.49409" lon="6.22495">
        <ele>263.6</ele>
        <time>2014-09-11T09:01:48Z</time>
      </trkpt>
      <trkpt lat="47.49422" lon="6.22499">
        <ele>263.7</ele>
        <time>2014-09-11T09:01:51Z</time>
      </trkpt>
      <trkpt lat="47.49434" lon="6.22505">
        <ele>263.9</ele>
        <time>2014-09-11T09:01:54Z</time>
      </trkpt>
      <trkpt lat="47.49446" lon="6.22508">
        <ele>263.8</ele>
        <time>2014-09-11T09:01:57Z</time>
      </trkpt>
      <trkpt lat="47.4946" lon="6.22511">
        <ele>263.9</ele>
        <time>2014-09-11T09:02:00Z</time>
      </trkpt>
      <trkpt lat="47.4947" lon="6.22513">
        <ele>263.9</ele>
        <time>2014-09-11T09:02:02Z</time>
      </trkpt>
      <trkpt lat="47.4948" lon="6.22514">
        <ele>264</ele>
        <time>2014-09-11T09:02:04Z</time>
      </trkpt>
      <trkpt lat="47.49493" lon="6.22517">
        <ele>264.1</ele>
        <time>2014-09-11T09:02:07Z</time>
      </trkpt>
      <trkpt lat="47.49504" lon="6.22519">
        <ele>264.2</ele>
        <time>2014-09-11T09:02:10Z</time>
      </trkpt>
      <trkpt lat="47.49516" lon="6.22522">
        <ele>264.3</ele>
        <time>2014-09-11T09:02:13Z</time>
      </trkpt>
      <trkpt lat="47.49528" lon="6.22525">
        <ele>264.4</ele>
        <time>2014-09-11T09:02:16Z</time>
      </trkpt>
      <trkpt lat="47.4954" lon="6.22528">
        <ele>264.5</ele>
        <time>2014-09-11T09:02:19Z</time>
      </trkpt>
      <trkpt lat="47.49551" lon="6.22531">
        <ele>264.6</ele>
        <time>2014-09-11T09:02:22Z</time>
      </trkpt>
      <trkpt lat="47.49562" lon="6.22536">
        <ele>264.7</ele>
        <time>2014-09-11T09:02:25Z</time>
      </trkpt>
      <trkpt lat="47.49573" lon="6.22541">
        <ele>264.9</ele>
        <time>2014-09-11T09:02:28Z</time>
      </trkpt>
      <trkpt lat="47.49582" lon="6.22546">
        <ele>264.7</ele>
        <time>2014-09-11T09:02:31Z</time>
      </trkpt>
      <trkpt lat="47.49593" lon="6.22551">
        <ele>264.8</ele>
        <time>2014-09-11T09:02:34Z</time>
      </trkpt>
      <trkpt lat="47.49604" lon="6.22555">
        <ele>264.7</ele>
        <time>2014-09-11T09:02:37Z</time>
      </trkpt>
      <trkpt lat="47.49615" lon="6.22559">
        <ele>264.9</ele>
        <time>2014-09-11T09:02:40Z</time>
      </trkpt>
      <trkpt lat="47.49626" lon="6.22564">
        <ele>265.1</ele>
        <time>2014-09-11T09:02:43Z</time>
      </trkpt>
      <trkpt lat="47.49637" lon="6.22568">
        <ele>265.1</ele>
        <time>2014-09-11T09:02:46Z</time>
      </trkpt>
      <trkpt lat="47.49649" lon="6.2257">
        <ele>265.2</ele>
        <time>2014-09-11T09:02:49Z</time>
      </trkpt>
      <trkpt lat="47.49659" lon="6.22575">
        <ele>265</ele>
        <time>2014-09-11T09:02:52Z</time>
      </trkpt>
      <trkpt lat="47.49671" lon="6.22579">
        <ele>265</ele>
        <time>2014-09-11T09:02:55Z</time>
      </trkpt>
      <trkpt lat="47.49682" lon="6.22582">
        <ele>265.2</ele>
        <time>2014-09-11T09:02:58Z</time>
      </trkpt>
      <trkpt lat="47.49693" lon="6.22587">
        <ele>265</ele>
        <time>2014-09-11T09:03:01Z</time>
      </trkpt>
      <trkpt lat="47.49704" lon="6.22592">
        <ele>265</ele>
        <time>2014-09-11T09:03:04Z</time>
      </trkpt>
      <trkpt lat="47.49716" lon="6.22597">
        <ele>265.1</ele>
        <time>2014-09-11T09:03:07Z</time>
      </trkpt>
      <trkpt lat="47.49728" lon="6.22602">
        <ele>265.1</ele>
        <time>2014-09-11T09:03:10Z</time>
      </trkpt>
      <trkpt lat="47.49737" lon="6.22604">
        <ele>265</ele>
        <time>2014-09-11T09:03:12Z</time>
      </trkpt>
      <trkpt lat="47.49748" lon="6.22606">
        <ele>265.1</ele>
        <time>2014-09-11T09:03:14Z</time>
      </trkpt>
      <trkpt lat="47.49759" lon="6.22609">
        <ele>265.3</ele>
        <time>2014-09-11T09:03:16Z</time>
      </trkpt>
      <trkpt lat="47.49768" lon="6.22615">
        <ele>265.3</ele>
        <time>2014-09-11T09:03:18Z</time>
      </trkpt>
      <trkpt lat="47.49777" lon="6.2262">
        <ele>265.4</ele>
        <time>2014-09-11T09:03:20Z</time>
      </trkpt>
      <trkpt lat="47.49786" lon="6.22625">
        <ele>265.4</ele>
        <time>2014-09-11T09:03:23Z</time>
      </trkpt>
      <trkpt lat="47.49797" lon="6.22629">
        <ele>265.4</ele>
        <time>2014-09-11T09:03:26Z</time>
      </trkpt>
      <trkpt lat="47.49807" lon="6.22636">
        <ele>265.1</ele>
        <time>2014-09-11T09:03:29Z</time>
      </trkpt>
      <trkpt lat="47.49819" lon="6.22642">
        <ele>265.2</ele>
        <time>2014-09-11T09:03:32Z</time>
      </trkpt>
      <trkpt lat="47.49828" lon="6.22647">
        <ele>265.1</ele>
        <time>2014-09-11T09:03:34Z</time>
      </trkpt>
      <trkpt lat="47.49837" lon="6.22651">
        <ele>265.1</ele>
        <time>2014-09-11T09:03:36Z</time>
      </trkpt>
      <trkpt lat="47.49849" lon="6.22659">
        <ele>265.2</ele>
        <time>2014-09-11T09:03:39Z</time>
      </trkpt>
      <trkpt lat="47.49859" lon="6.22663">
        <ele>265.4</ele>
        <time>2014-09-11T09:03:41Z</time>
      </trkpt>
      <trkpt lat="47.49872" lon="6.2267">
        <ele>265.3</ele>
        <time>2014-09-11T09:03:44Z</time>
      </trkpt>
      <trkpt lat="47.49881" lon="6.22675">
        <ele>265.1</ele>
        <time>2014-09-11T09:03:46Z</time>
      </trkpt>
      <trkpt lat="47.49892" lon="6.22681">
        <ele>265</ele>
        <time>2014-09-11T09:03:49Z</time>
      </trkpt>
      <trkpt lat="47.499" lon="6.22687">
        <ele>265.1</ele>
        <time>2014-09-11T09:03:51Z</time>
      </trkpt>
      <trkpt lat="47.4991" lon="6.22694">
        <ele>265</ele>
        <time>2014-09-11T09:03:54Z</time>
      </trkpt>
      <trkpt lat="47.49919" lon="6.22699">
        <ele>265</ele>
        <time>2014-09-11T09:03:56Z</time>
      </trkpt>
      <trkpt lat="47.49929" lon="6.22708">
        <ele>265.1</ele>
        <time>2014-09-11T09:03:59Z</time>
      </trkpt>
      <trkpt lat="47.49939" lon="6.22714">
        <ele>265</ele>
        <time>2014-09-11T09:04:01Z</time>
      </trkpt>
      <trkpt lat="47.49948" lon="6.22719">
        <ele>265.1</ele>
        <time>2014-09-11T09:04:03Z</time>
      </trkpt>
      <trkpt lat="47.49959" lon="6.22725">
        <ele>265.1</ele>
        <time>2014-09-11T09:04:05Z</time>
      </trkpt>
      <trkpt lat="47.49969" lon="6.22729">
        <ele>265.1</ele>
        <time>2014-09-11T09:04:07Z</time>
      </trkpt>
      <trkpt lat="47.49982" lon="6.22736">
        <ele>265.1</ele>
        <time>2014-09-11T09:04:10Z</time>
      </trkpt>
      <trkpt lat="47.49994" lon="6.22743">
        <ele>265</ele>
        <time>2014-09-11T09:04:13Z</time>
      </trkpt>
      <trkpt lat="47.50005" lon="6.22753">
        <ele>265.2</ele>
        <time>2014-09-11T09:04:16Z</time>
      </trkpt>
      <trkpt lat="47.50016" lon="6.22761">
        <ele>265.3</ele>
        <time>2014-09-11T09:04:19Z</time>
      </trkpt>
      <trkpt lat="47.50026" lon="6.22768">
        <ele>265.3</ele>
        <time>2014-09-11T09:04:21Z</time>
      </trkpt>
      <trkpt lat="47.50036" lon="6.22777">
        <ele>265</ele>
        <time>2014-09-11T09:04:24Z</time>
      </trkpt>
      <trkpt lat="47.50045" lon="6.22783">
        <ele>264.8</ele>
        <time>2014-09-11T09:04:27Z</time>
      </trkpt>
      <trkpt lat="47.50053" lon="6.22791">
        <ele>264.7</ele>
        <time>2014-09-11T09:04:30Z</time>
      </trkpt>
      <trkpt lat="47.50064" lon="6.22797">
        <ele>264.9</ele>
        <time>2014-09-11T09:04:33Z</time>
      </trkpt>
      <trkpt lat="47.50073" lon="6.22805">
        <ele>264.9</ele>
        <time>2014-09-11T09:04:36Z</time>
      </trkpt>
      <trkpt lat="47.50084" lon="6.22813">
        <ele>265.1</ele>
        <time>2014-09-11T09:04:39Z</time>
      </trkpt>
      <trkpt lat="47.50095" lon="6.22822">
        <ele>265.2</ele>
        <time>2014-09-11T09:04:42Z</time>
      </trkpt>
      <trkpt lat="47.50106" lon="6.22832">
        <ele>265.1</ele>
        <time>2014-09-11T09:04:45Z</time>
      </trkpt>
      <trkpt lat="47.50117" lon="6.22841">
        <ele>265.1</ele>
        <time>2014-09-11T09:04:48Z</time>
      </trkpt>
      <trkpt lat="47.5013" lon="6.22851">
        <ele>264.8</ele>
        <time>2014-09-11T09:04:51Z</time>
      </trkpt>
      <trkpt lat="47.50141" lon="6.22859">
        <ele>264.9</ele>
        <time>2014-09-11T09:04:54Z</time>
      </trkpt>
      <trkpt lat="47.50153" lon="6.22866">
        <ele>265</ele>
        <time>2014-09-11T09:04:57Z</time>
      </trkpt>
      <trkpt lat="47.50165" lon="6.22873">
        <ele>264.9</ele>
        <time>2014-09-11T09:05:00Z</time>
      </trkpt>
      <trkpt lat="47.50176" lon="6.22882">
        <ele>265.2</ele>
        <time>2014-09-11T09:05:03Z</time>
      </trkpt>
      <trkpt lat="47.50185" lon="6.22892">
        <ele>265.4</ele>
        <time>2014-09-11T09:05:06Z</time>
      </trkpt>
      <trkpt lat="47.50194" lon="6.22903">
        <ele>265.2</ele>
        <time>2014-09-11T09:05:09Z</time>
      </trkpt>
      <trkpt lat="47.50202" lon="6.22914">
        <ele>265</ele>
        <time>2014-09-11T09:05:12Z</time>
      </trkpt>
      <trkpt lat="47.50214" lon="6.22925">
        <ele>264.8</ele>
        <time>2014-09-11T09:05:15Z</time>
      </trkpt>
      <trkpt lat="47.50224" lon="6.22935">
        <ele>264.7</ele>
        <time>2014-09-11T09:05:18Z</time>
      </trkpt>
      <trkpt lat="47.50236" lon="6.22945">
        <ele>264.8</ele>
        <time>2014-09-11T09:05:21Z</time>
      </trkpt>
      <trkpt lat="47.50245" lon="6.22953">
        <ele>264.8</ele>
        <time>2014-09-11T09:05:23Z</time>
      </trkpt>
      <trkpt lat="47.50253" lon="6.22959">
        <ele>264.8</ele>
        <time>2014-09-11T09:05:25Z</time>
      </trkpt>
      <trkpt lat="47.50261" lon="6.22967">
        <ele>264.6</ele>
        <time>2014-09-11T09:05:27Z</time>
      </trkpt>
      <trkpt lat="47.50269" lon="6.22974">
        <ele>264.6</ele>
        <time>2014-09-11T09:05:29Z</time>
      </trkpt>
      <trkpt lat="47.50277" lon="6.22981">
        <ele>264.7</ele>
        <time>2014-09-11T09:05:31Z</time>
      </trkpt>
      <trkpt lat="47.50289" lon="6.2299">
        <ele>264.9</ele>
        <time>2014-09-11T09:05:34Z</time>
      </trkpt>
      <trkpt lat="47.50297" lon="6.22996">
        <ele>264.9</ele>
        <time>2014-09-11T09:05:36Z</time>
      </trkpt>
      <trkpt lat="47.50306" lon="6.23001">
        <ele>264.9</ele>
        <time>2014-09-11T09:05:38Z</time>
      </trkpt>
      <trkpt lat="47.50314" lon="6.23008">
        <ele>264.9</ele>
        <time>2014-09-11T09:05:40Z</time>
      </trkpt>
      <trkpt lat="47.50322" lon="6.23014">
        <ele>265.1</ele>
        <time>2014-09-11T09:05:42Z</time>
      </trkpt>
      <trkpt lat="47.5033" lon="6.23021">
        <ele>265.5</ele>
        <time>2014-09-11T09:05:44Z</time>
      </trkpt>
      <trkpt lat="47.50338" lon="6.23028">
        <ele>265.6</ele>
        <time>2014-09-11T09:05:46Z</time>
      </trkpt>
      <trkpt lat="47.50347" lon="6.23037">
        <ele>265.6</ele>
        <time>2014-09-11T09:05:49Z</time>
      </trkpt>
      <trkpt lat="47.50357" lon="6.23047">
        <ele>265.6</ele>
        <time>2014-09-11T09:05:52Z</time>
      </trkpt>
      <trkpt lat="47.50368" lon="6.23058">
        <ele>265.9</ele>
        <time>2014-09-11T09:05:55Z</time>
      </trkpt>
      <trkpt lat="47.50376" lon="6.23066">
        <ele>265.6</ele>
        <time>2014-09-11T09:05:57Z</time>
      </trkpt>
      <trkpt lat="47.50387" lon="6.23074">
        <ele>265.6</ele>
        <time>2014-09-11T09:06:00Z</time>
      </trkpt>
      <trkpt lat="47.50395" lon="6.23086">
        <ele>265.8</ele>
        <time>2014-09-11T09:06:04Z</time>
      </trkpt>
      <trkpt lat="47.50402" lon="6.23096">
        <ele>265.9</ele>
        <time>2014-09-11T09:06:07Z</time>
      </trkpt>
      <trkpt lat="47.50413" lon="6.23108">
        <ele>265.6</ele>
        <time>2014-09-11T09:06:10Z</time>
      </trkpt>
      <trkpt lat="47.50423" lon="6.23118">
        <ele>265.5</ele>
        <time>2014-09-11T09:06:13Z</time>
      </trkpt>
      <trkpt lat="47.50433" lon="6.23128">
        <ele>265.4</ele>
        <time>2014-09-11T09:06:16Z</time>
      </trkpt>
      <trkpt lat="47.50441" lon="6.23137">
        <ele>265.8</ele>
        <time>2014-09-11T09:06:19Z</time>
      </trkpt>
      <trkpt lat="47.50449" lon="6.23146">
        <ele>265.8</ele>
        <time>2014-09-11T09:06:22Z</time>
      </trkpt>
      <trkpt lat="47.50461" lon="6.23153">
        <ele>266.3</ele>
        <time>2014-09-11T09:06:24Z</time>
      </trkpt>
      <trkpt lat="47.5047" lon="6.23162">
        <ele>266.3</ele>
        <time>2014-09-11T09:06:26Z</time>
      </trkpt>
      <trkpt lat="47.50478" lon="6.23171">
        <ele>266.7</ele>
        <time>2014-09-11T09:06:29Z</time>
      </trkpt>
      <trkpt lat="47.50485" lon="6.2318">
        <ele>266.5</ele>
        <time>2014-09-11T09:06:32Z</time>
      </trkpt>
      <trkpt lat="47.50496" lon="6.23192">
        <ele>266.5</ele>
        <time>2014-09-11T09:06:35Z</time>
      </trkpt>
      <trkpt lat="47.50506" lon="6.23202">
        <ele>266.5</ele>
        <time>2014-09-11T09:06:38Z</time>
      </trkpt>
      <trkpt lat="47.50514" lon="6.23212">
        <ele>266.7</ele>
        <time>2014-09-11T09:06:41Z</time>
      </trkpt>
      <trkpt lat="47.50524" lon="6.23221">
        <ele>266.7</ele>
        <time>2014-09-11T09:06:44Z</time>
      </trkpt>
      <trkpt lat="47.50534" lon="6.23229">
        <ele>267</ele>
        <time>2014-09-11T09:06:47Z</time>
      </trkpt>
      <trkpt lat="47.50542" lon="6.2324">
        <ele>267.2</ele>
        <time>2014-09-11T09:06:51Z</time>
      </trkpt>
      <trkpt lat="47.50549" lon="6.2325">
        <ele>267.3</ele>
        <time>2014-09-11T09:06:54Z</time>
      </trkpt>
      <trkpt lat="47.50559" lon="6.23256">
        <ele>267.3</ele>
        <time>2014-09-11T09:06:56Z</time>
      </trkpt>
      <trkpt lat="47.5057" lon="6.23262">
        <ele>267.2</ele>
        <time>2014-09-11T09:06:58Z</time>
      </trkpt>
      <trkpt lat="47.50578" lon="6.23272">
        <ele>267.2</ele>
        <time>2014-09-11T09:07:01Z</time>
      </trkpt>
      <trkpt lat="47.50586" lon="6.23283">
        <ele>267.3</ele>
        <time>2014-09-11T09:07:04Z</time>
      </trkpt>
      <trkpt lat="47.50596" lon="6.23294">
        <ele>267.5</ele>
        <time>2014-09-11T09:07:07Z</time>
      </trkpt>
      <trkpt lat="47.50604" lon="6.23302">
        <ele>267.6</ele>
        <time>2014-09-11T09:07:09Z</time>
      </trkpt>
      <trkpt lat="47.50612" lon="6.23309">
        <ele>267.7</ele>
        <time>2014-09-11T09:07:11Z</time>
      </trkpt>
      <trkpt lat="47.50622" lon="6.23319">
        <ele>267.7</ele>
        <time>2014-09-11T09:07:14Z</time>
      </trkpt>
      <trkpt lat="47.50631" lon="6.23326">
        <ele>267.8</ele>
        <time>2014-09-11T09:07:16Z</time>
      </trkpt>
      <trkpt lat="47.50641" lon="6.23337">
        <ele>267.8</ele>
        <time>2014-09-11T09:07:19Z</time>
      </trkpt>
      <trkpt lat="47.50652" lon="6.23346">
        <ele>267.8</ele>
        <time>2014-09-11T09:07:22Z</time>
      </trkpt>
      <trkpt lat="47.5066" lon="6.23354">
        <ele>267.8</ele>
        <time>2014-09-11T09:07:24Z</time>
      </trkpt>
      <trkpt lat="47.50668" lon="6.23363">
        <ele>267.8</ele>
        <time>2014-09-11T09:07:26Z</time>
      </trkpt>
      <trkpt lat="47.50678" lon="6.2337">
        <ele>267.7</ele>
        <time>2014-09-11T09:07:28Z</time>
      </trkpt>
      <trkpt lat="47.50687" lon="6.23381">
        <ele>267.8</ele>
        <time>2014-09-11T09:07:31Z</time>
      </trkpt>
      <trkpt lat="47.50698" lon="6.23391">
        <ele>267.8</ele>
        <time>2014-09-11T09:07:34Z</time>
      </trkpt>
      <trkpt lat="47.50709" lon="6.23402">
        <ele>267.8</ele>
        <time>2014-09-11T09:07:37Z</time>
      </trkpt>
      <trkpt lat="47.50717" lon="6.2341">
        <ele>267.8</ele>
        <time>2014-09-11T09:07:39Z</time>
      </trkpt>
      <trkpt lat="47.50727" lon="6.23422">
        <ele>267.6</ele>
        <time>2014-09-11T09:07:42Z</time>
      </trkpt>
      <trkpt lat="47.50735" lon="6.23429">
        <ele>267.5</ele>
        <time>2014-09-11T09:07:44Z</time>
      </trkpt>
      <trkpt lat="47.50743" lon="6.23437">
        <ele>267.5</ele>
        <time>2014-09-11T09:07:46Z</time>
      </trkpt>
      <trkpt lat="47.50753" lon="6.23448">
        <ele>267.5</ele>
        <time>2014-09-11T09:07:49Z</time>
      </trkpt>
      <trkpt lat="47.50762" lon="6.23458">
        <ele>267.1</ele>
        <time>2014-09-11T09:07:52Z</time>
      </trkpt>
      <trkpt lat="47.50771" lon="6.23465">
        <ele>266.7</ele>
        <time>2014-09-11T09:07:54Z</time>
      </trkpt>
      <trkpt lat="47.50782" lon="6.23471">
        <ele>266.8</ele>
        <time>2014-09-11T09:07:56Z</time>
      </trkpt>
      <trkpt lat="47.50794" lon="6.23479">
        <ele>266.7</ele>
        <time>2014-09-11T09:07:58Z</time>
      </trkpt>
      <trkpt lat="47.50802" lon="6.23487">
        <ele>266.6</ele>
        <time>2014-09-11T09:08:00Z</time>
      </trkpt>
      <trkpt lat="47.5081" lon="6.23499">
        <ele>266.3</ele>
        <time>2014-09-11T09:08:03Z</time>
      </trkpt>
      <trkpt lat="47.50819" lon="6.2351">
        <ele>266.3</ele>
        <time>2014-09-11T09:08:06Z</time>
      </trkpt>
      <trkpt lat="47.50829" lon="6.23518">
        <ele>266.4</ele>
        <time>2014-09-11T09:08:08Z</time>
      </trkpt>
      <trkpt lat="47.5084" lon="6.23526">
        <ele>266.2</ele>
        <time>2014-09-11T09:08:10Z</time>
      </trkpt>
      <trkpt lat="47.50851" lon="6.23533">
        <ele>266.1</ele>
        <time>2014-09-11T09:08:12Z</time>
      </trkpt>
      <trkpt lat="47.50861" lon="6.23541">
        <ele>266</ele>
        <time>2014-09-11T09:08:14Z</time>
      </trkpt>
      <trkpt lat="47.50871" lon="6.23547">
        <ele>266.1</ele>
        <time>2014-09-11T09:08:16Z</time>
      </trkpt>
      <trkpt lat="47.50879" lon="6.23554">
        <ele>266.1</ele>
        <time>2014-09-11T09:08:18Z</time>
      </trkpt>
      <trkpt lat="47.50887" lon="6.2356">
        <ele>266.1</ele>
        <time>2014-09-11T09:08:20Z</time>
      </trkpt>
      <trkpt lat="47.50895" lon="6.23567">
        <ele>266.2</ele>
        <time>2014-09-11T09:08:22Z</time>
      </trkpt>
      <trkpt lat="47.50907" lon="6.23577">
        <ele>265.9</ele>
        <time>2014-09-11T09:08:25Z</time>
      </trkpt>
      <trkpt lat="47.50918" lon="6.23584">
        <ele>266.1</ele>
        <time>2014-09-11T09:08:28Z</time>
      </trkpt>
      <trkpt lat="47.50926" lon="6.23591">
        <ele>266.1</ele>
        <time>2014-09-11T09:08:30Z</time>
      </trkpt>
      <trkpt lat="47.50936" lon="6.23601">
        <ele>265.9</ele>
        <time>2014-09-11T09:08:33Z</time>
      </trkpt>
      <trkpt lat="47.50946" lon="6.23608">
        <ele>265.8</ele>
        <time>2014-09-11T09:08:36Z</time>
      </trkpt>
      <trkpt lat="47.50955" lon="6.23614">
        <ele>265.3</ele>
        <time>2014-09-11T09:08:39Z</time>
      </trkpt>
      <trkpt lat="47.50963" lon="6.23622">
        <ele>265.6</ele>
        <time>2014-09-11T09:08:46Z</time>
      </trkpt>
      <trkpt lat="47.50974" lon="6.23626">
        <ele>265.6</ele>
        <time>2014-09-11T09:08:51Z</time>
      </trkpt>
      <trkpt lat="47.50983" lon="6.23629">
        <ele>265.6</ele>
        <time>2014-09-11T09:08:54Z</time>
      </trkpt>
      <trkpt lat="47.50993" lon="6.23635">
        <ele>265.6</ele>
        <time>2014-09-11T09:08:57Z</time>
      </trkpt>
      <trkpt lat="47.51005" lon="6.2364">
        <ele>265.6</ele>
        <time>2014-09-11T09:09:00Z</time>
      </trkpt>
      <trkpt lat="47.51015" lon="6.23647">
        <ele>265.6</ele>
        <time>2014-09-11T09:09:03Z</time>
      </trkpt>
      <trkpt lat="47.51026" lon="6.23653">
        <ele>265.6</ele>
        <time>2014-09-11T09:09:06Z</time>
      </trkpt>
      <trkpt lat="47.51037" lon="6.23659">
        <ele>265.7</ele>
        <time>2014-09-11T09:09:09Z</time>
      </trkpt>
      <trkpt lat="47.51046" lon="6.23666">
        <ele>265.6</ele>
        <time>2014-09-11T09:09:12Z</time>
      </trkpt>
      <trkpt lat="47.51054" lon="6.23673">
        <ele>265.8</ele>
        <time>2014-09-11T09:09:15Z</time>
      </trkpt>
      <trkpt lat="47.51064" lon="6.2368">
        <ele>265.9</ele>
        <time>2014-09-11T09:09:18Z</time>
      </trkpt>
      <trkpt lat="47.51072" lon="6.23688">
        <ele>265.8</ele>
        <time>2014-09-11T09:09:21Z</time>
      </trkpt>
      <trkpt lat="47.51084" lon="6.23696">
        <ele>265.8</ele>
        <time>2014-09-11T09:09:24Z</time>
      </trkpt>
      <trkpt lat="47.51093" lon="6.23701">
        <ele>265.6</ele>
        <time>2014-09-11T09:09:26Z</time>
      </trkpt>
      <trkpt lat="47.51106" lon="6.23707">
        <ele>265.7</ele>
        <time>2014-09-11T09:09:29Z</time>
      </trkpt>
      <trkpt lat="47.51117" lon="6.23712">
        <ele>265.8</ele>
        <time>2014-09-11T09:09:31Z</time>
      </trkpt>
      <trkpt lat="47.51127" lon="6.23718">
        <ele>265.8</ele>
        <time>2014-09-11T09:09:34Z</time>
      </trkpt>
      <trkpt lat="47.51138" lon="6.23725">
        <ele>266</ele>
        <time>2014-09-11T09:09:37Z</time>
      </trkpt>
      <trkpt lat="47.51146" lon="6.2373">
        <ele>265.9</ele>
        <time>2014-09-11T09:09:39Z</time>
      </trkpt>
      <trkpt lat="47.51158" lon="6.23737">
        <ele>266.1</ele>
        <time>2014-09-11T09:09:42Z</time>
      </trkpt>
      <trkpt lat="47.51168" lon="6.23746">
        <ele>266.2</ele>
        <time>2014-09-11T09:09:45Z</time>
      </trkpt>
      <trkpt lat="47.51179" lon="6.23754">
        <ele>266.3</ele>
        <time>2014-09-11T09:09:48Z</time>
      </trkpt>
      <trkpt lat="47.51189" lon="6.23762">
        <ele>266.4</ele>
        <time>2014-09-11T09:09:51Z</time>
      </trkpt>
      <trkpt lat="47.51198" lon="6.23769">
        <ele>266.6</ele>
        <time>2014-09-11T09:09:54Z</time>
      </trkpt>
      <trkpt lat="47.51209" lon="6.23775">
        <ele>266.2</ele>
        <time>2014-09-11T09:09:57Z</time>
      </trkpt>
      <trkpt lat="47.51214" lon="6.23787">
        <ele>266.1</ele>
        <time>2014-09-11T09:10:00Z</time>
      </trkpt>
      <trkpt lat="47.51222" lon="6.23794">
        <ele>266.2</ele>
        <time>2014-09-11T09:10:02Z</time>
      </trkpt>
      <trkpt lat="47.51232" lon="6.23806">
        <ele>266.4</ele>
        <time>2014-09-11T09:10:05Z</time>
      </trkpt>
      <trkpt lat="47.51241" lon="6.23816">
        <ele>266.4</ele>
        <time>2014-09-11T09:10:08Z</time>
      </trkpt>
      <trkpt lat="47.5125" lon="6.23826">
        <ele>266.3</ele>
        <time>2014-09-11T09:10:11Z</time>
      </trkpt>
      <trkpt lat="47.51259" lon="6.23833">
        <ele>266.1</ele>
        <time>2014-09-11T09:10:14Z</time>
      </trkpt>
      <trkpt lat="47.51267" lon="6.23841">
        <ele>265.8</ele>
        <time>2014-09-11T09:10:17Z</time>
      </trkpt>
      <trkpt lat="47.51276" lon="6.23849">
        <ele>265.8</ele>
        <time>2014-09-11T09:10:20Z</time>
      </trkpt>
      <trkpt lat="47.51286" lon="6.23857">
        <ele>265.8</ele>
        <time>2014-09-11T09:10:23Z</time>
      </trkpt>
      <trkpt lat="47.51296" lon="6.23863">
        <ele>265.9</ele>
        <time>2014-09-11T09:10:26Z</time>
      </trkpt>
      <trkpt lat="47.51308" lon="6.23867">
        <ele>266.1</ele>
        <time>2014-09-11T09:10:29Z</time>
      </trkpt>
      <trkpt lat="47.51319" lon="6.23872">
        <ele>266.2</ele>
        <time>2014-09-11T09:10:32Z</time>
      </trkpt>
      <trkpt lat="47.51329" lon="6.2388">
        <ele>266.2</ele>
        <time>2014-09-11T09:10:35Z</time>
      </trkpt>
      <trkpt lat="47.5134" lon="6.23889">
        <ele>266.4</ele>
        <time>2014-09-11T09:10:38Z</time>
      </trkpt>
      <trkpt lat="47.5135" lon="6.23897">
        <ele>266</ele>
        <time>2014-09-11T09:10:41Z</time>
      </trkpt>
      <trkpt lat="47.5136" lon="6.23905">
        <ele>266.1</ele>
        <time>2014-09-11T09:10:44Z</time>
      </trkpt>
      <trkpt lat="47.5137" lon="6.23914">
        <ele>266.2</ele>
        <time>2014-09-11T09:10:47Z</time>
      </trkpt>
      <trkpt lat="47.51381" lon="6.23924">
        <ele>266.2</ele>
        <time>2014-09-11T09:10:50Z</time>
      </trkpt>
      <trkpt lat="47.5139" lon="6.23934">
        <ele>266.2</ele>
        <time>2014-09-11T09:10:53Z</time>
      </trkpt>
      <trkpt lat="47.51401" lon="6.23943">
        <ele>266.2</ele>
        <time>2014-09-11T09:10:56Z</time>
      </trkpt>
      <trkpt lat="47.51411" lon="6.23953">
        <ele>266.3</ele>
        <time>2014-09-11T09:10:59Z</time>
      </trkpt>
      <trkpt lat="47.51418" lon="6.23962">
        <ele>266.4</ele>
        <time>2014-09-11T09:11:02Z</time>
      </trkpt>
      <trkpt lat="47.51428" lon="6.23974">
        <ele>266.5</ele>
        <time>2014-09-11T09:11:05Z</time>
      </trkpt>
      <trkpt lat="47.51436" lon="6.23982">
        <ele>266.5</ele>
        <time>2014-09-11T09:11:07Z</time>
      </trkpt>
      <trkpt lat="47.51444" lon="6.23989">
        <ele>266.5</ele>
        <time>2014-09-11T09:11:09Z</time>
      </trkpt>
      <trkpt lat="47.51453" lon="6.23998">
        <ele>266.5</ele>
        <time>2014-09-11T09:11:12Z</time>
      </trkpt>
      <trkpt lat="47.51462" lon="6.24008">
        <ele>266.4</ele>
        <time>2014-09-11T09:11:15Z</time>
      </trkpt>
      <trkpt lat="47.51473" lon="6.24018">
        <ele>266.4</ele>
        <time>2014-09-11T09:11:18Z</time>
      </trkpt>
      <trkpt lat="47.51485" lon="6.24027">
        <ele>266.5</ele>
        <time>2014-09-11T09:11:21Z</time>
      </trkpt>
      <trkpt lat="47.51496" lon="6.24036">
        <ele>266.5</ele>
        <time>2014-09-11T09:11:24Z</time>
      </trkpt>
      <trkpt lat="47.51506" lon="6.24045">
        <ele>266.8</ele>
        <time>2014-09-11T09:11:27Z</time>
      </trkpt>
      <trkpt lat="47.51517" lon="6.24054">
        <ele>266.8</ele>
        <time>2014-09-11T09:11:30Z</time>
      </trkpt>
      <trkpt lat="47.51527" lon="6.24064">
        <ele>266.7</ele>
        <time>2014-09-11T09:11:33Z</time>
      </trkpt>
      <trkpt lat="47.51535" lon="6.24071">
        <ele>266.8</ele>
        <time>2014-09-11T09:11:35Z</time>
      </trkpt>
      <trkpt lat="47.51546" lon="6.24081">
        <ele>266.5</ele>
        <time>2014-09-11T09:11:38Z</time>
      </trkpt>
      <trkpt lat="47.51556" lon="6.2409">
        <ele>266.5</ele>
        <time>2014-09-11T09:11:41Z</time>
      </trkpt>
      <trkpt lat="47.51565" lon="6.24099">
        <ele>266.6</ele>
        <time>2014-09-11T09:11:44Z</time>
      </trkpt>
      <trkpt lat="47.51574" lon="6.24108">
        <ele>266.6</ele>
        <time>2014-09-11T09:11:47Z</time>
      </trkpt>
      <trkpt lat="47.51583" lon="6.24117">
        <ele>266.4</ele>
        <time>2014-09-11T09:11:50Z</time>
      </trkpt>
      <trkpt lat="47.51592" lon="6.24128">
        <ele>266.4</ele>
        <time>2014-09-11T09:11:53Z</time>
      </trkpt>
      <trkpt lat="47.51602" lon="6.24138">
        <ele>266.3</ele>
        <time>2014-09-11T09:11:56Z</time>
      </trkpt>
      <trkpt lat="47.51611" lon="6.24149">
        <ele>266.7</ele>
        <time>2014-09-11T09:11:59Z</time>
      </trkpt>
      <trkpt lat="47.51619" lon="6.24158">
        <ele>266.5</ele>
        <time>2014-09-11T09:12:02Z</time>
      </trkpt>
      <trkpt lat="47.51627" lon="6.2417">
        <ele>266.5</ele>
        <time>2014-09-11T09:12:05Z</time>
      </trkpt>
      <trkpt lat="47.51636" lon="6.2418">
        <ele>266.4</ele>
        <time>2014-09-11T09:12:08Z</time>
      </trkpt>
      <trkpt lat="47.51643" lon="6.24189">
        <ele>266.4</ele>
        <time>2014-09-11T09:12:11Z</time>
      </trkpt>
      <trkpt lat="47.51651" lon="6.24199">
        <ele>266.3</ele>
        <time>2014-09-11T09:12:14Z</time>
      </trkpt>
      <trkpt lat="47.51657" lon="6.2421">
        <ele>266.4</ele>
        <time>2014-09-11T09:12:17Z</time>
      </trkpt>
      <trkpt lat="47.51665" lon="6.24221">
        <ele>266.6</ele>
        <time>2014-09-11T09:12:20Z</time>
      </trkpt>
      <trkpt lat="47.51673" lon="6.24232">
        <ele>266.5</ele>
        <time>2014-09-11T09:12:23Z</time>
      </trkpt>
      <trkpt lat="47.51681" lon="6.24244">
        <ele>266.7</ele>
        <time>2014-09-11T09:12:26Z</time>
      </trkpt>
      <trkpt lat="47.5169" lon="6.24254">
        <ele>266.6</ele>
        <time>2014-09-11T09:12:29Z</time>
      </trkpt>
      <trkpt lat="47.517" lon="6.24267">
        <ele>266.8</ele>
        <time>2014-09-11T09:12:32Z</time>
      </trkpt>
      <trkpt lat="47.5171" lon="6.24279">
        <ele>266.7</ele>
        <time>2014-09-11T09:12:35Z</time>
      </trkpt>
      <trkpt lat="47.5172" lon="6.24288">
        <ele>266.6</ele>
        <time>2014-09-11T09:12:37Z</time>
      </trkpt>
      <trkpt lat="47.51733" lon="6.243">
        <ele>266.6</ele>
        <time>2014-09-11T09:12:40Z</time>
      </trkpt>
      <trkpt lat="47.5174" lon="6.24308">
        <ele>266.7</ele>
        <time>2014-09-11T09:12:42Z</time>
      </trkpt>
      <trkpt lat="47.51749" lon="6.24315">
        <ele>266.6</ele>
        <time>2014-09-11T09:12:44Z</time>
      </trkpt>
      <trkpt lat="47.51759" lon="6.24322">
        <ele>266.4</ele>
        <time>2014-09-11T09:12:46Z</time>
      </trkpt>
      <trkpt lat="47.51769" lon="6.2433">
        <ele>266.6</ele>
        <time>2014-09-11T09:12:48Z</time>
      </trkpt>
      <trkpt lat="47.51779" lon="6.24336">
        <ele>266.5</ele>
        <time>2014-09-11T09:12:50Z</time>
      </trkpt>
      <trkpt lat="47.5179" lon="6.24347">
        <ele>266.5</ele>
        <time>2014-09-11T09:12:53Z</time>
      </trkpt>
      <trkpt lat="47.518" lon="6.24358">
        <ele>266.5</ele>
        <time>2014-09-11T09:12:56Z</time>
      </trkpt>
      <trkpt lat="47.51807" lon="6.24366">
        <ele>266.4</ele>
        <time>2014-09-11T09:12:58Z</time>
      </trkpt>
      <trkpt lat="47.51817" lon="6.24373">
        <ele>266.6</ele>
        <time>2014-09-11T09:13:00Z</time>
      </trkpt>
      <trkpt lat="47.51827" lon="6.24379">
        <ele>266.5</ele>
        <time>2014-09-11T09:13:02Z</time>
      </trkpt>
      <trkpt lat="47.51835" lon="6.24385">
        <ele>266.7</ele>
        <time>2014-09-11T09:13:04Z</time>
      </trkpt>
      <trkpt lat="47.51844" lon="6.24393">
        <ele>266.8</ele>
        <time>2014-09-11T09:13:06Z</time>
      </trkpt>
      <trkpt lat="47.51855" lon="6.24401">
        <ele>266.8</ele>
        <time>2014-09-11T09:13:08Z</time>
      </trkpt>
      <trkpt lat="47.51863" lon="6.24408">
        <ele>266.6</ele>
        <time>2014-09-11T09:13:10Z</time>
      </trkpt>
      <trkpt lat="47.51871" lon="6.24416">
        <ele>266.6</ele>
        <time>2014-09-11T09:13:12Z</time>
      </trkpt>
      <trkpt lat="47.51879" lon="6.24423">
        <ele>266.6</ele>
        <time>2014-09-11T09:13:14Z</time>
      </trkpt>
      <trkpt lat="47.5189" lon="6.24432">
        <ele>267</ele>
        <time>2014-09-11T09:13:17Z</time>
      </trkpt>
      <trkpt lat="47.51901" lon="6.24439">
        <ele>266.9</ele>
        <time>2014-09-11T09:13:20Z</time>
      </trkpt>
      <trkpt lat="47.51911" lon="6.24446">
        <ele>267</ele>
        <time>2014-09-11T09:13:23Z</time>
      </trkpt>
      <trkpt lat="47.51921" lon="6.24453">
        <ele>266.9</ele>
        <time>2014-09-11T09:13:26Z</time>
      </trkpt>
      <trkpt lat="47.5193" lon="6.24458">
        <ele>267.1</ele>
        <time>2014-09-11T09:13:28Z</time>
      </trkpt>
      <trkpt lat="47.51942" lon="6.24466">
        <ele>266.9</ele>
        <time>2014-09-11T09:13:31Z</time>
      </trkpt>
      <trkpt lat="47.51953" lon="6.24476">
        <ele>266.9</ele>
        <time>2014-09-11T09:13:34Z</time>
      </trkpt>
      <trkpt lat="47.51963" lon="6.24485">
        <ele>267.2</ele>
        <time>2014-09-11T09:13:37Z</time>
      </trkpt>
      <trkpt lat="47.51974" lon="6.24496">
        <ele>267.2</ele>
        <time>2014-09-11T09:13:40Z</time>
      </trkpt>
      <trkpt lat="47.51983" lon="6.24504">
        <ele>267.1</ele>
        <time>2014-09-11T09:13:43Z</time>
      </trkpt>
      <trkpt lat="47.51993" lon="6.24512">
        <ele>267.2</ele>
        <time>2014-09-11T09:13:46Z</time>
      </trkpt>
      <trkpt lat="47.52004" lon="6.2452">
        <ele>267.4</ele>
        <time>2014-09-11T09:13:49Z</time>
      </trkpt>
      <trkpt lat="47.52014" lon="6.24529">
        <ele>267.3</ele>
        <time>2014-09-11T09:13:52Z</time>
      </trkpt>
      <trkpt lat="47.52024" lon="6.24537">
        <ele>267.3</ele>
        <time>2014-09-11T09:13:55Z</time>
      </trkpt>
      <trkpt lat="47.52035" lon="6.24544">
        <ele>267.1</ele>
        <time>2014-09-11T09:13:58Z</time>
      </trkpt>
      <trkpt lat="47.52045" lon="6.24552">
        <ele>267</ele>
        <time>2014-09-11T09:14:01Z</time>
      </trkpt>
      <trkpt lat="47.52053" lon="6.24559">
        <ele>267.1</ele>
        <time>2014-09-11T09:14:04Z</time>
      </trkpt>
      <trkpt lat="47.52062" lon="6.24566">
        <ele>267</ele>
        <time>2014-09-11T09:14:08Z</time>
      </trkpt>
      <trkpt lat="47.52071" lon="6.24573">
        <ele>266.9</ele>
        <time>2014-09-11T09:14:14Z</time>
      </trkpt>
      <trkpt lat="47.52081" lon="6.2458">
        <ele>267.2</ele>
        <time>2014-09-11T09:15:40Z</time>
      </trkpt>
      <trkpt lat="47.52091" lon="6.24587">
        <ele>267.1</ele>
        <time>2014-09-11T09:15:43Z</time>
      </trkpt>
      <trkpt lat="47.52101" lon="6.24596">
        <ele>266.8</ele>
        <time>2014-09-11T09:15:46Z</time>
      </trkpt>
      <trkpt lat="47.5211" lon="6.24605">
        <ele>266.9</ele>
        <time>2014-09-11T09:15:49Z</time>
      </trkpt>
      <trkpt lat="47.5212" lon="6.24611">
        <ele>266.8</ele>
        <time>2014-09-11T09:15:52Z</time>
      </trkpt>
      <trkpt lat="47.52129" lon="6.24619">
        <ele>266.8</ele>
        <time>2014-09-11T09:15:55Z</time>
      </trkpt>
      <trkpt lat="47.52139" lon="6.24627">
        <ele>266.9</ele>
        <time>2014-09-11T09:15:58Z</time>
      </trkpt>
      <trkpt lat="47.52148" lon="6.24635">
        <ele>267.1</ele>
        <time>2014-09-11T09:16:01Z</time>
      </trkpt>
      <trkpt lat="47.52157" lon="6.24644">
        <ele>267.3</ele>
        <time>2014-09-11T09:16:04Z</time>
      </trkpt>
      <trkpt lat="47.52167" lon="6.24652">
        <ele>267.4</ele>
        <time>2014-09-11T09:16:07Z</time>
      </trkpt>
      <trkpt lat="47.52177" lon="6.24659">
        <ele>267.7</ele>
        <time>2014-09-11T09:16:10Z</time>
      </trkpt>
      <trkpt lat="47.52186" lon="6.24667">
        <ele>267.6</ele>
        <time>2014-09-11T09:16:13Z</time>
      </trkpt>
      <trkpt lat="47.52194" lon="6.24675">
        <ele>267.7</ele>
        <time>2014-09-11T09:16:17Z</time>
      </trkpt>
      <trkpt lat="47.52202" lon="6.24682">
        <ele>267.6</ele>
        <time>2014-09-11T09:16:20Z</time>
      </trkpt>
      <trkpt lat="47.52211" lon="6.24692">
        <ele>267.9</ele>
        <time>2014-09-11T09:16:24Z</time>
      </trkpt>
      <trkpt lat="47.5222" lon="6.24701">
        <ele>267.8</ele>
        <time>2014-09-11T09:16:29Z</time>
      </trkpt>
      <trkpt lat="47.52229" lon="6.24711">
        <ele>267.9</ele>
        <time>2014-09-11T09:16:33Z</time>
      </trkpt>
      <trkpt lat="47.52236" lon="6.24723">
        <ele>267.7</ele>
        <time>2014-09-11T09:16:38Z</time>
      </trkpt>
      <trkpt lat="47.52247" lon="6.24729">
        <ele>267.7</ele>
        <time>2014-09-11T09:16:40Z</time>
      </trkpt>
      <trkpt lat="47.52255" lon="6.24734">
        <ele>267.5</ele>
        <time>2014-09-11T09:16:42Z</time>
      </trkpt>
      <trkpt lat="47.52266" lon="6.24739">
        <ele>267.9</ele>
        <time>2014-09-11T09:16:44Z</time>
      </trkpt>
      <trkpt lat="47.52277" lon="6.24746">
        <ele>268</ele>
        <time>2014-09-11T09:16:47Z</time>
      </trkpt>
      <trkpt lat="47.52286" lon="6.24754">
        <ele>268.1</ele>
        <time>2014-09-11T09:16:50Z</time>
      </trkpt>
      <trkpt lat="47.52294" lon="6.24763">
        <ele>268.1</ele>
        <time>2014-09-11T09:16:53Z</time>
      </trkpt>
      <trkpt lat="47.52303" lon="6.24773">
        <ele>268</ele>
        <time>2014-09-11T09:16:57Z</time>
      </trkpt>
      <trkpt lat="47.52312" lon="6.24782">
        <ele>268.1</ele>
        <time>2014-09-11T09:17:00Z</time>
      </trkpt>
      <trkpt lat="47.52322" lon="6.2479">
        <ele>268.2</ele>
        <time>2014-09-11T09:17:03Z</time>
      </trkpt>
      <trkpt lat="47.52335" lon="6.24798">
        <ele>268.4</ele>
        <time>2014-09-11T09:17:06Z</time>
      </trkpt>
      <trkpt lat="47.52345" lon="6.24805">
        <ele>268.7</ele>
        <time>2014-09-11T09:17:09Z</time>
      </trkpt>
      <trkpt lat="47.52354" lon="6.24811">
        <ele>268.8</ele>
        <time>2014-09-11T09:17:11Z</time>
      </trkpt>
      <trkpt lat="47.52363" lon="6.24819">
        <ele>269</ele>
        <time>2014-09-11T09:17:13Z</time>
      </trkpt>
      <trkpt lat="47.52374" lon="6.24827">
        <ele>269.1</ele>
        <time>2014-09-11T09:17:16Z</time>
      </trkpt>
      <trkpt lat="47.52384" lon="6.24834">
        <ele>269.2</ele>
        <time>2014-09-11T09:17:19Z</time>
      </trkpt>
      <trkpt lat="47.52393" lon="6.24843">
        <ele>269.5</ele>
        <time>2014-09-11T09:17:22Z</time>
      </trkpt>
      <trkpt lat="47.52402" lon="6.2485">
        <ele>269.7</ele>
        <time>2014-09-11T09:17:25Z</time>
      </trkpt>
      <trkpt lat="47.5241" lon="6.24858">
        <ele>269.8</ele>
        <time>2014-09-11T09:17:28Z</time>
      </trkpt>
      <trkpt lat="47.52419" lon="6.24866">
        <ele>269.7</ele>
        <time>2014-09-11T09:17:31Z</time>
      </trkpt>
      <trkpt lat="47.5243" lon="6.24873">
        <ele>269.9</ele>
        <time>2014-09-11T09:17:34Z</time>
      </trkpt>
      <trkpt lat="47.5244" lon="6.2488">
        <ele>269.9</ele>
        <time>2014-09-11T09:17:37Z</time>
      </trkpt>
      <trkpt lat="47.52454" lon="6.24887">
        <ele>270</ele>
        <time>2014-09-11T09:17:41Z</time>
      </trkpt>
      <trkpt lat="47.52467" lon="6.24894">
        <ele>270.3</ele>
        <time>2014-09-11T09:17:44Z</time>
      </trkpt>
      <trkpt lat="47.52476" lon="6.24901">
        <ele>270.2</ele>
        <time>2014-09-11T09:17:46Z</time>
      </trkpt>
      <trkpt lat="47.52488" lon="6.24908">
        <ele>270.4</ele>
        <time>2014-09-11T09:17:49Z</time>
      </trkpt>
      <trkpt lat="47.52499" lon="6.24914">
        <ele>270.6</ele>
        <time>2014-09-11T09:17:52Z</time>
      </trkpt>
      <trkpt lat="47.52508" lon="6.2492">
        <ele>270.8</ele>
        <time>2014-09-11T09:17:55Z</time>
      </trkpt>
      <trkpt lat="47.52518" lon="6.24926">
        <ele>271.1</ele>
        <time>2014-09-11T09:17:58Z</time>
      </trkpt>
      <trkpt lat="47.52527" lon="6.2493">
        <ele>271</ele>
        <time>2014-09-11T09:18:01Z</time>
      </trkpt>
      <trkpt lat="47.52536" lon="6.24937">
        <ele>271.8</ele>
        <time>2014-09-11T09:18:06Z</time>
      </trkpt>
      <trkpt lat="47.52544" lon="6.24944">
        <ele>272.1</ele>
        <time>2014-09-11T09:18:10Z</time>
      </trkpt>
      <trkpt lat="47.52553" lon="6.24947">
        <ele>272.1</ele>
        <time>2014-09-11T09:18:12Z</time>
      </trkpt>
      <trkpt lat="47.52564" lon="6.24953">
        <ele>272.1</ele>
        <time>2014-09-11T09:18:15Z</time>
      </trkpt>
      <trkpt lat="47.52573" lon="6.24957">
        <ele>272.1</ele>
        <time>2014-09-11T09:18:18Z</time>
      </trkpt>
      <trkpt lat="47.52581" lon="6.24962">
        <ele>272.2</ele>
        <time>2014-09-11T09:18:21Z</time>
      </trkpt>
      <trkpt lat="47.5259" lon="6.24968">
        <ele>272.4</ele>
        <time>2014-09-11T09:18:23Z</time>
      </trkpt>
      <trkpt lat="47.52599" lon="6.24976">
        <ele>272.4</ele>
        <time>2014-09-11T09:18:26Z</time>
      </trkpt>
      <trkpt lat="47.52609" lon="6.24987">
        <ele>272.7</ele>
        <time>2014-09-11T09:18:29Z</time>
      </trkpt>
      <trkpt lat="47.52619" lon="6.24995">
        <ele>272.6</ele>
        <time>2014-09-11T09:18:31Z</time>
      </trkpt>
      <trkpt lat="47.52629" lon="6.25003">
        <ele>272.7</ele>
        <time>2014-09-11T09:18:33Z</time>
      </trkpt>
      <trkpt lat="47.52642" lon="6.25012">
        <ele>272.5</ele>
        <time>2014-09-11T09:18:36Z</time>
      </trkpt>
      <trkpt lat="47.52652" lon="6.25021">
        <ele>272.6</ele>
        <time>2014-09-11T09:18:39Z</time>
      </trkpt>
      <trkpt lat="47.52666" lon="6.25029">
        <ele>272.4</ele>
        <time>2014-09-11T09:18:41Z</time>
      </trkpt>
      <trkpt lat="47.5268" lon="6.25042">
        <ele>272.3</ele>
        <time>2014-09-11T09:18:43Z</time>
      </trkpt>
      <trkpt lat="47.52691" lon="6.25049">
        <ele>272.4</ele>
        <time>2014-09-11T09:18:45Z</time>
      </trkpt>
      <trkpt lat="47.52705" lon="6.25056">
        <ele>272.4</ele>
        <time>2014-09-11T09:18:48Z</time>
      </trkpt>
      <trkpt lat="47.52714" lon="6.25058">
        <ele>272.4</ele>
        <time>2014-09-11T09:18:50Z</time>
      </trkpt>
      <trkpt lat="47.52724" lon="6.25062">
        <ele>272.4</ele>
        <time>2014-09-11T09:18:52Z</time>
      </trkpt>
      <trkpt lat="47.52734" lon="6.25062">
        <ele>272.3</ele>
        <time>2014-09-11T09:18:54Z</time>
      </trkpt>
      <trkpt lat="47.52743" lon="6.25063">
        <ele>272.1</ele>
        <time>2014-09-11T09:18:56Z</time>
      </trkpt>
      <trkpt lat="47.52756" lon="6.25065">
        <ele>271.6</ele>
        <time>2014-09-11T09:18:59Z</time>
      </trkpt>
      <trkpt lat="47.52769" lon="6.25067">
        <ele>271.7</ele>
        <time>2014-09-11T09:19:02Z</time>
      </trkpt>
      <trkpt lat="47.52782" lon="6.25071">
        <ele>271.6</ele>
        <time>2014-09-11T09:19:05Z</time>
      </trkpt>
      <trkpt lat="47.52794" lon="6.25075">
        <ele>271.5</ele>
        <time>2014-09-11T09:19:08Z</time>
      </trkpt>
      <trkpt lat="47.52807" lon="6.25078">
        <ele>271.4</ele>
        <time>2014-09-11T09:19:11Z</time>
      </trkpt>
      <trkpt lat="47.5282" lon="6.25083">
        <ele>271.3</ele>
        <time>2014-09-11T09:19:14Z</time>
      </trkpt>
      <trkpt lat="47.52829" lon="6.25084">
        <ele>271.4</ele>
        <time>2014-09-11T09:19:16Z</time>
      </trkpt>
      <trkpt lat="47.52839" lon="6.25085">
        <ele>271.3</ele>
        <time>2014-09-11T09:19:18Z</time>
      </trkpt>
      <trkpt lat="47.52848" lon="6.25083">
        <ele>271.2</ele>
        <time>2014-09-11T09:19:20Z</time>
      </trkpt>
      <trkpt lat="47.5286" lon="6.2508">
        <ele>270.9</ele>
        <time>2014-09-11T09:19:23Z</time>
      </trkpt>
      <trkpt lat="47.52872" lon="6.25079">
        <ele>270.6</ele>
        <time>2014-09-11T09:19:26Z</time>
      </trkpt>
      <trkpt lat="47.52884" lon="6.25077">
        <ele>270.9</ele>
        <time>2014-09-11T09:19:29Z</time>
      </trkpt>
      <trkpt lat="47.52896" lon="6.25074">
        <ele>271.1</ele>
        <time>2014-09-11T09:19:32Z</time>
      </trkpt>
      <trkpt lat="47.52907" lon="6.25073">
        <ele>270.7</ele>
        <time>2014-09-11T09:19:35Z</time>
      </trkpt>
      <trkpt lat="47.52919" lon="6.2507">
        <ele>270.6</ele>
        <time>2014-09-11T09:19:38Z</time>
      </trkpt>
      <trkpt lat="47.5293" lon="6.25068">
        <ele>270.7</ele>
        <time>2014-09-11T09:19:41Z</time>
      </trkpt>
      <trkpt lat="47.52942" lon="6.25069">
        <ele>270.7</ele>
        <time>2014-09-11T09:19:44Z</time>
      </trkpt>
      <trkpt lat="47.52951" lon="6.25068">
        <ele>270.7</ele>
        <time>2014-09-11T09:19:46Z</time>
      </trkpt>
      <trkpt lat="47.52962" lon="6.25068">
        <ele>270.5</ele>
        <time>2014-09-11T09:19:49Z</time>
      </trkpt>
      <trkpt lat="47.52973" lon="6.25067">
        <ele>270.5</ele>
        <time>2014-09-11T09:19:52Z</time>
      </trkpt>
      <trkpt lat="47.52985" lon="6.25066">
        <ele>270.3</ele>
        <time>2014-09-11T09:19:55Z</time>
      </trkpt>
      <trkpt lat="47.52996" lon="6.25066">
        <ele>270.6</ele>
        <time>2014-09-11T09:19:58Z</time>
      </trkpt>
      <trkpt lat="47.53009" lon="6.25063">
        <ele>270.4</ele>
        <time>2014-09-11T09:20:01Z</time>
      </trkpt>
      <trkpt lat="47.53021" lon="6.25064">
        <ele>270.3</ele>
        <time>2014-09-11T09:20:04Z</time>
      </trkpt>
      <trkpt lat="47.53034" lon="6.25063">
        <ele>270.4</ele>
        <time>2014-09-11T09:20:07Z</time>
      </trkpt>
      <trkpt lat="47.53046" lon="6.2506">
        <ele>270.5</ele>
        <time>2014-09-11T09:20:10Z</time>
      </trkpt>
      <trkpt lat="47.53058" lon="6.25058">
        <ele>270.7</ele>
        <time>2014-09-11T09:20:13Z</time>
      </trkpt>
      <trkpt lat="47.53071" lon="6.25058">
        <ele>270.9</ele>
        <time>2014-09-11T09:20:16Z</time>
      </trkpt>
      <trkpt lat="47.53083" lon="6.25058">
        <ele>270.9</ele>
        <time>2014-09-11T09:20:19Z</time>
      </trkpt>
      <trkpt lat="47.53095" lon="6.25058">
        <ele>270.9</ele>
        <time>2014-09-11T09:20:22Z</time>
      </trkpt>
      <trkpt lat="47.53107" lon="6.25059">
        <ele>271</ele>
        <time>2014-09-11T09:20:25Z</time>
      </trkpt>
      <trkpt lat="47.53119" lon="6.25059">
        <ele>271.2</ele>
        <time>2014-09-11T09:20:28Z</time>
      </trkpt>
      <trkpt lat="47.53131" lon="6.25061">
        <ele>271.4</ele>
        <time>2014-09-11T09:20:31Z</time>
      </trkpt>
      <trkpt lat="47.53142" lon="6.25063">
        <ele>271.5</ele>
        <time>2014-09-11T09:20:34Z</time>
      </trkpt>
      <trkpt lat="47.53154" lon="6.25066">
        <ele>271.6</ele>
        <time>2014-09-11T09:20:37Z</time>
      </trkpt>
      <trkpt lat="47.53166" lon="6.2507">
        <ele>271.7</ele>
        <time>2014-09-11T09:20:40Z</time>
      </trkpt>
      <trkpt lat="47.53176" lon="6.25073">
        <ele>271.9</ele>
        <time>2014-09-11T09:20:43Z</time>
      </trkpt>
      <trkpt lat="47.53187" lon="6.25078">
        <ele>272.3</ele>
        <time>2014-09-11T09:20:46Z</time>
      </trkpt>
      <trkpt lat="47.53196" lon="6.25082">
        <ele>272.5</ele>
        <time>2014-09-11T09:20:49Z</time>
      </trkpt>
      <trkpt lat="47.53205" lon="6.25087">
        <ele>272.5</ele>
        <time>2014-09-11T09:20:52Z</time>
      </trkpt>
      <trkpt lat="47.53214" lon="6.25095">
        <ele>272.6</ele>
        <time>2014-09-11T09:20:56Z</time>
      </trkpt>
      <trkpt lat="47.53223" lon="6.25102">
        <ele>272.8</ele>
        <time>2014-09-11T09:21:00Z</time>
      </trkpt>
      <trkpt lat="47.53231" lon="6.25109">
        <ele>272.8</ele>
        <time>2014-09-11T09:21:06Z</time>
      </trkpt>
      <trkpt lat="47.53241" lon="6.25111">
        <ele>272.9</ele>
        <time>2014-09-11T09:21:13Z</time>
      </trkpt>
      <trkpt lat="47.53249" lon="6.25117">
        <ele>272.5</ele>
        <time>2014-09-11T09:21:18Z</time>
      </trkpt>
      <trkpt lat="47.53258" lon="6.25123">
        <ele>272.5</ele>
        <time>2014-09-11T09:21:25Z</time>
      </trkpt>
      <trkpt lat="47.53268" lon="6.25129">
        <ele>272.5</ele>
        <time>2014-09-11T09:21:29Z</time>
      </trkpt>
      <trkpt lat="47.53277" lon="6.25134">
        <ele>272.4</ele>
        <time>2014-09-11T09:21:32Z</time>
      </trkpt>
      <trkpt lat="47.53287" lon="6.25138">
        <ele>272.4</ele>
        <time>2014-09-11T09:21:35Z</time>
      </trkpt>
      <trkpt lat="47.53297" lon="6.25145">
        <ele>272.5</ele>
        <time>2014-09-11T09:21:38Z</time>
      </trkpt>
      <trkpt lat="47.53307" lon="6.25152">
        <ele>272.6</ele>
        <time>2014-09-11T09:21:41Z</time>
      </trkpt>
      <trkpt lat="47.53318" lon="6.25161">
        <ele>272.7</ele>
        <time>2014-09-11T09:21:44Z</time>
      </trkpt>
      <trkpt lat="47.53328" lon="6.25169">
        <ele>272.9</ele>
        <time>2014-09-11T09:21:47Z</time>
      </trkpt>
      <trkpt lat="47.53338" lon="6.2518">
        <ele>272.9</ele>
        <time>2014-09-11T09:21:50Z</time>
      </trkpt>
      <trkpt lat="47.53346" lon="6.25191">
        <ele>272.7</ele>
        <time>2014-09-11T09:21:53Z</time>
      </trkpt>
      <trkpt lat="47.53355" lon="6.25199">
        <ele>272.8</ele>
        <time>2014-09-11T09:21:56Z</time>
      </trkpt>
      <trkpt lat="47.53363" lon="6.25208">
        <ele>272.8</ele>
        <time>2014-09-11T09:21:59Z</time>
      </trkpt>
      <trkpt lat="47.53372" lon="6.25219">
        <ele>272.9</ele>
        <time>2014-09-11T09:22:02Z</time>
      </trkpt>
      <trkpt lat="47.53381" lon="6.2523">
        <ele>273</ele>
        <time>2014-09-11T09:22:05Z</time>
      </trkpt>
      <trkpt lat="47.53388" lon="6.2524">
        <ele>273</ele>
        <time>2014-09-11T09:22:08Z</time>
      </trkpt>
      <trkpt lat="47.53397" lon="6.25251">
        <ele>272.8</ele>
        <time>2014-09-11T09:22:12Z</time>
      </trkpt>
      <trkpt lat="47.53406" lon="6.25262">
        <ele>273.1</ele>
        <time>2014-09-11T09:22:16Z</time>
      </trkpt>
      <trkpt lat="47.53413" lon="6.2527">
        <ele>273</ele>
        <time>2014-09-11T09:22:19Z</time>
      </trkpt>
      <trkpt lat="47.53421" lon="6.2528">
        <ele>273.3</ele>
        <time>2014-09-11T09:22:22Z</time>
      </trkpt>
      <trkpt lat="47.53429" lon="6.25291">
        <ele>273.1</ele>
        <time>2014-09-11T09:22:25Z</time>
      </trkpt>
      <trkpt lat="47.53437" lon="6.25302">
        <ele>273.1</ele>
        <time>2014-09-11T09:22:28Z</time>
      </trkpt>
      <trkpt lat="47.53445" lon="6.25312">
        <ele>273</ele>
        <time>2014-09-11T09:22:31Z</time>
      </trkpt>
      <trkpt lat="47.53452" lon="6.25322">
        <ele>272.9</ele>
        <time>2014-09-11T09:22:34Z</time>
      </trkpt>
      <trkpt lat="47.5346" lon="6.25333">
        <ele>272.9</ele>
        <time>2014-09-11T09:22:37Z</time>
      </trkpt>
      <trkpt lat="47.53469" lon="6.25345">
        <ele>272.8</ele>
        <time>2014-09-11T09:22:40Z</time>
      </trkpt>
      <trkpt lat="47.53478" lon="6.25356">
        <ele>273</ele>
        <time>2014-09-11T09:22:43Z</time>
      </trkpt>
      <trkpt lat="47.53487" lon="6.25367">
        <ele>272.9</ele>
        <time>2014-09-11T09:22:46Z</time>
      </trkpt>
      <trkpt lat="47.53496" lon="6.25378">
        <ele>272.9</ele>
        <time>2014-09-11T09:22:49Z</time>
      </trkpt>
      <trkpt lat="47.53505" lon="6.25389">
        <ele>272.9</ele>
        <time>2014-09-11T09:22:52Z</time>
      </trkpt>
      <trkpt lat="47.53514" lon="6.25399">
        <ele>272.8</ele>
        <time>2014-09-11T09:22:55Z</time>
      </trkpt>
      <trkpt lat="47.53521" lon="6.2541">
        <ele>272.8</ele>
        <time>2014-09-11T09:22:58Z</time>
      </trkpt>
      <trkpt lat="47.53529" lon="6.2542">
        <ele>272.7</ele>
        <time>2014-09-11T09:23:01Z</time>
      </trkpt>
      <trkpt lat="47.53537" lon="6.25431">
        <ele>272.5</ele>
        <time>2014-09-11T09:23:04Z</time>
      </trkpt>
      <trkpt lat="47.53545" lon="6.25442">
        <ele>273</ele>
        <time>2014-09-11T09:23:07Z</time>
      </trkpt>
      <trkpt lat="47.53553" lon="6.25453">
        <ele>273.2</ele>
        <time>2014-09-11T09:23:10Z</time>
      </trkpt>
      <trkpt lat="47.53562" lon="6.25464">
        <ele>273.2</ele>
        <time>2014-09-11T09:23:13Z</time>
      </trkpt>
      <trkpt lat="47.53571" lon="6.25476">
        <ele>273.4</ele>
        <time>2014-09-11T09:23:16Z</time>
      </trkpt>
      <trkpt lat="47.5358" lon="6.25488">
        <ele>273.1</ele>
        <time>2014-09-11T09:23:19Z</time>
      </trkpt>
      <trkpt lat="47.53589" lon="6.255">
        <ele>273.2</ele>
        <time>2014-09-11T09:23:22Z</time>
      </trkpt>
      <trkpt lat="47.53598" lon="6.25512">
        <ele>273.1</ele>
        <time>2014-09-11T09:23:25Z</time>
      </trkpt>
      <trkpt lat="47.53607" lon="6.25525">
        <ele>273.2</ele>
        <time>2014-09-11T09:23:28Z</time>
      </trkpt>
      <trkpt lat="47.53616" lon="6.25536">
        <ele>273.3</ele>
        <time>2014-09-11T09:23:31Z</time>
      </trkpt>
      <trkpt lat="47.53625" lon="6.25548">
        <ele>273.2</ele>
        <time>2014-09-11T09:23:34Z</time>
      </trkpt>
      <trkpt lat="47.53634" lon="6.25559">
        <ele>273.1</ele>
        <time>2014-09-11T09:23:37Z</time>
      </trkpt>
      <trkpt lat="47.53642" lon="6.25571">
        <ele>273</ele>
        <time>2014-09-11T09:23:40Z</time>
      </trkpt>
      <trkpt lat="47.53651" lon="6.25581">
        <ele>273.1</ele>
        <time>2014-09-11T09:23:43Z</time>
      </trkpt>
      <trkpt lat="47.53658" lon="6.25591">
        <ele>273</ele>
        <time>2014-09-11T09:23:46Z</time>
      </trkpt>
      <trkpt lat="47.53667" lon="6.25602">
        <ele>273.3</ele>
        <time>2014-09-11T09:23:49Z</time>
      </trkpt>
      <trkpt lat="47.53675" lon="6.25613">
        <ele>273.4</ele>
        <time>2014-09-11T09:23:52Z</time>
      </trkpt>
      <trkpt lat="47.53684" lon="6.25627">
        <ele>273</ele>
        <time>2014-09-11T09:25:08Z</time>
      </trkpt>
      <trkpt lat="47.53692" lon="6.25639">
        <ele>273.6</ele>
        <time>2014-09-11T09:25:13Z</time>
      </trkpt>
      <trkpt lat="47.537" lon="6.25646">
        <ele>273.5</ele>
        <time>2014-09-11T09:25:16Z</time>
      </trkpt>
      <trkpt lat="47.53709" lon="6.25656">
        <ele>273.7</ele>
        <time>2014-09-11T09:25:19Z</time>
      </trkpt>
      <trkpt lat="47.53719" lon="6.25669">
        <ele>274.1</ele>
        <time>2014-09-11T09:25:22Z</time>
      </trkpt>
      <trkpt lat="47.53729" lon="6.25681">
        <ele>274</ele>
        <time>2014-09-11T09:25:25Z</time>
      </trkpt>
      <trkpt lat="47.53737" lon="6.25692">
        <ele>274.1</ele>
        <time>2014-09-11T09:25:28Z</time>
      </trkpt>
      <trkpt lat="47.53745" lon="6.25702">
        <ele>274.5</ele>
        <time>2014-09-11T09:25:31Z</time>
      </trkpt>
      <trkpt lat="47.53756" lon="6.25715">
        <ele>274.6</ele>
        <time>2014-09-11T09:25:34Z</time>
      </trkpt>
      <trkpt lat="47.53764" lon="6.25726">
        <ele>274.8</ele>
        <time>2014-09-11T09:25:36Z</time>
      </trkpt>
      <trkpt lat="47.53771" lon="6.25735">
        <ele>274.7</ele>
        <time>2014-09-11T09:25:38Z</time>
      </trkpt>
      <trkpt lat="47.53781" lon="6.25748">
        <ele>274.5</ele>
        <time>2014-09-11T09:25:41Z</time>
      </trkpt>
      <trkpt lat="47.53788" lon="6.25758">
        <ele>274.6</ele>
        <time>2014-09-11T09:25:43Z</time>
      </trkpt>
      <trkpt lat="47.53796" lon="6.25767">
        <ele>274.9</ele>
        <time>2014-09-11T09:25:45Z</time>
      </trkpt>
      <trkpt lat="47.53804" lon="6.25776">
        <ele>275.1</ele>
        <time>2014-09-11T09:25:47Z</time>
      </trkpt>
      <trkpt lat="47.53812" lon="6.25785">
        <ele>275</ele>
        <time>2014-09-11T09:25:49Z</time>
      </trkpt>
      <trkpt lat="47.5382" lon="6.25795">
        <ele>275.1</ele>
        <time>2014-09-11T09:25:51Z</time>
      </trkpt>
      <trkpt lat="47.53826" lon="6.25805">
        <ele>275.1</ele>
        <time>2014-09-11T09:25:53Z</time>
      </trkpt>
      <trkpt lat="47.53834" lon="6.25813">
        <ele>275.1</ele>
        <time>2014-09-11T09:25:55Z</time>
      </trkpt>
      <trkpt lat="47.53841" lon="6.25823">
        <ele>274.9</ele>
        <time>2014-09-11T09:25:57Z</time>
      </trkpt>
      <trkpt lat="47.53848" lon="6.25833">
        <ele>275</ele>
        <time>2014-09-11T09:25:59Z</time>
      </trkpt>
      <trkpt lat="47.53855" lon="6.25842">
        <ele>274.9</ele>
        <time>2014-09-11T09:26:01Z</time>
      </trkpt>
      <trkpt lat="47.53862" lon="6.25851">
        <ele>275</ele>
        <time>2014-09-11T09:26:03Z</time>
      </trkpt>
      <trkpt lat="47.53869" lon="6.2586">
        <ele>274.9</ele>
        <time>2014-09-11T09:26:05Z</time>
      </trkpt>
      <trkpt lat="47.53875" lon="6.2587">
        <ele>274.9</ele>
        <time>2014-09-11T09:26:07Z</time>
      </trkpt>
      <trkpt lat="47.53883" lon="6.25879">
        <ele>274.9</ele>
        <time>2014-09-11T09:26:09Z</time>
      </trkpt>
      <trkpt lat="47.53889" lon="6.25889">
        <ele>274.8</ele>
        <time>2014-09-11T09:26:11Z</time>
      </trkpt>
      <trkpt lat="47.53896" lon="6.25898">
        <ele>275.1</ele>
        <time>2014-09-11T09:26:13Z</time>
      </trkpt>
      <trkpt lat="47.53903" lon="6.25907">
        <ele>275.2</ele>
        <time>2014-09-11T09:26:15Z</time>
      </trkpt>
      <trkpt lat="47.53912" lon="6.25921">
        <ele>275.2</ele>
        <time>2014-09-11T09:26:18Z</time>
      </trkpt>
      <trkpt lat="47.53922" lon="6.25934">
        <ele>275.3</ele>
        <time>2014-09-11T09:26:21Z</time>
      </trkpt>
      <trkpt lat="47.53932" lon="6.25946">
        <ele>275.2</ele>
        <time>2014-09-11T09:26:24Z</time>
      </trkpt>
      <trkpt lat="47.53941" lon="6.25958">
        <ele>275.3</ele>
        <time>2014-09-11T09:26:27Z</time>
      </trkpt>
      <trkpt lat="47.5395" lon="6.2597">
        <ele>275.4</ele>
        <time>2014-09-11T09:26:30Z</time>
      </trkpt>
      <trkpt lat="47.53958" lon="6.25982">
        <ele>275.3</ele>
        <time>2014-09-11T09:26:33Z</time>
      </trkpt>
      <trkpt lat="47.53966" lon="6.25995">
        <ele>275.2</ele>
        <time>2014-09-11T09:26:36Z</time>
      </trkpt>
      <trkpt lat="47.53973" lon="6.26006">
        <ele>275</ele>
        <time>2014-09-11T09:26:39Z</time>
      </trkpt>
      <trkpt lat="47.53979" lon="6.26016">
        <ele>275</ele>
        <time>2014-09-11T09:26:42Z</time>
      </trkpt>
      <trkpt lat="47.5398" lon="6.26031">
        <ele>274.9</ele>
        <time>2014-09-11T09:26:47Z</time>
      </trkpt>
      <trkpt lat="47.53974" lon="6.26044">
        <ele>274.7</ele>
        <time>2014-09-11T09:26:50Z</time>
      </trkpt>
      <trkpt lat="47.53969" lon="6.26058">
        <ele>274.4</ele>
        <time>2014-09-11T09:26:53Z</time>
      </trkpt>
      <trkpt lat="47.53965" lon="6.26071">
        <ele>274.1</ele>
        <time>2014-09-11T09:26:56Z</time>
      </trkpt>
      <trkpt lat="47.5396" lon="6.26085">
        <ele>274.1</ele>
        <time>2014-09-11T09:27:00Z</time>
      </trkpt>
      <trkpt lat="47.53952" lon="6.26094">
        <ele>274.2</ele>
        <time>2014-09-11T09:27:05Z</time>
      </trkpt>
      <trkpt lat="47.53943" lon="6.26099">
        <ele>274.5</ele>
        <time>2014-09-11T09:27:11Z</time>
      </trkpt>
      <trkpt lat="47.53934" lon="6.26106">
        <ele>275</ele>
        <time>2014-09-11T09:27:17Z</time>
      </trkpt>
      <trkpt lat="47.53928" lon="6.26118">
        <ele>275.5</ele>
        <time>2014-09-11T09:27:22Z</time>
      </trkpt>
      <trkpt lat="47.53927" lon="6.26132">
        <ele>276.3</ele>
        <time>2014-09-11T09:27:27Z</time>
      </trkpt>
      <trkpt lat="47.53928" lon="6.26148">
        <ele>276.6</ele>
        <time>2014-09-11T09:27:33Z</time>
      </trkpt>
      <trkpt lat="47.53934" lon="6.26158">
        <ele>277.1</ele>
        <time>2014-09-11T09:27:38Z</time>
      </trkpt>
      <trkpt lat="47.53936" lon="6.26171">
        <ele>277.8</ele>
        <time>2014-09-11T09:27:43Z</time>
      </trkpt>
      <trkpt lat="47.53945" lon="6.2618">
        <ele>277.9</ele>
        <time>2014-09-11T09:27:49Z</time>
      </trkpt>
      <trkpt lat="47.53938" lon="6.26169">
        <ele>277.3</ele>
        <time>2014-09-11T09:27:57Z</time>
      </trkpt>
      <trkpt lat="47.53933" lon="6.26156">
        <ele>276.9</ele>
        <time>2014-09-11T09:28:02Z</time>
      </trkpt>
      <trkpt lat="47.53927" lon="6.26145">
        <ele>276.4</ele>
        <time>2014-09-11T09:28:08Z</time>
      </trkpt>
      <trkpt lat="47.53928" lon="6.26132">
        <ele>276.1</ele>
        <time>2014-09-11T09:28:13Z</time>
      </trkpt>
      <trkpt lat="47.53929" lon="6.26117">
        <ele>275.4</ele>
        <time>2014-09-11T09:28:18Z</time>
      </trkpt>
      <trkpt lat="47.53934" lon="6.26105">
        <ele>275.5</ele>
        <time>2014-09-11T09:28:23Z</time>
      </trkpt>
      <trkpt lat="47.5394" lon="6.26095">
        <ele>275.2</ele>
        <time>2014-09-11T09:28:30Z</time>
      </trkpt>
      <trkpt lat="47.5395" lon="6.26089">
        <ele>275.1</ele>
        <time>2014-09-11T09:28:37Z</time>
      </trkpt>
      <trkpt lat="47.53958" lon="6.26099">
        <ele>275</ele>
        <time>2014-09-11T09:28:43Z</time>
      </trkpt>
      <trkpt lat="47.53963" lon="6.26085">
        <ele>274.5</ele>
        <time>2014-09-11T09:28:49Z</time>
      </trkpt>
      <trkpt lat="47.53966" lon="6.2607">
        <ele>274.3</ele>
        <time>2014-09-11T09:28:54Z</time>
      </trkpt>
      <trkpt lat="47.53967" lon="6.26056">
        <ele>273.9</ele>
        <time>2014-09-11T09:29:01Z</time>
      </trkpt>
      <trkpt lat="47.53972" lon="6.26043">
        <ele>274.3</ele>
        <time>2014-09-11T09:29:07Z</time>
      </trkpt>
      <trkpt lat="47.53978" lon="6.26033">
        <ele>274.9</ele>
        <time>2014-09-11T09:30:38Z</time>
      </trkpt>
      <trkpt lat="47.53987" lon="6.26039">
        <ele>274.9</ele>
        <time>2014-09-11T09:31:36Z</time>
      </trkpt>
      <trkpt lat="47.53995" lon="6.2605">
        <ele>274.7</ele>
        <time>2014-09-11T09:31:40Z</time>
      </trkpt>
      <trkpt lat="47.54004" lon="6.26061">
        <ele>275</ele>
        <time>2014-09-11T09:31:44Z</time>
      </trkpt>
      <trkpt lat="47.54011" lon="6.2607">
        <ele>275.2</ele>
        <time>2014-09-11T09:31:47Z</time>
      </trkpt>
      <trkpt lat="47.54019" lon="6.26079">
        <ele>275.2</ele>
        <time>2014-09-11T09:31:50Z</time>
      </trkpt>
      <trkpt lat="47.54026" lon="6.26089">
        <ele>275.6</ele>
        <time>2014-09-11T09:31:53Z</time>
      </trkpt>
      <trkpt lat="47.54034" lon="6.26099">
        <ele>275.7</ele>
        <time>2014-09-11T09:31:56Z</time>
      </trkpt>
      <trkpt lat="47.54042" lon="6.26108">
        <ele>275.6</ele>
        <time>2014-09-11T09:31:59Z</time>
      </trkpt>
      <trkpt lat="47.5405" lon="6.26117">
        <ele>275.3</ele>
        <time>2014-09-11T09:32:02Z</time>
      </trkpt>
      <trkpt lat="47.54058" lon="6.26127">
        <ele>275.4</ele>
        <time>2014-09-11T09:32:05Z</time>
      </trkpt>
      <trkpt lat="47.54067" lon="6.26137">
        <ele>275.3</ele>
        <time>2014-09-11T09:32:08Z</time>
      </trkpt>
      <trkpt lat="47.54074" lon="6.26147">
        <ele>275.3</ele>
        <time>2014-09-11T09:32:11Z</time>
      </trkpt>
      <trkpt lat="47.54082" lon="6.26158">
        <ele>275.4</ele>
        <time>2014-09-11T09:32:14Z</time>
      </trkpt>
      <trkpt lat="47.5409" lon="6.26168">
        <ele>275.7</ele>
        <time>2014-09-11T09:32:17Z</time>
      </trkpt>
      <trkpt lat="47.54097" lon="6.26177">
        <ele>275.9</ele>
        <time>2014-09-11T09:32:20Z</time>
      </trkpt>
      <trkpt lat="47.54104" lon="6.26187">
        <ele>275.7</ele>
        <time>2014-09-11T09:32:23Z</time>
      </trkpt>
      <trkpt lat="47.54111" lon="6.26196">
        <ele>275.6</ele>
        <time>2014-09-11T09:32:26Z</time>
      </trkpt>
      <trkpt lat="47.54118" lon="6.26203">
        <ele>275.6</ele>
        <time>2014-09-11T09:32:29Z</time>
      </trkpt>
      <trkpt lat="47.54125" lon="6.26213">
        <ele>275.6</ele>
        <time>2014-09-11T09:32:32Z</time>
      </trkpt>
      <trkpt lat="47.54133" lon="6.26223">
        <ele>275.6</ele>
        <time>2014-09-11T09:32:35Z</time>
      </trkpt>
      <trkpt lat="47.54141" lon="6.26232">
        <ele>275.9</ele>
        <time>2014-09-11T09:32:38Z</time>
      </trkpt>
      <trkpt lat="47.54149" lon="6.26241">
        <ele>276</ele>
        <time>2014-09-11T09:32:41Z</time>
      </trkpt>
      <trkpt lat="47.54157" lon="6.26253">
        <ele>275.9</ele>
        <time>2014-09-11T09:32:44Z</time>
      </trkpt>
      <trkpt lat="47.54165" lon="6.26263">
        <ele>275.7</ele>
        <time>2014-09-11T09:32:47Z</time>
      </trkpt>
      <trkpt lat="47.54174" lon="6.26275">
        <ele>275.9</ele>
        <time>2014-09-11T09:32:50Z</time>
      </trkpt>
      <trkpt lat="47.54182" lon="6.26286">
        <ele>276.3</ele>
        <time>2014-09-11T09:32:53Z</time>
      </trkpt>
      <trkpt lat="47.5419" lon="6.26297">
        <ele>276.1</ele>
        <time>2014-09-11T09:32:56Z</time>
      </trkpt>
      <trkpt lat="47.54198" lon="6.26309">
        <ele>276</ele>
        <time>2014-09-11T09:32:59Z</time>
      </trkpt>
      <trkpt lat="47.54207" lon="6.2632">
        <ele>276.1</ele>
        <time>2014-09-11T09:33:02Z</time>
      </trkpt>
      <trkpt lat="47.54215" lon="6.26331">
        <ele>276</ele>
        <time>2014-09-11T09:33:05Z</time>
      </trkpt>
      <trkpt lat="47.54225" lon="6.26342">
        <ele>276.1</ele>
        <time>2014-09-11T09:33:08Z</time>
      </trkpt>
      <trkpt lat="47.54234" lon="6.26354">
        <ele>276.1</ele>
        <time>2014-09-11T09:33:11Z</time>
      </trkpt>
      <trkpt lat="47.54241" lon="6.26364">
        <ele>276.2</ele>
        <time>2014-09-11T09:33:14Z</time>
      </trkpt>
      <trkpt lat="47.54249" lon="6.26374">
        <ele>276.3</ele>
        <time>2014-09-11T09:33:17Z</time>
      </trkpt>
      <trkpt lat="47.54257" lon="6.26384">
        <ele>276.4</ele>
        <time>2014-09-11T09:33:20Z</time>
      </trkpt>
      <trkpt lat="47.54265" lon="6.26395">
        <ele>276.5</ele>
        <time>2014-09-11T09:33:23Z</time>
      </trkpt>
      <trkpt lat="47.54273" lon="6.26406">
        <ele>276.3</ele>
        <time>2014-09-11T09:33:26Z</time>
      </trkpt>
      <trkpt lat="47.54281" lon="6.26418">
        <ele>276.6</ele>
        <time>2014-09-11T09:33:29Z</time>
      </trkpt>
      <trkpt lat="47.54291" lon="6.2643">
        <ele>276.8</ele>
        <time>2014-09-11T09:33:32Z</time>
      </trkpt>
      <trkpt lat="47.543" lon="6.26441">
        <ele>276.7</ele>
        <time>2014-09-11T09:33:35Z</time>
      </trkpt>
      <trkpt lat="47.54308" lon="6.26453">
        <ele>276.4</ele>
        <time>2014-09-11T09:33:38Z</time>
      </trkpt>
      <trkpt lat="47.54316" lon="6.26465">
        <ele>276.4</ele>
        <time>2014-09-11T09:33:41Z</time>
      </trkpt>
      <trkpt lat="47.54326" lon="6.26476">
        <ele>276.3</ele>
        <time>2014-09-11T09:33:44Z</time>
      </trkpt>
      <trkpt lat="47.54334" lon="6.26487">
        <ele>276.2</ele>
        <time>2014-09-11T09:33:47Z</time>
      </trkpt>
      <trkpt lat="47.54343" lon="6.26498">
        <ele>276.4</ele>
        <time>2014-09-11T09:33:50Z</time>
      </trkpt>
      <trkpt lat="47.54351" lon="6.26509">
        <ele>276.3</ele>
        <time>2014-09-11T09:33:53Z</time>
      </trkpt>
      <trkpt lat="47.5436" lon="6.26521">
        <ele>276.2</ele>
        <time>2014-09-11T09:33:56Z</time>
      </trkpt>
      <trkpt lat="47.54369" lon="6.26532">
        <ele>276.2</ele>
        <time>2014-09-11T09:33:59Z</time>
      </trkpt>
      <trkpt lat="47.54378" lon="6.26542">
        <ele>276.1</ele>
        <time>2014-09-11T09:34:02Z</time>
      </trkpt>
      <trkpt lat="47.54386" lon="6.26553">
        <ele>276.3</ele>
        <time>2014-09-11T09:34:05Z</time>
      </trkpt>
      <trkpt lat="47.54395" lon="6.26564">
        <ele>276.4</ele>
        <time>2014-09-11T09:34:08Z</time>
      </trkpt>
      <trkpt lat="47.54404" lon="6.26575">
        <ele>276.4</ele>
        <time>2014-09-11T09:34:11Z</time>
      </trkpt>
      <trkpt lat="47.54413" lon="6.26587">
        <ele>276.4</ele>
        <time>2014-09-11T09:34:14Z</time>
      </trkpt>
      <trkpt lat="47.54422" lon="6.266">
        <ele>276.5</ele>
        <time>2014-09-11T09:34:17Z</time>
      </trkpt>
      <trkpt lat="47.5443" lon="6.26611">
        <ele>276.6</ele>
        <time>2014-09-11T09:34:20Z</time>
      </trkpt>
      <trkpt lat="47.5444" lon="6.26623">
        <ele>276.9</ele>
        <time>2014-09-11T09:34:23Z</time>
      </trkpt>
      <trkpt lat="47.54449" lon="6.26635">
        <ele>277.1</ele>
        <time>2014-09-11T09:34:26Z</time>
      </trkpt>
      <trkpt lat="47.54458" lon="6.26648">
        <ele>277.1</ele>
        <time>2014-09-11T09:34:29Z</time>
      </trkpt>
      <trkpt lat="47.54467" lon="6.2666">
        <ele>277.3</ele>
        <time>2014-09-11T09:34:32Z</time>
      </trkpt>
      <trkpt lat="47.54476" lon="6.26672">
        <ele>277.4</ele>
        <time>2014-09-11T09:34:35Z</time>
      </trkpt>
      <trkpt lat="47.54485" lon="6.26684">
        <ele>277.5</ele>
        <time>2014-09-11T09:34:38Z</time>
      </trkpt>
      <trkpt lat="47.54494" lon="6.26695">
        <ele>277.5</ele>
        <time>2014-09-11T09:34:41Z</time>
      </trkpt>
      <trkpt lat="47.54502" lon="6.26707">
        <ele>277.4</ele>
        <time>2014-09-11T09:34:44Z</time>
      </trkpt>
      <trkpt lat="47.54511" lon="6.26718">
        <ele>277.2</ele>
        <time>2014-09-11T09:34:47Z</time>
      </trkpt>
      <trkpt lat="47.54518" lon="6.2673">
        <ele>277.1</ele>
        <time>2014-09-11T09:34:50Z</time>
      </trkpt>
      <trkpt lat="47.54527" lon="6.26741">
        <ele>277.2</ele>
        <time>2014-09-11T09:34:53Z</time>
      </trkpt>
      <trkpt lat="47.54535" lon="6.26752">
        <ele>277.6</ele>
        <time>2014-09-11T09:34:56Z</time>
      </trkpt>
      <trkpt lat="47.54544" lon="6.26763">
        <ele>277.7</ele>
        <time>2014-09-11T09:34:59Z</time>
      </trkpt>
      <trkpt lat="47.54552" lon="6.26774">
        <ele>278.1</ele>
        <time>2014-09-11T09:35:02Z</time>
      </trkpt>
      <trkpt lat="47.5456" lon="6.26783">
        <ele>278.1</ele>
        <time>2014-09-11T09:35:05Z</time>
      </trkpt>
      <trkpt lat="47.54567" lon="6.26793">
        <ele>278.1</ele>
        <time>2014-09-11T09:35:08Z</time>
      </trkpt>
      <trkpt lat="47.54574" lon="6.26802">
        <ele>278.4</ele>
        <time>2014-09-11T09:35:11Z</time>
      </trkpt>
      <trkpt lat="47.54583" lon="6.26813">
        <ele>278.4</ele>
        <time>2014-09-11T09:35:15Z</time>
      </trkpt>
      <trkpt lat="47.54591" lon="6.26824">
        <ele>278.5</ele>
        <time>2014-09-11T09:35:18Z</time>
      </trkpt>
      <trkpt lat="47.546" lon="6.26835">
        <ele>278.4</ele>
        <time>2014-09-11T09:35:21Z</time>
      </trkpt>
      <trkpt lat="47.54609" lon="6.26846">
        <ele>279</ele>
        <time>2014-09-11T09:35:25Z</time>
      </trkpt>
      <trkpt lat="47.54616" lon="6.26856">
        <ele>279</ele>
        <time>2014-09-11T09:35:28Z</time>
      </trkpt>
      <trkpt lat="47.54626" lon="6.26867">
        <ele>279.1</ele>
        <time>2014-09-11T09:35:31Z</time>
      </trkpt>
      <trkpt lat="47.54635" lon="6.26879">
        <ele>278.9</ele>
        <time>2014-09-11T09:35:34Z</time>
      </trkpt>
      <trkpt lat="47.54644" lon="6.2689">
        <ele>278.9</ele>
        <time>2014-09-11T09:35:37Z</time>
      </trkpt>
      <trkpt lat="47.54651" lon="6.26899">
        <ele>278.8</ele>
        <time>2014-09-11T09:35:39Z</time>
      </trkpt>
      <trkpt lat="47.5466" lon="6.26912">
        <ele>278.9</ele>
        <time>2014-09-11T09:35:42Z</time>
      </trkpt>
      <trkpt lat="47.54669" lon="6.26927">
        <ele>279</ele>
        <time>2014-09-11T09:35:44Z</time>
      </trkpt>
      <trkpt lat="47.54677" lon="6.2694">
        <ele>279</ele>
        <time>2014-09-11T09:35:47Z</time>
      </trkpt>
      <trkpt lat="47.54686" lon="6.26952">
        <ele>279</ele>
        <time>2014-09-11T09:35:50Z</time>
      </trkpt>
      <trkpt lat="47.54695" lon="6.26965">
        <ele>279</ele>
        <time>2014-09-11T09:35:53Z</time>
      </trkpt>
      <trkpt lat="47.54701" lon="6.26975">
        <ele>278.8</ele>
        <time>2014-09-11T09:35:56Z</time>
      </trkpt>
      <trkpt lat="47.54709" lon="6.26987">
        <ele>278.7</ele>
        <time>2014-09-11T09:35:59Z</time>
      </trkpt>
      <trkpt lat="47.54717" lon="6.26996">
        <ele>278.4</ele>
        <time>2014-09-11T09:36:02Z</time>
      </trkpt>
      <trkpt lat="47.54724" lon="6.27005">
        <ele>278</ele>
        <time>2014-09-11T09:36:05Z</time>
      </trkpt>
      <trkpt lat="47.54733" lon="6.27014">
        <ele>277.7</ele>
        <time>2014-09-11T09:36:09Z</time>
      </trkpt>
      <trkpt lat="47.54738" lon="6.27026">
        <ele>278.2</ele>
        <time>2014-09-11T09:36:12Z</time>
      </trkpt>
      <trkpt lat="47.54748" lon="6.2704">
        <ele>278.5</ele>
        <time>2014-09-11T09:36:15Z</time>
      </trkpt>
      <trkpt lat="47.54758" lon="6.27049">
        <ele>278.5</ele>
        <time>2014-09-11T09:36:18Z</time>
      </trkpt>
      <trkpt lat="47.54765" lon="6.27059">
        <ele>278.9</ele>
        <time>2014-09-11T09:36:21Z</time>
      </trkpt>
      <trkpt lat="47.54772" lon="6.27068">
        <ele>279.4</ele>
        <time>2014-09-11T09:36:24Z</time>
      </trkpt>
      <trkpt lat="47.5478" lon="6.27079">
        <ele>279.8</ele>
        <time>2014-09-11T09:36:28Z</time>
      </trkpt>
      <trkpt lat="47.54787" lon="6.27089">
        <ele>279.8</ele>
        <time>2014-09-11T09:36:32Z</time>
      </trkpt>
      <trkpt lat="47.54795" lon="6.271">
        <ele>279.7</ele>
        <time>2014-09-11T09:36:36Z</time>
      </trkpt>
      <trkpt lat="47.54804" lon="6.27113">
        <ele>280.2</ele>
        <time>2014-09-11T09:36:40Z</time>
      </trkpt>
      <trkpt lat="47.54811" lon="6.27122">
        <ele>280.5</ele>
        <time>2014-09-11T09:36:43Z</time>
      </trkpt>
      <trkpt lat="47.5482" lon="6.27133">
        <ele>280.5</ele>
        <time>2014-09-11T09:36:46Z</time>
      </trkpt>
      <trkpt lat="47.54829" lon="6.27144">
        <ele>280.6</ele>
        <time>2014-09-11T09:36:49Z</time>
      </trkpt>
      <trkpt lat="47.54838" lon="6.27155">
        <ele>280.8</ele>
        <time>2014-09-11T09:36:52Z</time>
      </trkpt>
      <trkpt lat="47.54847" lon="6.27166">
        <ele>280.9</ele>
        <time>2014-09-11T09:36:55Z</time>
      </trkpt>
      <trkpt lat="47.54855" lon="6.27178">
        <ele>280.9</ele>
        <time>2014-09-11T09:36:58Z</time>
      </trkpt>
      <trkpt lat="47.54864" lon="6.27188">
        <ele>281</ele>
        <time>2014-09-11T09:37:01Z</time>
      </trkpt>
      <trkpt lat="47.54873" lon="6.27199">
        <ele>281.2</ele>
        <time>2014-09-11T09:37:04Z</time>
      </trkpt>
      <trkpt lat="47.54881" lon="6.2721">
        <ele>281.5</ele>
        <time>2014-09-11T09:37:07Z</time>
      </trkpt>
      <trkpt lat="47.54889" lon="6.27221">
        <ele>281.6</ele>
        <time>2014-09-11T09:37:10Z</time>
      </trkpt>
      <trkpt lat="47.54899" lon="6.27234">
        <ele>281.7</ele>
        <time>2014-09-11T09:37:13Z</time>
      </trkpt>
      <trkpt lat="47.54907" lon="6.27245">
        <ele>281.5</ele>
        <time>2014-09-11T09:37:16Z</time>
      </trkpt>
      <trkpt lat="47.54915" lon="6.27257">
        <ele>281.9</ele>
        <time>2014-09-11T09:37:19Z</time>
      </trkpt>
      <trkpt lat="47.54921" lon="6.27267">
        <ele>282.2</ele>
        <time>2014-09-11T09:37:22Z</time>
      </trkpt>
      <trkpt lat="47.54929" lon="6.2728">
        <ele>282.2</ele>
        <time>2014-09-11T09:37:26Z</time>
      </trkpt>
      <trkpt lat="47.54936" lon="6.2729">
        <ele>282.4</ele>
        <time>2014-09-11T09:37:29Z</time>
      </trkpt>
      <trkpt lat="47.54945" lon="6.273">
        <ele>282.5</ele>
        <time>2014-09-11T09:37:32Z</time>
      </trkpt>
      <trkpt lat="47.54954" lon="6.2731">
        <ele>282.7</ele>
        <time>2014-09-11T09:37:35Z</time>
      </trkpt>
      <trkpt lat="47.54962" lon="6.2732">
        <ele>283</ele>
        <time>2014-09-11T09:37:38Z</time>
      </trkpt>
      <trkpt lat="47.54969" lon="6.2733">
        <ele>283</ele>
        <time>2014-09-11T09:37:41Z</time>
      </trkpt>
      <trkpt lat="47.54977" lon="6.27341">
        <ele>283.2</ele>
        <time>2014-09-11T09:37:44Z</time>
      </trkpt>
      <trkpt lat="47.54986" lon="6.27352">
        <ele>283.2</ele>
        <time>2014-09-11T09:37:47Z</time>
      </trkpt>
      <trkpt lat="47.54996" lon="6.27364">
        <ele>283.3</ele>
        <time>2014-09-11T09:37:50Z</time>
      </trkpt>
      <trkpt lat="47.55004" lon="6.27374">
        <ele>283.6</ele>
        <time>2014-09-11T09:37:53Z</time>
      </trkpt>
      <trkpt lat="47.55012" lon="6.27383">
        <ele>283.8</ele>
        <time>2014-09-11T09:37:56Z</time>
      </trkpt>
      <trkpt lat="47.55019" lon="6.27392">
        <ele>284.1</ele>
        <time>2014-09-11T09:37:59Z</time>
      </trkpt>
      <trkpt lat="47.55026" lon="6.27404">
        <ele>284.2</ele>
        <time>2014-09-11T09:38:03Z</time>
      </trkpt>
      <trkpt lat="47.55033" lon="6.27414">
        <ele>284.3</ele>
        <time>2014-09-11T09:38:06Z</time>
      </trkpt>
      <trkpt lat="47.55042" lon="6.27426">
        <ele>284.8</ele>
        <time>2014-09-11T09:38:10Z</time>
      </trkpt>
      <trkpt lat="47.5505" lon="6.27438">
        <ele>284.8</ele>
        <time>2014-09-11T09:38:13Z</time>
      </trkpt>
      <trkpt lat="47.55057" lon="6.27449">
        <ele>285.3</ele>
        <time>2014-09-11T09:38:16Z</time>
      </trkpt>
      <trkpt lat="47.55066" lon="6.27457">
        <ele>285.5</ele>
        <time>2014-09-11T09:38:18Z</time>
      </trkpt>
      <trkpt lat="47.55074" lon="6.27466">
        <ele>285.7</ele>
        <time>2014-09-11T09:38:20Z</time>
      </trkpt>
      <trkpt lat="47.55083" lon="6.27478">
        <ele>285.6</ele>
        <time>2014-09-11T09:38:23Z</time>
      </trkpt>
      <trkpt lat="47.55092" lon="6.2749">
        <ele>285.8</ele>
        <time>2014-09-11T09:38:26Z</time>
      </trkpt>
      <trkpt lat="47.55098" lon="6.275">
        <ele>286</ele>
        <time>2014-09-11T09:38:29Z</time>
      </trkpt>
      <trkpt lat="47.55106" lon="6.27511">
        <ele>286.1</ele>
        <time>2014-09-11T09:38:33Z</time>
      </trkpt>
      <trkpt lat="47.55115" lon="6.27522">
        <ele>286.4</ele>
        <time>2014-09-11T09:38:36Z</time>
      </trkpt>
      <trkpt lat="47.55122" lon="6.27531">
        <ele>286.6</ele>
        <time>2014-09-11T09:38:39Z</time>
      </trkpt>
      <trkpt lat="47.55129" lon="6.2754">
        <ele>286.9</ele>
        <time>2014-09-11T09:38:42Z</time>
      </trkpt>
      <trkpt lat="47.55137" lon="6.27551">
        <ele>287.3</ele>
        <time>2014-09-11T09:38:45Z</time>
      </trkpt>
      <trkpt lat="47.55144" lon="6.27561">
        <ele>287.8</ele>
        <time>2014-09-11T09:38:48Z</time>
      </trkpt>
      <trkpt lat="47.55152" lon="6.2757">
        <ele>287.7</ele>
        <time>2014-09-11T09:38:51Z</time>
      </trkpt>
      <trkpt lat="47.5516" lon="6.27578">
        <ele>287.8</ele>
        <time>2014-09-11T09:38:53Z</time>
      </trkpt>
      <trkpt lat="47.55168" lon="6.27586">
        <ele>287.8</ele>
        <time>2014-09-11T09:38:55Z</time>
      </trkpt>
      <trkpt lat="47.55178" lon="6.27598">
        <ele>288.1</ele>
        <time>2014-09-11T09:38:58Z</time>
      </trkpt>
      <trkpt lat="47.55186" lon="6.27607">
        <ele>288.3</ele>
        <time>2014-09-11T09:39:01Z</time>
      </trkpt>
      <trkpt lat="47.55194" lon="6.27616">
        <ele>288.4</ele>
        <time>2014-09-11T09:39:05Z</time>
      </trkpt>
      <trkpt lat="47.55201" lon="6.27624">
        <ele>288.2</ele>
        <time>2014-09-11T09:39:12Z</time>
      </trkpt>
      <trkpt lat="47.55208" lon="6.27637">
        <ele>288.1</ele>
        <time>2014-09-11T09:39:55Z</time>
      </trkpt>
      <trkpt lat="47.55215" lon="6.27648">
        <ele>288.3</ele>
        <time>2014-09-11T09:39:58Z</time>
      </trkpt>
      <trkpt lat="47.55223" lon="6.27659">
        <ele>288.2</ele>
        <time>2014-09-11T09:40:02Z</time>
      </trkpt>
      <trkpt lat="47.55232" lon="6.27669">
        <ele>287.9</ele>
        <time>2014-09-11T09:40:07Z</time>
      </trkpt>
      <trkpt lat="47.55239" lon="6.27679">
        <ele>287.9</ele>
        <time>2014-09-11T09:40:11Z</time>
      </trkpt>
      <trkpt lat="47.55247" lon="6.27688">
        <ele>287.9</ele>
        <time>2014-09-11T09:40:15Z</time>
      </trkpt>
      <trkpt lat="47.55256" lon="6.27698">
        <ele>288.1</ele>
        <time>2014-09-11T09:40:19Z</time>
      </trkpt>
      <trkpt lat="47.55264" lon="6.27707">
        <ele>288.1</ele>
        <time>2014-09-11T09:40:23Z</time>
      </trkpt>
      <trkpt lat="47.55272" lon="6.27719">
        <ele>288.1</ele>
        <time>2014-09-11T09:40:28Z</time>
      </trkpt>
      <trkpt lat="47.55278" lon="6.27729">
        <ele>288.5</ele>
        <time>2014-09-11T09:41:15Z</time>
      </trkpt>
      <trkpt lat="47.55286" lon="6.2774">
        <ele>288.7</ele>
        <time>2014-09-11T09:41:19Z</time>
      </trkpt>
      <trkpt lat="47.55294" lon="6.2775">
        <ele>288.7</ele>
        <time>2014-09-11T09:41:23Z</time>
      </trkpt>
      <trkpt lat="47.55303" lon="6.2776">
        <ele>288.9</ele>
        <time>2014-09-11T09:41:27Z</time>
      </trkpt>
      <trkpt lat="47.55311" lon="6.2777">
        <ele>288.9</ele>
        <time>2014-09-11T09:41:31Z</time>
      </trkpt>
      <trkpt lat="47.55319" lon="6.2778">
        <ele>289.1</ele>
        <time>2014-09-11T09:41:35Z</time>
      </trkpt>
      <trkpt lat="47.55326" lon="6.27789">
        <ele>289.2</ele>
        <time>2014-09-11T09:41:38Z</time>
      </trkpt>
      <trkpt lat="47.55333" lon="6.27798">
        <ele>289.2</ele>
        <time>2014-09-11T09:41:41Z</time>
      </trkpt>
      <trkpt lat="47.55342" lon="6.27809">
        <ele>288.9</ele>
        <time>2014-09-11T09:41:45Z</time>
      </trkpt>
      <trkpt lat="47.5535" lon="6.27818">
        <ele>288.9</ele>
        <time>2014-09-11T09:41:48Z</time>
      </trkpt>
      <trkpt lat="47.55357" lon="6.27827">
        <ele>288.9</ele>
        <time>2014-09-11T09:41:51Z</time>
      </trkpt>
      <trkpt lat="47.55364" lon="6.27837">
        <ele>289.2</ele>
        <time>2014-09-11T09:41:54Z</time>
      </trkpt>
      <trkpt lat="47.55371" lon="6.27847">
        <ele>289.3</ele>
        <time>2014-09-11T09:41:57Z</time>
      </trkpt>
      <trkpt lat="47.55378" lon="6.27856">
        <ele>288.9</ele>
        <time>2014-09-11T09:42:00Z</time>
      </trkpt>
      <trkpt lat="47.55384" lon="6.27865">
        <ele>288.9</ele>
        <time>2014-09-11T09:42:03Z</time>
      </trkpt>
      <trkpt lat="47.55391" lon="6.27875">
        <ele>288.6</ele>
        <time>2014-09-11T09:42:06Z</time>
      </trkpt>
      <trkpt lat="47.55399" lon="6.27885">
        <ele>288.7</ele>
        <time>2014-09-11T09:42:09Z</time>
      </trkpt>
      <trkpt lat="47.55406" lon="6.27894">
        <ele>288.9</ele>
        <time>2014-09-11T09:42:12Z</time>
      </trkpt>
      <trkpt lat="47.55415" lon="6.27906">
        <ele>289.1</ele>
        <time>2014-09-11T09:42:16Z</time>
      </trkpt>
      <trkpt lat="47.55423" lon="6.27917">
        <ele>288.9</ele>
        <time>2014-09-11T09:42:20Z</time>
      </trkpt>
      <trkpt lat="47.55432" lon="6.27928">
        <ele>288.9</ele>
        <time>2014-09-11T09:42:24Z</time>
      </trkpt>
      <trkpt lat="47.5544" lon="6.27938">
        <ele>289.1</ele>
        <time>2014-09-11T09:42:28Z</time>
      </trkpt>
      <trkpt lat="47.55449" lon="6.27946">
        <ele>289.2</ele>
        <time>2014-09-11T09:42:32Z</time>
      </trkpt>
      <trkpt lat="47.55458" lon="6.27954">
        <ele>289.4</ele>
        <time>2014-09-11T09:42:36Z</time>
      </trkpt>
      <trkpt lat="47.55467" lon="6.27964">
        <ele>289.3</ele>
        <time>2014-09-11T09:42:40Z</time>
      </trkpt>
      <trkpt lat="47.55475" lon="6.27973">
        <ele>289.6</ele>
        <time>2014-09-11T09:42:44Z</time>
      </trkpt>
      <trkpt lat="47.55483" lon="6.27982">
        <ele>289.5</ele>
        <time>2014-09-11T09:42:47Z</time>
      </trkpt>
      <trkpt lat="47.55493" lon="6.27993">
        <ele>289.6</ele>
        <time>2014-09-11T09:42:50Z</time>
      </trkpt>
      <trkpt lat="47.55502" lon="6.28003">
        <ele>289</ele>
        <time>2014-09-11T09:42:53Z</time>
      </trkpt>
      <trkpt lat="47.55511" lon="6.28012">
        <ele>289</ele>
        <time>2014-09-11T09:42:56Z</time>
      </trkpt>
      <trkpt lat="47.55521" lon="6.28021">
        <ele>288.7</ele>
        <time>2014-09-11T09:42:59Z</time>
      </trkpt>
      <trkpt lat="47.5553" lon="6.28027">
        <ele>288.9</ele>
        <time>2014-09-11T09:43:02Z</time>
      </trkpt>
      <trkpt lat="47.55538" lon="6.28033">
        <ele>288.8</ele>
        <time>2014-09-11T09:43:05Z</time>
      </trkpt>
      <trkpt lat="47.55547" lon="6.28041">
        <ele>288.7</ele>
        <time>2014-09-11T09:43:09Z</time>
      </trkpt>
      <trkpt lat="47.55557" lon="6.28047">
        <ele>288.7</ele>
        <time>2014-09-11T09:43:13Z</time>
      </trkpt>
      <trkpt lat="47.55566" lon="6.28053">
        <ele>288.5</ele>
        <time>2014-09-11T09:43:17Z</time>
      </trkpt>
      <trkpt lat="47.55576" lon="6.28059">
        <ele>288.8</ele>
        <time>2014-09-11T09:43:20Z</time>
      </trkpt>
      <trkpt lat="47.55587" lon="6.28067">
        <ele>288.9</ele>
        <time>2014-09-11T09:43:23Z</time>
      </trkpt>
      <trkpt lat="47.55597" lon="6.2807">
        <ele>288.7</ele>
        <time>2014-09-11T09:43:26Z</time>
      </trkpt>
      <trkpt lat="47.55608" lon="6.28077">
        <ele>288.9</ele>
        <time>2014-09-11T09:43:30Z</time>
      </trkpt>
      <trkpt lat="47.55618" lon="6.28082">
        <ele>288.9</ele>
        <time>2014-09-11T09:43:34Z</time>
      </trkpt>
      <trkpt lat="47.55628" lon="6.28088">
        <ele>289</ele>
        <time>2014-09-11T09:43:38Z</time>
      </trkpt>
      <trkpt lat="47.55638" lon="6.28094">
        <ele>289.1</ele>
        <time>2014-09-11T09:43:41Z</time>
      </trkpt>
      <trkpt lat="47.55649" lon="6.28098">
        <ele>289.4</ele>
        <time>2014-09-11T09:43:44Z</time>
      </trkpt>
      <trkpt lat="47.5566" lon="6.28105">
        <ele>289.2</ele>
        <time>2014-09-11T09:43:47Z</time>
      </trkpt>
      <trkpt lat="47.55671" lon="6.28109">
        <ele>289.2</ele>
        <time>2014-09-11T09:43:50Z</time>
      </trkpt>
      <trkpt lat="47.55683" lon="6.28117">
        <ele>289</ele>
        <time>2014-09-11T09:43:53Z</time>
      </trkpt>
      <trkpt lat="47.55692" lon="6.28126">
        <ele>289</ele>
        <time>2014-09-11T09:43:55Z</time>
      </trkpt>
      <trkpt lat="47.55705" lon="6.28126">
        <ele>289.2</ele>
        <time>2014-09-11T09:43:57Z</time>
      </trkpt>
      <trkpt lat="47.55715" lon="6.2813">
        <ele>289.2</ele>
        <time>2014-09-11T09:44:00Z</time>
      </trkpt>
      <trkpt lat="47.55729" lon="6.28128">
        <ele>289.4</ele>
        <time>2014-09-11T09:44:03Z</time>
      </trkpt>
      <trkpt lat="47.55739" lon="6.28128">
        <ele>289.6</ele>
        <time>2014-09-11T09:44:06Z</time>
      </trkpt>
      <trkpt lat="47.55751" lon="6.28128">
        <ele>289.7</ele>
        <time>2014-09-11T09:44:09Z</time>
      </trkpt>
      <trkpt lat="47.55762" lon="6.28128">
        <ele>290.1</ele>
        <time>2014-09-11T09:44:12Z</time>
      </trkpt>
      <trkpt lat="47.55773" lon="6.28128">
        <ele>290.4</ele>
        <time>2014-09-11T09:44:15Z</time>
      </trkpt>
      <trkpt lat="47.55783" lon="6.28128">
        <ele>290.4</ele>
        <time>2014-09-11T09:44:18Z</time>
      </trkpt>
      <trkpt lat="47.55793" lon="6.28127">
        <ele>290.6</ele>
        <time>2014-09-11T09:44:21Z</time>
      </trkpt>
      <trkpt lat="47.55805" lon="6.28126">
        <ele>290.7</ele>
        <time>2014-09-11T09:44:24Z</time>
      </trkpt>
      <trkpt lat="47.55818" lon="6.28125">
        <ele>290.8</ele>
        <time>2014-09-11T09:44:27Z</time>
      </trkpt>
      <trkpt lat="47.5583" lon="6.28124">
        <ele>290.9</ele>
        <time>2014-09-11T09:44:30Z</time>
      </trkpt>
      <trkpt lat="47.5584" lon="6.28122">
        <ele>291.1</ele>
        <time>2014-09-11T09:44:33Z</time>
      </trkpt>
      <trkpt lat="47.5585" lon="6.28121">
        <ele>291.2</ele>
        <time>2014-09-11T09:44:36Z</time>
      </trkpt>
      <trkpt lat="47.55859" lon="6.2812">
        <ele>291.2</ele>
        <time>2014-09-11T09:44:39Z</time>
      </trkpt>
      <trkpt lat="47.55869" lon="6.28118">
        <ele>291.2</ele>
        <time>2014-09-11T09:44:42Z</time>
      </trkpt>
      <trkpt lat="47.55879" lon="6.28114">
        <ele>291.3</ele>
        <time>2014-09-11T09:44:45Z</time>
      </trkpt>
      <trkpt lat="47.5589" lon="6.28113">
        <ele>291.6</ele>
        <time>2014-09-11T09:44:48Z</time>
      </trkpt>
      <trkpt lat="47.559" lon="6.28113">
        <ele>291.7</ele>
        <time>2014-09-11T09:44:51Z</time>
      </trkpt>
      <trkpt lat="47.55909" lon="6.28114">
        <ele>292.2</ele>
        <time>2014-09-11T09:46:04Z</time>
      </trkpt>
      <trkpt lat="47.5592" lon="6.28111">
        <ele>292.1</ele>
        <time>2014-09-11T09:46:07Z</time>
      </trkpt>
      <trkpt lat="47.55932" lon="6.28106">
        <ele>292.1</ele>
        <time>2014-09-11T09:46:11Z</time>
      </trkpt>
      <trkpt lat="47.55941" lon="6.28104">
        <ele>292.4</ele>
        <time>2014-09-11T09:46:14Z</time>
      </trkpt>
      <trkpt lat="47.5595" lon="6.28101">
        <ele>292.7</ele>
        <time>2014-09-11T09:46:17Z</time>
      </trkpt>
      <trkpt lat="47.55961" lon="6.28098">
        <ele>292.7</ele>
        <time>2014-09-11T09:46:21Z</time>
      </trkpt>
      <trkpt lat="47.55972" lon="6.28094">
        <ele>292.7</ele>
        <time>2014-09-11T09:46:25Z</time>
      </trkpt>
      <trkpt lat="47.55982" lon="6.28093">
        <ele>293.1</ele>
        <time>2014-09-11T09:46:29Z</time>
      </trkpt>
      <trkpt lat="47.55993" lon="6.2809">
        <ele>293.2</ele>
        <time>2014-09-11T09:46:33Z</time>
      </trkpt>
      <trkpt lat="47.56004" lon="6.28085">
        <ele>293.4</ele>
        <time>2014-09-11T09:46:37Z</time>
      </trkpt>
      <trkpt lat="47.56012" lon="6.28079">
        <ele>293.4</ele>
        <time>2014-09-11T09:46:40Z</time>
      </trkpt>
      <trkpt lat="47.56022" lon="6.28072">
        <ele>293.7</ele>
        <time>2014-09-11T09:46:44Z</time>
      </trkpt>
      <trkpt lat="47.56031" lon="6.28064">
        <ele>294.2</ele>
        <time>2014-09-11T09:46:49Z</time>
      </trkpt>
      <trkpt lat="47.5604" lon="6.2806">
        <ele>294.5</ele>
        <time>2014-09-11T09:46:53Z</time>
      </trkpt>
      <trkpt lat="47.56049" lon="6.28057">
        <ele>294.5</ele>
        <time>2014-09-11T09:46:57Z</time>
      </trkpt>
      <trkpt lat="47.5606" lon="6.28048">
        <ele>294.9</ele>
        <time>2014-09-11T09:47:02Z</time>
      </trkpt>
      <trkpt lat="47.56069" lon="6.28044">
        <ele>295</ele>
        <time>2014-09-11T09:47:05Z</time>
      </trkpt>
      <trkpt lat="47.56077" lon="6.28036">
        <ele>295.3</ele>
        <time>2014-09-11T09:47:08Z</time>
      </trkpt>
      <trkpt lat="47.56086" lon="6.28026">
        <ele>295.3</ele>
        <time>2014-09-11T09:47:11Z</time>
      </trkpt>
      <trkpt lat="47.56095" lon="6.28018">
        <ele>295.6</ele>
        <time>2014-09-11T09:47:15Z</time>
      </trkpt>
      <trkpt lat="47.56105" lon="6.28011">
        <ele>295.6</ele>
        <time>2014-09-11T09:47:19Z</time>
      </trkpt>
      <trkpt lat="47.56113" lon="6.28003">
        <ele>296</ele>
        <time>2014-09-11T09:47:23Z</time>
      </trkpt>
      <trkpt lat="47.56121" lon="6.27997">
        <ele>296</ele>
        <time>2014-09-11T09:47:27Z</time>
      </trkpt>
      <trkpt lat="47.5613" lon="6.27989">
        <ele>296.4</ele>
        <time>2014-09-11T09:47:33Z</time>
      </trkpt>
      <trkpt lat="47.56138" lon="6.2798">
        <ele>296.5</ele>
        <time>2014-09-11T09:47:38Z</time>
      </trkpt>
      <trkpt lat="47.56146" lon="6.2797">
        <ele>296.7</ele>
        <time>2014-09-11T09:47:42Z</time>
      </trkpt>
      <trkpt lat="47.56156" lon="6.27961">
        <ele>296.7</ele>
        <time>2014-09-11T09:47:46Z</time>
      </trkpt>
      <trkpt lat="47.56167" lon="6.27956">
        <ele>296.7</ele>
        <time>2014-09-11T09:47:47Z</time>
      </trkpt>
      <trkpt lat="47.56176" lon="6.27949">
        <ele>296.7</ele>
        <time>2014-09-11T09:47:49Z</time>
      </trkpt>
      <trkpt lat="47.56184" lon="6.2794">
        <ele>297</ele>
        <time>2014-09-11T09:47:52Z</time>
      </trkpt>
      <trkpt lat="47.56192" lon="6.27928">
        <ele>297.2</ele>
        <time>2014-09-11T09:47:55Z</time>
      </trkpt>
      <trkpt lat="47.56199" lon="6.27912">
        <ele>297.3</ele>
        <time>2014-09-11T09:47:57Z</time>
      </trkpt>
      <trkpt lat="47.56204" lon="6.279">
        <ele>297.4</ele>
        <time>2014-09-11T09:47:59Z</time>
      </trkpt>
      <trkpt lat="47.56211" lon="6.27888">
        <ele>297.5</ele>
        <time>2014-09-11T09:48:02Z</time>
      </trkpt>
      <trkpt lat="47.56218" lon="6.27879">
        <ele>297.7</ele>
        <time>2014-09-11T09:48:05Z</time>
      </trkpt>
      <trkpt lat="47.56227" lon="6.27867">
        <ele>298.1</ele>
        <time>2014-09-11T09:48:09Z</time>
      </trkpt>
      <trkpt lat="47.56235" lon="6.27854">
        <ele>298.1</ele>
        <time>2014-09-11T09:48:12Z</time>
      </trkpt>
      <trkpt lat="47.56241" lon="6.27842">
        <ele>298.5</ele>
        <time>2014-09-11T09:48:16Z</time>
      </trkpt>
      <trkpt lat="47.56249" lon="6.27829">
        <ele>298.5</ele>
        <time>2014-09-11T09:48:20Z</time>
      </trkpt>
      <trkpt lat="47.56257" lon="6.27817">
        <ele>298.7</ele>
        <time>2014-09-11T09:48:24Z</time>
      </trkpt>
      <trkpt lat="47.56263" lon="6.27806">
        <ele>299</ele>
        <time>2014-09-11T09:48:27Z</time>
      </trkpt>
      <trkpt lat="47.56272" lon="6.27797">
        <ele>299.2</ele>
        <time>2014-09-11T09:48:30Z</time>
      </trkpt>
      <trkpt lat="47.5628" lon="6.27787">
        <ele>299.5</ele>
        <time>2014-09-11T09:48:33Z</time>
      </trkpt>
      <trkpt lat="47.56288" lon="6.27779">
        <ele>299.9</ele>
        <time>2014-09-11T09:48:36Z</time>
      </trkpt>
      <trkpt lat="47.56296" lon="6.27767">
        <ele>299.9</ele>
        <time>2014-09-11T09:48:40Z</time>
      </trkpt>
      <trkpt lat="47.56302" lon="6.27755">
        <ele>299.9</ele>
        <time>2014-09-11T09:48:43Z</time>
      </trkpt>
      <trkpt lat="47.56309" lon="6.27745">
        <ele>300.2</ele>
        <time>2014-09-11T09:48:46Z</time>
      </trkpt>
      <trkpt lat="47.56316" lon="6.27733">
        <ele>300.5</ele>
        <time>2014-09-11T09:48:49Z</time>
      </trkpt>
      <trkpt lat="47.56324" lon="6.27724">
        <ele>300.7</ele>
        <time>2014-09-11T09:48:52Z</time>
      </trkpt>
      <trkpt lat="47.56331" lon="6.27711">
        <ele>300.9</ele>
        <time>2014-09-11T09:48:56Z</time>
      </trkpt>
      <trkpt lat="47.56337" lon="6.27696">
        <ele>301</ele>
        <time>2014-09-11T09:48:59Z</time>
      </trkpt>
      <trkpt lat="47.56341" lon="6.27683">
        <ele>301.2</ele>
        <time>2014-09-11T09:49:01Z</time>
      </trkpt>
      <trkpt lat="47.56351" lon="6.27671">
        <ele>301.5</ele>
        <time>2014-09-11T09:49:05Z</time>
      </trkpt>
      <trkpt lat="47.56359" lon="6.27663">
        <ele>301.5</ele>
        <time>2014-09-11T09:49:08Z</time>
      </trkpt>
      <trkpt lat="47.56369" lon="6.27655">
        <ele>301.6</ele>
        <time>2014-09-11T09:49:11Z</time>
      </trkpt>
      <trkpt lat="47.56376" lon="6.27646">
        <ele>301.8</ele>
        <time>2014-09-11T09:49:14Z</time>
      </trkpt>
      <trkpt lat="47.56384" lon="6.27632">
        <ele>301.7</ele>
        <time>2014-09-11T09:49:17Z</time>
      </trkpt>
      <trkpt lat="47.5639" lon="6.27621">
        <ele>301.9</ele>
        <time>2014-09-11T09:49:20Z</time>
      </trkpt>
      <trkpt lat="47.56397" lon="6.2761">
        <ele>302.1</ele>
        <time>2014-09-11T09:49:23Z</time>
      </trkpt>
      <trkpt lat="47.56405" lon="6.27602">
        <ele>302.2</ele>
        <time>2014-09-11T09:49:27Z</time>
      </trkpt>
      <trkpt lat="47.56412" lon="6.27589">
        <ele>302.5</ele>
        <time>2014-09-11T09:49:31Z</time>
      </trkpt>
      <trkpt lat="47.56419" lon="6.27575">
        <ele>302.7</ele>
        <time>2014-09-11T09:49:35Z</time>
      </trkpt>
      <trkpt lat="47.56428" lon="6.27565">
        <ele>302.9</ele>
        <time>2014-09-11T09:49:38Z</time>
      </trkpt>
      <trkpt lat="47.56437" lon="6.27552">
        <ele>303.3</ele>
        <time>2014-09-11T09:49:42Z</time>
      </trkpt>
      <trkpt lat="47.56445" lon="6.27539">
        <ele>303.5</ele>
        <time>2014-09-11T09:49:46Z</time>
      </trkpt>
      <trkpt lat="47.56455" lon="6.27528">
        <ele>303.5</ele>
        <time>2014-09-11T09:49:49Z</time>
      </trkpt>
      <trkpt lat="47.56461" lon="6.27518">
        <ele>303.6</ele>
        <time>2014-09-11T09:49:51Z</time>
      </trkpt>
      <trkpt lat="47.56468" lon="6.27506">
        <ele>303.7</ele>
        <time>2014-09-11T09:49:54Z</time>
      </trkpt>
      <trkpt lat="47.56475" lon="6.27496">
        <ele>303.9</ele>
        <time>2014-09-11T09:49:56Z</time>
      </trkpt>
      <trkpt lat="47.56484" lon="6.27483">
        <ele>304.1</ele>
        <time>2014-09-11T09:49:59Z</time>
      </trkpt>
      <trkpt lat="47.56492" lon="6.2747">
        <ele>304.2</ele>
        <time>2014-09-11T09:50:02Z</time>
      </trkpt>
      <trkpt lat="47.56501" lon="6.27458">
        <ele>304.3</ele>
        <time>2014-09-11T09:50:05Z</time>
      </trkpt>
      <trkpt lat="47.56508" lon="6.27445">
        <ele>304.5</ele>
        <time>2014-09-11T09:50:08Z</time>
      </trkpt>
      <trkpt lat="47.56514" lon="6.27433">
        <ele>304.6</ele>
        <time>2014-09-11T09:50:10Z</time>
      </trkpt>
      <trkpt lat="47.56521" lon="6.27418">
        <ele>304.9</ele>
        <time>2014-09-11T09:50:13Z</time>
      </trkpt>
      <trkpt lat="47.56529" lon="6.27406">
        <ele>305.1</ele>
        <time>2014-09-11T09:50:16Z</time>
      </trkpt>
      <trkpt lat="47.56536" lon="6.27394">
        <ele>305.2</ele>
        <time>2014-09-11T09:50:19Z</time>
      </trkpt>
      <trkpt lat="47.56544" lon="6.27382">
        <ele>305.3</ele>
        <time>2014-09-11T09:50:22Z</time>
      </trkpt>
      <trkpt lat="47.56552" lon="6.27371">
        <ele>305.5</ele>
        <time>2014-09-11T09:50:25Z</time>
      </trkpt>
      <trkpt lat="47.56559" lon="6.2736">
        <ele>305.5</ele>
        <time>2014-09-11T09:50:28Z</time>
      </trkpt>
      <trkpt lat="47.56567" lon="6.27348">
        <ele>305.8</ele>
        <time>2014-09-11T09:50:31Z</time>
      </trkpt>
      <trkpt lat="47.56574" lon="6.27338">
        <ele>306.1</ele>
        <time>2014-09-11T09:50:34Z</time>
      </trkpt>
      <trkpt lat="47.56581" lon="6.27327">
        <ele>306</ele>
        <time>2014-09-11T09:50:37Z</time>
      </trkpt>
      <trkpt lat="47.56588" lon="6.27316">
        <ele>306</ele>
        <time>2014-09-11T09:50:40Z</time>
      </trkpt>
      <trkpt lat="47.56597" lon="6.27304">
        <ele>306</ele>
        <time>2014-09-11T09:50:43Z</time>
      </trkpt>
      <trkpt lat="47.56604" lon="6.27292">
        <ele>306.2</ele>
        <time>2014-09-11T09:50:46Z</time>
      </trkpt>
      <trkpt lat="47.56611" lon="6.27282">
        <ele>306.4</ele>
        <time>2014-09-11T09:50:49Z</time>
      </trkpt>
      <trkpt lat="47.56618" lon="6.27271">
        <ele>306.5</ele>
        <time>2014-09-11T09:50:52Z</time>
      </trkpt>
      <trkpt lat="47.56626" lon="6.27258">
        <ele>307.1</ele>
        <time>2014-09-11T09:50:56Z</time>
      </trkpt>
      <trkpt lat="47.56633" lon="6.27248">
        <ele>307.2</ele>
        <time>2014-09-11T09:50:59Z</time>
      </trkpt>
      <trkpt lat="47.56642" lon="6.27237">
        <ele>307.7</ele>
        <time>2014-09-11T09:51:03Z</time>
      </trkpt>
      <trkpt lat="47.56648" lon="6.27225">
        <ele>307.7</ele>
        <time>2014-09-11T09:51:09Z</time>
      </trkpt>
      <trkpt lat="47.56655" lon="6.27214">
        <ele>307.9</ele>
        <time>2014-09-11T09:51:13Z</time>
      </trkpt>
      <trkpt lat="47.5667" lon="6.27209">
        <ele>307</ele>
        <time>2014-09-11T10:00:24Z</time>
      </trkpt>
      <trkpt lat="47.56677" lon="6.27198">
        <ele>307.6</ele>
        <time>2014-09-11T10:00:33Z</time>
      </trkpt>
      <trkpt lat="47.56684" lon="6.27187">
        <ele>307.4</ele>
        <time>2014-09-11T10:00:37Z</time>
      </trkpt>
      <trkpt lat="47.56692" lon="6.27176">
        <ele>307.6</ele>
        <time>2014-09-11T10:00:41Z</time>
      </trkpt>
      <trkpt lat="47.56699" lon="6.27167">
        <ele>307.9</ele>
        <time>2014-09-11T10:00:46Z</time>
      </trkpt>
      <trkpt lat="47.56706" lon="6.27158">
        <ele>308.3</ele>
        <time>2014-09-11T10:00:52Z</time>
      </trkpt>
      <trkpt lat="47.56715" lon="6.27148">
        <ele>308.8</ele>
        <time>2014-09-11T10:00:56Z</time>
      </trkpt>
      <trkpt lat="47.56719" lon="6.27133">
        <ele>308.9</ele>
        <time>2014-09-11T10:00:59Z</time>
      </trkpt>
      <trkpt lat="47.56727" lon="6.27119">
        <ele>308.9</ele>
        <time>2014-09-11T10:01:01Z</time>
      </trkpt>
      <trkpt lat="47.56733" lon="6.27107">
        <ele>309</ele>
        <time>2014-09-11T10:01:03Z</time>
      </trkpt>
      <trkpt lat="47.56741" lon="6.27094">
        <ele>309.2</ele>
        <time>2014-09-11T10:01:06Z</time>
      </trkpt>
      <trkpt lat="47.56747" lon="6.27082">
        <ele>309.5</ele>
        <time>2014-09-11T10:01:09Z</time>
      </trkpt>
      <trkpt lat="47.56753" lon="6.2707">
        <ele>309.7</ele>
        <time>2014-09-11T10:01:12Z</time>
      </trkpt>
      <trkpt lat="47.56759" lon="6.2706">
        <ele>309.8</ele>
        <time>2014-09-11T10:01:15Z</time>
      </trkpt>
      <trkpt lat="47.56766" lon="6.27048">
        <ele>310.4</ele>
        <time>2014-09-11T10:01:20Z</time>
      </trkpt>
      <trkpt lat="47.56772" lon="6.27037">
        <ele>310.9</ele>
        <time>2014-09-11T10:01:23Z</time>
      </trkpt>
      <trkpt lat="47.56779" lon="6.27023">
        <ele>311.3</ele>
        <time>2014-09-11T10:01:26Z</time>
      </trkpt>
      <trkpt lat="47.56788" lon="6.27011">
        <ele>311.5</ele>
        <time>2014-09-11T10:01:29Z</time>
      </trkpt>
      <trkpt lat="47.56795" lon="6.27">
        <ele>311.7</ele>
        <time>2014-09-11T10:01:31Z</time>
      </trkpt>
      <trkpt lat="47.568" lon="6.26989">
        <ele>312</ele>
        <time>2014-09-11T10:01:33Z</time>
      </trkpt>
      <trkpt lat="47.56811" lon="6.2698">
        <ele>312.3</ele>
        <time>2014-09-11T10:01:36Z</time>
      </trkpt>
      <trkpt lat="47.56819" lon="6.26972">
        <ele>312.8</ele>
        <time>2014-09-11T10:01:39Z</time>
      </trkpt>
      <trkpt lat="47.56826" lon="6.26959">
        <ele>313</ele>
        <time>2014-09-11T10:01:44Z</time>
      </trkpt>
      <trkpt lat="47.56832" lon="6.26947">
        <ele>313.5</ele>
        <time>2014-09-11T10:01:48Z</time>
      </trkpt>
      <trkpt lat="47.56841" lon="6.26933">
        <ele>313.8</ele>
        <time>2014-09-11T10:01:52Z</time>
      </trkpt>
      <trkpt lat="47.5685" lon="6.2692">
        <ele>314.2</ele>
        <time>2014-09-11T10:01:56Z</time>
      </trkpt>
      <trkpt lat="47.56857" lon="6.2691">
        <ele>314.4</ele>
        <time>2014-09-11T10:01:59Z</time>
      </trkpt>
      <trkpt lat="47.56867" lon="6.26899">
        <ele>314.5</ele>
        <time>2014-09-11T10:02:02Z</time>
      </trkpt>
      <trkpt lat="47.56875" lon="6.26883">
        <ele>314.7</ele>
        <time>2014-09-11T10:02:05Z</time>
      </trkpt>
      <trkpt lat="47.56884" lon="6.26872">
        <ele>314.8</ele>
        <time>2014-09-11T10:02:08Z</time>
      </trkpt>
      <trkpt lat="47.56894" lon="6.26865">
        <ele>315</ele>
        <time>2014-09-11T10:02:11Z</time>
      </trkpt>
      <trkpt lat="47.56903" lon="6.26855">
        <ele>315.2</ele>
        <time>2014-09-11T10:02:14Z</time>
      </trkpt>
      <trkpt lat="47.56911" lon="6.26845">
        <ele>315.4</ele>
        <time>2014-09-11T10:02:17Z</time>
      </trkpt>
      <trkpt lat="47.56917" lon="6.26834">
        <ele>315.5</ele>
        <time>2014-09-11T10:02:20Z</time>
      </trkpt>
      <trkpt lat="47.56925" lon="6.26824">
        <ele>315.7</ele>
        <time>2014-09-11T10:02:23Z</time>
      </trkpt>
      <trkpt lat="47.56933" lon="6.26807">
        <ele>316</ele>
        <time>2014-09-11T10:02:26Z</time>
      </trkpt>
      <trkpt lat="47.56939" lon="6.26796">
        <ele>316.2</ele>
        <time>2014-09-11T10:02:28Z</time>
      </trkpt>
      <trkpt lat="47.56946" lon="6.26783">
        <ele>316.5</ele>
        <time>2014-09-11T10:02:31Z</time>
      </trkpt>
      <trkpt lat="47.56953" lon="6.26767">
        <ele>317</ele>
        <time>2014-09-11T10:02:34Z</time>
      </trkpt>
      <trkpt lat="47.56962" lon="6.26752">
        <ele>317.3</ele>
        <time>2014-09-11T10:02:37Z</time>
      </trkpt>
      <trkpt lat="47.56969" lon="6.26736">
        <ele>317.5</ele>
        <time>2014-09-11T10:02:40Z</time>
      </trkpt>
      <trkpt lat="47.56975" lon="6.26721">
        <ele>317.8</ele>
        <time>2014-09-11T10:02:43Z</time>
      </trkpt>
      <trkpt lat="47.56981" lon="6.26707">
        <ele>317.9</ele>
        <time>2014-09-11T10:02:46Z</time>
      </trkpt>
      <trkpt lat="47.56985" lon="6.26693">
        <ele>318.3</ele>
        <time>2014-09-11T10:02:49Z</time>
      </trkpt>
      <trkpt lat="47.56989" lon="6.2668">
        <ele>318.7</ele>
        <time>2014-09-11T10:02:52Z</time>
      </trkpt>
      <trkpt lat="47.56992" lon="6.26666">
        <ele>319.1</ele>
        <time>2014-09-11T10:02:55Z</time>
      </trkpt>
      <trkpt lat="47.56995" lon="6.26653">
        <ele>319.8</ele>
        <time>2014-09-11T10:02:58Z</time>
      </trkpt>
      <trkpt lat="47.56997" lon="6.26638">
        <ele>320.3</ele>
        <time>2014-09-11T10:03:02Z</time>
      </trkpt>
      <trkpt lat="47.56999" lon="6.26624">
        <ele>320.6</ele>
        <time>2014-09-11T10:03:06Z</time>
      </trkpt>
      <trkpt lat="47.57002" lon="6.26608">
        <ele>321.1</ele>
        <time>2014-09-11T10:03:10Z</time>
      </trkpt>
      <trkpt lat="47.57003" lon="6.26593">
        <ele>321.4</ele>
        <time>2014-09-11T10:03:14Z</time>
      </trkpt>
      <trkpt lat="47.57005" lon="6.26578">
        <ele>321.9</ele>
        <time>2014-09-11T10:03:18Z</time>
      </trkpt>
      <trkpt lat="47.57008" lon="6.26563">
        <ele>322.3</ele>
        <time>2014-09-11T10:03:22Z</time>
      </trkpt>
      <trkpt lat="47.57012" lon="6.26549">
        <ele>322.5</ele>
        <time>2014-09-11T10:03:26Z</time>
      </trkpt>
      <trkpt lat="47.57017" lon="6.26534">
        <ele>322.7</ele>
        <time>2014-09-11T10:03:30Z</time>
      </trkpt>
      <trkpt lat="47.57023" lon="6.26519">
        <ele>322.7</ele>
        <time>2014-09-11T10:03:34Z</time>
      </trkpt>
      <trkpt lat="47.57026" lon="6.26506">
        <ele>322.7</ele>
        <time>2014-09-11T10:03:37Z</time>
      </trkpt>
      <trkpt lat="47.5703" lon="6.26489">
        <ele>322.7</ele>
        <time>2014-09-11T10:03:41Z</time>
      </trkpt>
      <trkpt lat="47.57033" lon="6.26472">
        <ele>322.6</ele>
        <time>2014-09-11T10:03:44Z</time>
      </trkpt>
      <trkpt lat="47.57036" lon="6.26459">
        <ele>322.7</ele>
        <time>2014-09-11T10:03:47Z</time>
      </trkpt>
      <trkpt lat="47.57041" lon="6.26444">
        <ele>323.1</ele>
        <time>2014-09-11T10:03:51Z</time>
      </trkpt>
      <trkpt lat="47.57044" lon="6.26428">
        <ele>323.4</ele>
        <time>2014-09-11T10:03:55Z</time>
      </trkpt>
      <trkpt lat="47.57046" lon="6.26414">
        <ele>323.7</ele>
        <time>2014-09-11T10:04:00Z</time>
      </trkpt>
      <trkpt lat="47.57048" lon="6.26398">
        <ele>323.8</ele>
        <time>2014-09-11T10:04:04Z</time>
      </trkpt>
      <trkpt lat="47.57049" lon="6.26383">
        <ele>324</ele>
        <time>2014-09-11T10:04:07Z</time>
      </trkpt>
      <trkpt lat="47.5705" lon="6.26368">
        <ele>324.1</ele>
        <time>2014-09-11T10:04:10Z</time>
      </trkpt>
      <trkpt lat="47.57053" lon="6.26355">
        <ele>324.2</ele>
        <time>2014-09-11T10:04:13Z</time>
      </trkpt>
      <trkpt lat="47.57055" lon="6.26339">
        <ele>324.4</ele>
        <time>2014-09-11T10:04:16Z</time>
      </trkpt>
      <trkpt lat="47.57057" lon="6.26326">
        <ele>324.6</ele>
        <time>2014-09-11T10:04:19Z</time>
      </trkpt>
      <trkpt lat="47.5706" lon="6.26312">
        <ele>324.8</ele>
        <time>2014-09-11T10:04:22Z</time>
      </trkpt>
      <trkpt lat="47.57063" lon="6.26299">
        <ele>324.8</ele>
        <time>2014-09-11T10:04:25Z</time>
      </trkpt>
      <trkpt lat="47.57068" lon="6.26282">
        <ele>324.9</ele>
        <time>2014-09-11T10:04:28Z</time>
      </trkpt>
      <trkpt lat="47.57074" lon="6.26264">
        <ele>324.9</ele>
        <time>2014-09-11T10:04:31Z</time>
      </trkpt>
      <trkpt lat="47.57078" lon="6.26247">
        <ele>325.1</ele>
        <time>2014-09-11T10:04:34Z</time>
      </trkpt>
      <trkpt lat="47.57082" lon="6.2623">
        <ele>325.2</ele>
        <time>2014-09-11T10:04:37Z</time>
      </trkpt>
      <trkpt lat="47.57087" lon="6.26215">
        <ele>325.3</ele>
        <time>2014-09-11T10:04:40Z</time>
      </trkpt>
      <trkpt lat="47.57093" lon="6.26201">
        <ele>325.4</ele>
        <time>2014-09-11T10:04:43Z</time>
      </trkpt>
      <trkpt lat="47.571" lon="6.26191">
        <ele>325.5</ele>
        <time>2014-09-11T10:04:45Z</time>
      </trkpt>
      <trkpt lat="47.57108" lon="6.26178">
        <ele>325.4</ele>
        <time>2014-09-11T10:04:48Z</time>
      </trkpt>
      <trkpt lat="47.57114" lon="6.26162">
        <ele>325.1</ele>
        <time>2014-09-11T10:04:51Z</time>
      </trkpt>
      <trkpt lat="47.57119" lon="6.26147">
        <ele>324.9</ele>
        <time>2014-09-11T10:04:54Z</time>
      </trkpt>
      <trkpt lat="47.57124" lon="6.26133">
        <ele>324.7</ele>
        <time>2014-09-11T10:04:57Z</time>
      </trkpt>
      <trkpt lat="47.5713" lon="6.2612">
        <ele>324.7</ele>
        <time>2014-09-11T10:05:00Z</time>
      </trkpt>
      <trkpt lat="47.57139" lon="6.26106">
        <ele>324.7</ele>
        <time>2014-09-11T10:05:04Z</time>
      </trkpt>
      <trkpt lat="47.57147" lon="6.26092">
        <ele>324.8</ele>
        <time>2014-09-11T10:05:07Z</time>
      </trkpt>
      <trkpt lat="47.57154" lon="6.26079">
        <ele>324.7</ele>
        <time>2014-09-11T10:05:10Z</time>
      </trkpt>
      <trkpt lat="47.57162" lon="6.26067">
        <ele>324.8</ele>
        <time>2014-09-11T10:05:13Z</time>
      </trkpt>
      <trkpt lat="47.57171" lon="6.26057">
        <ele>324.7</ele>
        <time>2014-09-11T10:05:15Z</time>
      </trkpt>
      <trkpt lat="47.57179" lon="6.26046">
        <ele>324.5</ele>
        <time>2014-09-11T10:05:17Z</time>
      </trkpt>
      <trkpt lat="47.57188" lon="6.26035">
        <ele>324.3</ele>
        <time>2014-09-11T10:05:20Z</time>
      </trkpt>
      <trkpt lat="47.57196" lon="6.26025">
        <ele>324.1</ele>
        <time>2014-09-11T10:05:23Z</time>
      </trkpt>
      <trkpt lat="47.57206" lon="6.26015">
        <ele>323.7</ele>
        <time>2014-09-11T10:05:27Z</time>
      </trkpt>
      <trkpt lat="47.57214" lon="6.26006">
        <ele>323.6</ele>
        <time>2014-09-11T10:05:30Z</time>
      </trkpt>
      <trkpt lat="47.57221" lon="6.25998">
        <ele>323.7</ele>
        <time>2014-09-11T10:05:34Z</time>
      </trkpt>
      <trkpt lat="47.5723" lon="6.25992">
        <ele>323.4</ele>
        <time>2014-09-11T10:05:37Z</time>
      </trkpt>
      <trkpt lat="47.57241" lon="6.25978">
        <ele>323.1</ele>
        <time>2014-09-11T10:05:39Z</time>
      </trkpt>
      <trkpt lat="47.57252" lon="6.2597">
        <ele>323.1</ele>
        <time>2014-09-11T10:05:42Z</time>
      </trkpt>
      <trkpt lat="47.5726" lon="6.25963">
        <ele>323.1</ele>
        <time>2014-09-11T10:05:44Z</time>
      </trkpt>
      <trkpt lat="47.5727" lon="6.25952">
        <ele>323.1</ele>
        <time>2014-09-11T10:05:46Z</time>
      </trkpt>
      <trkpt lat="47.57279" lon="6.25943">
        <ele>323</ele>
        <time>2014-09-11T10:05:48Z</time>
      </trkpt>
      <trkpt lat="47.57286" lon="6.25935">
        <ele>322.8</ele>
        <time>2014-09-11T10:05:50Z</time>
      </trkpt>
      <trkpt lat="47.57294" lon="6.25928">
        <ele>322.6</ele>
        <time>2014-09-11T10:05:52Z</time>
      </trkpt>
      <trkpt lat="47.57305" lon="6.25918">
        <ele>322.5</ele>
        <time>2014-09-11T10:05:55Z</time>
      </trkpt>
      <trkpt lat="47.57316" lon="6.25909">
        <ele>322.4</ele>
        <time>2014-09-11T10:05:58Z</time>
      </trkpt>
      <trkpt lat="47.57326" lon="6.25904">
        <ele>322.4</ele>
        <time>2014-09-11T10:06:01Z</time>
      </trkpt>
      <trkpt lat="47.57335" lon="6.25898">
        <ele>322.3</ele>
        <time>2014-09-11T10:06:03Z</time>
      </trkpt>
      <trkpt lat="47.57344" lon="6.2589">
        <ele>322.2</ele>
        <time>2014-09-11T10:06:05Z</time>
      </trkpt>
      <trkpt lat="47.57355" lon="6.25883">
        <ele>322.2</ele>
        <time>2014-09-11T10:06:08Z</time>
      </trkpt>
      <trkpt lat="47.57363" lon="6.25877">
        <ele>321.9</ele>
        <time>2014-09-11T10:06:10Z</time>
      </trkpt>
      <trkpt lat="47.57373" lon="6.25869">
        <ele>321.5</ele>
        <time>2014-09-11T10:06:13Z</time>
      </trkpt>
      <trkpt lat="47.57381" lon="6.25863">
        <ele>321.6</ele>
        <time>2014-09-11T10:06:16Z</time>
      </trkpt>
      <trkpt lat="47.5739" lon="6.2586">
        <ele>321.3</ele>
        <time>2014-09-11T10:06:19Z</time>
      </trkpt>
      <trkpt lat="47.57393" lon="6.25846">
        <ele>321.5</ele>
        <time>2014-09-11T10:06:24Z</time>
      </trkpt>
      <trkpt lat="47.57398" lon="6.25834">
        <ele>321.4</ele>
        <time>2014-09-11T10:06:30Z</time>
      </trkpt>
      <trkpt lat="47.57404" lon="6.25821">
        <ele>321.2</ele>
        <time>2014-09-11T10:06:34Z</time>
      </trkpt>
      <trkpt lat="47.57409" lon="6.25808">
        <ele>320.7</ele>
        <time>2014-09-11T10:06:38Z</time>
      </trkpt>
      <trkpt lat="47.57415" lon="6.25795">
        <ele>320</ele>
        <time>2014-09-11T10:06:42Z</time>
      </trkpt>
      <trkpt lat="47.57422" lon="6.25783">
        <ele>319.5</ele>
        <time>2014-09-11T10:06:47Z</time>
      </trkpt>
      <trkpt lat="47.57431" lon="6.25774">
        <ele>319.3</ele>
        <time>2014-09-11T10:06:51Z</time>
      </trkpt>
      <trkpt lat="47.57443" lon="6.25772">
        <ele>319.1</ele>
        <time>2014-09-11T10:06:55Z</time>
      </trkpt>
      <trkpt lat="47.57451" lon="6.25778">
        <ele>319.5</ele>
        <time>2014-09-11T10:06:58Z</time>
      </trkpt>
      <trkpt lat="47.57443" lon="6.25786">
        <ele>320.1</ele>
        <time>2014-09-11T10:07:02Z</time>
      </trkpt>
      <trkpt lat="47.57442" lon="6.25799">
        <ele>320.8</ele>
        <time>2014-09-11T10:07:08Z</time>
      </trkpt>
      <trkpt lat="47.5745" lon="6.25795">
        <ele>320.9</ele>
        <time>2014-09-11T10:07:13Z</time>
      </trkpt>
      <trkpt lat="47.57457" lon="6.25785">
        <ele>321.5</ele>
        <time>2014-09-11T10:07:43Z</time>
      </trkpt>
      <trkpt lat="47.57465" lon="6.25778">
        <ele>322.1</ele>
        <time>2014-09-11T10:08:08Z</time>
      </trkpt>
      <trkpt lat="47.57474" lon="6.25773">
        <ele>322.2</ele>
        <time>2014-09-11T10:08:12Z</time>
      </trkpt>
      <trkpt lat="47.57482" lon="6.25767">
        <ele>322.2</ele>
        <time>2014-09-11T10:08:15Z</time>
      </trkpt>
      <trkpt lat="47.57491" lon="6.2576">
        <ele>322.3</ele>
        <time>2014-09-11T10:08:18Z</time>
      </trkpt>
      <trkpt lat="47.57499" lon="6.25754">
        <ele>322.3</ele>
        <time>2014-09-11T10:08:21Z</time>
      </trkpt>
      <trkpt lat="47.57508" lon="6.25747">
        <ele>322.2</ele>
        <time>2014-09-11T10:08:25Z</time>
      </trkpt>
      <trkpt lat="47.57517" lon="6.25742">
        <ele>322.2</ele>
        <time>2014-09-11T10:08:29Z</time>
      </trkpt>
      <trkpt lat="47.57526" lon="6.25732">
        <ele>322</ele>
        <time>2014-09-11T10:08:33Z</time>
      </trkpt>
      <trkpt lat="47.57534" lon="6.25724">
        <ele>322.2</ele>
        <time>2014-09-11T10:08:37Z</time>
      </trkpt>
      <trkpt lat="47.57542" lon="6.25716">
        <ele>322.1</ele>
        <time>2014-09-11T10:08:41Z</time>
      </trkpt>
      <trkpt lat="47.57553" lon="6.25709">
        <ele>322.1</ele>
        <time>2014-09-11T10:08:45Z</time>
      </trkpt>
      <trkpt lat="47.57562" lon="6.25703">
        <ele>322</ele>
        <time>2014-09-11T10:08:48Z</time>
      </trkpt>
      <trkpt lat="47.57571" lon="6.25698">
        <ele>322.1</ele>
        <time>2014-09-11T10:08:51Z</time>
      </trkpt>
      <trkpt lat="47.5758" lon="6.25687">
        <ele>322</ele>
        <time>2014-09-11T10:08:54Z</time>
      </trkpt>
      <trkpt lat="47.5759" lon="6.2568">
        <ele>321.9</ele>
        <time>2014-09-11T10:08:57Z</time>
      </trkpt>
      <trkpt lat="47.57599" lon="6.25672">
        <ele>322</ele>
        <time>2014-09-11T10:09:00Z</time>
      </trkpt>
      <trkpt lat="47.57607" lon="6.25664">
        <ele>322</ele>
        <time>2014-09-11T10:09:03Z</time>
      </trkpt>
      <trkpt lat="47.57617" lon="6.25657">
        <ele>321.9</ele>
        <time>2014-09-11T10:09:06Z</time>
      </trkpt>
      <trkpt lat="47.57628" lon="6.25649">
        <ele>321.7</ele>
        <time>2014-09-11T10:09:09Z</time>
      </trkpt>
      <trkpt lat="47.57639" lon="6.25642">
        <ele>322</ele>
        <time>2014-09-11T10:09:12Z</time>
      </trkpt>
      <trkpt lat="47.5765" lon="6.25635">
        <ele>321.6</ele>
        <time>2014-09-11T10:09:15Z</time>
      </trkpt>
      <trkpt lat="47.5766" lon="6.25629">
        <ele>321.5</ele>
        <time>2014-09-11T10:09:18Z</time>
      </trkpt>
      <trkpt lat="47.57672" lon="6.25623">
        <ele>321.1</ele>
        <time>2014-09-11T10:09:21Z</time>
      </trkpt>
      <trkpt lat="47.57684" lon="6.25619">
        <ele>320.9</ele>
        <time>2014-09-11T10:09:24Z</time>
      </trkpt>
      <trkpt lat="47.57695" lon="6.25614">
        <ele>321</ele>
        <time>2014-09-11T10:09:27Z</time>
      </trkpt>
      <trkpt lat="47.57705" lon="6.25612">
        <ele>320.9</ele>
        <time>2014-09-11T10:09:30Z</time>
      </trkpt>
      <trkpt lat="47.57717" lon="6.25611">
        <ele>320.6</ele>
        <time>2014-09-11T10:09:34Z</time>
      </trkpt>
      <trkpt lat="47.57728" lon="6.25608">
        <ele>320.7</ele>
        <time>2014-09-11T10:09:37Z</time>
      </trkpt>
      <trkpt lat="47.57739" lon="6.25607">
        <ele>320.6</ele>
        <time>2014-09-11T10:09:40Z</time>
      </trkpt>
      <trkpt lat="47.57749" lon="6.25606">
        <ele>320.4</ele>
        <time>2014-09-11T10:09:43Z</time>
      </trkpt>
      <trkpt lat="47.5776" lon="6.25604">
        <ele>320.4</ele>
        <time>2014-09-11T10:09:46Z</time>
      </trkpt>
      <trkpt lat="47.5777" lon="6.25604">
        <ele>320.3</ele>
        <time>2014-09-11T10:09:49Z</time>
      </trkpt>
      <trkpt lat="47.57781" lon="6.25604">
        <ele>319.9</ele>
        <time>2014-09-11T10:09:52Z</time>
      </trkpt>
      <trkpt lat="47.57792" lon="6.25601">
        <ele>319.9</ele>
        <time>2014-09-11T10:09:54Z</time>
      </trkpt>
      <trkpt lat="47.57803" lon="6.25596">
        <ele>319.9</ele>
        <time>2014-09-11T10:09:56Z</time>
      </trkpt>
      <trkpt lat="47.57816" lon="6.25593">
        <ele>319.9</ele>
        <time>2014-09-11T10:09:59Z</time>
      </trkpt>
      <trkpt lat="47.57825" lon="6.25589">
        <ele>319.9</ele>
        <time>2014-09-11T10:10:01Z</time>
      </trkpt>
      <trkpt lat="47.57837" lon="6.25586">
        <ele>319.8</ele>
        <time>2014-09-11T10:10:04Z</time>
      </trkpt>
      <trkpt lat="47.57846" lon="6.25584">
        <ele>319.7</ele>
        <time>2014-09-11T10:10:06Z</time>
      </trkpt>
      <trkpt lat="47.57859" lon="6.25582">
        <ele>319.4</ele>
        <time>2014-09-11T10:10:09Z</time>
      </trkpt>
      <trkpt lat="47.57872" lon="6.2558">
        <ele>319.2</ele>
        <time>2014-09-11T10:10:12Z</time>
      </trkpt>
      <trkpt lat="47.57884" lon="6.25577">
        <ele>319.3</ele>
        <time>2014-09-11T10:10:15Z</time>
      </trkpt>
      <trkpt lat="47.57894" lon="6.25575">
        <ele>319</ele>
        <time>2014-09-11T10:10:18Z</time>
      </trkpt>
      <trkpt lat="47.57905" lon="6.25572">
        <ele>319</ele>
        <time>2014-09-11T10:10:21Z</time>
      </trkpt>
      <trkpt lat="47.57914" lon="6.25571">
        <ele>318.9</ele>
        <time>2014-09-11T10:10:24Z</time>
      </trkpt>
      <trkpt lat="47.57927" lon="6.25567">
        <ele>318.8</ele>
        <time>2014-09-11T10:10:27Z</time>
      </trkpt>
      <trkpt lat="47.5794" lon="6.25562">
        <ele>318.8</ele>
        <time>2014-09-11T10:10:30Z</time>
      </trkpt>
      <trkpt lat="47.5795" lon="6.25558">
        <ele>318.6</ele>
        <time>2014-09-11T10:10:32Z</time>
      </trkpt>
      <trkpt lat="47.57962" lon="6.25552">
        <ele>318.5</ele>
        <time>2014-09-11T10:10:35Z</time>
      </trkpt>
      <trkpt lat="47.57975" lon="6.25547">
        <ele>318.3</ele>
        <time>2014-09-11T10:10:38Z</time>
      </trkpt>
      <trkpt lat="47.57986" lon="6.25542">
        <ele>318.1</ele>
        <time>2014-09-11T10:10:41Z</time>
      </trkpt>
      <trkpt lat="47.57995" lon="6.25537">
        <ele>317.8</ele>
        <time>2014-09-11T10:10:44Z</time>
      </trkpt>
      <trkpt lat="47.58006" lon="6.2553">
        <ele>317.7</ele>
        <time>2014-09-11T10:10:47Z</time>
      </trkpt>
      <trkpt lat="47.58017" lon="6.25523">
        <ele>317.7</ele>
        <time>2014-09-11T10:10:50Z</time>
      </trkpt>
      <trkpt lat="47.58025" lon="6.25515">
        <ele>317.7</ele>
        <time>2014-09-11T10:10:52Z</time>
      </trkpt>
      <trkpt lat="47.58036" lon="6.25505">
        <ele>317.4</ele>
        <time>2014-09-11T10:10:55Z</time>
      </trkpt>
      <trkpt lat="47.58046" lon="6.25497">
        <ele>317.3</ele>
        <time>2014-09-11T10:10:57Z</time>
      </trkpt>
      <trkpt lat="47.58057" lon="6.25484">
        <ele>317</ele>
        <time>2014-09-11T10:10:59Z</time>
      </trkpt>
      <trkpt lat="47.58066" lon="6.25475">
        <ele>316.8</ele>
        <time>2014-09-11T10:11:01Z</time>
      </trkpt>
      <trkpt lat="47.58073" lon="6.25468">
        <ele>316.7</ele>
        <time>2014-09-11T10:11:03Z</time>
      </trkpt>
      <trkpt lat="47.58082" lon="6.2546">
        <ele>316.4</ele>
        <time>2014-09-11T10:11:06Z</time>
      </trkpt>
      <trkpt lat="47.58089" lon="6.25449">
        <ele>317.3</ele>
        <time>2014-09-11T10:11:26Z</time>
      </trkpt>
      <trkpt lat="47.58096" lon="6.25438">
        <ele>317.4</ele>
        <time>2014-09-11T10:11:31Z</time>
      </trkpt>
      <trkpt lat="47.58103" lon="6.25427">
        <ele>317.2</ele>
        <time>2014-09-11T10:11:33Z</time>
      </trkpt>
      <trkpt lat="47.5811" lon="6.25418">
        <ele>317.1</ele>
        <time>2014-09-11T10:11:35Z</time>
      </trkpt>
      <trkpt lat="47.58119" lon="6.25407">
        <ele>317.1</ele>
        <time>2014-09-11T10:11:38Z</time>
      </trkpt>
      <trkpt lat="47.58128" lon="6.25395">
        <ele>316.8</ele>
        <time>2014-09-11T10:11:41Z</time>
      </trkpt>
      <trkpt lat="47.58136" lon="6.25383">
        <ele>316.6</ele>
        <time>2014-09-11T10:11:44Z</time>
      </trkpt>
      <trkpt lat="47.58143" lon="6.25373">
        <ele>316.5</ele>
        <time>2014-09-11T10:11:47Z</time>
      </trkpt>
      <trkpt lat="47.5815" lon="6.25362">
        <ele>316.4</ele>
        <time>2014-09-11T10:11:50Z</time>
      </trkpt>
      <trkpt lat="47.58158" lon="6.2535">
        <ele>316.5</ele>
        <time>2014-09-11T10:11:53Z</time>
      </trkpt>
      <trkpt lat="47.58166" lon="6.25337">
        <ele>316.3</ele>
        <time>2014-09-11T10:11:56Z</time>
      </trkpt>
      <trkpt lat="47.58174" lon="6.25323">
        <ele>316.4</ele>
        <time>2014-09-11T10:11:59Z</time>
      </trkpt>
      <trkpt lat="47.5818" lon="6.25312">
        <ele>316.4</ele>
        <time>2014-09-11T10:12:01Z</time>
      </trkpt>
      <trkpt lat="47.58186" lon="6.25301">
        <ele>316.4</ele>
        <time>2014-09-11T10:12:03Z</time>
      </trkpt>
      <trkpt lat="47.58192" lon="6.25286">
        <ele>316.4</ele>
        <time>2014-09-11T10:12:06Z</time>
      </trkpt>
      <trkpt lat="47.58199" lon="6.25272">
        <ele>316.1</ele>
        <time>2014-09-11T10:12:09Z</time>
      </trkpt>
      <trkpt lat="47.58205" lon="6.25256">
        <ele>316.1</ele>
        <time>2014-09-11T10:12:12Z</time>
      </trkpt>
      <trkpt lat="47.5821" lon="6.2524">
        <ele>316</ele>
        <time>2014-09-11T10:12:15Z</time>
      </trkpt>
      <trkpt lat="47.58215" lon="6.25225">
        <ele>316.2</ele>
        <time>2014-09-11T10:12:18Z</time>
      </trkpt>
      <trkpt lat="47.58221" lon="6.25212">
        <ele>315.9</ele>
        <time>2014-09-11T10:12:21Z</time>
      </trkpt>
      <trkpt lat="47.58226" lon="6.25197">
        <ele>315.9</ele>
        <time>2014-09-11T10:12:24Z</time>
      </trkpt>
      <trkpt lat="47.58231" lon="6.25184">
        <ele>316</ele>
        <time>2014-09-11T10:12:27Z</time>
      </trkpt>
      <trkpt lat="47.58236" lon="6.25168">
        <ele>315.9</ele>
        <time>2014-09-11T10:12:30Z</time>
      </trkpt>
      <trkpt lat="47.58242" lon="6.25152">
        <ele>315.7</ele>
        <time>2014-09-11T10:12:33Z</time>
      </trkpt>
      <trkpt lat="47.58248" lon="6.25138">
        <ele>315.6</ele>
        <time>2014-09-11T10:12:36Z</time>
      </trkpt>
      <trkpt lat="47.58253" lon="6.25126">
        <ele>315.4</ele>
        <time>2014-09-11T10:12:39Z</time>
      </trkpt>
      <trkpt lat="47.58259" lon="6.2511">
        <ele>315.3</ele>
        <time>2014-09-11T10:12:43Z</time>
      </trkpt>
      <trkpt lat="47.58265" lon="6.25094">
        <ele>315.3</ele>
        <time>2014-09-11T10:12:46Z</time>
      </trkpt>
      <trkpt lat="47.58271" lon="6.25079">
        <ele>315.3</ele>
        <time>2014-09-11T10:12:49Z</time>
      </trkpt>
      <trkpt lat="47.58278" lon="6.25064">
        <ele>315.3</ele>
        <time>2014-09-11T10:12:52Z</time>
      </trkpt>
      <trkpt lat="47.58285" lon="6.25048">
        <ele>315</ele>
        <time>2014-09-11T10:12:55Z</time>
      </trkpt>
      <trkpt lat="47.5829" lon="6.25036">
        <ele>314.9</ele>
        <time>2014-09-11T10:12:57Z</time>
      </trkpt>
      <trkpt lat="47.58295" lon="6.25023">
        <ele>314.8</ele>
        <time>2014-09-11T10:12:59Z</time>
      </trkpt>
      <trkpt lat="47.583" lon="6.2501">
        <ele>314.7</ele>
        <time>2014-09-11T10:13:01Z</time>
      </trkpt>
      <trkpt lat="47.58306" lon="6.24994">
        <ele>314.7</ele>
        <time>2014-09-11T10:13:03Z</time>
      </trkpt>
      <trkpt lat="47.58312" lon="6.24978">
        <ele>315</ele>
        <time>2014-09-11T10:13:05Z</time>
      </trkpt>
      <trkpt lat="47.58319" lon="6.24961">
        <ele>315</ele>
        <time>2014-09-11T10:13:07Z</time>
      </trkpt>
      <trkpt lat="47.58326" lon="6.24944">
        <ele>315</ele>
        <time>2014-09-11T10:13:09Z</time>
      </trkpt>
      <trkpt lat="47.58334" lon="6.24926">
        <ele>315</ele>
        <time>2014-09-11T10:13:11Z</time>
      </trkpt>
      <trkpt lat="47.58342" lon="6.24906">
        <ele>315.2</ele>
        <time>2014-09-11T10:13:13Z</time>
      </trkpt>
      <trkpt lat="47.58352" lon="6.24884">
        <ele>315.1</ele>
        <time>2014-09-11T10:13:15Z</time>
      </trkpt>
      <trkpt lat="47.58356" lon="6.24873">
        <ele>315</ele>
        <time>2014-09-11T10:13:16Z</time>
      </trkpt>
      <trkpt lat="47.58361" lon="6.24861">
        <ele>314.9</ele>
        <time>2014-09-11T10:13:17Z</time>
      </trkpt>
      <trkpt lat="47.58366" lon="6.2485">
        <ele>314.8</ele>
        <time>2014-09-11T10:13:18Z</time>
      </trkpt>
      <trkpt lat="47.58372" lon="6.24839">
        <ele>314.8</ele>
        <time>2014-09-11T10:13:19Z</time>
      </trkpt>
      <trkpt lat="47.58377" lon="6.24827">
        <ele>314.7</ele>
        <time>2014-09-11T10:13:20Z</time>
      </trkpt>
      <trkpt lat="47.58382" lon="6.24814">
        <ele>314.8</ele>
        <time>2014-09-11T10:13:21Z</time>
      </trkpt>
      <trkpt lat="47.58387" lon="6.24802">
        <ele>314.6</ele>
        <time>2014-09-11T10:13:22Z</time>
      </trkpt>
      <trkpt lat="47.58392" lon="6.2479">
        <ele>314.6</ele>
        <time>2014-09-11T10:13:23Z</time>
      </trkpt>
      <trkpt lat="47.58396" lon="6.24777">
        <ele>314.7</ele>
        <time>2014-09-11T10:13:24Z</time>
      </trkpt>
      <trkpt lat="47.584" lon="6.24765">
        <ele>314.6</ele>
        <time>2014-09-11T10:13:25Z</time>
      </trkpt>
      <trkpt lat="47.5841" lon="6.24744">
        <ele>314.2</ele>
        <time>2014-09-11T10:13:27Z</time>
      </trkpt>
      <trkpt lat="47.58418" lon="6.24723">
        <ele>313.5</ele>
        <time>2014-09-11T10:13:29Z</time>
      </trkpt>
      <trkpt lat="47.58427" lon="6.24703">
        <ele>313.2</ele>
        <time>2014-09-11T10:13:31Z</time>
      </trkpt>
      <trkpt lat="47.58435" lon="6.24682">
        <ele>313.1</ele>
        <time>2014-09-11T10:13:33Z</time>
      </trkpt>
      <trkpt lat="47.58443" lon="6.2466">
        <ele>312.9</ele>
        <time>2014-09-11T10:13:35Z</time>
      </trkpt>
      <trkpt lat="47.58451" lon="6.24639">
        <ele>312.5</ele>
        <time>2014-09-11T10:13:37Z</time>
      </trkpt>
      <trkpt lat="47.58458" lon="6.24618">
        <ele>312.2</ele>
        <time>2014-09-11T10:13:39Z</time>
      </trkpt>
      <trkpt lat="47.58466" lon="6.24598">
        <ele>312.1</ele>
        <time>2014-09-11T10:13:41Z</time>
      </trkpt>
      <trkpt lat="47.58473" lon="6.24578">
        <ele>311.9</ele>
        <time>2014-09-11T10:13:43Z</time>
      </trkpt>
      <trkpt lat="47.58481" lon="6.2456">
        <ele>311.4</ele>
        <time>2014-09-11T10:13:45Z</time>
      </trkpt>
      <trkpt lat="47.58488" lon="6.24542">
        <ele>310.9</ele>
        <time>2014-09-11T10:13:47Z</time>
      </trkpt>
      <trkpt lat="47.58494" lon="6.24525">
        <ele>310.7</ele>
        <time>2014-09-11T10:13:49Z</time>
      </trkpt>
      <trkpt lat="47.585" lon="6.24509">
        <ele>310.2</ele>
        <time>2014-09-11T10:13:51Z</time>
      </trkpt>
      <trkpt lat="47.58506" lon="6.24492">
        <ele>309.8</ele>
        <time>2014-09-11T10:13:53Z</time>
      </trkpt>
      <trkpt lat="47.5851" lon="6.24477">
        <ele>309.3</ele>
        <time>2014-09-11T10:13:55Z</time>
      </trkpt>
      <trkpt lat="47.58514" lon="6.24462">
        <ele>309</ele>
        <time>2014-09-11T10:13:57Z</time>
      </trkpt>
      <trkpt lat="47.58518" lon="6.24448">
        <ele>308.6</ele>
        <time>2014-09-11T10:14:00Z</time>
      </trkpt>
      <trkpt lat="47.58519" lon="6.24433">
        <ele>308.2</ele>
        <time>2014-09-11T10:14:05Z</time>
      </trkpt>
      <trkpt lat="47.58523" lon="6.24417">
        <ele>308.4</ele>
        <time>2014-09-11T10:14:10Z</time>
      </trkpt>
      <trkpt lat="47.58526" lon="6.24402">
        <ele>308.4</ele>
        <time>2014-09-11T10:14:13Z</time>
      </trkpt>
      <trkpt lat="47.58531" lon="6.24386">
        <ele>308.1</ele>
        <time>2014-09-11T10:14:16Z</time>
      </trkpt>
      <trkpt lat="47.58536" lon="6.24368">
        <ele>307.8</ele>
        <time>2014-09-11T10:14:19Z</time>
      </trkpt>
      <trkpt lat="47.58541" lon="6.2435">
        <ele>307.6</ele>
        <time>2014-09-11T10:14:22Z</time>
      </trkpt>
      <trkpt lat="47.58546" lon="6.24333">
        <ele>307.6</ele>
        <time>2014-09-11T10:14:25Z</time>
      </trkpt>
      <trkpt lat="47.58551" lon="6.24318">
        <ele>307.5</ele>
        <time>2014-09-11T10:14:28Z</time>
      </trkpt>
      <trkpt lat="47.58556" lon="6.24305">
        <ele>307.5</ele>
        <time>2014-09-11T10:14:32Z</time>
      </trkpt>
      <trkpt lat="47.58557" lon="6.2429">
        <ele>307.6</ele>
        <time>2014-09-11T10:14:37Z</time>
      </trkpt>
      <trkpt lat="47.58564" lon="6.24281">
        <ele>307</ele>
        <time>2014-09-11T10:14:42Z</time>
      </trkpt>
      <trkpt lat="47.58555" lon="6.24286">
        <ele>331.6</ele>
        <time>2014-09-11T11:00:55Z</time>
      </trkpt>
      <trkpt lat="47.58562" lon="6.24276">
        <ele>323.3</ele>
        <time>2014-09-11T11:09:36Z</time>
      </trkpt>
      <trkpt lat="47.58565" lon="6.24263">
        <ele>323.1</ele>
        <time>2014-09-11T11:09:40Z</time>
      </trkpt>
      <trkpt lat="47.5857" lon="6.24247">
        <ele>322.9</ele>
        <time>2014-09-11T11:09:44Z</time>
      </trkpt>
      <trkpt lat="47.58575" lon="6.24234">
        <ele>322.7</ele>
        <time>2014-09-11T11:09:47Z</time>
      </trkpt>
      <trkpt lat="47.5858" lon="6.24218">
        <ele>322.6</ele>
        <time>2014-09-11T11:09:50Z</time>
      </trkpt>
      <trkpt lat="47.58585" lon="6.24202">
        <ele>322.4</ele>
        <time>2014-09-11T11:09:53Z</time>
      </trkpt>
      <trkpt lat="47.5859" lon="6.24187">
        <ele>322.2</ele>
        <time>2014-09-11T11:09:56Z</time>
      </trkpt>
      <trkpt lat="47.58596" lon="6.24172">
        <ele>322</ele>
        <time>2014-09-11T11:09:59Z</time>
      </trkpt>
      <trkpt lat="47.58602" lon="6.24156">
        <ele>321.8</ele>
        <time>2014-09-11T11:10:02Z</time>
      </trkpt>
      <trkpt lat="47.58609" lon="6.24141">
        <ele>321.6</ele>
        <time>2014-09-11T11:10:05Z</time>
      </trkpt>
      <trkpt lat="47.58617" lon="6.24125">
        <ele>321.4</ele>
        <time>2014-09-11T11:10:08Z</time>
      </trkpt>
      <trkpt lat="47.58625" lon="6.24112">
        <ele>321.2</ele>
        <time>2014-09-11T11:10:11Z</time>
      </trkpt>
      <trkpt lat="47.58632" lon="6.241">
        <ele>321.2</ele>
        <time>2014-09-11T11:10:14Z</time>
      </trkpt>
      <trkpt lat="47.58639" lon="6.24086">
        <ele>320.9</ele>
        <time>2014-09-11T11:10:17Z</time>
      </trkpt>
      <trkpt lat="47.58648" lon="6.24073">
        <ele>320.8</ele>
        <time>2014-09-11T11:10:20Z</time>
      </trkpt>
      <trkpt lat="47.58656" lon="6.2406">
        <ele>320.7</ele>
        <time>2014-09-11T11:10:23Z</time>
      </trkpt>
      <trkpt lat="47.58663" lon="6.24048">
        <ele>320.4</ele>
        <time>2014-09-11T11:10:26Z</time>
      </trkpt>
      <trkpt lat="47.58672" lon="6.24035">
        <ele>320.2</ele>
        <time>2014-09-11T11:10:29Z</time>
      </trkpt>
      <trkpt lat="47.5868" lon="6.24023">
        <ele>320</ele>
        <time>2014-09-11T11:10:32Z</time>
      </trkpt>
      <trkpt lat="47.58689" lon="6.24011">
        <ele>320</ele>
        <time>2014-09-11T11:10:35Z</time>
      </trkpt>
      <trkpt lat="47.58697" lon="6.23999">
        <ele>319.8</ele>
        <time>2014-09-11T11:10:38Z</time>
      </trkpt>
      <trkpt lat="47.58706" lon="6.23987">
        <ele>319.5</ele>
        <time>2014-09-11T11:10:41Z</time>
      </trkpt>
      <trkpt lat="47.58715" lon="6.23977">
        <ele>319.3</ele>
        <time>2014-09-11T11:10:44Z</time>
      </trkpt>
      <trkpt lat="47.58724" lon="6.23963">
        <ele>319</ele>
        <time>2014-09-11T11:10:47Z</time>
      </trkpt>
      <trkpt lat="47.58735" lon="6.23951">
        <ele>318.7</ele>
        <time>2014-09-11T11:10:50Z</time>
      </trkpt>
      <trkpt lat="47.58744" lon="6.2394">
        <ele>318.5</ele>
        <time>2014-09-11T11:10:53Z</time>
      </trkpt>
      <trkpt lat="47.58753" lon="6.23929">
        <ele>318.3</ele>
        <time>2014-09-11T11:10:56Z</time>
      </trkpt>
      <trkpt lat="47.58761" lon="6.23919">
        <ele>318.1</ele>
        <time>2014-09-11T11:10:59Z</time>
      </trkpt>
      <trkpt lat="47.58769" lon="6.2391">
        <ele>317.9</ele>
        <time>2014-09-11T11:11:02Z</time>
      </trkpt>
      <trkpt lat="47.58777" lon="6.239">
        <ele>317.5</ele>
        <time>2014-09-11T11:11:05Z</time>
      </trkpt>
      <trkpt lat="47.58787" lon="6.2389">
        <ele>317.3</ele>
        <time>2014-09-11T11:11:08Z</time>
      </trkpt>
      <trkpt lat="47.58796" lon="6.23879">
        <ele>317.1</ele>
        <time>2014-09-11T11:11:11Z</time>
      </trkpt>
      <trkpt lat="47.58804" lon="6.23868">
        <ele>316.7</ele>
        <time>2014-09-11T11:11:14Z</time>
      </trkpt>
      <trkpt lat="47.58811" lon="6.23856">
        <ele>316.6</ele>
        <time>2014-09-11T11:11:17Z</time>
      </trkpt>
      <trkpt lat="47.5882" lon="6.23844">
        <ele>316.5</ele>
        <time>2014-09-11T11:11:21Z</time>
      </trkpt>
      <trkpt lat="47.5883" lon="6.23835">
        <ele>316.3</ele>
        <time>2014-09-11T11:11:24Z</time>
      </trkpt>
      <trkpt lat="47.58839" lon="6.23825">
        <ele>316</ele>
        <time>2014-09-11T11:11:27Z</time>
      </trkpt>
      <trkpt lat="47.58848" lon="6.23814">
        <ele>315.7</ele>
        <time>2014-09-11T11:11:30Z</time>
      </trkpt>
      <trkpt lat="47.58856" lon="6.23803">
        <ele>315.6</ele>
        <time>2014-09-11T11:11:33Z</time>
      </trkpt>
      <trkpt lat="47.58863" lon="6.23792">
        <ele>315.5</ele>
        <time>2014-09-11T11:11:36Z</time>
      </trkpt>
      <trkpt lat="47.58871" lon="6.23781">
        <ele>315.2</ele>
        <time>2014-09-11T11:11:39Z</time>
      </trkpt>
      <trkpt lat="47.58877" lon="6.2377">
        <ele>315</ele>
        <time>2014-09-11T11:11:42Z</time>
      </trkpt>
      <trkpt lat="47.58885" lon="6.2376">
        <ele>314.9</ele>
        <time>2014-09-11T11:11:45Z</time>
      </trkpt>
      <trkpt lat="47.58894" lon="6.2375">
        <ele>314.5</ele>
        <time>2014-09-11T11:11:48Z</time>
      </trkpt>
      <trkpt lat="47.58902" lon="6.23734">
        <ele>314.2</ele>
        <time>2014-09-11T11:11:51Z</time>
      </trkpt>
      <trkpt lat="47.58909" lon="6.23723">
        <ele>314</ele>
        <time>2014-09-11T11:11:54Z</time>
      </trkpt>
      <trkpt lat="47.58915" lon="6.23711">
        <ele>313.7</ele>
        <time>2014-09-11T11:11:57Z</time>
      </trkpt>
      <trkpt lat="47.58921" lon="6.23696">
        <ele>313.5</ele>
        <time>2014-09-11T11:12:00Z</time>
      </trkpt>
      <trkpt lat="47.58927" lon="6.23683">
        <ele>313.3</ele>
        <time>2014-09-11T11:12:03Z</time>
      </trkpt>
      <trkpt lat="47.58933" lon="6.23669">
        <ele>313.1</ele>
        <time>2014-09-11T11:12:06Z</time>
      </trkpt>
      <trkpt lat="47.58938" lon="6.23654">
        <ele>312.8</ele>
        <time>2014-09-11T11:12:09Z</time>
      </trkpt>
      <trkpt lat="47.58943" lon="6.23638">
        <ele>312.9</ele>
        <time>2014-09-11T11:12:12Z</time>
      </trkpt>
      <trkpt lat="47.58947" lon="6.23621">
        <ele>312.7</ele>
        <time>2014-09-11T11:12:15Z</time>
      </trkpt>
      <trkpt lat="47.5895" lon="6.23604">
        <ele>312.7</ele>
        <time>2014-09-11T11:12:18Z</time>
      </trkpt>
      <trkpt lat="47.58953" lon="6.23591">
        <ele>312.5</ele>
        <time>2014-09-11T11:12:20Z</time>
      </trkpt>
      <trkpt lat="47.58956" lon="6.23575">
        <ele>312.3</ele>
        <time>2014-09-11T11:12:23Z</time>
      </trkpt>
      <trkpt lat="47.58959" lon="6.23562">
        <ele>312.1</ele>
        <time>2014-09-11T11:12:26Z</time>
      </trkpt>
      <trkpt lat="47.58962" lon="6.23546">
        <ele>311.8</ele>
        <time>2014-09-11T11:12:30Z</time>
      </trkpt>
      <trkpt lat="47.58966" lon="6.23528">
        <ele>311.7</ele>
        <time>2014-09-11T11:12:34Z</time>
      </trkpt>
      <trkpt lat="47.58969" lon="6.23511">
        <ele>311.5</ele>
        <time>2014-09-11T11:12:37Z</time>
      </trkpt>
      <trkpt lat="47.58972" lon="6.23493">
        <ele>311.2</ele>
        <time>2014-09-11T11:12:40Z</time>
      </trkpt>
      <trkpt lat="47.58975" lon="6.2348">
        <ele>311.1</ele>
        <time>2014-09-11T11:12:42Z</time>
      </trkpt>
      <trkpt lat="47.58977" lon="6.23463">
        <ele>310.8</ele>
        <time>2014-09-11T11:12:45Z</time>
      </trkpt>
      <trkpt lat="47.58979" lon="6.23444">
        <ele>310.8</ele>
        <time>2014-09-11T11:12:48Z</time>
      </trkpt>
      <trkpt lat="47.58981" lon="6.23425">
        <ele>310.6</ele>
        <time>2014-09-11T11:12:51Z</time>
      </trkpt>
      <trkpt lat="47.58982" lon="6.23408">
        <ele>310.6</ele>
        <time>2014-09-11T11:12:54Z</time>
      </trkpt>
      <trkpt lat="47.58983" lon="6.2339">
        <ele>310.6</ele>
        <time>2014-09-11T11:12:57Z</time>
      </trkpt>
      <trkpt lat="47.58984" lon="6.23373">
        <ele>310.3</ele>
        <time>2014-09-11T11:13:00Z</time>
      </trkpt>
      <trkpt lat="47.58986" lon="6.23356">
        <ele>310.1</ele>
        <time>2014-09-11T11:13:03Z</time>
      </trkpt>
      <trkpt lat="47.58987" lon="6.2334">
        <ele>309.9</ele>
        <time>2014-09-11T11:13:06Z</time>
      </trkpt>
      <trkpt lat="47.58989" lon="6.23323">
        <ele>309.8</ele>
        <time>2014-09-11T11:13:09Z</time>
      </trkpt>
      <trkpt lat="47.5899" lon="6.23306">
        <ele>309.6</ele>
        <time>2014-09-11T11:13:12Z</time>
      </trkpt>
      <trkpt lat="47.58991" lon="6.23289">
        <ele>309.4</ele>
        <time>2014-09-11T11:13:15Z</time>
      </trkpt>
      <trkpt lat="47.58993" lon="6.23271">
        <ele>309.4</ele>
        <time>2014-09-11T11:13:18Z</time>
      </trkpt>
      <trkpt lat="47.58994" lon="6.23252">
        <ele>309.3</ele>
        <time>2014-09-11T11:13:21Z</time>
      </trkpt>
      <trkpt lat="47.58996" lon="6.23235">
        <ele>309.2</ele>
        <time>2014-09-11T11:13:24Z</time>
      </trkpt>
      <trkpt lat="47.58998" lon="6.23216">
        <ele>309.1</ele>
        <time>2014-09-11T11:13:27Z</time>
      </trkpt>
      <trkpt lat="47.58999" lon="6.23197">
        <ele>309</ele>
        <time>2014-09-11T11:13:30Z</time>
      </trkpt>
      <trkpt lat="47.59001" lon="6.23178">
        <ele>308.9</ele>
        <time>2014-09-11T11:13:33Z</time>
      </trkpt>
      <trkpt lat="47.59003" lon="6.2316">
        <ele>308.6</ele>
        <time>2014-09-11T11:13:36Z</time>
      </trkpt>
      <trkpt lat="47.59003" lon="6.23143">
        <ele>308.7</ele>
        <time>2014-09-11T11:13:39Z</time>
      </trkpt>
      <trkpt lat="47.59004" lon="6.23125">
        <ele>308.6</ele>
        <time>2014-09-11T11:13:42Z</time>
      </trkpt>
      <trkpt lat="47.59005" lon="6.23108">
        <ele>308.4</ele>
        <time>2014-09-11T11:13:45Z</time>
      </trkpt>
      <trkpt lat="47.59008" lon="6.2309">
        <ele>308.2</ele>
        <time>2014-09-11T11:13:48Z</time>
      </trkpt>
      <trkpt lat="47.59011" lon="6.23074">
        <ele>308.2</ele>
        <time>2014-09-11T11:13:51Z</time>
      </trkpt>
      <trkpt lat="47.59014" lon="6.23056">
        <ele>308</ele>
        <time>2014-09-11T11:13:54Z</time>
      </trkpt>
      <trkpt lat="47.59016" lon="6.23041">
        <ele>307.8</ele>
        <time>2014-09-11T11:13:57Z</time>
      </trkpt>
      <trkpt lat="47.59021" lon="6.23029">
        <ele>307.7</ele>
        <time>2014-09-11T11:14:02Z</time>
      </trkpt>
      <trkpt lat="47.59029" lon="6.23023">
        <ele>307.6</ele>
        <time>2014-09-11T11:14:08Z</time>
      </trkpt>
      <trkpt lat="47.59037" lon="6.23011">
        <ele>306.4</ele>
        <time>2014-09-11T11:15:03Z</time>
      </trkpt>
      <trkpt lat="47.59045" lon="6.23004">
        <ele>306.5</ele>
        <time>2014-09-11T11:15:05Z</time>
      </trkpt>
      <trkpt lat="47.59054" lon="6.22996">
        <ele>306.6</ele>
        <time>2014-09-11T11:15:07Z</time>
      </trkpt>
      <trkpt lat="47.59063" lon="6.22987">
        <ele>306.6</ele>
        <time>2014-09-11T11:15:09Z</time>
      </trkpt>
      <trkpt lat="47.59073" lon="6.22977">
        <ele>306.6</ele>
        <time>2014-09-11T11:15:11Z</time>
      </trkpt>
      <trkpt lat="47.59082" lon="6.22967">
        <ele>306.8</ele>
        <time>2014-09-11T11:15:13Z</time>
      </trkpt>
      <trkpt lat="47.5909" lon="6.22959">
        <ele>307.1</ele>
        <time>2014-09-11T11:15:15Z</time>
      </trkpt>
      <trkpt lat="47.59099" lon="6.22949">
        <ele>307.2</ele>
        <time>2014-09-11T11:15:17Z</time>
      </trkpt>
      <trkpt lat="47.59108" lon="6.22941">
        <ele>306.9</ele>
        <time>2014-09-11T11:15:19Z</time>
      </trkpt>
      <trkpt lat="47.59116" lon="6.22933">
        <ele>307</ele>
        <time>2014-09-11T11:15:21Z</time>
      </trkpt>
      <trkpt lat="47.59125" lon="6.22925">
        <ele>307.1</ele>
        <time>2014-09-11T11:15:23Z</time>
      </trkpt>
      <trkpt lat="47.59132" lon="6.22918">
        <ele>307</ele>
        <time>2014-09-11T11:15:25Z</time>
      </trkpt>
      <trkpt lat="47.59143" lon="6.22908">
        <ele>307.3</ele>
        <time>2014-09-11T11:15:28Z</time>
      </trkpt>
      <trkpt lat="47.59154" lon="6.22898">
        <ele>307.5</ele>
        <time>2014-09-11T11:15:31Z</time>
      </trkpt>
      <trkpt lat="47.59164" lon="6.22888">
        <ele>307.4</ele>
        <time>2014-09-11T11:15:34Z</time>
      </trkpt>
      <trkpt lat="47.59173" lon="6.22881">
        <ele>307.6</ele>
        <time>2014-09-11T11:15:37Z</time>
      </trkpt>
      <trkpt lat="47.59181" lon="6.22874">
        <ele>307.9</ele>
        <time>2014-09-11T11:15:40Z</time>
      </trkpt>
      <trkpt lat="47.59189" lon="6.22866">
        <ele>308</ele>
        <time>2014-09-11T11:15:43Z</time>
      </trkpt>
      <trkpt lat="47.59199" lon="6.22857">
        <ele>307.9</ele>
        <time>2014-09-11T11:15:47Z</time>
      </trkpt>
      <trkpt lat="47.59209" lon="6.22856">
        <ele>308</ele>
        <time>2014-09-11T11:15:51Z</time>
      </trkpt>
      <trkpt lat="47.592" lon="6.2285">
        <ele>307.7</ele>
        <time>2014-09-11T11:15:58Z</time>
      </trkpt>
      <trkpt lat="47.59189" lon="6.22859">
        <ele>307.8</ele>
        <time>2014-09-11T11:16:01Z</time>
      </trkpt>
      <trkpt lat="47.59181" lon="6.22866">
        <ele>307.7</ele>
        <time>2014-09-11T11:16:03Z</time>
      </trkpt>
      <trkpt lat="47.59174" lon="6.22874">
        <ele>307.5</ele>
        <time>2014-09-11T11:16:05Z</time>
      </trkpt>
      <trkpt lat="47.59163" lon="6.22884">
        <ele>307.2</ele>
        <time>2014-09-11T11:16:08Z</time>
      </trkpt>
      <trkpt lat="47.59153" lon="6.22896">
        <ele>307</ele>
        <time>2014-09-11T11:16:11Z</time>
      </trkpt>
      <trkpt lat="47.59145" lon="6.22904">
        <ele>307</ele>
        <time>2014-09-11T11:16:13Z</time>
      </trkpt>
      <trkpt lat="47.59136" lon="6.22912">
        <ele>306.8</ele>
        <time>2014-09-11T11:16:15Z</time>
      </trkpt>
      <trkpt lat="47.59128" lon="6.2292">
        <ele>306.4</ele>
        <time>2014-09-11T11:16:17Z</time>
      </trkpt>
      <trkpt lat="47.59119" lon="6.22928">
        <ele>306.6</ele>
        <time>2014-09-11T11:16:19Z</time>
      </trkpt>
      <trkpt lat="47.59111" lon="6.22937">
        <ele>306.2</ele>
        <time>2014-09-11T11:16:21Z</time>
      </trkpt>
      <trkpt lat="47.59103" lon="6.22945">
        <ele>305.9</ele>
        <time>2014-09-11T11:16:23Z</time>
      </trkpt>
      <trkpt lat="47.59095" lon="6.22953">
        <ele>305.6</ele>
        <time>2014-09-11T11:16:25Z</time>
      </trkpt>
      <trkpt lat="47.59087" lon="6.22961">
        <ele>305.3</ele>
        <time>2014-09-11T11:16:27Z</time>
      </trkpt>
      <trkpt lat="47.59079" lon="6.22969">
        <ele>304.9</ele>
        <time>2014-09-11T11:16:29Z</time>
      </trkpt>
      <trkpt lat="47.59072" lon="6.22978">
        <ele>304.7</ele>
        <time>2014-09-11T11:16:31Z</time>
      </trkpt>
      <trkpt lat="47.59064" lon="6.22985">
        <ele>304.5</ele>
        <time>2014-09-11T11:16:33Z</time>
      </trkpt>
      <trkpt lat="47.59056" lon="6.22993">
        <ele>304.5</ele>
        <time>2014-09-11T11:16:35Z</time>
      </trkpt>
      <trkpt lat="47.59046" lon="6.23002">
        <ele>304.3</ele>
        <time>2014-09-11T11:16:38Z</time>
      </trkpt>
      <trkpt lat="47.59041" lon="6.23013">
        <ele>304.2</ele>
        <time>2014-09-11T11:16:41Z</time>
      </trkpt>
      <trkpt lat="47.59035" lon="6.23023">
        <ele>303.3</ele>
        <time>2014-09-11T11:17:10Z</time>
      </trkpt>
      <trkpt lat="47.59039" lon="6.23007">
        <ele>303.2</ele>
        <time>2014-09-11T11:17:16Z</time>
      </trkpt>
      <trkpt lat="47.59038" lon="6.2299">
        <ele>303.2</ele>
        <time>2014-09-11T11:17:19Z</time>
      </trkpt>
      <trkpt lat="47.59038" lon="6.22975">
        <ele>303.1</ele>
        <time>2014-09-11T11:17:22Z</time>
      </trkpt>
      <trkpt lat="47.59045" lon="6.22961">
        <ele>303.5</ele>
        <time>2014-09-11T11:17:25Z</time>
      </trkpt>
      <trkpt lat="47.59053" lon="6.2295">
        <ele>303.4</ele>
        <time>2014-09-11T11:17:28Z</time>
      </trkpt>
      <trkpt lat="47.59059" lon="6.22936">
        <ele>303.2</ele>
        <time>2014-09-11T11:17:31Z</time>
      </trkpt>
      <trkpt lat="47.59066" lon="6.2292">
        <ele>303.3</ele>
        <time>2014-09-11T11:17:34Z</time>
      </trkpt>
      <trkpt lat="47.59072" lon="6.22905">
        <ele>303</ele>
        <time>2014-09-11T11:17:37Z</time>
      </trkpt>
      <trkpt lat="47.59078" lon="6.2289">
        <ele>302.8</ele>
        <time>2014-09-11T11:17:40Z</time>
      </trkpt>
      <trkpt lat="47.59085" lon="6.22875">
        <ele>302.5</ele>
        <time>2014-09-11T11:17:43Z</time>
      </trkpt>
      <trkpt lat="47.5909" lon="6.22859">
        <ele>302.3</ele>
        <time>2014-09-11T11:17:46Z</time>
      </trkpt>
      <trkpt lat="47.59095" lon="6.22844">
        <ele>302.1</ele>
        <time>2014-09-11T11:17:49Z</time>
      </trkpt>
      <trkpt lat="47.59101" lon="6.22831">
        <ele>302.1</ele>
        <time>2014-09-11T11:17:52Z</time>
      </trkpt>
      <trkpt lat="47.59106" lon="6.22818">
        <ele>301.7</ele>
        <time>2014-09-11T11:17:55Z</time>
      </trkpt>
      <trkpt lat="47.59111" lon="6.22805">
        <ele>301.4</ele>
        <time>2014-09-11T11:17:58Z</time>
      </trkpt>
      <trkpt lat="47.59115" lon="6.22792">
        <ele>301.1</ele>
        <time>2014-09-11T11:18:01Z</time>
      </trkpt>
      <trkpt lat="47.5912" lon="6.22776">
        <ele>300.9</ele>
        <time>2014-09-11T11:18:05Z</time>
      </trkpt>
      <trkpt lat="47.59123" lon="6.22761">
        <ele>300.9</ele>
        <time>2014-09-11T11:18:08Z</time>
      </trkpt>
      <trkpt lat="47.59127" lon="6.22746">
        <ele>300.7</ele>
        <time>2014-09-11T11:18:11Z</time>
      </trkpt>
      <trkpt lat="47.59131" lon="6.2273">
        <ele>300.6</ele>
        <time>2014-09-11T11:18:14Z</time>
      </trkpt>
      <trkpt lat="47.59135" lon="6.22715">
        <ele>300.4</ele>
        <time>2014-09-11T11:18:17Z</time>
      </trkpt>
      <trkpt lat="47.59141" lon="6.227">
        <ele>299.9</ele>
        <time>2014-09-11T11:18:20Z</time>
      </trkpt>
      <trkpt lat="47.59147" lon="6.22686">
        <ele>299.6</ele>
        <time>2014-09-11T11:18:23Z</time>
      </trkpt>
      <trkpt lat="47.59152" lon="6.2267">
        <ele>299.3</ele>
        <time>2014-09-11T11:18:26Z</time>
      </trkpt>
      <trkpt lat="47.59157" lon="6.22655">
        <ele>299.1</ele>
        <time>2014-09-11T11:18:29Z</time>
      </trkpt>
      <trkpt lat="47.59162" lon="6.22642">
        <ele>299.1</ele>
        <time>2014-09-11T11:18:32Z</time>
      </trkpt>
      <trkpt lat="47.59167" lon="6.22627">
        <ele>299</ele>
        <time>2014-09-11T11:18:35Z</time>
      </trkpt>
      <trkpt lat="47.59171" lon="6.22612">
        <ele>298.7</ele>
        <time>2014-09-11T11:18:38Z</time>
      </trkpt>
      <trkpt lat="47.59175" lon="6.22597">
        <ele>298.5</ele>
        <time>2014-09-11T11:18:41Z</time>
      </trkpt>
      <trkpt lat="47.5918" lon="6.2258">
        <ele>298.1</ele>
        <time>2014-09-11T11:18:44Z</time>
      </trkpt>
      <trkpt lat="47.59183" lon="6.22567">
        <ele>298</ele>
        <time>2014-09-11T11:18:46Z</time>
      </trkpt>
      <trkpt lat="47.59187" lon="6.22551">
        <ele>297.7</ele>
        <time>2014-09-11T11:18:49Z</time>
      </trkpt>
      <trkpt lat="47.59191" lon="6.22535">
        <ele>297.5</ele>
        <time>2014-09-11T11:18:52Z</time>
      </trkpt>
      <trkpt lat="47.59194" lon="6.22522">
        <ele>297.3</ele>
        <time>2014-09-11T11:18:55Z</time>
      </trkpt>
      <trkpt lat="47.59197" lon="6.22508">
        <ele>297</ele>
        <time>2014-09-11T11:18:58Z</time>
      </trkpt>
      <trkpt lat="47.592" lon="6.22495">
        <ele>297</ele>
        <time>2014-09-11T11:19:01Z</time>
      </trkpt>
      <trkpt lat="47.59203" lon="6.22481">
        <ele>296.6</ele>
        <time>2014-09-11T11:19:04Z</time>
      </trkpt>
      <trkpt lat="47.59204" lon="6.22467">
        <ele>296.4</ele>
        <time>2014-09-11T11:19:07Z</time>
      </trkpt>
      <trkpt lat="47.59206" lon="6.2245">
        <ele>295.9</ele>
        <time>2014-09-11T11:19:10Z</time>
      </trkpt>
      <trkpt lat="47.59208" lon="6.22431">
        <ele>295.1</ele>
        <time>2014-09-11T11:19:13Z</time>
      </trkpt>
      <trkpt lat="47.59208" lon="6.22413">
        <ele>294.7</ele>
        <time>2014-09-11T11:19:15Z</time>
      </trkpt>
      <trkpt lat="47.59209" lon="6.22397">
        <ele>294.7</ele>
        <time>2014-09-11T11:19:17Z</time>
      </trkpt>
      <trkpt lat="47.59211" lon="6.22383">
        <ele>294.8</ele>
        <time>2014-09-11T11:19:20Z</time>
      </trkpt>
      <trkpt lat="47.5921" lon="6.22367">
        <ele>294.7</ele>
        <time>2014-09-11T11:19:25Z</time>
      </trkpt>
      <trkpt lat="47.5921" lon="6.22349">
        <ele>294.7</ele>
        <time>2014-09-11T11:19:29Z</time>
      </trkpt>
      <trkpt lat="47.5921" lon="6.22334">
        <ele>294.6</ele>
        <time>2014-09-11T11:19:32Z</time>
      </trkpt>
      <trkpt lat="47.5921" lon="6.22319">
        <ele>294.4</ele>
        <time>2014-09-11T11:19:35Z</time>
      </trkpt>
      <trkpt lat="47.59211" lon="6.22303">
        <ele>294.2</ele>
        <time>2014-09-11T11:19:38Z</time>
      </trkpt>
      <trkpt lat="47.5921" lon="6.22287">
        <ele>293.9</ele>
        <time>2014-09-11T11:19:41Z</time>
      </trkpt>
      <trkpt lat="47.59209" lon="6.2227">
        <ele>294</ele>
        <time>2014-09-11T11:19:44Z</time>
      </trkpt>
      <trkpt lat="47.59209" lon="6.22251">
        <ele>294.1</ele>
        <time>2014-09-11T11:19:47Z</time>
      </trkpt>
      <trkpt lat="47.59207" lon="6.22233">
        <ele>293.7</ele>
        <time>2014-09-11T11:19:50Z</time>
      </trkpt>
      <trkpt lat="47.59207" lon="6.22215">
        <ele>293.2</ele>
        <time>2014-09-11T11:19:53Z</time>
      </trkpt>
      <trkpt lat="47.59205" lon="6.22198">
        <ele>293</ele>
        <time>2014-09-11T11:19:56Z</time>
      </trkpt>
      <trkpt lat="47.59203" lon="6.22179">
        <ele>292.7</ele>
        <time>2014-09-11T11:19:59Z</time>
      </trkpt>
      <trkpt lat="47.592" lon="6.22161">
        <ele>292.5</ele>
        <time>2014-09-11T11:20:02Z</time>
      </trkpt>
      <trkpt lat="47.59197" lon="6.22143">
        <ele>292.3</ele>
        <time>2014-09-11T11:20:05Z</time>
      </trkpt>
      <trkpt lat="47.59194" lon="6.22125">
        <ele>292</ele>
        <time>2014-09-11T11:20:08Z</time>
      </trkpt>
      <trkpt lat="47.5919" lon="6.22106">
        <ele>291.8</ele>
        <time>2014-09-11T11:20:11Z</time>
      </trkpt>
      <trkpt lat="47.59185" lon="6.22088">
        <ele>291.6</ele>
        <time>2014-09-11T11:20:14Z</time>
      </trkpt>
      <trkpt lat="47.59178" lon="6.2207">
        <ele>291.2</ele>
        <time>2014-09-11T11:20:17Z</time>
      </trkpt>
      <trkpt lat="47.59173" lon="6.22054">
        <ele>290.8</ele>
        <time>2014-09-11T11:20:20Z</time>
      </trkpt>
      <trkpt lat="47.59169" lon="6.22037">
        <ele>290.7</ele>
        <time>2014-09-11T11:20:23Z</time>
      </trkpt>
      <trkpt lat="47.59165" lon="6.2202">
        <ele>290.5</ele>
        <time>2014-09-11T11:20:26Z</time>
      </trkpt>
      <trkpt lat="47.5916" lon="6.22002">
        <ele>290.3</ele>
        <time>2014-09-11T11:20:29Z</time>
      </trkpt>
      <trkpt lat="47.59156" lon="6.21985">
        <ele>290.2</ele>
        <time>2014-09-11T11:20:32Z</time>
      </trkpt>
      <trkpt lat="47.59153" lon="6.21972">
        <ele>290.2</ele>
        <time>2014-09-11T11:20:34Z</time>
      </trkpt>
      <trkpt lat="47.59149" lon="6.21954">
        <ele>290</ele>
        <time>2014-09-11T11:20:37Z</time>
      </trkpt>
      <trkpt lat="47.59147" lon="6.21939">
        <ele>289.5</ele>
        <time>2014-09-11T11:20:40Z</time>
      </trkpt>
      <trkpt lat="47.59145" lon="6.21922">
        <ele>289.2</ele>
        <time>2014-09-11T11:20:43Z</time>
      </trkpt>
      <trkpt lat="47.59141" lon="6.21908">
        <ele>289</ele>
        <time>2014-09-11T11:20:45Z</time>
      </trkpt>
      <trkpt lat="47.59138" lon="6.21895">
        <ele>289</ele>
        <time>2014-09-11T11:20:47Z</time>
      </trkpt>
      <trkpt lat="47.59131" lon="6.2188">
        <ele>288.7</ele>
        <time>2014-09-11T11:20:49Z</time>
      </trkpt>
      <trkpt lat="47.59125" lon="6.21864">
        <ele>288.6</ele>
        <time>2014-09-11T11:20:51Z</time>
      </trkpt>
      <trkpt lat="47.59122" lon="6.2185">
        <ele>288.3</ele>
        <time>2014-09-11T11:20:53Z</time>
      </trkpt>
      <trkpt lat="47.59119" lon="6.21837">
        <ele>288.1</ele>
        <time>2014-09-11T11:20:55Z</time>
      </trkpt>
      <trkpt lat="47.59116" lon="6.21824">
        <ele>287.9</ele>
        <time>2014-09-11T11:20:57Z</time>
      </trkpt>
      <trkpt lat="47.59113" lon="6.21809">
        <ele>287.8</ele>
        <time>2014-09-11T11:20:59Z</time>
      </trkpt>
      <trkpt lat="47.59111" lon="6.21795">
        <ele>287.6</ele>
        <time>2014-09-11T11:21:01Z</time>
      </trkpt>
      <trkpt lat="47.59109" lon="6.21781">
        <ele>287.4</ele>
        <time>2014-09-11T11:21:03Z</time>
      </trkpt>
      <trkpt lat="47.59106" lon="6.21762">
        <ele>287.2</ele>
        <time>2014-09-11T11:21:06Z</time>
      </trkpt>
      <trkpt lat="47.59104" lon="6.21744">
        <ele>286.9</ele>
        <time>2014-09-11T11:21:09Z</time>
      </trkpt>
      <trkpt lat="47.59102" lon="6.21724">
        <ele>286.5</ele>
        <time>2014-09-11T11:21:12Z</time>
      </trkpt>
      <trkpt lat="47.59098" lon="6.21709">
        <ele>286.3</ele>
        <time>2014-09-11T11:21:14Z</time>
      </trkpt>
      <trkpt lat="47.59097" lon="6.21694">
        <ele>286.2</ele>
        <time>2014-09-11T11:21:16Z</time>
      </trkpt>
      <trkpt lat="47.59096" lon="6.21679">
        <ele>286.1</ele>
        <time>2014-09-11T11:21:18Z</time>
      </trkpt>
      <trkpt lat="47.59094" lon="6.2166">
        <ele>285.9</ele>
        <time>2014-09-11T11:21:20Z</time>
      </trkpt>
      <trkpt lat="47.59092" lon="6.21643">
        <ele>285.4</ele>
        <time>2014-09-11T11:21:22Z</time>
      </trkpt>
      <trkpt lat="47.59092" lon="6.21628">
        <ele>285.2</ele>
        <time>2014-09-11T11:21:24Z</time>
      </trkpt>
      <trkpt lat="47.59089" lon="6.21612">
        <ele>285.1</ele>
        <time>2014-09-11T11:21:26Z</time>
      </trkpt>
      <trkpt lat="47.59087" lon="6.21596">
        <ele>284.8</ele>
        <time>2014-09-11T11:21:28Z</time>
      </trkpt>
      <trkpt lat="47.59087" lon="6.21581">
        <ele>284.6</ele>
        <time>2014-09-11T11:21:30Z</time>
      </trkpt>
      <trkpt lat="47.59088" lon="6.21568">
        <ele>284.3</ele>
        <time>2014-09-11T11:21:32Z</time>
      </trkpt>
      <trkpt lat="47.5909" lon="6.21548">
        <ele>284</ele>
        <time>2014-09-11T11:21:35Z</time>
      </trkpt>
      <trkpt lat="47.59092" lon="6.2153">
        <ele>283.8</ele>
        <time>2014-09-11T11:21:38Z</time>
      </trkpt>
      <trkpt lat="47.59095" lon="6.21515">
        <ele>283.4</ele>
        <time>2014-09-11T11:21:42Z</time>
      </trkpt>
      <trkpt lat="47.59093" lon="6.215">
        <ele>283.1</ele>
        <time>2014-09-11T11:21:57Z</time>
      </trkpt>
      <trkpt lat="47.59084" lon="6.21503">
        <ele>283.4</ele>
        <time>2014-09-11T11:22:02Z</time>
      </trkpt>
      <trkpt lat="47.59074" lon="6.21508">
        <ele>283.3</ele>
        <time>2014-09-11T11:22:07Z</time>
      </trkpt>
      <trkpt lat="47.59065" lon="6.21513">
        <ele>283.4</ele>
        <time>2014-09-11T11:22:11Z</time>
      </trkpt>
      <trkpt lat="47.59054" lon="6.21519">
        <ele>283.5</ele>
        <time>2014-09-11T11:22:15Z</time>
      </trkpt>
      <trkpt lat="47.59044" lon="6.21523">
        <ele>283.8</ele>
        <time>2014-09-11T11:22:19Z</time>
      </trkpt>
      <trkpt lat="47.59034" lon="6.21526">
        <ele>284</ele>
        <time>2014-09-11T11:22:23Z</time>
      </trkpt>
      <trkpt lat="47.59023" lon="6.21529">
        <ele>284.4</ele>
        <time>2014-09-11T11:22:27Z</time>
      </trkpt>
      <trkpt lat="47.59012" lon="6.21531">
        <ele>284.9</ele>
        <time>2014-09-11T11:22:31Z</time>
      </trkpt>
      <trkpt lat="47.59002" lon="6.21532">
        <ele>285.3</ele>
        <time>2014-09-11T11:22:35Z</time>
      </trkpt>
      <trkpt lat="47.58992" lon="6.2153">
        <ele>286.2</ele>
        <time>2014-09-11T11:22:40Z</time>
      </trkpt>
      <trkpt lat="47.58983" lon="6.21525">
        <ele>287.2</ele>
        <time>2014-09-11T11:22:46Z</time>
      </trkpt>
      <trkpt lat="47.58974" lon="6.2152">
        <ele>288.1</ele>
        <time>2014-09-11T11:22:51Z</time>
      </trkpt>
      <trkpt lat="47.58965" lon="6.21516">
        <ele>288.9</ele>
        <time>2014-09-11T11:22:55Z</time>
      </trkpt>
      <trkpt lat="47.58955" lon="6.2151">
        <ele>289.6</ele>
        <time>2014-09-11T11:23:00Z</time>
      </trkpt>
      <trkpt lat="47.58945" lon="6.21504">
        <ele>290</ele>
        <time>2014-09-11T11:23:06Z</time>
      </trkpt>
      <trkpt lat="47.58936" lon="6.21499">
        <ele>290.4</ele>
        <time>2014-09-11T11:23:11Z</time>
      </trkpt>
      <trkpt lat="47.58927" lon="6.21494">
        <ele>290.8</ele>
        <time>2014-09-11T11:23:17Z</time>
      </trkpt>
      <trkpt lat="47.58926" lon="6.21479">
        <ele>291</ele>
        <time>2014-09-11T11:23:46Z</time>
      </trkpt>
      <trkpt lat="47.58929" lon="6.21467">
        <ele>291.1</ele>
        <time>2014-09-11T11:23:49Z</time>
      </trkpt>
      <trkpt lat="47.58933" lon="6.21454">
        <ele>291.1</ele>
        <time>2014-09-11T11:23:52Z</time>
      </trkpt>
      <trkpt lat="47.58937" lon="6.2144">
        <ele>290.8</ele>
        <time>2014-09-11T11:23:55Z</time>
      </trkpt>
      <trkpt lat="47.58941" lon="6.21424">
        <ele>290.6</ele>
        <time>2014-09-11T11:23:58Z</time>
      </trkpt>
      <trkpt lat="47.58945" lon="6.21408">
        <ele>290.2</ele>
        <time>2014-09-11T11:24:01Z</time>
      </trkpt>
      <trkpt lat="47.5895" lon="6.21392">
        <ele>289.9</ele>
        <time>2014-09-11T11:24:04Z</time>
      </trkpt>
      <trkpt lat="47.58954" lon="6.21376">
        <ele>290</ele>
        <time>2014-09-11T11:24:07Z</time>
      </trkpt>
      <trkpt lat="47.58958" lon="6.21359">
        <ele>290</ele>
        <time>2014-09-11T11:24:10Z</time>
      </trkpt>
      <trkpt lat="47.58963" lon="6.21343">
        <ele>289.8</ele>
        <time>2014-09-11T11:24:13Z</time>
      </trkpt>
      <trkpt lat="47.58967" lon="6.21328">
        <ele>289.8</ele>
        <time>2014-09-11T11:24:16Z</time>
      </trkpt>
      <trkpt lat="47.5897" lon="6.21313">
        <ele>290</ele>
        <time>2014-09-11T11:24:19Z</time>
      </trkpt>
      <trkpt lat="47.58974" lon="6.21299">
        <ele>289.9</ele>
        <time>2014-09-11T11:24:22Z</time>
      </trkpt>
      <trkpt lat="47.58978" lon="6.21283">
        <ele>289.6</ele>
        <time>2014-09-11T11:24:25Z</time>
      </trkpt>
      <trkpt lat="47.58982" lon="6.21268">
        <ele>289.5</ele>
        <time>2014-09-11T11:24:28Z</time>
      </trkpt>
      <trkpt lat="47.58987" lon="6.21253">
        <ele>289.5</ele>
        <time>2014-09-11T11:24:31Z</time>
      </trkpt>
      <trkpt lat="47.58991" lon="6.21237">
        <ele>289.3</ele>
        <time>2014-09-11T11:24:34Z</time>
      </trkpt>
      <trkpt lat="47.58996" lon="6.21219">
        <ele>288.8</ele>
        <time>2014-09-11T11:24:37Z</time>
      </trkpt>
      <trkpt lat="47.59" lon="6.21206">
        <ele>288.7</ele>
        <time>2014-09-11T11:24:39Z</time>
      </trkpt>
      <trkpt lat="47.59004" lon="6.21192">
        <ele>288.6</ele>
        <time>2014-09-11T11:24:41Z</time>
      </trkpt>
      <trkpt lat="47.59008" lon="6.21177">
        <ele>288.3</ele>
        <time>2014-09-11T11:24:43Z</time>
      </trkpt>
      <trkpt lat="47.59013" lon="6.21162">
        <ele>288.2</ele>
        <time>2014-09-11T11:24:45Z</time>
      </trkpt>
      <trkpt lat="47.59017" lon="6.21146">
        <ele>287.9</ele>
        <time>2014-09-11T11:24:47Z</time>
      </trkpt>
      <trkpt lat="47.59022" lon="6.21129">
        <ele>287.3</ele>
        <time>2014-09-11T11:24:49Z</time>
      </trkpt>
      <trkpt lat="47.59026" lon="6.21113">
        <ele>287.1</ele>
        <time>2014-09-11T11:24:51Z</time>
      </trkpt>
      <trkpt lat="47.59031" lon="6.21095">
        <ele>286.6</ele>
        <time>2014-09-11T11:24:53Z</time>
      </trkpt>
      <trkpt lat="47.59036" lon="6.21078">
        <ele>286.3</ele>
        <time>2014-09-11T11:24:55Z</time>
      </trkpt>
      <trkpt lat="47.59041" lon="6.2106">
        <ele>285.8</ele>
        <time>2014-09-11T11:24:57Z</time>
      </trkpt>
      <trkpt lat="47.59046" lon="6.21043">
        <ele>285.2</ele>
        <time>2014-09-11T11:24:59Z</time>
      </trkpt>
      <trkpt lat="47.59051" lon="6.21025">
        <ele>284.8</ele>
        <time>2014-09-11T11:25:01Z</time>
      </trkpt>
      <trkpt lat="47.59055" lon="6.21007">
        <ele>285.2</ele>
        <time>2014-09-11T11:25:03Z</time>
      </trkpt>
      <trkpt lat="47.5906" lon="6.20989">
        <ele>284.4</ele>
        <time>2014-09-11T11:25:05Z</time>
      </trkpt>
      <trkpt lat="47.59065" lon="6.20972">
        <ele>283.9</ele>
        <time>2014-09-11T11:25:07Z</time>
      </trkpt>
      <trkpt lat="47.5907" lon="6.20954">
        <ele>283.5</ele>
        <time>2014-09-11T11:25:09Z</time>
      </trkpt>
      <trkpt lat="47.59074" lon="6.20937">
        <ele>283.2</ele>
        <time>2014-09-11T11:25:11Z</time>
      </trkpt>
      <trkpt lat="47.59079" lon="6.20919">
        <ele>283.1</ele>
        <time>2014-09-11T11:25:13Z</time>
      </trkpt>
      <trkpt lat="47.59084" lon="6.20903">
        <ele>283.3</ele>
        <time>2014-09-11T11:25:15Z</time>
      </trkpt>
      <trkpt lat="47.59088" lon="6.20887">
        <ele>283.3</ele>
        <time>2014-09-11T11:25:17Z</time>
      </trkpt>
      <trkpt lat="47.59092" lon="6.20873">
        <ele>283.6</ele>
        <time>2014-09-11T11:25:19Z</time>
      </trkpt>
      <trkpt lat="47.59095" lon="6.20861">
        <ele>284.1</ele>
        <time>2014-09-11T11:25:21Z</time>
      </trkpt>
      <trkpt lat="47.59101" lon="6.20843">
        <ele>284.8</ele>
        <time>2014-09-11T11:25:24Z</time>
      </trkpt>
      <trkpt lat="47.59106" lon="6.20826">
        <ele>285.4</ele>
        <time>2014-09-11T11:25:27Z</time>
      </trkpt>
      <trkpt lat="47.5911" lon="6.20808">
        <ele>286</ele>
        <time>2014-09-11T11:25:30Z</time>
      </trkpt>
      <trkpt lat="47.59115" lon="6.2079">
        <ele>286.2</ele>
        <time>2014-09-11T11:25:33Z</time>
      </trkpt>
      <trkpt lat="47.59119" lon="6.20772">
        <ele>286.3</ele>
        <time>2014-09-11T11:25:36Z</time>
      </trkpt>
      <trkpt lat="47.59123" lon="6.20755">
        <ele>286.3</ele>
        <time>2014-09-11T11:25:39Z</time>
      </trkpt>
      <trkpt lat="47.59126" lon="6.2074">
        <ele>286.2</ele>
        <time>2014-09-11T11:25:42Z</time>
      </trkpt>
      <trkpt lat="47.59128" lon="6.20725">
        <ele>286.1</ele>
        <time>2014-09-11T11:25:45Z</time>
      </trkpt>
      <trkpt lat="47.59131" lon="6.20708">
        <ele>286</ele>
        <time>2014-09-11T11:25:48Z</time>
      </trkpt>
      <trkpt lat="47.59136" lon="6.20689">
        <ele>285.6</ele>
        <time>2014-09-11T11:25:51Z</time>
      </trkpt>
      <trkpt lat="47.59139" lon="6.20676">
        <ele>285.3</ele>
        <time>2014-09-11T11:25:53Z</time>
      </trkpt>
      <trkpt lat="47.59142" lon="6.20662">
        <ele>284.9</ele>
        <time>2014-09-11T11:25:55Z</time>
      </trkpt>
      <trkpt lat="47.59146" lon="6.20647">
        <ele>284.6</ele>
        <time>2014-09-11T11:25:57Z</time>
      </trkpt>
      <trkpt lat="47.59151" lon="6.20632">
        <ele>284.5</ele>
        <time>2014-09-11T11:25:59Z</time>
      </trkpt>
      <trkpt lat="47.59156" lon="6.20616">
        <ele>284.3</ele>
        <time>2014-09-11T11:26:01Z</time>
      </trkpt>
      <trkpt lat="47.5916" lon="6.206">
        <ele>283.9</ele>
        <time>2014-09-11T11:26:03Z</time>
      </trkpt>
      <trkpt lat="47.59165" lon="6.20585">
        <ele>283.6</ele>
        <time>2014-09-11T11:26:05Z</time>
      </trkpt>
      <trkpt lat="47.59169" lon="6.20569">
        <ele>283.1</ele>
        <time>2014-09-11T11:26:07Z</time>
      </trkpt>
      <trkpt lat="47.59174" lon="6.20554">
        <ele>282.6</ele>
        <time>2014-09-11T11:26:09Z</time>
      </trkpt>
      <trkpt lat="47.59178" lon="6.20538">
        <ele>282.4</ele>
        <time>2014-09-11T11:26:11Z</time>
      </trkpt>
      <trkpt lat="47.59183" lon="6.20522">
        <ele>281.9</ele>
        <time>2014-09-11T11:26:13Z</time>
      </trkpt>
      <trkpt lat="47.59187" lon="6.20507">
        <ele>281.4</ele>
        <time>2014-09-11T11:26:15Z</time>
      </trkpt>
      <trkpt lat="47.59192" lon="6.20492">
        <ele>281.1</ele>
        <time>2014-09-11T11:26:17Z</time>
      </trkpt>
      <trkpt lat="47.59197" lon="6.20476">
        <ele>280.7</ele>
        <time>2014-09-11T11:26:19Z</time>
      </trkpt>
      <trkpt lat="47.59202" lon="6.20461">
        <ele>280.5</ele>
        <time>2014-09-11T11:26:21Z</time>
      </trkpt>
      <trkpt lat="47.59208" lon="6.20447">
        <ele>280.5</ele>
        <time>2014-09-11T11:26:23Z</time>
      </trkpt>
      <trkpt lat="47.59214" lon="6.20433">
        <ele>280.2</ele>
        <time>2014-09-11T11:26:25Z</time>
      </trkpt>
      <trkpt lat="47.5922" lon="6.20419">
        <ele>280.1</ele>
        <time>2014-09-11T11:26:27Z</time>
      </trkpt>
      <trkpt lat="47.59226" lon="6.20405">
        <ele>279.5</ele>
        <time>2014-09-11T11:26:29Z</time>
      </trkpt>
      <trkpt lat="47.59232" lon="6.20392">
        <ele>279.2</ele>
        <time>2014-09-11T11:26:31Z</time>
      </trkpt>
      <trkpt lat="47.59235" lon="6.20377">
        <ele>279</ele>
        <time>2014-09-11T11:26:33Z</time>
      </trkpt>
      <trkpt lat="47.59232" lon="6.2036">
        <ele>278.7</ele>
        <time>2014-09-11T11:26:36Z</time>
      </trkpt>
      <trkpt lat="47.5923" lon="6.20344">
        <ele>279</ele>
        <time>2014-09-11T11:26:40Z</time>
      </trkpt>
      <trkpt lat="47.59229" lon="6.20328">
        <ele>279.2</ele>
        <time>2014-09-11T11:26:45Z</time>
      </trkpt>
      <trkpt lat="47.59226" lon="6.20313">
        <ele>279.6</ele>
        <time>2014-09-11T11:26:50Z</time>
      </trkpt>
      <trkpt lat="47.59225" lon="6.20299">
        <ele>280</ele>
        <time>2014-09-11T11:26:55Z</time>
      </trkpt>
      <trkpt lat="47.59222" lon="6.20284">
        <ele>279.9</ele>
        <time>2014-09-11T11:26:59Z</time>
      </trkpt>
      <trkpt lat="47.59219" lon="6.20269">
        <ele>279.8</ele>
        <time>2014-09-11T11:27:03Z</time>
      </trkpt>
      <trkpt lat="47.59215" lon="6.20252">
        <ele>279.3</ele>
        <time>2014-09-11T11:27:07Z</time>
      </trkpt>
      <trkpt lat="47.59209" lon="6.20238">
        <ele>279.1</ele>
        <time>2014-09-11T11:27:10Z</time>
      </trkpt>
      <trkpt lat="47.59204" lon="6.20224">
        <ele>278.8</ele>
        <time>2014-09-11T11:27:13Z</time>
      </trkpt>
      <trkpt lat="47.59199" lon="6.20209">
        <ele>278.7</ele>
        <time>2014-09-11T11:27:16Z</time>
      </trkpt>
      <trkpt lat="47.59194" lon="6.20197">
        <ele>278.5</ele>
        <time>2014-09-11T11:27:18Z</time>
      </trkpt>
      <trkpt lat="47.59189" lon="6.20184">
        <ele>278.2</ele>
        <time>2014-09-11T11:27:20Z</time>
      </trkpt>
      <trkpt lat="47.59185" lon="6.20171">
        <ele>278.2</ele>
        <time>2014-09-11T11:27:22Z</time>
      </trkpt>
      <trkpt lat="47.59185" lon="6.20152">
        <ele>277.9</ele>
        <time>2014-09-11T11:27:25Z</time>
      </trkpt>
      <trkpt lat="47.59183" lon="6.20133">
        <ele>277.5</ele>
        <time>2014-09-11T11:27:28Z</time>
      </trkpt>
      <trkpt lat="47.59182" lon="6.20114">
        <ele>277.2</ele>
        <time>2014-09-11T11:27:31Z</time>
      </trkpt>
      <trkpt lat="47.59181" lon="6.20094">
        <ele>276.9</ele>
        <time>2014-09-11T11:27:34Z</time>
      </trkpt>
      <trkpt lat="47.59181" lon="6.2008">
        <ele>276.7</ele>
        <time>2014-09-11T11:27:36Z</time>
      </trkpt>
      <trkpt lat="47.59181" lon="6.20064">
        <ele>276.6</ele>
        <time>2014-09-11T11:27:38Z</time>
      </trkpt>
      <trkpt lat="47.59182" lon="6.20048">
        <ele>276.4</ele>
        <time>2014-09-11T11:27:40Z</time>
      </trkpt>
      <trkpt lat="47.59185" lon="6.20032">
        <ele>276.1</ele>
        <time>2014-09-11T11:27:42Z</time>
      </trkpt>
      <trkpt lat="47.59187" lon="6.20017">
        <ele>276</ele>
        <time>2014-09-11T11:27:44Z</time>
      </trkpt>
      <trkpt lat="47.59189" lon="6.20004">
        <ele>276.2</ele>
        <time>2014-09-11T11:27:46Z</time>
      </trkpt>
      <trkpt lat="47.59194" lon="6.19989">
        <ele>276.7</ele>
        <time>2014-09-11T11:27:49Z</time>
      </trkpt>
      <trkpt lat="47.59196" lon="6.19976">
        <ele>277.1</ele>
        <time>2014-09-11T11:27:52Z</time>
      </trkpt>
      <trkpt lat="47.59199" lon="6.19962">
        <ele>277.7</ele>
        <time>2014-09-11T11:27:55Z</time>
      </trkpt>
      <trkpt lat="47.59202" lon="6.19949">
        <ele>278</ele>
        <time>2014-09-11T11:27:58Z</time>
      </trkpt>
      <trkpt lat="47.59206" lon="6.19935">
        <ele>278.6</ele>
        <time>2014-09-11T11:28:02Z</time>
      </trkpt>
      <trkpt lat="47.59213" lon="6.19923">
        <ele>279.1</ele>
        <time>2014-09-11T11:28:06Z</time>
      </trkpt>
      <trkpt lat="47.59218" lon="6.19913">
        <ele>279.3</ele>
        <time>2014-09-11T11:28:10Z</time>
      </trkpt>
      <trkpt lat="47.59219" lon="6.19896">
        <ele>279.1</ele>
        <time>2014-09-11T11:28:15Z</time>
      </trkpt>
      <trkpt lat="47.59214" lon="6.19881">
        <ele>278.5</ele>
        <time>2014-09-11T11:28:19Z</time>
      </trkpt>
      <trkpt lat="47.59206" lon="6.19872">
        <ele>278.2</ele>
        <time>2014-09-11T11:28:22Z</time>
      </trkpt>
      <trkpt lat="47.59199" lon="6.19859">
        <ele>277.9</ele>
        <time>2014-09-11T11:28:25Z</time>
      </trkpt>
      <trkpt lat="47.59192" lon="6.19846">
        <ele>277.7</ele>
        <time>2014-09-11T11:28:28Z</time>
      </trkpt>
      <trkpt lat="47.59185" lon="6.19834">
        <ele>277.6</ele>
        <time>2014-09-11T11:28:31Z</time>
      </trkpt>
      <trkpt lat="47.59179" lon="6.19823">
        <ele>277.4</ele>
        <time>2014-09-11T11:28:34Z</time>
      </trkpt>
      <trkpt lat="47.59173" lon="6.19811">
        <ele>277.4</ele>
        <time>2014-09-11T11:28:37Z</time>
      </trkpt>
      <trkpt lat="47.59166" lon="6.198">
        <ele>277.2</ele>
        <time>2014-09-11T11:28:40Z</time>
      </trkpt>
      <trkpt lat="47.59161" lon="6.19787">
        <ele>277.3</ele>
        <time>2014-09-11T11:28:43Z</time>
      </trkpt>
      <trkpt lat="47.59155" lon="6.19774">
        <ele>277.1</ele>
        <time>2014-09-11T11:28:46Z</time>
      </trkpt>
      <trkpt lat="47.59149" lon="6.19761">
        <ele>277</ele>
        <time>2014-09-11T11:28:49Z</time>
      </trkpt>
      <trkpt lat="47.59144" lon="6.19748">
        <ele>276.9</ele>
        <time>2014-09-11T11:28:52Z</time>
      </trkpt>
      <trkpt lat="47.59139" lon="6.19734">
        <ele>276.9</ele>
        <time>2014-09-11T11:28:55Z</time>
      </trkpt>
      <trkpt lat="47.59133" lon="6.1972">
        <ele>276.7</ele>
        <time>2014-09-11T11:28:58Z</time>
      </trkpt>
      <trkpt lat="47.59126" lon="6.19706">
        <ele>276.7</ele>
        <time>2014-09-11T11:29:01Z</time>
      </trkpt>
      <trkpt lat="47.59118" lon="6.19693">
        <ele>276.7</ele>
        <time>2014-09-11T11:29:04Z</time>
      </trkpt>
      <trkpt lat="47.59111" lon="6.19679">
        <ele>276.4</ele>
        <time>2014-09-11T11:29:07Z</time>
      </trkpt>
      <trkpt lat="47.59104" lon="6.19666">
        <ele>276.1</ele>
        <time>2014-09-11T11:29:10Z</time>
      </trkpt>
      <trkpt lat="47.59098" lon="6.19652">
        <ele>276.1</ele>
        <time>2014-09-11T11:29:13Z</time>
      </trkpt>
      <trkpt lat="47.59091" lon="6.19639">
        <ele>276.1</ele>
        <time>2014-09-11T11:29:16Z</time>
      </trkpt>
      <trkpt lat="47.59084" lon="6.19625">
        <ele>276.3</ele>
        <time>2014-09-11T11:29:19Z</time>
      </trkpt>
      <trkpt lat="47.59075" lon="6.19611">
        <ele>276.1</ele>
        <time>2014-09-11T11:29:22Z</time>
      </trkpt>
      <trkpt lat="47.59069" lon="6.19598">
        <ele>276.2</ele>
        <time>2014-09-11T11:29:25Z</time>
      </trkpt>
      <trkpt lat="47.59061" lon="6.19583">
        <ele>276.3</ele>
        <time>2014-09-11T11:29:28Z</time>
      </trkpt>
      <trkpt lat="47.59054" lon="6.19569">
        <ele>276.1</ele>
        <time>2014-09-11T11:29:31Z</time>
      </trkpt>
      <trkpt lat="47.59046" lon="6.19554">
        <ele>276.2</ele>
        <time>2014-09-11T11:29:34Z</time>
      </trkpt>
      <trkpt lat="47.59038" lon="6.19539">
        <ele>275.9</ele>
        <time>2014-09-11T11:29:37Z</time>
      </trkpt>
      <trkpt lat="47.59031" lon="6.19526">
        <ele>275.6</ele>
        <time>2014-09-11T11:29:40Z</time>
      </trkpt>
      <trkpt lat="47.59024" lon="6.19512">
        <ele>275.7</ele>
        <time>2014-09-11T11:29:43Z</time>
      </trkpt>
      <trkpt lat="47.59018" lon="6.19497">
        <ele>275.5</ele>
        <time>2014-09-11T11:29:46Z</time>
      </trkpt>
      <trkpt lat="47.59013" lon="6.19483">
        <ele>275.5</ele>
        <time>2014-09-11T11:29:50Z</time>
      </trkpt>
      <trkpt lat="47.59012" lon="6.19468">
        <ele>275.7</ele>
        <time>2014-09-11T11:29:56Z</time>
      </trkpt>
      <trkpt lat="47.59004" lon="6.19462">
        <ele>275.6</ele>
        <time>2014-09-11T11:30:00Z</time>
      </trkpt>
      <trkpt lat="47.58993" lon="6.19461">
        <ele>275.9</ele>
        <time>2014-09-11T11:30:05Z</time>
      </trkpt>
      <trkpt lat="47.58983" lon="6.19458">
        <ele>275.8</ele>
        <time>2014-09-11T11:30:09Z</time>
      </trkpt>
      <trkpt lat="47.58973" lon="6.19455">
        <ele>275.7</ele>
        <time>2014-09-11T11:30:14Z</time>
      </trkpt>
      <trkpt lat="47.58964" lon="6.19452">
        <ele>275.7</ele>
        <time>2014-09-11T11:30:18Z</time>
      </trkpt>
      <trkpt lat="47.58954" lon="6.1945">
        <ele>275.8</ele>
        <time>2014-09-11T11:30:22Z</time>
      </trkpt>
      <trkpt lat="47.58943" lon="6.1945">
        <ele>276</ele>
        <time>2014-09-11T11:30:28Z</time>
      </trkpt>
      <trkpt lat="47.58932" lon="6.19447">
        <ele>276.5</ele>
        <time>2014-09-11T11:30:33Z</time>
      </trkpt>
      <trkpt lat="47.58921" lon="6.19444">
        <ele>276.7</ele>
        <time>2014-09-11T11:30:37Z</time>
      </trkpt>
      <trkpt lat="47.58911" lon="6.1944">
        <ele>277.3</ele>
        <time>2014-09-11T11:30:40Z</time>
      </trkpt>
      <trkpt lat="47.589" lon="6.19437">
        <ele>277.6</ele>
        <time>2014-09-11T11:30:43Z</time>
      </trkpt>
      <trkpt lat="47.58891" lon="6.19435">
        <ele>277.9</ele>
        <time>2014-09-11T11:30:46Z</time>
      </trkpt>
      <trkpt lat="47.5888" lon="6.19431">
        <ele>278.4</ele>
        <time>2014-09-11T11:30:50Z</time>
      </trkpt>
      <trkpt lat="47.58869" lon="6.19428">
        <ele>278.8</ele>
        <time>2014-09-11T11:30:54Z</time>
      </trkpt>
      <trkpt lat="47.5886" lon="6.19424">
        <ele>279</ele>
        <time>2014-09-11T11:30:57Z</time>
      </trkpt>
      <trkpt lat="47.58851" lon="6.19423">
        <ele>279.5</ele>
        <time>2014-09-11T11:31:01Z</time>
      </trkpt>
      <trkpt lat="47.58841" lon="6.1942">
        <ele>279.7</ele>
        <time>2014-09-11T11:31:05Z</time>
      </trkpt>
      <trkpt lat="47.58831" lon="6.19417">
        <ele>279.7</ele>
        <time>2014-09-11T11:31:09Z</time>
      </trkpt>
      <trkpt lat="47.5882" lon="6.19414">
        <ele>279.7</ele>
        <time>2014-09-11T11:31:13Z</time>
      </trkpt>
      <trkpt lat="47.58811" lon="6.19412">
        <ele>279.6</ele>
        <time>2014-09-11T11:31:16Z</time>
      </trkpt>
      <trkpt lat="47.58801" lon="6.19409">
        <ele>279.2</ele>
        <time>2014-09-11T11:31:19Z</time>
      </trkpt>
      <trkpt lat="47.58789" lon="6.19406">
        <ele>278.9</ele>
        <time>2014-09-11T11:31:22Z</time>
      </trkpt>
      <trkpt lat="47.58778" lon="6.19404">
        <ele>278.7</ele>
        <time>2014-09-11T11:31:25Z</time>
      </trkpt>
      <trkpt lat="47.58767" lon="6.194">
        <ele>278.7</ele>
        <time>2014-09-11T11:31:28Z</time>
      </trkpt>
      <trkpt lat="47.58755" lon="6.19397">
        <ele>279.2</ele>
        <time>2014-09-11T11:31:31Z</time>
      </trkpt>
      <trkpt lat="47.58745" lon="6.19395">
        <ele>279.1</ele>
        <time>2014-09-11T11:31:34Z</time>
      </trkpt>
      <trkpt lat="47.58736" lon="6.19394">
        <ele>279.3</ele>
        <time>2014-09-11T11:31:37Z</time>
      </trkpt>
      <trkpt lat="47.58727" lon="6.19394">
        <ele>279.4</ele>
        <time>2014-09-11T11:31:40Z</time>
      </trkpt>
      <trkpt lat="47.58717" lon="6.19395">
        <ele>279.7</ele>
        <time>2014-09-11T11:31:43Z</time>
      </trkpt>
      <trkpt lat="47.58706" lon="6.19398">
        <ele>279.6</ele>
        <time>2014-09-11T11:31:46Z</time>
      </trkpt>
      <trkpt lat="47.58694" lon="6.19401">
        <ele>279.5</ele>
        <time>2014-09-11T11:31:49Z</time>
      </trkpt>
      <trkpt lat="47.58681" lon="6.19404">
        <ele>279.3</ele>
        <time>2014-09-11T11:31:52Z</time>
      </trkpt>
      <trkpt lat="47.58672" lon="6.19406">
        <ele>279.1</ele>
        <time>2014-09-11T11:31:54Z</time>
      </trkpt>
      <trkpt lat="47.58658" lon="6.19405">
        <ele>278.5</ele>
        <time>2014-09-11T11:31:57Z</time>
      </trkpt>
      <trkpt lat="47.58649" lon="6.19403">
        <ele>278.3</ele>
        <time>2014-09-11T11:31:59Z</time>
      </trkpt>
      <trkpt lat="47.5864" lon="6.194">
        <ele>278.5</ele>
        <time>2014-09-11T11:32:01Z</time>
      </trkpt>
      <trkpt lat="47.58629" lon="6.19396">
        <ele>278.9</ele>
        <time>2014-09-11T11:32:04Z</time>
      </trkpt>
      <trkpt lat="47.58618" lon="6.19392">
        <ele>278.8</ele>
        <time>2014-09-11T11:32:07Z</time>
      </trkpt>
      <trkpt lat="47.58607" lon="6.1939">
        <ele>279</ele>
        <time>2014-09-11T11:32:10Z</time>
      </trkpt>
      <trkpt lat="47.58597" lon="6.19388">
        <ele>279.3</ele>
        <time>2014-09-11T11:32:13Z</time>
      </trkpt>
      <trkpt lat="47.58587" lon="6.19388">
        <ele>279.4</ele>
        <time>2014-09-11T11:32:17Z</time>
      </trkpt>
      <trkpt lat="47.58576" lon="6.19389">
        <ele>279.8</ele>
        <time>2014-09-11T11:32:22Z</time>
      </trkpt>
      <trkpt lat="47.58566" lon="6.19392">
        <ele>280.4</ele>
        <time>2014-09-11T11:32:27Z</time>
      </trkpt>
      <trkpt lat="47.58557" lon="6.19394">
        <ele>280.7</ele>
        <time>2014-09-11T11:32:31Z</time>
      </trkpt>
      <trkpt lat="47.58547" lon="6.19398">
        <ele>280.9</ele>
        <time>2014-09-11T11:32:35Z</time>
      </trkpt>
      <trkpt lat="47.58537" lon="6.19402">
        <ele>281.2</ele>
        <time>2014-09-11T11:32:39Z</time>
      </trkpt>
      <trkpt lat="47.58528" lon="6.19407">
        <ele>281.6</ele>
        <time>2014-09-11T11:32:44Z</time>
      </trkpt>
      <trkpt lat="47.58518" lon="6.19411">
        <ele>282.3</ele>
        <time>2014-09-11T11:32:51Z</time>
      </trkpt>
      <trkpt lat="47.58509" lon="6.19408">
        <ele>282.7</ele>
        <time>2014-09-11T11:32:56Z</time>
      </trkpt>
      <trkpt lat="47.585" lon="6.19411">
        <ele>283.1</ele>
        <time>2014-09-11T11:33:01Z</time>
      </trkpt>
      <trkpt lat="47.5849" lon="6.19414">
        <ele>283.7</ele>
        <time>2014-09-11T11:33:08Z</time>
      </trkpt>
      <trkpt lat="47.5848" lon="6.19418">
        <ele>284.7</ele>
        <time>2014-09-11T11:33:13Z</time>
      </trkpt>
      <trkpt lat="47.58469" lon="6.19415">
        <ele>285.5</ele>
        <time>2014-09-11T11:33:18Z</time>
      </trkpt>
      <trkpt lat="47.58459" lon="6.19414">
        <ele>286.2</ele>
        <time>2014-09-11T11:33:22Z</time>
      </trkpt>
      <trkpt lat="47.58448" lon="6.19414">
        <ele>287</ele>
        <time>2014-09-11T11:33:26Z</time>
      </trkpt>
      <trkpt lat="47.58437" lon="6.19411">
        <ele>287.3</ele>
        <time>2014-09-11T11:33:30Z</time>
      </trkpt>
      <trkpt lat="47.58426" lon="6.19409">
        <ele>287.6</ele>
        <time>2014-09-11T11:33:34Z</time>
      </trkpt>
      <trkpt lat="47.58416" lon="6.19407">
        <ele>287.8</ele>
        <time>2014-09-11T11:33:38Z</time>
      </trkpt>
      <trkpt lat="47.58406" lon="6.19405">
        <ele>288.1</ele>
        <time>2014-09-11T11:33:42Z</time>
      </trkpt>
      <trkpt lat="47.58397" lon="6.19403">
        <ele>288.7</ele>
        <time>2014-09-11T11:33:55Z</time>
      </trkpt>
      <trkpt lat="47.58386" lon="6.19402">
        <ele>289.1</ele>
        <time>2014-09-11T11:33:59Z</time>
      </trkpt>
      <trkpt lat="47.58377" lon="6.19401">
        <ele>289.4</ele>
        <time>2014-09-11T11:34:02Z</time>
      </trkpt>
      <trkpt lat="47.58366" lon="6.19401">
        <ele>289.5</ele>
        <time>2014-09-11T11:34:06Z</time>
      </trkpt>
      <trkpt lat="47.58354" lon="6.19399">
        <ele>290</ele>
        <time>2014-09-11T11:34:10Z</time>
      </trkpt>
      <trkpt lat="47.58344" lon="6.194">
        <ele>290.3</ele>
        <time>2014-09-11T11:34:14Z</time>
      </trkpt>
      <trkpt lat="47.58334" lon="6.19399">
        <ele>290.5</ele>
        <time>2014-09-11T11:34:18Z</time>
      </trkpt>
      <trkpt lat="47.58323" lon="6.19399">
        <ele>290.7</ele>
        <time>2014-09-11T11:34:22Z</time>
      </trkpt>
      <trkpt lat="47.58314" lon="6.19399">
        <ele>290.8</ele>
        <time>2014-09-11T11:34:26Z</time>
      </trkpt>
      <trkpt lat="47.58305" lon="6.19398">
        <ele>291.2</ele>
        <time>2014-09-11T11:34:30Z</time>
      </trkpt>
      <trkpt lat="47.58296" lon="6.19398">
        <ele>291.6</ele>
        <time>2014-09-11T11:34:34Z</time>
      </trkpt>
      <trkpt lat="47.58286" lon="6.19396">
        <ele>292</ele>
        <time>2014-09-11T11:34:38Z</time>
      </trkpt>
      <trkpt lat="47.58277" lon="6.19393">
        <ele>292.6</ele>
        <time>2014-09-11T11:34:42Z</time>
      </trkpt>
      <trkpt lat="47.58267" lon="6.19391">
        <ele>293.5</ele>
        <time>2014-09-11T11:34:46Z</time>
      </trkpt>
      <trkpt lat="47.58259" lon="6.19388">
        <ele>294.2</ele>
        <time>2014-09-11T11:34:50Z</time>
      </trkpt>
      <trkpt lat="47.58248" lon="6.19385">
        <ele>295</ele>
        <time>2014-09-11T11:34:55Z</time>
      </trkpt>
      <trkpt lat="47.58239" lon="6.19382">
        <ele>296.1</ele>
        <time>2014-09-11T11:35:00Z</time>
      </trkpt>
      <trkpt lat="47.58229" lon="6.1938">
        <ele>296.8</ele>
        <time>2014-09-11T11:35:05Z</time>
      </trkpt>
      <trkpt lat="47.58219" lon="6.19376">
        <ele>297.7</ele>
        <time>2014-09-11T11:35:10Z</time>
      </trkpt>
      <trkpt lat="47.58209" lon="6.19372">
        <ele>298.8</ele>
        <time>2014-09-11T11:35:15Z</time>
      </trkpt>
      <trkpt lat="47.582" lon="6.19369">
        <ele>299.7</ele>
        <time>2014-09-11T11:35:20Z</time>
      </trkpt>
      <trkpt lat="47.5819" lon="6.19366">
        <ele>300.6</ele>
        <time>2014-09-11T11:35:27Z</time>
      </trkpt>
      <trkpt lat="47.5818" lon="6.19368">
        <ele>302.1</ele>
        <time>2014-09-11T11:35:34Z</time>
      </trkpt>
      <trkpt lat="47.5817" lon="6.19373">
        <ele>303.7</ele>
        <time>2014-09-11T11:35:45Z</time>
      </trkpt>
      <trkpt lat="47.58161" lon="6.19375">
        <ele>304.9</ele>
        <time>2014-09-11T11:35:51Z</time>
      </trkpt>
      <trkpt lat="47.58151" lon="6.19378">
        <ele>305.8</ele>
        <time>2014-09-11T11:35:58Z</time>
      </trkpt>
      <trkpt lat="47.58142" lon="6.19381">
        <ele>306.8</ele>
        <time>2014-09-11T11:36:04Z</time>
      </trkpt>
      <trkpt lat="47.58132" lon="6.19384">
        <ele>307.6</ele>
        <time>2014-09-11T11:36:10Z</time>
      </trkpt>
      <trkpt lat="47.58123" lon="6.19388">
        <ele>308.7</ele>
        <time>2014-09-11T11:36:17Z</time>
      </trkpt>
      <trkpt lat="47.58114" lon="6.19392">
        <ele>309.8</ele>
        <time>2014-09-11T11:36:25Z</time>
      </trkpt>
      <trkpt lat="47.58104" lon="6.19395">
        <ele>311.1</ele>
        <time>2014-09-11T11:36:34Z</time>
      </trkpt>
      <trkpt lat="47.58096" lon="6.19398">
        <ele>312.2</ele>
        <time>2014-09-11T11:37:07Z</time>
      </trkpt>
      <trkpt lat="47.58087" lon="6.19402">
        <ele>312.9</ele>
        <time>2014-09-11T11:37:12Z</time>
      </trkpt>
      <trkpt lat="47.58078" lon="6.19407">
        <ele>313.7</ele>
        <time>2014-09-11T11:37:18Z</time>
      </trkpt>
      <trkpt lat="47.58069" lon="6.19412">
        <ele>314.6</ele>
        <time>2014-09-11T11:37:24Z</time>
      </trkpt>
      <trkpt lat="47.58059" lon="6.19416">
        <ele>315.5</ele>
        <time>2014-09-11T11:37:30Z</time>
      </trkpt>
      <trkpt lat="47.5805" lon="6.19419">
        <ele>316.4</ele>
        <time>2014-09-11T11:37:36Z</time>
      </trkpt>
      <trkpt lat="47.5804" lon="6.19418">
        <ele>317.3</ele>
        <time>2014-09-11T11:37:43Z</time>
      </trkpt>
      <trkpt lat="47.5803" lon="6.19418">
        <ele>317.9</ele>
        <time>2014-09-11T11:37:48Z</time>
      </trkpt>
      <trkpt lat="47.58021" lon="6.19416">
        <ele>318.7</ele>
        <time>2014-09-11T11:37:53Z</time>
      </trkpt>
      <trkpt lat="47.58011" lon="6.19414">
        <ele>320</ele>
        <time>2014-09-11T11:38:00Z</time>
      </trkpt>
      <trkpt lat="47.58" lon="6.19413">
        <ele>320.9</ele>
        <time>2014-09-11T11:38:06Z</time>
      </trkpt>
      <trkpt lat="47.5799" lon="6.19412">
        <ele>321.4</ele>
        <time>2014-09-11T11:38:11Z</time>
      </trkpt>
      <trkpt lat="47.57981" lon="6.19411">
        <ele>322</ele>
        <time>2014-09-11T11:38:16Z</time>
      </trkpt>
      <trkpt lat="47.57971" lon="6.19407">
        <ele>322.8</ele>
        <time>2014-09-11T11:38:21Z</time>
      </trkpt>
      <trkpt lat="47.57961" lon="6.19402">
        <ele>323.6</ele>
        <time>2014-09-11T11:38:26Z</time>
      </trkpt>
      <trkpt lat="47.57951" lon="6.19398">
        <ele>324</ele>
        <time>2014-09-11T11:38:31Z</time>
      </trkpt>
      <trkpt lat="47.57941" lon="6.19393">
        <ele>324.6</ele>
        <time>2014-09-11T11:38:36Z</time>
      </trkpt>
      <trkpt lat="47.5793" lon="6.19388">
        <ele>325.2</ele>
        <time>2014-09-11T11:38:41Z</time>
      </trkpt>
      <trkpt lat="47.5792" lon="6.19381">
        <ele>325.8</ele>
        <time>2014-09-11T11:38:46Z</time>
      </trkpt>
      <trkpt lat="47.57911" lon="6.19376">
        <ele>326.6</ele>
        <time>2014-09-11T11:38:51Z</time>
      </trkpt>
      <trkpt lat="47.579" lon="6.1937">
        <ele>327</ele>
        <time>2014-09-11T11:38:56Z</time>
      </trkpt>
      <trkpt lat="47.57892" lon="6.19365">
        <ele>327.5</ele>
        <time>2014-09-11T11:39:00Z</time>
      </trkpt>
      <trkpt lat="47.57883" lon="6.19361">
        <ele>328</ele>
        <time>2014-09-11T11:39:04Z</time>
      </trkpt>
      <trkpt lat="47.57872" lon="6.19359">
        <ele>328.5</ele>
        <time>2014-09-11T11:39:09Z</time>
      </trkpt>
      <trkpt lat="47.57862" lon="6.19364">
        <ele>329.1</ele>
        <time>2014-09-11T11:39:15Z</time>
      </trkpt>
      <trkpt lat="47.57854" lon="6.19371">
        <ele>329.3</ele>
        <time>2014-09-11T11:39:19Z</time>
      </trkpt>
      <trkpt lat="47.57844" lon="6.19379">
        <ele>329.6</ele>
        <time>2014-09-11T11:39:24Z</time>
      </trkpt>
      <trkpt lat="47.57835" lon="6.19387">
        <ele>330.2</ele>
        <time>2014-09-11T11:39:29Z</time>
      </trkpt>
      <trkpt lat="47.57827" lon="6.19394">
        <ele>330.4</ele>
        <time>2014-09-11T11:39:34Z</time>
      </trkpt>
      <trkpt lat="47.57817" lon="6.19403">
        <ele>331</ele>
        <time>2014-09-11T11:39:40Z</time>
      </trkpt>
      <trkpt lat="47.57809" lon="6.19411">
        <ele>331.5</ele>
        <time>2014-09-11T11:39:45Z</time>
      </trkpt>
      <trkpt lat="47.57799" lon="6.19416">
        <ele>332.1</ele>
        <time>2014-09-11T11:39:50Z</time>
      </trkpt>
      <trkpt lat="47.57788" lon="6.1942">
        <ele>332.9</ele>
        <time>2014-09-11T11:39:55Z</time>
      </trkpt>
      <trkpt lat="47.57778" lon="6.19422">
        <ele>333.6</ele>
        <time>2014-09-11T11:40:00Z</time>
      </trkpt>
      <trkpt lat="47.57767" lon="6.19425">
        <ele>334.5</ele>
        <time>2014-09-11T11:40:05Z</time>
      </trkpt>
      <trkpt lat="47.57757" lon="6.19426">
        <ele>335.2</ele>
        <time>2014-09-11T11:40:10Z</time>
      </trkpt>
      <trkpt lat="47.57746" lon="6.19428">
        <ele>336</ele>
        <time>2014-09-11T11:40:15Z</time>
      </trkpt>
      <trkpt lat="47.57736" lon="6.1943">
        <ele>337</ele>
        <time>2014-09-11T11:40:20Z</time>
      </trkpt>
      <trkpt lat="47.57726" lon="6.19429">
        <ele>337.9</ele>
        <time>2014-09-11T11:40:25Z</time>
      </trkpt>
      <trkpt lat="47.57717" lon="6.19425">
        <ele>338.8</ele>
        <time>2014-09-11T11:40:29Z</time>
      </trkpt>
      <trkpt lat="47.57708" lon="6.1942">
        <ele>339.2</ele>
        <time>2014-09-11T11:40:33Z</time>
      </trkpt>
      <trkpt lat="47.57698" lon="6.19414">
        <ele>339.6</ele>
        <time>2014-09-11T11:40:37Z</time>
      </trkpt>
      <trkpt lat="47.57689" lon="6.19409">
        <ele>339.7</ele>
        <time>2014-09-11T11:40:40Z</time>
      </trkpt>
      <trkpt lat="47.5768" lon="6.19404">
        <ele>339.9</ele>
        <time>2014-09-11T11:40:43Z</time>
      </trkpt>
      <trkpt lat="47.57671" lon="6.19401">
        <ele>339.9</ele>
        <time>2014-09-11T11:40:46Z</time>
      </trkpt>
      <trkpt lat="47.57661" lon="6.19402">
        <ele>340.1</ele>
        <time>2014-09-11T11:40:50Z</time>
      </trkpt>
      <trkpt lat="47.5765" lon="6.19404">
        <ele>340.5</ele>
        <time>2014-09-11T11:40:55Z</time>
      </trkpt>
      <trkpt lat="47.5764" lon="6.19401">
        <ele>341</ele>
        <time>2014-09-11T11:40:59Z</time>
      </trkpt>
      <trkpt lat="47.5763" lon="6.19396">
        <ele>341.2</ele>
        <time>2014-09-11T11:41:02Z</time>
      </trkpt>
      <trkpt lat="47.57621" lon="6.19393">
        <ele>341.4</ele>
        <time>2014-09-11T11:41:05Z</time>
      </trkpt>
      <trkpt lat="47.57612" lon="6.19388">
        <ele>341.6</ele>
        <time>2014-09-11T11:41:08Z</time>
      </trkpt>
      <trkpt lat="47.57603" lon="6.19384">
        <ele>341.8</ele>
        <time>2014-09-11T11:41:11Z</time>
      </trkpt>
      <trkpt lat="47.57594" lon="6.1938">
        <ele>342.1</ele>
        <time>2014-09-11T11:41:14Z</time>
      </trkpt>
      <trkpt lat="47.57583" lon="6.19375">
        <ele>342.4</ele>
        <time>2014-09-11T11:41:18Z</time>
      </trkpt>
      <trkpt lat="47.57573" lon="6.19372">
        <ele>342.6</ele>
        <time>2014-09-11T11:41:22Z</time>
      </trkpt>
      <trkpt lat="47.57563" lon="6.19365">
        <ele>342.6</ele>
        <time>2014-09-11T11:41:26Z</time>
      </trkpt>
      <trkpt lat="47.57554" lon="6.19359">
        <ele>342.9</ele>
        <time>2014-09-11T11:41:29Z</time>
      </trkpt>
      <trkpt lat="47.57547" lon="6.19351">
        <ele>343</ele>
        <time>2014-09-11T11:41:32Z</time>
      </trkpt>
      <trkpt lat="47.57538" lon="6.19341">
        <ele>343.1</ele>
        <time>2014-09-11T11:41:36Z</time>
      </trkpt>
      <trkpt lat="47.5753" lon="6.19332">
        <ele>343.4</ele>
        <time>2014-09-11T11:41:39Z</time>
      </trkpt>
      <trkpt lat="47.57523" lon="6.19324">
        <ele>343.6</ele>
        <time>2014-09-11T11:41:43Z</time>
      </trkpt>
      <trkpt lat="47.57514" lon="6.19315">
        <ele>343.7</ele>
        <time>2014-09-11T11:41:47Z</time>
      </trkpt>
      <trkpt lat="47.57506" lon="6.19308">
        <ele>343.8</ele>
        <time>2014-09-11T11:41:50Z</time>
      </trkpt>
      <trkpt lat="47.57496" lon="6.19301">
        <ele>344</ele>
        <time>2014-09-11T11:41:54Z</time>
      </trkpt>
      <trkpt lat="47.57487" lon="6.19294">
        <ele>344.4</ele>
        <time>2014-09-11T11:41:58Z</time>
      </trkpt>
      <trkpt lat="47.57478" lon="6.19286">
        <ele>344.7</ele>
        <time>2014-09-11T11:42:02Z</time>
      </trkpt>
      <trkpt lat="47.57468" lon="6.19279">
        <ele>344.5</ele>
        <time>2014-09-11T11:42:06Z</time>
      </trkpt>
      <trkpt lat="47.5746" lon="6.1927">
        <ele>345.2</ele>
        <time>2014-09-11T11:42:12Z</time>
      </trkpt>
      <trkpt lat="47.57451" lon="6.19261">
        <ele>346</ele>
        <time>2014-09-11T11:42:40Z</time>
      </trkpt>
      <trkpt lat="47.57442" lon="6.19256">
        <ele>346.5</ele>
        <time>2014-09-11T11:42:44Z</time>
      </trkpt>
      <trkpt lat="47.57432" lon="6.19253">
        <ele>347.2</ele>
        <time>2014-09-11T11:42:48Z</time>
      </trkpt>
      <trkpt lat="47.57421" lon="6.19251">
        <ele>348</ele>
        <time>2014-09-11T11:42:52Z</time>
      </trkpt>
      <trkpt lat="47.57412" lon="6.1926">
        <ele>349.1</ele>
        <time>2014-09-11T11:42:57Z</time>
      </trkpt>
      <trkpt lat="47.57402" lon="6.19267">
        <ele>350</ele>
        <time>2014-09-11T11:43:00Z</time>
      </trkpt>
      <trkpt lat="47.57394" lon="6.19275">
        <ele>350.8</ele>
        <time>2014-09-11T11:43:03Z</time>
      </trkpt>
      <trkpt lat="47.57386" lon="6.19282">
        <ele>351.7</ele>
        <time>2014-09-11T11:43:06Z</time>
      </trkpt>
      <trkpt lat="47.57377" lon="6.19291">
        <ele>352.8</ele>
        <time>2014-09-11T11:43:09Z</time>
      </trkpt>
      <trkpt lat="47.57367" lon="6.19297">
        <ele>353.7</ele>
        <time>2014-09-11T11:43:14Z</time>
      </trkpt>
      <trkpt lat="47.57357" lon="6.19298">
        <ele>354.2</ele>
        <time>2014-09-11T11:43:20Z</time>
      </trkpt>
      <trkpt lat="47.57347" lon="6.19295">
        <ele>355</ele>
        <time>2014-09-11T11:43:25Z</time>
      </trkpt>
      <trkpt lat="47.57336" lon="6.19291">
        <ele>355.6</ele>
        <time>2014-09-11T11:43:30Z</time>
      </trkpt>
      <trkpt lat="47.57327" lon="6.19287">
        <ele>355.9</ele>
        <time>2014-09-11T11:43:34Z</time>
      </trkpt>
      <trkpt lat="47.57318" lon="6.19284">
        <ele>356.6</ele>
        <time>2014-09-11T11:43:39Z</time>
      </trkpt>
      <trkpt lat="47.5731" lon="6.1928">
        <ele>357.4</ele>
        <time>2014-09-11T11:43:44Z</time>
      </trkpt>
      <trkpt lat="47.573" lon="6.19277">
        <ele>357.6</ele>
        <time>2014-09-11T11:43:49Z</time>
      </trkpt>
      <trkpt lat="47.57291" lon="6.19273">
        <ele>357.8</ele>
        <time>2014-09-11T11:43:53Z</time>
      </trkpt>
      <trkpt lat="47.57281" lon="6.1927">
        <ele>357.8</ele>
        <time>2014-09-11T11:43:58Z</time>
      </trkpt>
      <trkpt lat="47.57271" lon="6.19267">
        <ele>357.7</ele>
        <time>2014-09-11T11:44:04Z</time>
      </trkpt>
      <trkpt lat="47.57261" lon="6.19265">
        <ele>357.7</ele>
        <time>2014-09-11T11:44:10Z</time>
      </trkpt>
      <trkpt lat="47.57271" lon="6.19269">
        <ele>358.4</ele>
        <time>2014-09-11T11:44:27Z</time>
      </trkpt>
      <trkpt lat="47.5728" lon="6.19271">
        <ele>358.4</ele>
        <time>2014-09-11T11:44:31Z</time>
      </trkpt>
      <trkpt lat="47.57291" lon="6.19273">
        <ele>358.5</ele>
        <time>2014-09-11T11:44:36Z</time>
      </trkpt>
      <trkpt lat="47.573" lon="6.1928">
        <ele>358</ele>
        <time>2014-09-11T11:44:42Z</time>
      </trkpt>
      <trkpt lat="47.57312" lon="6.19283">
        <ele>357.9</ele>
        <time>2014-09-11T11:45:04Z</time>
      </trkpt>
      <trkpt lat="47.57322" lon="6.19287">
        <ele>357.6</ele>
        <time>2014-09-11T11:45:07Z</time>
      </trkpt>
      <trkpt lat="47.57333" lon="6.19291">
        <ele>357.4</ele>
        <time>2014-09-11T11:45:10Z</time>
      </trkpt>
      <trkpt lat="47.5734" lon="6.19301">
        <ele>356</ele>
        <time>2014-09-11T11:45:15Z</time>
      </trkpt>
      <trkpt lat="47.57349" lon="6.19301">
        <ele>355.2</ele>
        <time>2014-09-11T11:45:25Z</time>
      </trkpt>
      <trkpt lat="47.57358" lon="6.19299">
        <ele>354.4</ele>
        <time>2014-09-11T11:45:31Z</time>
      </trkpt>
      <trkpt lat="47.57367" lon="6.19295">
        <ele>353.8</ele>
        <time>2014-09-11T11:45:37Z</time>
      </trkpt>
      <trkpt lat="47.57358" lon="6.19294">
        <ele>354.3</ele>
        <time>2014-09-11T11:45:52Z</time>
      </trkpt>
      <trkpt lat="47.57347" lon="6.19294">
        <ele>355.4</ele>
        <time>2014-09-11T11:45:58Z</time>
      </trkpt>
      <trkpt lat="47.57336" lon="6.19289">
        <ele>356.2</ele>
        <time>2014-09-11T11:46:02Z</time>
      </trkpt>
      <trkpt lat="47.57327" lon="6.19284">
        <ele>356.5</ele>
        <time>2014-09-11T11:46:06Z</time>
      </trkpt>
      <trkpt lat="47.57318" lon="6.19279">
        <ele>357</ele>
        <time>2014-09-11T11:46:10Z</time>
      </trkpt>
      <trkpt lat="47.5731" lon="6.19275">
        <ele>357.4</ele>
        <time>2014-09-11T11:46:15Z</time>
      </trkpt>
      <trkpt lat="47.57301" lon="6.19269">
        <ele>357.6</ele>
        <time>2014-09-11T11:46:21Z</time>
      </trkpt>
      <trkpt lat="47.57292" lon="6.19267">
        <ele>357.7</ele>
        <time>2014-09-11T11:46:49Z</time>
      </trkpt>
      <trkpt lat="47.57282" lon="6.19269">
        <ele>357.7</ele>
        <time>2014-09-11T11:47:02Z</time>
      </trkpt>
      <trkpt lat="47.57272" lon="6.19267">
        <ele>357.5</ele>
        <time>2014-09-11T11:47:06Z</time>
      </trkpt>
      <trkpt lat="47.57262" lon="6.19267">
        <ele>357.4</ele>
        <time>2014-09-11T11:47:10Z</time>
      </trkpt>
      <trkpt lat="47.57273" lon="6.1927">
        <ele>358.2</ele>
        <time>2014-09-11T11:47:25Z</time>
      </trkpt>
      <trkpt lat="47.57283" lon="6.19268">
        <ele>358.2</ele>
        <time>2014-09-11T11:47:31Z</time>
      </trkpt>
      <trkpt lat="47.57274" lon="6.19264">
        <ele>357.8</ele>
        <time>2014-09-11T11:50:01Z</time>
      </trkpt>
      <trkpt lat="47.57265" lon="6.19263">
        <ele>357.7</ele>
        <time>2014-09-11T11:50:06Z</time>
      </trkpt>
      <trkpt lat="47.57255" lon="6.19263">
        <ele>357.6</ele>
        <time>2014-09-11T11:50:10Z</time>
      </trkpt>
      <trkpt lat="47.57245" lon="6.19261">
        <ele>357.1</ele>
        <time>2014-09-11T11:50:14Z</time>
      </trkpt>
      <trkpt lat="47.57234" lon="6.1926">
        <ele>356.7</ele>
        <time>2014-09-11T11:50:18Z</time>
      </trkpt>
      <trkpt lat="47.57224" lon="6.19259">
        <ele>356.1</ele>
        <time>2014-09-11T11:50:21Z</time>
      </trkpt>
      <trkpt lat="47.57211" lon="6.19257">
        <ele>355.6</ele>
        <time>2014-09-11T11:50:24Z</time>
      </trkpt>
      <trkpt lat="47.57201" lon="6.19253">
        <ele>355.2</ele>
        <time>2014-09-11T11:50:26Z</time>
      </trkpt>
      <trkpt lat="47.57189" lon="6.19247">
        <ele>354.9</ele>
        <time>2014-09-11T11:50:28Z</time>
      </trkpt>
      <trkpt lat="47.57177" lon="6.1924">
        <ele>354.4</ele>
        <time>2014-09-11T11:50:30Z</time>
      </trkpt>
      <trkpt lat="47.57164" lon="6.19232">
        <ele>354.1</ele>
        <time>2014-09-11T11:50:32Z</time>
      </trkpt>
      <trkpt lat="47.5715" lon="6.19224">
        <ele>353.8</ele>
        <time>2014-09-11T11:50:34Z</time>
      </trkpt>
      <trkpt lat="47.57137" lon="6.19216">
        <ele>353.5</ele>
        <time>2014-09-11T11:50:36Z</time>
      </trkpt>
      <trkpt lat="47.57123" lon="6.19208">
        <ele>353</ele>
        <time>2014-09-11T11:50:38Z</time>
      </trkpt>
      <trkpt lat="47.5711" lon="6.192">
        <ele>352.5</ele>
        <time>2014-09-11T11:50:40Z</time>
      </trkpt>
      <trkpt lat="47.57099" lon="6.1919">
        <ele>352.3</ele>
        <time>2014-09-11T11:50:42Z</time>
      </trkpt>
      <trkpt lat="47.57087" lon="6.19181">
        <ele>352</ele>
        <time>2014-09-11T11:50:44Z</time>
      </trkpt>
      <trkpt lat="47.57076" lon="6.19172">
        <ele>351.8</ele>
        <time>2014-09-11T11:50:46Z</time>
      </trkpt>
      <trkpt lat="47.57066" lon="6.19166">
        <ele>351.5</ele>
        <time>2014-09-11T11:50:48Z</time>
      </trkpt>
      <trkpt lat="47.57057" lon="6.19162">
        <ele>351.4</ele>
        <time>2014-09-11T11:50:50Z</time>
      </trkpt>
      <trkpt lat="47.57048" lon="6.19159">
        <ele>351.5</ele>
        <time>2014-09-11T11:50:53Z</time>
      </trkpt>
      <trkpt lat="47.57037" lon="6.19159">
        <ele>352.1</ele>
        <time>2014-09-11T11:50:57Z</time>
      </trkpt>
      <trkpt lat="47.57026" lon="6.19162">
        <ele>352.5</ele>
        <time>2014-09-11T11:51:01Z</time>
      </trkpt>
      <trkpt lat="47.57017" lon="6.19164">
        <ele>353.3</ele>
        <time>2014-09-11T11:51:05Z</time>
      </trkpt>
      <trkpt lat="47.57006" lon="6.19168">
        <ele>353.9</ele>
        <time>2014-09-11T11:51:09Z</time>
      </trkpt>
      <trkpt lat="47.56997" lon="6.19175">
        <ele>354.5</ele>
        <time>2014-09-11T11:51:13Z</time>
      </trkpt>
      <trkpt lat="47.56989" lon="6.19179">
        <ele>355.3</ele>
        <time>2014-09-11T11:51:17Z</time>
      </trkpt>
      <trkpt lat="47.56978" lon="6.19183">
        <ele>355.8</ele>
        <time>2014-09-11T11:51:22Z</time>
      </trkpt>
      <trkpt lat="47.5697" lon="6.19187">
        <ele>356</ele>
        <time>2014-09-11T11:51:25Z</time>
      </trkpt>
      <trkpt lat="47.56961" lon="6.19187">
        <ele>356.6</ele>
        <time>2014-09-11T11:51:29Z</time>
      </trkpt>
      <trkpt lat="47.56951" lon="6.19186">
        <ele>357.5</ele>
        <time>2014-09-11T11:51:34Z</time>
      </trkpt>
      <trkpt lat="47.56941" lon="6.19184">
        <ele>358.1</ele>
        <time>2014-09-11T11:51:38Z</time>
      </trkpt>
      <trkpt lat="47.56931" lon="6.19182">
        <ele>358.9</ele>
        <time>2014-09-11T11:51:44Z</time>
      </trkpt>
      <trkpt lat="47.56921" lon="6.19179">
        <ele>359.2</ele>
        <time>2014-09-11T11:51:48Z</time>
      </trkpt>
      <trkpt lat="47.56911" lon="6.19177">
        <ele>359.9</ele>
        <time>2014-09-11T11:51:53Z</time>
      </trkpt>
      <trkpt lat="47.569" lon="6.19175">
        <ele>359.9</ele>
        <time>2014-09-11T11:51:57Z</time>
      </trkpt>
      <trkpt lat="47.56889" lon="6.19172">
        <ele>359.9</ele>
        <time>2014-09-11T11:52:02Z</time>
      </trkpt>
      <trkpt lat="47.56879" lon="6.1917">
        <ele>359.9</ele>
        <time>2014-09-11T11:52:06Z</time>
      </trkpt>
      <trkpt lat="47.56869" lon="6.19167">
        <ele>359.9</ele>
        <time>2014-09-11T11:52:10Z</time>
      </trkpt>
      <trkpt lat="47.56858" lon="6.19165">
        <ele>359.9</ele>
        <time>2014-09-11T11:52:14Z</time>
      </trkpt>
      <trkpt lat="47.56848" lon="6.19162">
        <ele>359.8</ele>
        <time>2014-09-11T11:52:16Z</time>
      </trkpt>
      <trkpt lat="47.56835" lon="6.1916">
        <ele>359.8</ele>
        <time>2014-09-11T11:52:19Z</time>
      </trkpt>
      <trkpt lat="47.56823" lon="6.19158">
        <ele>359.6</ele>
        <time>2014-09-11T11:52:22Z</time>
      </trkpt>
      <trkpt lat="47.5681" lon="6.19157">
        <ele>359.7</ele>
        <time>2014-09-11T11:52:25Z</time>
      </trkpt>
      <trkpt lat="47.56798" lon="6.19155">
        <ele>359.7</ele>
        <time>2014-09-11T11:52:28Z</time>
      </trkpt>
      <trkpt lat="47.56786" lon="6.19155">
        <ele>359.6</ele>
        <time>2014-09-11T11:52:31Z</time>
      </trkpt>
      <trkpt lat="47.56776" lon="6.19159">
        <ele>359.6</ele>
        <time>2014-09-11T11:52:34Z</time>
      </trkpt>
      <trkpt lat="47.56769" lon="6.19167">
        <ele>359.4</ele>
        <time>2014-09-11T11:52:37Z</time>
      </trkpt>
      <trkpt lat="47.56761" lon="6.19176">
        <ele>359.4</ele>
        <time>2014-09-11T11:52:40Z</time>
      </trkpt>
      <trkpt lat="47.56755" lon="6.19186">
        <ele>359.3</ele>
        <time>2014-09-11T11:52:43Z</time>
      </trkpt>
      <trkpt lat="47.56747" lon="6.19195">
        <ele>359.4</ele>
        <time>2014-09-11T11:52:46Z</time>
      </trkpt>
      <trkpt lat="47.56738" lon="6.19205">
        <ele>359.6</ele>
        <time>2014-09-11T11:52:49Z</time>
      </trkpt>
      <trkpt lat="47.56728" lon="6.19215">
        <ele>359.8</ele>
        <time>2014-09-11T11:52:52Z</time>
      </trkpt>
      <trkpt lat="47.5672" lon="6.19225">
        <ele>360.1</ele>
        <time>2014-09-11T11:52:55Z</time>
      </trkpt>
      <trkpt lat="47.5671" lon="6.19232">
        <ele>360.9</ele>
        <time>2014-09-11T11:52:59Z</time>
      </trkpt>
      <trkpt lat="47.56701" lon="6.19237">
        <ele>361.9</ele>
        <time>2014-09-11T11:53:03Z</time>
      </trkpt>
      <trkpt lat="47.56691" lon="6.1924">
        <ele>362.6</ele>
        <time>2014-09-11T11:53:08Z</time>
      </trkpt>
      <trkpt lat="47.5668" lon="6.19243">
        <ele>363.4</ele>
        <time>2014-09-11T11:53:13Z</time>
      </trkpt>
      <trkpt lat="47.56671" lon="6.19245">
        <ele>364</ele>
        <time>2014-09-11T11:53:19Z</time>
      </trkpt>
      <trkpt lat="47.5666" lon="6.19249">
        <ele>364.9</ele>
        <time>2014-09-11T11:53:58Z</time>
      </trkpt>
      <trkpt lat="47.5665" lon="6.19253">
        <ele>365.3</ele>
        <time>2014-09-11T11:54:02Z</time>
      </trkpt>
      <trkpt lat="47.5664" lon="6.19256">
        <ele>365.7</ele>
        <time>2014-09-11T11:54:06Z</time>
      </trkpt>
      <trkpt lat="47.56631" lon="6.1926">
        <ele>365.8</ele>
        <time>2014-09-11T11:54:10Z</time>
      </trkpt>
      <trkpt lat="47.5662" lon="6.19262">
        <ele>365.9</ele>
        <time>2014-09-11T11:54:14Z</time>
      </trkpt>
      <trkpt lat="47.56611" lon="6.19262">
        <ele>366.1</ele>
        <time>2014-09-11T11:54:19Z</time>
      </trkpt>
      <trkpt lat="47.56602" lon="6.19266">
        <ele>365.9</ele>
        <time>2014-09-11T11:55:12Z</time>
      </trkpt>
      <trkpt lat="47.56592" lon="6.19266">
        <ele>366</ele>
        <time>2014-09-11T11:55:15Z</time>
      </trkpt>
      <trkpt lat="47.56583" lon="6.19266">
        <ele>366.3</ele>
        <time>2014-09-11T11:55:18Z</time>
      </trkpt>
      <trkpt lat="47.56574" lon="6.19265">
        <ele>366.8</ele>
        <time>2014-09-11T11:55:21Z</time>
      </trkpt>
      <trkpt lat="47.56564" lon="6.19266">
        <ele>366.8</ele>
        <time>2014-09-11T11:55:24Z</time>
      </trkpt>
      <trkpt lat="47.56555" lon="6.19266">
        <ele>366.8</ele>
        <time>2014-09-11T11:55:27Z</time>
      </trkpt>
      <trkpt lat="47.56546" lon="6.19269">
        <ele>367.1</ele>
        <time>2014-09-11T11:55:30Z</time>
      </trkpt>
      <trkpt lat="47.56536" lon="6.19272">
        <ele>367.5</ele>
        <time>2014-09-11T11:55:33Z</time>
      </trkpt>
      <trkpt lat="47.56526" lon="6.19274">
        <ele>368.2</ele>
        <time>2014-09-11T11:55:37Z</time>
      </trkpt>
      <trkpt lat="47.56535" lon="6.19271">
        <ele>368.5</ele>
        <time>2014-09-11T11:56:20Z</time>
      </trkpt>
      <trkpt lat="47.56545" lon="6.19269">
        <ele>368.4</ele>
        <time>2014-09-11T11:56:23Z</time>
      </trkpt>
      <trkpt lat="47.56558" lon="6.19267">
        <ele>368.1</ele>
        <time>2014-09-11T11:56:26Z</time>
      </trkpt>
      <trkpt lat="47.5657" lon="6.19265">
        <ele>367.9</ele>
        <time>2014-09-11T11:56:29Z</time>
      </trkpt>
      <trkpt lat="47.56582" lon="6.19263">
        <ele>367.4</ele>
        <time>2014-09-11T11:56:32Z</time>
      </trkpt>
      <trkpt lat="47.56592" lon="6.19262">
        <ele>366.7</ele>
        <time>2014-09-11T11:56:34Z</time>
      </trkpt>
      <trkpt lat="47.56603" lon="6.19262">
        <ele>366.5</ele>
        <time>2014-09-11T11:56:36Z</time>
      </trkpt>
      <trkpt lat="47.56614" lon="6.19261">
        <ele>366.3</ele>
        <time>2014-09-11T11:56:38Z</time>
      </trkpt>
      <trkpt lat="47.56625" lon="6.1926">
        <ele>366</ele>
        <time>2014-09-11T11:56:40Z</time>
      </trkpt>
      <trkpt lat="47.56635" lon="6.19256">
        <ele>365.8</ele>
        <time>2014-09-11T11:56:42Z</time>
      </trkpt>
      <trkpt lat="47.56646" lon="6.19252">
        <ele>365.5</ele>
        <time>2014-09-11T11:56:44Z</time>
      </trkpt>
      <trkpt lat="47.56656" lon="6.19247">
        <ele>365.2</ele>
        <time>2014-09-11T11:56:46Z</time>
      </trkpt>
      <trkpt lat="47.56666" lon="6.19242">
        <ele>364.9</ele>
        <time>2014-09-11T11:56:48Z</time>
      </trkpt>
      <trkpt lat="47.56678" lon="6.1924">
        <ele>364.3</ele>
        <time>2014-09-11T11:56:51Z</time>
      </trkpt>
      <trkpt lat="47.56687" lon="6.19242">
        <ele>363.7</ele>
        <time>2014-09-11T11:56:55Z</time>
      </trkpt>
      <trkpt lat="47.56698" lon="6.1924">
        <ele>362.9</ele>
        <time>2014-09-11T12:02:37Z</time>
      </trkpt>
      <trkpt lat="47.56707" lon="6.19238">
        <ele>362.6</ele>
        <time>2014-09-11T12:02:39Z</time>
      </trkpt>
      <trkpt lat="47.56718" lon="6.1923">
        <ele>362.4</ele>
        <time>2014-09-11T12:02:41Z</time>
      </trkpt>
      <trkpt lat="47.56728" lon="6.1922">
        <ele>361.9</ele>
        <time>2014-09-11T12:02:43Z</time>
      </trkpt>
      <trkpt lat="47.56739" lon="6.19209">
        <ele>361.6</ele>
        <time>2014-09-11T12:02:45Z</time>
      </trkpt>
      <trkpt lat="47.56749" lon="6.19197">
        <ele>361.2</ele>
        <time>2014-09-11T12:02:47Z</time>
      </trkpt>
      <trkpt lat="47.56759" lon="6.19186">
        <ele>361.1</ele>
        <time>2014-09-11T12:02:49Z</time>
      </trkpt>
      <trkpt lat="47.56768" lon="6.19175">
        <ele>360.6</ele>
        <time>2014-09-11T12:02:51Z</time>
      </trkpt>
      <trkpt lat="47.56776" lon="6.19165">
        <ele>360.5</ele>
        <time>2014-09-11T12:02:53Z</time>
      </trkpt>
      <trkpt lat="47.56785" lon="6.19158">
        <ele>360.1</ele>
        <time>2014-09-11T12:02:55Z</time>
      </trkpt>
      <trkpt lat="47.56795" lon="6.1915">
        <ele>360</ele>
        <time>2014-09-11T12:02:58Z</time>
      </trkpt>
      <trkpt lat="47.56805" lon="6.19152">
        <ele>360.1</ele>
        <time>2014-09-11T12:03:39Z</time>
      </trkpt>
      <trkpt lat="47.56815" lon="6.19155">
        <ele>360</ele>
        <time>2014-09-11T12:03:44Z</time>
      </trkpt>
      <trkpt lat="47.56827" lon="6.19157">
        <ele>360.3</ele>
        <time>2014-09-11T12:03:48Z</time>
      </trkpt>
      <trkpt lat="47.56837" lon="6.19159">
        <ele>360.2</ele>
        <time>2014-09-11T12:03:51Z</time>
      </trkpt>
      <trkpt lat="47.56849" lon="6.19161">
        <ele>360.1</ele>
        <time>2014-09-11T12:03:55Z</time>
      </trkpt>
      <trkpt lat="47.56859" lon="6.19163">
        <ele>360.1</ele>
        <time>2014-09-11T12:03:58Z</time>
      </trkpt>
      <trkpt lat="47.56871" lon="6.19167">
        <ele>360.1</ele>
        <time>2014-09-11T12:04:02Z</time>
      </trkpt>
      <trkpt lat="47.5688" lon="6.19169">
        <ele>360</ele>
        <time>2014-09-11T12:04:05Z</time>
      </trkpt>
      <trkpt lat="47.56889" lon="6.19172">
        <ele>359.9</ele>
        <time>2014-09-11T12:04:08Z</time>
      </trkpt>
      <trkpt lat="47.56899" lon="6.19176">
        <ele>360</ele>
        <time>2014-09-11T12:04:11Z</time>
      </trkpt>
      <trkpt lat="47.56908" lon="6.1918">
        <ele>360</ele>
        <time>2014-09-11T12:04:14Z</time>
      </trkpt>
      <trkpt lat="47.5692" lon="6.19184">
        <ele>359.6</ele>
        <time>2014-09-11T12:04:17Z</time>
      </trkpt>
      <trkpt lat="47.56929" lon="6.19186">
        <ele>359.3</ele>
        <time>2014-09-11T12:04:19Z</time>
      </trkpt>
      <trkpt lat="47.5694" lon="6.19188">
        <ele>359.2</ele>
        <time>2014-09-11T12:04:21Z</time>
      </trkpt>
      <trkpt lat="47.56951" lon="6.19188">
        <ele>358.7</ele>
        <time>2014-09-11T12:04:23Z</time>
      </trkpt>
      <trkpt lat="47.56963" lon="6.19187">
        <ele>358.1</ele>
        <time>2014-09-11T12:04:25Z</time>
      </trkpt>
      <trkpt lat="47.56975" lon="6.19183">
        <ele>357.5</ele>
        <time>2014-09-11T12:04:27Z</time>
      </trkpt>
      <trkpt lat="47.56989" lon="6.19176">
        <ele>356.9</ele>
        <time>2014-09-11T12:04:29Z</time>
      </trkpt>
      <trkpt lat="47.57005" lon="6.19169">
        <ele>356</ele>
        <time>2014-09-11T12:04:31Z</time>
      </trkpt>
      <trkpt lat="47.57022" lon="6.19164">
        <ele>355.3</ele>
        <time>2014-09-11T12:04:33Z</time>
      </trkpt>
      <trkpt lat="47.57032" lon="6.19163">
        <ele>354.9</ele>
        <time>2014-09-11T12:04:34Z</time>
      </trkpt>
      <trkpt lat="47.57041" lon="6.19163">
        <ele>354.7</ele>
        <time>2014-09-11T12:04:35Z</time>
      </trkpt>
      <trkpt lat="47.57058" lon="6.19168">
        <ele>353.7</ele>
        <time>2014-09-11T12:04:37Z</time>
      </trkpt>
      <trkpt lat="47.57067" lon="6.19172">
        <ele>353.4</ele>
        <time>2014-09-11T12:04:38Z</time>
      </trkpt>
      <trkpt lat="47.57076" lon="6.19176">
        <ele>353.1</ele>
        <time>2014-09-11T12:04:39Z</time>
      </trkpt>
      <trkpt lat="47.57084" lon="6.19182">
        <ele>352.8</ele>
        <time>2014-09-11T12:04:40Z</time>
      </trkpt>
      <trkpt lat="47.571" lon="6.19192">
        <ele>352.5</ele>
        <time>2014-09-11T12:04:42Z</time>
      </trkpt>
      <trkpt lat="47.57114" lon="6.19201">
        <ele>352.5</ele>
        <time>2014-09-11T12:04:44Z</time>
      </trkpt>
      <trkpt lat="47.57126" lon="6.19208">
        <ele>352.3</ele>
        <time>2014-09-11T12:04:46Z</time>
      </trkpt>
      <trkpt lat="47.57135" lon="6.19214">
        <ele>352.3</ele>
        <time>2014-09-11T12:04:48Z</time>
      </trkpt>
      <trkpt lat="47.57144" lon="6.19221">
        <ele>352.3</ele>
        <time>2014-09-11T12:04:50Z</time>
      </trkpt>
      <trkpt lat="47.57154" lon="6.19228">
        <ele>352.1</ele>
        <time>2014-09-11T12:04:52Z</time>
      </trkpt>
      <trkpt lat="47.57164" lon="6.19234">
        <ele>352.3</ele>
        <time>2014-09-11T12:04:54Z</time>
      </trkpt>
      <trkpt lat="47.57175" lon="6.19242">
        <ele>352.7</ele>
        <time>2014-09-11T12:04:57Z</time>
      </trkpt>
      <trkpt lat="47.57187" lon="6.19248">
        <ele>353.2</ele>
        <time>2014-09-11T12:05:00Z</time>
      </trkpt>
      <trkpt lat="47.57198" lon="6.19255">
        <ele>354.1</ele>
        <time>2014-09-11T12:05:03Z</time>
      </trkpt>
      <trkpt lat="47.57211" lon="6.19261">
        <ele>354.9</ele>
        <time>2014-09-11T12:05:06Z</time>
      </trkpt>
      <trkpt lat="47.57223" lon="6.19264">
        <ele>355.5</ele>
        <time>2014-09-11T12:05:09Z</time>
      </trkpt>
      <trkpt lat="47.57232" lon="6.19265">
        <ele>356</ele>
        <time>2014-09-11T12:05:12Z</time>
      </trkpt>
      <trkpt lat="47.57243" lon="6.19265">
        <ele>356.5</ele>
        <time>2014-09-11T12:05:16Z</time>
      </trkpt>
      <trkpt lat="47.57252" lon="6.19267">
        <ele>357</ele>
        <time>2014-09-11T12:05:19Z</time>
      </trkpt>
      <trkpt lat="47.57262" lon="6.19269">
        <ele>357.6</ele>
        <time>2014-09-11T12:05:22Z</time>
      </trkpt>
      <trkpt lat="47.57271" lon="6.1927">
        <ele>357.9</ele>
        <time>2014-09-11T12:05:25Z</time>
      </trkpt>
      <trkpt lat="47.57281" lon="6.19272">
        <ele>358</ele>
        <time>2014-09-11T12:05:28Z</time>
      </trkpt>
      <trkpt lat="47.57293" lon="6.19275">
        <ele>358</ele>
        <time>2014-09-11T12:05:31Z</time>
      </trkpt>
      <trkpt lat="47.57304" lon="6.1928">
        <ele>358</ele>
        <time>2014-09-11T12:05:34Z</time>
      </trkpt>
      <trkpt lat="47.57315" lon="6.19285">
        <ele>357.7</ele>
        <time>2014-09-11T12:05:37Z</time>
      </trkpt>
      <trkpt lat="47.57328" lon="6.19291">
        <ele>357.4</ele>
        <time>2014-09-11T12:05:40Z</time>
      </trkpt>
      <trkpt lat="47.57338" lon="6.19296">
        <ele>356.6</ele>
        <time>2014-09-11T12:05:43Z</time>
      </trkpt>
      <trkpt lat="47.5734" lon="6.1931">
        <ele>355.9</ele>
        <time>2014-09-11T12:05:47Z</time>
      </trkpt>
      <trkpt lat="47.57331" lon="6.1932">
        <ele>355.4</ele>
        <time>2014-09-11T12:05:51Z</time>
      </trkpt>
      <trkpt lat="47.57322" lon="6.19331">
        <ele>355</ele>
        <time>2014-09-11T12:05:54Z</time>
      </trkpt>
      <trkpt lat="47.57311" lon="6.19343">
        <ele>354.2</ele>
        <time>2014-09-11T12:05:57Z</time>
      </trkpt>
      <trkpt lat="47.57303" lon="6.19351">
        <ele>353.5</ele>
        <time>2014-09-11T12:05:59Z</time>
      </trkpt>
      <trkpt lat="47.57293" lon="6.1936">
        <ele>353.1</ele>
        <time>2014-09-11T12:06:01Z</time>
      </trkpt>
      <trkpt lat="47.57283" lon="6.19371">
        <ele>352.7</ele>
        <time>2014-09-11T12:06:03Z</time>
      </trkpt>
      <trkpt lat="47.57272" lon="6.19385">
        <ele>352.3</ele>
        <time>2014-09-11T12:06:05Z</time>
      </trkpt>
      <trkpt lat="47.57261" lon="6.194">
        <ele>351.7</ele>
        <time>2014-09-11T12:06:07Z</time>
      </trkpt>
      <trkpt lat="47.5725" lon="6.19416">
        <ele>351.2</ele>
        <time>2014-09-11T12:06:09Z</time>
      </trkpt>
      <trkpt lat="47.5724" lon="6.19434">
        <ele>350.9</ele>
        <time>2014-09-11T12:06:11Z</time>
      </trkpt>
      <trkpt lat="47.57232" lon="6.19453">
        <ele>350.4</ele>
        <time>2014-09-11T12:06:13Z</time>
      </trkpt>
      <trkpt lat="47.57228" lon="6.19474">
        <ele>350</ele>
        <time>2014-09-11T12:06:15Z</time>
      </trkpt>
      <trkpt lat="47.57224" lon="6.19493">
        <ele>349.9</ele>
        <time>2014-09-11T12:06:17Z</time>
      </trkpt>
      <trkpt lat="47.57221" lon="6.1951">
        <ele>349.9</ele>
        <time>2014-09-11T12:06:19Z</time>
      </trkpt>
      <trkpt lat="47.57219" lon="6.19524">
        <ele>350</ele>
        <time>2014-09-11T12:06:21Z</time>
      </trkpt>
      <trkpt lat="47.57215" lon="6.1954">
        <ele>350.7</ele>
        <time>2014-09-11T12:06:24Z</time>
      </trkpt>
      <trkpt lat="47.5721" lon="6.19553">
        <ele>351.4</ele>
        <time>2014-09-11T12:06:28Z</time>
      </trkpt>
      <trkpt lat="47.57203" lon="6.19566">
        <ele>352.7</ele>
        <time>2014-09-11T12:06:33Z</time>
      </trkpt>
      <trkpt lat="47.57195" lon="6.19573">
        <ele>353.7</ele>
        <time>2014-09-11T12:06:38Z</time>
      </trkpt>
      <trkpt lat="47.57187" lon="6.19582">
        <ele>355.1</ele>
        <time>2014-09-11T12:06:44Z</time>
      </trkpt>
      <trkpt lat="47.57179" lon="6.19587">
        <ele>356.1</ele>
        <time>2014-09-11T12:06:50Z</time>
      </trkpt>
      <trkpt lat="47.57172" lon="6.19597">
        <ele>358</ele>
        <time>2014-09-11T12:06:58Z</time>
      </trkpt>
      <trkpt lat="47.57163" lon="6.19603">
        <ele>359.5</ele>
        <time>2014-09-11T12:07:05Z</time>
      </trkpt>
      <trkpt lat="47.57153" lon="6.19607">
        <ele>360.9</ele>
        <time>2014-09-11T12:07:12Z</time>
      </trkpt>
      <trkpt lat="47.57143" lon="6.19612">
        <ele>362.4</ele>
        <time>2014-09-11T12:07:19Z</time>
      </trkpt>
      <trkpt lat="47.57135" lon="6.19616">
        <ele>363.4</ele>
        <time>2014-09-11T12:07:25Z</time>
      </trkpt>
      <trkpt lat="47.57125" lon="6.19618">
        <ele>364.4</ele>
        <time>2014-09-11T12:07:31Z</time>
      </trkpt>
      <trkpt lat="47.57114" lon="6.19621">
        <ele>365.6</ele>
        <time>2014-09-11T12:07:37Z</time>
      </trkpt>
      <trkpt lat="47.57104" lon="6.19626">
        <ele>367</ele>
        <time>2014-09-11T12:07:43Z</time>
      </trkpt>
      <trkpt lat="47.57094" lon="6.1963">
        <ele>367.9</ele>
        <time>2014-09-11T12:07:49Z</time>
      </trkpt>
      <trkpt lat="47.57084" lon="6.19632">
        <ele>369.3</ele>
        <time>2014-09-11T12:07:55Z</time>
      </trkpt>
      <trkpt lat="47.57075" lon="6.19635">
        <ele>370.7</ele>
        <time>2014-09-11T12:08:00Z</time>
      </trkpt>
      <trkpt lat="47.57065" lon="6.19637">
        <ele>371.4</ele>
        <time>2014-09-11T12:08:05Z</time>
      </trkpt>
      <trkpt lat="47.57055" lon="6.19639">
        <ele>372.4</ele>
        <time>2014-09-11T12:08:11Z</time>
      </trkpt>
      <trkpt lat="47.57045" lon="6.19642">
        <ele>373.4</ele>
        <time>2014-09-11T12:08:17Z</time>
      </trkpt>
      <trkpt lat="47.57036" lon="6.19643">
        <ele>374.5</ele>
        <time>2014-09-11T12:08:23Z</time>
      </trkpt>
      <trkpt lat="47.57025" lon="6.19642">
        <ele>375.4</ele>
        <time>2014-09-11T12:08:29Z</time>
      </trkpt>
      <trkpt lat="47.57014" lon="6.19641">
        <ele>376.5</ele>
        <time>2014-09-11T12:08:35Z</time>
      </trkpt>
      <trkpt lat="47.57004" lon="6.1964">
        <ele>376.8</ele>
        <time>2014-09-11T12:08:40Z</time>
      </trkpt>
      <trkpt lat="47.56995" lon="6.19638">
        <ele>377.6</ele>
        <time>2014-09-11T12:08:45Z</time>
      </trkpt>
      <trkpt lat="47.56985" lon="6.19633">
        <ele>378.3</ele>
        <time>2014-09-11T12:08:50Z</time>
      </trkpt>
      <trkpt lat="47.56975" lon="6.19633">
        <ele>379.1</ele>
        <time>2014-09-11T12:08:54Z</time>
      </trkpt>
      <trkpt lat="47.56965" lon="6.19631">
        <ele>380.3</ele>
        <time>2014-09-11T12:08:59Z</time>
      </trkpt>
      <trkpt lat="47.56956" lon="6.1963">
        <ele>381</ele>
        <time>2014-09-11T12:09:04Z</time>
      </trkpt>
      <trkpt lat="47.56947" lon="6.19627">
        <ele>382.8</ele>
        <time>2014-09-11T12:09:10Z</time>
      </trkpt>
      <trkpt lat="47.56937" lon="6.19625">
        <ele>383.7</ele>
        <time>2014-09-11T12:09:15Z</time>
      </trkpt>
      <trkpt lat="47.56926" lon="6.19624">
        <ele>385.1</ele>
        <time>2014-09-11T12:09:20Z</time>
      </trkpt>
      <trkpt lat="47.56916" lon="6.19623">
        <ele>386.1</ele>
        <time>2014-09-11T12:09:25Z</time>
      </trkpt>
      <trkpt lat="47.56905" lon="6.19626">
        <ele>387</ele>
        <time>2014-09-11T12:09:30Z</time>
      </trkpt>
      <trkpt lat="47.56896" lon="6.19628">
        <ele>387.9</ele>
        <time>2014-09-11T12:09:34Z</time>
      </trkpt>
      <trkpt lat="47.56885" lon="6.1963">
        <ele>388.9</ele>
        <time>2014-09-11T12:09:39Z</time>
      </trkpt>
      <trkpt lat="47.56874" lon="6.19634">
        <ele>390.1</ele>
        <time>2014-09-11T12:09:44Z</time>
      </trkpt>
      <trkpt lat="47.56864" lon="6.19638">
        <ele>391.2</ele>
        <time>2014-09-11T12:09:49Z</time>
      </trkpt>
      <trkpt lat="47.56854" lon="6.19643">
        <ele>392.2</ele>
        <time>2014-09-11T12:09:53Z</time>
      </trkpt>
      <trkpt lat="47.56846" lon="6.19648">
        <ele>393</ele>
        <time>2014-09-11T12:09:59Z</time>
      </trkpt>
      <trkpt lat="47.56838" lon="6.19658">
        <ele>394.4</ele>
        <time>2014-09-11T12:10:05Z</time>
      </trkpt>
      <trkpt lat="47.56832" lon="6.19669">
        <ele>395</ele>
        <time>2014-09-11T12:10:10Z</time>
      </trkpt>
      <trkpt lat="47.56827" lon="6.19682">
        <ele>395.9</ele>
        <time>2014-09-11T12:10:15Z</time>
      </trkpt>
      <trkpt lat="47.56825" lon="6.19695">
        <ele>396.8</ele>
        <time>2014-09-11T12:10:20Z</time>
      </trkpt>
      <trkpt lat="47.5682" lon="6.19707">
        <ele>397.9</ele>
        <time>2014-09-11T12:10:25Z</time>
      </trkpt>
      <trkpt lat="47.56817" lon="6.19721">
        <ele>398.9</ele>
        <time>2014-09-11T12:10:30Z</time>
      </trkpt>
      <trkpt lat="47.56813" lon="6.19735">
        <ele>399.7</ele>
        <time>2014-09-11T12:10:35Z</time>
      </trkpt>
      <trkpt lat="47.56807" lon="6.19748">
        <ele>400.5</ele>
        <time>2014-09-11T12:10:40Z</time>
      </trkpt>
      <trkpt lat="47.56801" lon="6.19758">
        <ele>401.3</ele>
        <time>2014-09-11T12:10:44Z</time>
      </trkpt>
      <trkpt lat="47.56795" lon="6.19769">
        <ele>402</ele>
        <time>2014-09-11T12:10:48Z</time>
      </trkpt>
      <trkpt lat="47.56789" lon="6.1978">
        <ele>402.7</ele>
        <time>2014-09-11T12:10:52Z</time>
      </trkpt>
      <trkpt lat="47.56782" lon="6.19791">
        <ele>403.7</ele>
        <time>2014-09-11T12:10:56Z</time>
      </trkpt>
      <trkpt lat="47.56775" lon="6.19803">
        <ele>404.6</ele>
        <time>2014-09-11T12:11:00Z</time>
      </trkpt>
      <trkpt lat="47.56769" lon="6.19815">
        <ele>405.4</ele>
        <time>2014-09-11T12:11:04Z</time>
      </trkpt>
      <trkpt lat="47.56763" lon="6.19827">
        <ele>406</ele>
        <time>2014-09-11T12:11:08Z</time>
      </trkpt>
      <trkpt lat="47.56757" lon="6.19839">
        <ele>406.7</ele>
        <time>2014-09-11T12:11:12Z</time>
      </trkpt>
      <trkpt lat="47.56752" lon="6.1985">
        <ele>407.6</ele>
        <time>2014-09-11T12:11:16Z</time>
      </trkpt>
      <trkpt lat="47.56747" lon="6.19861">
        <ele>408.3</ele>
        <time>2014-09-11T12:11:20Z</time>
      </trkpt>
      <trkpt lat="47.56741" lon="6.19872">
        <ele>409.1</ele>
        <time>2014-09-11T12:11:24Z</time>
      </trkpt>
      <trkpt lat="47.56735" lon="6.19883">
        <ele>409.9</ele>
        <time>2014-09-11T12:11:28Z</time>
      </trkpt>
      <trkpt lat="47.5673" lon="6.19897">
        <ele>410.7</ele>
        <time>2014-09-11T12:11:33Z</time>
      </trkpt>
      <trkpt lat="47.56724" lon="6.19911">
        <ele>411.6</ele>
        <time>2014-09-11T12:11:38Z</time>
      </trkpt>
      <trkpt lat="47.56718" lon="6.19924">
        <ele>412.4</ele>
        <time>2014-09-11T12:11:43Z</time>
      </trkpt>
      <trkpt lat="47.56713" lon="6.19936">
        <ele>413.2</ele>
        <time>2014-09-11T12:11:47Z</time>
      </trkpt>
      <trkpt lat="47.56706" lon="6.19949">
        <ele>414.3</ele>
        <time>2014-09-11T12:11:51Z</time>
      </trkpt>
      <trkpt lat="47.567" lon="6.19961">
        <ele>415</ele>
        <time>2014-09-11T12:11:54Z</time>
      </trkpt>
      <trkpt lat="47.56695" lon="6.19972">
        <ele>415.8</ele>
        <time>2014-09-11T12:11:57Z</time>
      </trkpt>
      <trkpt lat="47.56689" lon="6.19987">
        <ele>416.6</ele>
        <time>2014-09-11T12:12:01Z</time>
      </trkpt>
      <trkpt lat="47.56685" lon="6.2">
        <ele>417</ele>
        <time>2014-09-11T12:12:04Z</time>
      </trkpt>
      <trkpt lat="47.56679" lon="6.20012">
        <ele>417.3</ele>
        <time>2014-09-11T12:12:07Z</time>
      </trkpt>
      <trkpt lat="47.56672" lon="6.20022">
        <ele>417.6</ele>
        <time>2014-09-11T12:12:10Z</time>
      </trkpt>
      <trkpt lat="47.56665" lon="6.20035">
        <ele>417.8</ele>
        <time>2014-09-11T12:12:14Z</time>
      </trkpt>
      <trkpt lat="47.5666" lon="6.20047">
        <ele>417.9</ele>
        <time>2014-09-11T12:12:18Z</time>
      </trkpt>
      <trkpt lat="47.56662" lon="6.20062">
        <ele>417.7</ele>
        <time>2014-09-11T12:12:23Z</time>
      </trkpt>
      <trkpt lat="47.56661" lon="6.20048">
        <ele>417.6</ele>
        <time>2014-09-11T12:13:01Z</time>
      </trkpt>
      <trkpt lat="47.56663" lon="6.20034">
        <ele>418</ele>
        <time>2014-09-11T12:13:07Z</time>
      </trkpt>
      <trkpt lat="47.56669" lon="6.2002">
        <ele>418</ele>
        <time>2014-09-11T12:13:11Z</time>
      </trkpt>
      <trkpt lat="47.56674" lon="6.20009">
        <ele>417.9</ele>
        <time>2014-09-11T12:13:14Z</time>
      </trkpt>
      <trkpt lat="47.5668" lon="6.19995">
        <ele>417.6</ele>
        <time>2014-09-11T12:13:17Z</time>
      </trkpt>
      <trkpt lat="47.56686" lon="6.19981">
        <ele>417.2</ele>
        <time>2014-09-11T12:13:20Z</time>
      </trkpt>
      <trkpt lat="47.56692" lon="6.19968">
        <ele>416.6</ele>
        <time>2014-09-11T12:13:23Z</time>
      </trkpt>
      <trkpt lat="47.56698" lon="6.19957">
        <ele>415.9</ele>
        <time>2014-09-11T12:13:26Z</time>
      </trkpt>
      <trkpt lat="47.56705" lon="6.19944">
        <ele>415</ele>
        <time>2014-09-11T12:13:30Z</time>
      </trkpt>
      <trkpt lat="47.56712" lon="6.19932">
        <ele>414</ele>
        <time>2014-09-11T12:13:34Z</time>
      </trkpt>
      <trkpt lat="47.56716" lon="6.19919">
        <ele>413.3</ele>
        <time>2014-09-11T12:13:38Z</time>
      </trkpt>
      <trkpt lat="47.56724" lon="6.19907">
        <ele>412.5</ele>
        <time>2014-09-11T12:13:42Z</time>
      </trkpt>
      <trkpt lat="47.56732" lon="6.19896">
        <ele>411.8</ele>
        <time>2014-09-11T12:13:46Z</time>
      </trkpt>
      <trkpt lat="47.56739" lon="6.19883">
        <ele>410.8</ele>
        <time>2014-09-11T12:13:50Z</time>
      </trkpt>
      <trkpt lat="47.56744" lon="6.1987">
        <ele>409.4</ele>
        <time>2014-09-11T12:14:13Z</time>
      </trkpt>
      <trkpt lat="47.56737" lon="6.19882">
        <ele>410.4</ele>
        <time>2014-09-11T12:14:20Z</time>
      </trkpt>
      <trkpt lat="47.56731" lon="6.19896">
        <ele>411.1</ele>
        <time>2014-09-11T12:14:26Z</time>
      </trkpt>
      <trkpt lat="47.56725" lon="6.19907">
        <ele>412.1</ele>
        <time>2014-09-11T12:14:31Z</time>
      </trkpt>
      <trkpt lat="47.56719" lon="6.19918">
        <ele>412.7</ele>
        <time>2014-09-11T12:14:37Z</time>
      </trkpt>
      <trkpt lat="47.56713" lon="6.1993">
        <ele>413.3</ele>
        <time>2014-09-11T12:14:43Z</time>
      </trkpt>
      <trkpt lat="47.56708" lon="6.19941">
        <ele>414.1</ele>
        <time>2014-09-11T12:14:49Z</time>
      </trkpt>
      <trkpt lat="47.56703" lon="6.19952">
        <ele>414.8</ele>
        <time>2014-09-11T12:14:55Z</time>
      </trkpt>
      <trkpt lat="47.56696" lon="6.19963">
        <ele>416.1</ele>
        <time>2014-09-11T12:15:01Z</time>
      </trkpt>
      <trkpt lat="47.56692" lon="6.19977">
        <ele>416.7</ele>
        <time>2014-09-11T12:15:06Z</time>
      </trkpt>
      <trkpt lat="47.56687" lon="6.19991">
        <ele>416.8</ele>
        <time>2014-09-11T12:15:11Z</time>
      </trkpt>
      <trkpt lat="47.56678" lon="6.19998">
        <ele>417.3</ele>
        <time>2014-09-11T12:15:16Z</time>
      </trkpt>
      <trkpt lat="47.56674" lon="6.20012">
        <ele>417.7</ele>
        <time>2014-09-11T12:15:22Z</time>
      </trkpt>
      <trkpt lat="47.56666" lon="6.20023">
        <ele>417.7</ele>
        <time>2014-09-11T12:15:27Z</time>
      </trkpt>
      <trkpt lat="47.56659" lon="6.20035">
        <ele>417.9</ele>
        <time>2014-09-11T12:15:32Z</time>
      </trkpt>
      <trkpt lat="47.56651" lon="6.20045">
        <ele>418.1</ele>
        <time>2014-09-11T12:15:37Z</time>
      </trkpt>
      <trkpt lat="47.56643" lon="6.20055">
        <ele>418.1</ele>
        <time>2014-09-11T12:15:42Z</time>
      </trkpt>
      <trkpt lat="47.56636" lon="6.20065">
        <ele>418.1</ele>
        <time>2014-09-11T12:15:47Z</time>
      </trkpt>
      <trkpt lat="47.56628" lon="6.20072">
        <ele>418.2</ele>
        <time>2014-09-11T12:15:51Z</time>
      </trkpt>
      <trkpt lat="47.5662" lon="6.20079">
        <ele>418.1</ele>
        <time>2014-09-11T12:15:55Z</time>
      </trkpt>
      <trkpt lat="47.56612" lon="6.20089">
        <ele>417.9</ele>
        <time>2014-09-11T12:15:59Z</time>
      </trkpt>
      <trkpt lat="47.56604" lon="6.20097">
        <ele>418</ele>
        <time>2014-09-11T12:16:03Z</time>
      </trkpt>
      <trkpt lat="47.56595" lon="6.20106">
        <ele>417.9</ele>
        <time>2014-09-11T12:16:07Z</time>
      </trkpt>
      <trkpt lat="47.56586" lon="6.20111">
        <ele>418.2</ele>
        <time>2014-09-11T12:16:11Z</time>
      </trkpt>
      <trkpt lat="47.56576" lon="6.20118">
        <ele>417.7</ele>
        <time>2014-09-11T12:16:15Z</time>
      </trkpt>
      <trkpt lat="47.56567" lon="6.20124">
        <ele>417.7</ele>
        <time>2014-09-11T12:16:18Z</time>
      </trkpt>
      <trkpt lat="47.56557" lon="6.20131">
        <ele>417.4</ele>
        <time>2014-09-11T12:16:22Z</time>
      </trkpt>
      <trkpt lat="47.56548" lon="6.20138">
        <ele>417.1</ele>
        <time>2014-09-11T12:16:29Z</time>
      </trkpt>
      <trkpt lat="47.5654" lon="6.20145">
        <ele>417.2</ele>
        <time>2014-09-11T12:16:37Z</time>
      </trkpt>
      <trkpt lat="47.5653" lon="6.20146">
        <ele>416.8</ele>
        <time>2014-09-11T12:16:47Z</time>
      </trkpt>
      <trkpt lat="47.56521" lon="6.20152">
        <ele>417.2</ele>
        <time>2014-09-11T12:19:27Z</time>
      </trkpt>
      <trkpt lat="47.56511" lon="6.20159">
        <ele>416.8</ele>
        <time>2014-09-11T12:19:31Z</time>
      </trkpt>
      <trkpt lat="47.565" lon="6.20162">
        <ele>416.5</ele>
        <time>2014-09-11T12:19:34Z</time>
      </trkpt>
      <trkpt lat="47.56491" lon="6.20165">
        <ele>416.4</ele>
        <time>2014-09-11T12:19:36Z</time>
      </trkpt>
      <trkpt lat="47.56481" lon="6.20169">
        <ele>416</ele>
        <time>2014-09-11T12:19:38Z</time>
      </trkpt>
      <trkpt lat="47.56469" lon="6.20173">
        <ele>415.5</ele>
        <time>2014-09-11T12:19:40Z</time>
      </trkpt>
      <trkpt lat="47.56457" lon="6.20178">
        <ele>415</ele>
        <time>2014-09-11T12:19:42Z</time>
      </trkpt>
      <trkpt lat="47.56445" lon="6.20184">
        <ele>414.5</ele>
        <time>2014-09-11T12:19:44Z</time>
      </trkpt>
      <trkpt lat="47.56433" lon="6.2019">
        <ele>413.7</ele>
        <time>2014-09-11T12:19:46Z</time>
      </trkpt>
      <trkpt lat="47.56419" lon="6.20197">
        <ele>413</ele>
        <time>2014-09-11T12:19:48Z</time>
      </trkpt>
      <trkpt lat="47.56405" lon="6.20202">
        <ele>412.2</ele>
        <time>2014-09-11T12:19:50Z</time>
      </trkpt>
      <trkpt lat="47.56391" lon="6.20208">
        <ele>411.7</ele>
        <time>2014-09-11T12:19:52Z</time>
      </trkpt>
      <trkpt lat="47.56378" lon="6.20216">
        <ele>411.5</ele>
        <time>2014-09-11T12:19:54Z</time>
      </trkpt>
      <trkpt lat="47.56365" lon="6.20225">
        <ele>411.2</ele>
        <time>2014-09-11T12:19:56Z</time>
      </trkpt>
      <trkpt lat="47.56352" lon="6.20236">
        <ele>410.9</ele>
        <time>2014-09-11T12:19:58Z</time>
      </trkpt>
      <trkpt lat="47.56339" lon="6.20248">
        <ele>410.4</ele>
        <time>2014-09-11T12:20:00Z</time>
      </trkpt>
      <trkpt lat="47.56325" lon="6.20259">
        <ele>409.9</ele>
        <time>2014-09-11T12:20:02Z</time>
      </trkpt>
      <trkpt lat="47.56312" lon="6.20272">
        <ele>409.6</ele>
        <time>2014-09-11T12:20:04Z</time>
      </trkpt>
      <trkpt lat="47.56301" lon="6.20285">
        <ele>409.5</ele>
        <time>2014-09-11T12:20:06Z</time>
      </trkpt>
      <trkpt lat="47.5629" lon="6.20297">
        <ele>409.2</ele>
        <time>2014-09-11T12:20:08Z</time>
      </trkpt>
      <trkpt lat="47.5628" lon="6.20308">
        <ele>409.2</ele>
        <time>2014-09-11T12:20:10Z</time>
      </trkpt>
      <trkpt lat="47.56271" lon="6.2032">
        <ele>408.8</ele>
        <time>2014-09-11T12:20:12Z</time>
      </trkpt>
      <trkpt lat="47.56262" lon="6.20331">
        <ele>408.7</ele>
        <time>2014-09-11T12:20:14Z</time>
      </trkpt>
      <trkpt lat="47.56253" lon="6.20344">
        <ele>408.1</ele>
        <time>2014-09-11T12:20:16Z</time>
      </trkpt>
      <trkpt lat="47.56243" lon="6.20358">
        <ele>407.7</ele>
        <time>2014-09-11T12:20:18Z</time>
      </trkpt>
      <trkpt lat="47.56233" lon="6.20373">
        <ele>407.2</ele>
        <time>2014-09-11T12:20:20Z</time>
      </trkpt>
      <trkpt lat="47.56222" lon="6.2039">
        <ele>406.6</ele>
        <time>2014-09-11T12:20:22Z</time>
      </trkpt>
      <trkpt lat="47.5621" lon="6.20406">
        <ele>406.4</ele>
        <time>2014-09-11T12:20:24Z</time>
      </trkpt>
      <trkpt lat="47.56199" lon="6.20423">
        <ele>405.7</ele>
        <time>2014-09-11T12:20:26Z</time>
      </trkpt>
      <trkpt lat="47.56187" lon="6.20438">
        <ele>405.2</ele>
        <time>2014-09-11T12:20:28Z</time>
      </trkpt>
      <trkpt lat="47.56176" lon="6.20455">
        <ele>405.1</ele>
        <time>2014-09-11T12:20:30Z</time>
      </trkpt>
      <trkpt lat="47.56167" lon="6.20469">
        <ele>404.9</ele>
        <time>2014-09-11T12:20:32Z</time>
      </trkpt>
      <trkpt lat="47.5616" lon="6.2048">
        <ele>404.9</ele>
        <time>2014-09-11T12:20:34Z</time>
      </trkpt>
      <trkpt lat="47.56155" lon="6.20491">
        <ele>405</ele>
        <time>2014-09-11T12:20:37Z</time>
      </trkpt>
      <trkpt lat="47.56149" lon="6.20503">
        <ele>404.9</ele>
        <time>2014-09-11T12:20:45Z</time>
      </trkpt>
      <trkpt lat="47.5614" lon="6.20501">
        <ele>406.7</ele>
        <time>2014-09-11T12:20:53Z</time>
      </trkpt>
      <trkpt lat="47.56131" lon="6.20504">
        <ele>407.8</ele>
        <time>2014-09-11T12:20:59Z</time>
      </trkpt>
      <trkpt lat="47.56121" lon="6.20498">
        <ele>408.6</ele>
        <time>2014-09-11T12:21:05Z</time>
      </trkpt>
      <trkpt lat="47.56113" lon="6.20488">
        <ele>409.8</ele>
        <time>2014-09-11T12:21:11Z</time>
      </trkpt>
      <trkpt lat="47.56108" lon="6.20477">
        <ele>412</ele>
        <time>2014-09-11T12:21:19Z</time>
      </trkpt>
      <trkpt lat="47.56105" lon="6.20463">
        <ele>413.6</ele>
        <time>2014-09-11T12:21:26Z</time>
      </trkpt>
      <trkpt lat="47.56099" lon="6.20451">
        <ele>415.1</ele>
        <time>2014-09-11T12:21:32Z</time>
      </trkpt>
      <trkpt lat="47.56091" lon="6.2044">
        <ele>416.2</ele>
        <time>2014-09-11T12:21:37Z</time>
      </trkpt>
      <trkpt lat="47.56084" lon="6.20432">
        <ele>417</ele>
        <time>2014-09-11T12:21:41Z</time>
      </trkpt>
      <trkpt lat="47.56074" lon="6.20427">
        <ele>418.4</ele>
        <time>2014-09-11T12:21:47Z</time>
      </trkpt>
      <trkpt lat="47.56066" lon="6.20422">
        <ele>419.3</ele>
        <time>2014-09-11T12:21:52Z</time>
      </trkpt>
      <trkpt lat="47.56057" lon="6.20416">
        <ele>420.5</ele>
        <time>2014-09-11T12:21:58Z</time>
      </trkpt>
      <trkpt lat="47.56049" lon="6.20409">
        <ele>421.4</ele>
        <time>2014-09-11T12:22:03Z</time>
      </trkpt>
      <trkpt lat="47.56042" lon="6.20401">
        <ele>422.5</ele>
        <time>2014-09-11T12:22:09Z</time>
      </trkpt>
      <trkpt lat="47.56034" lon="6.20391">
        <ele>423.8</ele>
        <time>2014-09-11T12:22:16Z</time>
      </trkpt>
      <trkpt lat="47.56027" lon="6.20381">
        <ele>424.3</ele>
        <time>2014-09-11T12:22:22Z</time>
      </trkpt>
      <trkpt lat="47.56021" lon="6.2037">
        <ele>424.8</ele>
        <time>2014-09-11T12:22:29Z</time>
      </trkpt>
      <trkpt lat="47.56023" lon="6.20385">
        <ele>424.6</ele>
        <time>2014-09-11T12:23:05Z</time>
      </trkpt>
      <trkpt lat="47.5603" lon="6.20392">
        <ele>424.1</ele>
        <time>2014-09-11T12:24:30Z</time>
      </trkpt>
      <trkpt lat="47.56038" lon="6.20404">
        <ele>423.4</ele>
        <time>2014-09-11T12:24:36Z</time>
      </trkpt>
      <trkpt lat="47.56047" lon="6.20414">
        <ele>422.6</ele>
        <time>2014-09-11T12:24:40Z</time>
      </trkpt>
      <trkpt lat="47.56056" lon="6.2042">
        <ele>421.6</ele>
        <time>2014-09-11T12:24:44Z</time>
      </trkpt>
      <trkpt lat="47.56066" lon="6.20426">
        <ele>420.4</ele>
        <time>2014-09-11T12:24:48Z</time>
      </trkpt>
      <trkpt lat="47.56074" lon="6.20434">
        <ele>419.4</ele>
        <time>2014-09-11T12:24:52Z</time>
      </trkpt>
      <trkpt lat="47.56084" lon="6.20441">
        <ele>417.7</ele>
        <time>2014-09-11T12:24:56Z</time>
      </trkpt>
      <trkpt lat="47.56092" lon="6.2045">
        <ele>416.7</ele>
        <time>2014-09-11T12:24:59Z</time>
      </trkpt>
      <trkpt lat="47.56097" lon="6.20466">
        <ele>415.2</ele>
        <time>2014-09-11T12:25:02Z</time>
      </trkpt>
      <trkpt lat="47.56102" lon="6.20481">
        <ele>413.6</ele>
        <time>2014-09-11T12:25:05Z</time>
      </trkpt>
      <trkpt lat="47.56109" lon="6.20495">
        <ele>411.6</ele>
        <time>2014-09-11T12:25:08Z</time>
      </trkpt>
      <trkpt lat="47.56121" lon="6.20506">
        <ele>409.9</ele>
        <time>2014-09-11T12:25:11Z</time>
      </trkpt>
      <trkpt lat="47.56132" lon="6.20509">
        <ele>408.3</ele>
        <time>2014-09-11T12:25:14Z</time>
      </trkpt>
      <trkpt lat="47.56142" lon="6.20502">
        <ele>406.7</ele>
        <time>2014-09-11T12:25:18Z</time>
      </trkpt>
      <trkpt lat="47.56139" lon="6.20515">
        <ele>404.3</ele>
        <time>2014-09-11T12:26:42Z</time>
      </trkpt>
      <trkpt lat="47.56131" lon="6.20523">
        <ele>404.1</ele>
        <time>2014-09-11T12:26:48Z</time>
      </trkpt>
      <trkpt lat="47.56121" lon="6.20531">
        <ele>403.6</ele>
        <time>2014-09-11T12:26:53Z</time>
      </trkpt>
      <trkpt lat="47.56111" lon="6.2054">
        <ele>403.4</ele>
        <time>2014-09-11T12:26:57Z</time>
      </trkpt>
      <trkpt lat="47.56102" lon="6.20552">
        <ele>403.4</ele>
        <time>2014-09-11T12:27:01Z</time>
      </trkpt>
      <trkpt lat="47.56093" lon="6.20559">
        <ele>403.2</ele>
        <time>2014-09-11T12:27:04Z</time>
      </trkpt>
      <trkpt lat="47.56083" lon="6.20567">
        <ele>403.1</ele>
        <time>2014-09-11T12:27:08Z</time>
      </trkpt>
      <trkpt lat="47.56077" lon="6.20576">
        <ele>403.4</ele>
        <time>2014-09-11T12:27:12Z</time>
      </trkpt>
      <trkpt lat="47.56071" lon="6.20586">
        <ele>403.7</ele>
        <time>2014-09-11T12:27:17Z</time>
      </trkpt>
      <trkpt lat="47.56065" lon="6.20597">
        <ele>404.5</ele>
        <time>2014-09-11T12:27:23Z</time>
      </trkpt>
      <trkpt lat="47.56058" lon="6.20607">
        <ele>404.8</ele>
        <time>2014-09-11T12:27:29Z</time>
      </trkpt>
      <trkpt lat="47.5605" lon="6.20619">
        <ele>405</ele>
        <time>2014-09-11T12:27:35Z</time>
      </trkpt>
      <trkpt lat="47.56042" lon="6.20625">
        <ele>405.1</ele>
        <time>2014-09-11T12:27:39Z</time>
      </trkpt>
      <trkpt lat="47.56033" lon="6.20628">
        <ele>405.2</ele>
        <time>2014-09-11T12:27:43Z</time>
      </trkpt>
      <trkpt lat="47.56021" lon="6.2063">
        <ele>405.3</ele>
        <time>2014-09-11T12:27:47Z</time>
      </trkpt>
      <trkpt lat="47.56012" lon="6.20633">
        <ele>404.9</ele>
        <time>2014-09-11T12:27:50Z</time>
      </trkpt>
      <trkpt lat="47.56003" lon="6.20637">
        <ele>404.6</ele>
        <time>2014-09-11T12:27:53Z</time>
      </trkpt>
      <trkpt lat="47.55993" lon="6.20638">
        <ele>404.7</ele>
        <time>2014-09-11T12:27:56Z</time>
      </trkpt>
      <trkpt lat="47.55983" lon="6.20637">
        <ele>404.3</ele>
        <time>2014-09-11T12:27:59Z</time>
      </trkpt>
      <trkpt lat="47.55974" lon="6.20636">
        <ele>404.1</ele>
        <time>2014-09-11T12:28:02Z</time>
      </trkpt>
      <trkpt lat="47.55962" lon="6.20636">
        <ele>403.4</ele>
        <time>2014-09-11T12:28:06Z</time>
      </trkpt>
      <trkpt lat="47.55952" lon="6.20636">
        <ele>403.3</ele>
        <time>2014-09-11T12:28:08Z</time>
      </trkpt>
      <trkpt lat="47.55941" lon="6.20638">
        <ele>402.7</ele>
        <time>2014-09-11T12:28:11Z</time>
      </trkpt>
      <trkpt lat="47.55931" lon="6.20643">
        <ele>402.1</ele>
        <time>2014-09-11T12:28:15Z</time>
      </trkpt>
      <trkpt lat="47.55923" lon="6.20649">
        <ele>401.6</ele>
        <time>2014-09-11T12:28:19Z</time>
      </trkpt>
      <trkpt lat="47.55917" lon="6.20663">
        <ele>400.3</ele>
        <time>2014-09-11T12:28:25Z</time>
      </trkpt>
      <trkpt lat="47.55913" lon="6.20676">
        <ele>399.3</ele>
        <time>2014-09-11T12:28:29Z</time>
      </trkpt>
      <trkpt lat="47.5591" lon="6.20693">
        <ele>398.2</ele>
        <time>2014-09-11T12:28:33Z</time>
      </trkpt>
      <trkpt lat="47.55909" lon="6.20706">
        <ele>397.4</ele>
        <time>2014-09-11T12:28:36Z</time>
      </trkpt>
      <trkpt lat="47.55906" lon="6.2072">
        <ele>396.4</ele>
        <time>2014-09-11T12:28:39Z</time>
      </trkpt>
      <trkpt lat="47.55904" lon="6.20733">
        <ele>395.6</ele>
        <time>2014-09-11T12:28:42Z</time>
      </trkpt>
      <trkpt lat="47.55903" lon="6.20749">
        <ele>394.3</ele>
        <time>2014-09-11T12:28:46Z</time>
      </trkpt>
      <trkpt lat="47.55901" lon="6.20762">
        <ele>393.6</ele>
        <time>2014-09-11T12:28:49Z</time>
      </trkpt>
      <trkpt lat="47.55901" lon="6.20776">
        <ele>392.7</ele>
        <time>2014-09-11T12:28:52Z</time>
      </trkpt>
      <trkpt lat="47.55904" lon="6.20792">
        <ele>391.8</ele>
        <time>2014-09-11T12:28:55Z</time>
      </trkpt>
      <trkpt lat="47.55909" lon="6.20808">
        <ele>391</ele>
        <time>2014-09-11T12:28:58Z</time>
      </trkpt>
      <trkpt lat="47.55912" lon="6.20822">
        <ele>390.3</ele>
        <time>2014-09-11T12:29:00Z</time>
      </trkpt>
      <trkpt lat="47.55915" lon="6.20838">
        <ele>389.1</ele>
        <time>2014-09-11T12:29:03Z</time>
      </trkpt>
      <trkpt lat="47.55915" lon="6.20858">
        <ele>388.3</ele>
        <time>2014-09-11T12:29:06Z</time>
      </trkpt>
      <trkpt lat="47.55915" lon="6.20872">
        <ele>387.4</ele>
        <time>2014-09-11T12:29:08Z</time>
      </trkpt>
      <trkpt lat="47.55916" lon="6.20887">
        <ele>386.8</ele>
        <time>2014-09-11T12:29:10Z</time>
      </trkpt>
      <trkpt lat="47.55917" lon="6.20906">
        <ele>385.7</ele>
        <time>2014-09-11T12:29:13Z</time>
      </trkpt>
      <trkpt lat="47.55918" lon="6.20923">
        <ele>385</ele>
        <time>2014-09-11T12:29:16Z</time>
      </trkpt>
      <trkpt lat="47.55915" lon="6.20939">
        <ele>384.1</ele>
        <time>2014-09-11T12:29:20Z</time>
      </trkpt>
      <trkpt lat="47.55908" lon="6.20951">
        <ele>382.9</ele>
        <time>2014-09-11T12:29:26Z</time>
      </trkpt>
      <trkpt lat="47.559" lon="6.20958">
        <ele>382</ele>
        <time>2014-09-11T12:29:33Z</time>
      </trkpt>
      <trkpt lat="47.55892" lon="6.20965">
        <ele>381.5</ele>
        <time>2014-09-11T12:29:42Z</time>
      </trkpt>
      <trkpt lat="47.55883" lon="6.20969">
        <ele>381.2</ele>
        <time>2014-09-11T12:29:45Z</time>
      </trkpt>
      <trkpt lat="47.55871" lon="6.20973">
        <ele>380.6</ele>
        <time>2014-09-11T12:29:49Z</time>
      </trkpt>
      <trkpt lat="47.55862" lon="6.20977">
        <ele>380.1</ele>
        <time>2014-09-11T12:29:52Z</time>
      </trkpt>
      <trkpt lat="47.55852" lon="6.20979">
        <ele>379.9</ele>
        <time>2014-09-11T12:29:55Z</time>
      </trkpt>
      <trkpt lat="47.55841" lon="6.20983">
        <ele>379.4</ele>
        <time>2014-09-11T12:29:58Z</time>
      </trkpt>
      <trkpt lat="47.55829" lon="6.20988">
        <ele>378.7</ele>
        <time>2014-09-11T12:30:01Z</time>
      </trkpt>
      <trkpt lat="47.5582" lon="6.20991">
        <ele>378.4</ele>
        <time>2014-09-11T12:30:03Z</time>
      </trkpt>
      <trkpt lat="47.5581" lon="6.20993">
        <ele>378.1</ele>
        <time>2014-09-11T12:30:05Z</time>
      </trkpt>
      <trkpt lat="47.55801" lon="6.20997">
        <ele>377.9</ele>
        <time>2014-09-11T12:30:07Z</time>
      </trkpt>
      <trkpt lat="47.55789" lon="6.21003">
        <ele>377.4</ele>
        <time>2014-09-11T12:30:10Z</time>
      </trkpt>
      <trkpt lat="47.55777" lon="6.21007">
        <ele>376.9</ele>
        <time>2014-09-11T12:30:13Z</time>
      </trkpt>
      <trkpt lat="47.55765" lon="6.21012">
        <ele>376.7</ele>
        <time>2014-09-11T12:30:16Z</time>
      </trkpt>
      <trkpt lat="47.55753" lon="6.21016">
        <ele>376.3</ele>
        <time>2014-09-11T12:30:19Z</time>
      </trkpt>
      <trkpt lat="47.55741" lon="6.2102">
        <ele>375.7</ele>
        <time>2014-09-11T12:30:22Z</time>
      </trkpt>
      <trkpt lat="47.55732" lon="6.21023">
        <ele>375.3</ele>
        <time>2014-09-11T12:30:24Z</time>
      </trkpt>
      <trkpt lat="47.55718" lon="6.21025">
        <ele>374.4</ele>
        <time>2014-09-11T12:30:27Z</time>
      </trkpt>
      <trkpt lat="47.55709" lon="6.21028">
        <ele>374</ele>
        <time>2014-09-11T12:30:29Z</time>
      </trkpt>
      <trkpt lat="47.55696" lon="6.21033">
        <ele>373.4</ele>
        <time>2014-09-11T12:30:32Z</time>
      </trkpt>
      <trkpt lat="47.55684" lon="6.21037">
        <ele>372.8</ele>
        <time>2014-09-11T12:30:35Z</time>
      </trkpt>
      <trkpt lat="47.55676" lon="6.2104">
        <ele>372.3</ele>
        <time>2014-09-11T12:30:37Z</time>
      </trkpt>
      <trkpt lat="47.55666" lon="6.21042">
        <ele>371.8</ele>
        <time>2014-09-11T12:30:39Z</time>
      </trkpt>
      <trkpt lat="47.55657" lon="6.21044">
        <ele>371.3</ele>
        <time>2014-09-11T12:30:41Z</time>
      </trkpt>
      <trkpt lat="47.55646" lon="6.21047">
        <ele>370.6</ele>
        <time>2014-09-11T12:30:43Z</time>
      </trkpt>
      <trkpt lat="47.55636" lon="6.2105">
        <ele>370.3</ele>
        <time>2014-09-11T12:30:45Z</time>
      </trkpt>
      <trkpt lat="47.55626" lon="6.21052">
        <ele>369.7</ele>
        <time>2014-09-11T12:30:47Z</time>
      </trkpt>
      <trkpt lat="47.55616" lon="6.21055">
        <ele>369.1</ele>
        <time>2014-09-11T12:30:49Z</time>
      </trkpt>
      <trkpt lat="47.55606" lon="6.21057">
        <ele>369</ele>
        <time>2014-09-11T12:30:51Z</time>
      </trkpt>
      <trkpt lat="47.55597" lon="6.21059">
        <ele>368.7</ele>
        <time>2014-09-11T12:30:53Z</time>
      </trkpt>
      <trkpt lat="47.55587" lon="6.21062">
        <ele>368.4</ele>
        <time>2014-09-11T12:30:55Z</time>
      </trkpt>
      <trkpt lat="47.55578" lon="6.21064">
        <ele>367.9</ele>
        <time>2014-09-11T12:30:57Z</time>
      </trkpt>
      <trkpt lat="47.55565" lon="6.21067">
        <ele>367.4</ele>
        <time>2014-09-11T12:31:00Z</time>
      </trkpt>
      <trkpt lat="47.55552" lon="6.2107">
        <ele>366.8</ele>
        <time>2014-09-11T12:31:03Z</time>
      </trkpt>
      <trkpt lat="47.55539" lon="6.21073">
        <ele>366.1</ele>
        <time>2014-09-11T12:31:06Z</time>
      </trkpt>
      <trkpt lat="47.55529" lon="6.21076">
        <ele>365.3</ele>
        <time>2014-09-11T12:31:09Z</time>
      </trkpt>
      <trkpt lat="47.55518" lon="6.21079">
        <ele>364.6</ele>
        <time>2014-09-11T12:31:12Z</time>
      </trkpt>
      <trkpt lat="47.55509" lon="6.21083">
        <ele>364</ele>
        <time>2014-09-11T12:31:15Z</time>
      </trkpt>
      <trkpt lat="47.55498" lon="6.21087">
        <ele>363.2</ele>
        <time>2014-09-11T12:31:19Z</time>
      </trkpt>
      <trkpt lat="47.55487" lon="6.21091">
        <ele>362.1</ele>
        <time>2014-09-11T12:31:23Z</time>
      </trkpt>
      <trkpt lat="47.55477" lon="6.21095">
        <ele>361.1</ele>
        <time>2014-09-11T12:31:27Z</time>
      </trkpt>
      <trkpt lat="47.55466" lon="6.21099">
        <ele>360.1</ele>
        <time>2014-09-11T12:31:31Z</time>
      </trkpt>
      <trkpt lat="47.55457" lon="6.21103">
        <ele>359.3</ele>
        <time>2014-09-11T12:31:34Z</time>
      </trkpt>
      <trkpt lat="47.55446" lon="6.21107">
        <ele>358.7</ele>
        <time>2014-09-11T12:31:37Z</time>
      </trkpt>
      <trkpt lat="47.55434" lon="6.21112">
        <ele>358</ele>
        <time>2014-09-11T12:31:40Z</time>
      </trkpt>
      <trkpt lat="47.55425" lon="6.21116">
        <ele>357.9</ele>
        <time>2014-09-11T12:31:42Z</time>
      </trkpt>
      <trkpt lat="47.55416" lon="6.2112">
        <ele>357.7</ele>
        <time>2014-09-11T12:31:44Z</time>
      </trkpt>
      <trkpt lat="47.55405" lon="6.21124">
        <ele>357.4</ele>
        <time>2014-09-11T12:31:46Z</time>
      </trkpt>
      <trkpt lat="47.55395" lon="6.21128">
        <ele>356.9</ele>
        <time>2014-09-11T12:31:48Z</time>
      </trkpt>
      <trkpt lat="47.55384" lon="6.2113">
        <ele>356.8</ele>
        <time>2014-09-11T12:31:50Z</time>
      </trkpt>
      <trkpt lat="47.55374" lon="6.2113">
        <ele>356.3</ele>
        <time>2014-09-11T12:31:52Z</time>
      </trkpt>
      <trkpt lat="47.55363" lon="6.2113">
        <ele>355.7</ele>
        <time>2014-09-11T12:31:54Z</time>
      </trkpt>
      <trkpt lat="47.55354" lon="6.21127">
        <ele>355.2</ele>
        <time>2014-09-11T12:31:56Z</time>
      </trkpt>
      <trkpt lat="47.55342" lon="6.21125">
        <ele>354.3</ele>
        <time>2014-09-11T12:31:59Z</time>
      </trkpt>
      <trkpt lat="47.55331" lon="6.21123">
        <ele>353.5</ele>
        <time>2014-09-11T12:32:03Z</time>
      </trkpt>
      <trkpt lat="47.5532" lon="6.21122">
        <ele>352.8</ele>
        <time>2014-09-11T12:32:08Z</time>
      </trkpt>
      <trkpt lat="47.55311" lon="6.2112">
        <ele>351.9</ele>
        <time>2014-09-11T12:32:12Z</time>
      </trkpt>
      <trkpt lat="47.55301" lon="6.21118">
        <ele>351.2</ele>
        <time>2014-09-11T12:32:17Z</time>
      </trkpt>
      <trkpt lat="47.55291" lon="6.21118">
        <ele>350.8</ele>
        <time>2014-09-11T12:32:21Z</time>
      </trkpt>
      <trkpt lat="47.5528" lon="6.21116">
        <ele>349.7</ele>
        <time>2014-09-11T12:32:25Z</time>
      </trkpt>
      <trkpt lat="47.55269" lon="6.21113">
        <ele>348.7</ele>
        <time>2014-09-11T12:32:29Z</time>
      </trkpt>
      <trkpt lat="47.55259" lon="6.21113">
        <ele>347.4</ele>
        <time>2014-09-11T12:32:34Z</time>
      </trkpt>
      <trkpt lat="47.5525" lon="6.21107">
        <ele>346.3</ele>
        <time>2014-09-11T12:32:41Z</time>
      </trkpt>
      <trkpt lat="47.55245" lon="6.21096">
        <ele>345</ele>
        <time>2014-09-11T12:32:48Z</time>
      </trkpt>
      <trkpt lat="47.55241" lon="6.21083">
        <ele>344</ele>
        <time>2014-09-11T12:32:54Z</time>
      </trkpt>
      <trkpt lat="47.55237" lon="6.21068">
        <ele>343.1</ele>
        <time>2014-09-11T12:33:00Z</time>
      </trkpt>
      <trkpt lat="47.55233" lon="6.21056">
        <ele>342.4</ele>
        <time>2014-09-11T12:33:04Z</time>
      </trkpt>
      <trkpt lat="47.55228" lon="6.21044">
        <ele>341.7</ele>
        <time>2014-09-11T12:33:08Z</time>
      </trkpt>
      <trkpt lat="47.55223" lon="6.21031">
        <ele>340.8</ele>
        <time>2014-09-11T12:33:12Z</time>
      </trkpt>
      <trkpt lat="47.55218" lon="6.21017">
        <ele>339.9</ele>
        <time>2014-09-11T12:33:16Z</time>
      </trkpt>
      <trkpt lat="47.55213" lon="6.21002">
        <ele>338.8</ele>
        <time>2014-09-11T12:33:20Z</time>
      </trkpt>
      <trkpt lat="47.55207" lon="6.20988">
        <ele>337.9</ele>
        <time>2014-09-11T12:33:24Z</time>
      </trkpt>
      <trkpt lat="47.55201" lon="6.20975">
        <ele>336.7</ele>
        <time>2014-09-11T12:33:28Z</time>
      </trkpt>
      <trkpt lat="47.55194" lon="6.20963">
        <ele>335.6</ele>
        <time>2014-09-11T12:33:32Z</time>
      </trkpt>
      <trkpt lat="47.55188" lon="6.20952">
        <ele>334.9</ele>
        <time>2014-09-11T12:33:35Z</time>
      </trkpt>
      <trkpt lat="47.5518" lon="6.20939">
        <ele>334</ele>
        <time>2014-09-11T12:33:38Z</time>
      </trkpt>
      <trkpt lat="47.55174" lon="6.20929">
        <ele>333.3</ele>
        <time>2014-09-11T12:33:40Z</time>
      </trkpt>
      <trkpt lat="47.55168" lon="6.20917">
        <ele>332.5</ele>
        <time>2014-09-11T12:33:42Z</time>
      </trkpt>
      <trkpt lat="47.55162" lon="6.20904">
        <ele>331.5</ele>
        <time>2014-09-11T12:33:44Z</time>
      </trkpt>
      <trkpt lat="47.55157" lon="6.20891">
        <ele>330.6</ele>
        <time>2014-09-11T12:33:46Z</time>
      </trkpt>
      <trkpt lat="47.55152" lon="6.20878">
        <ele>330.1</ele>
        <time>2014-09-11T12:33:48Z</time>
      </trkpt>
      <trkpt lat="47.55147" lon="6.20866">
        <ele>329.5</ele>
        <time>2014-09-11T12:33:50Z</time>
      </trkpt>
      <trkpt lat="47.55143" lon="6.20854">
        <ele>329</ele>
        <time>2014-09-11T12:33:52Z</time>
      </trkpt>
      <trkpt lat="47.55139" lon="6.20841">
        <ele>328.1</ele>
        <time>2014-09-11T12:33:54Z</time>
      </trkpt>
      <trkpt lat="47.55134" lon="6.20823">
        <ele>327.3</ele>
        <time>2014-09-11T12:33:57Z</time>
      </trkpt>
      <trkpt lat="47.55131" lon="6.20807">
        <ele>326.6</ele>
        <time>2014-09-11T12:34:00Z</time>
      </trkpt>
      <trkpt lat="47.55128" lon="6.20794">
        <ele>325.7</ele>
        <time>2014-09-11T12:34:03Z</time>
      </trkpt>
      <trkpt lat="47.55123" lon="6.20782">
        <ele>324.6</ele>
        <time>2014-09-11T12:34:06Z</time>
      </trkpt>
      <trkpt lat="47.55114" lon="6.20771">
        <ele>323.6</ele>
        <time>2014-09-11T12:34:10Z</time>
      </trkpt>
      <trkpt lat="47.55104" lon="6.20763">
        <ele>323.2</ele>
        <time>2014-09-11T12:34:14Z</time>
      </trkpt>
      <trkpt lat="47.55095" lon="6.20763">
        <ele>322.7</ele>
        <time>2014-09-11T12:34:18Z</time>
      </trkpt>
      <trkpt lat="47.55086" lon="6.20769">
        <ele>321.7</ele>
        <time>2014-09-11T12:34:42Z</time>
      </trkpt>
      <trkpt lat="47.55078" lon="6.20775">
        <ele>321.4</ele>
        <time>2014-09-11T12:34:47Z</time>
      </trkpt>
      <trkpt lat="47.55069" lon="6.20784">
        <ele>320.8</ele>
        <time>2014-09-11T12:34:53Z</time>
      </trkpt>
      <trkpt lat="47.55061" lon="6.20793">
        <ele>320.3</ele>
        <time>2014-09-11T12:34:57Z</time>
      </trkpt>
      <trkpt lat="47.55054" lon="6.20805">
        <ele>319.4</ele>
        <time>2014-09-11T12:35:03Z</time>
      </trkpt>
      <trkpt lat="47.55046" lon="6.20818">
        <ele>318.9</ele>
        <time>2014-09-11T12:35:07Z</time>
      </trkpt>
      <trkpt lat="47.55039" lon="6.20828">
        <ele>318.3</ele>
        <time>2014-09-11T12:35:10Z</time>
      </trkpt>
      <trkpt lat="47.55031" lon="6.20841">
        <ele>317.4</ele>
        <time>2014-09-11T12:35:13Z</time>
      </trkpt>
      <trkpt lat="47.55022" lon="6.20852">
        <ele>316.8</ele>
        <time>2014-09-11T12:35:16Z</time>
      </trkpt>
      <trkpt lat="47.55013" lon="6.20861">
        <ele>316.4</ele>
        <time>2014-09-11T12:35:19Z</time>
      </trkpt>
      <trkpt lat="47.55005" lon="6.20867">
        <ele>315.8</ele>
        <time>2014-09-11T12:35:22Z</time>
      </trkpt>
      <trkpt lat="47.54995" lon="6.20873">
        <ele>315</ele>
        <time>2014-09-11T12:35:26Z</time>
      </trkpt>
      <trkpt lat="47.54986" lon="6.20879">
        <ele>314.5</ele>
        <time>2014-09-11T12:35:29Z</time>
      </trkpt>
      <trkpt lat="47.54975" lon="6.20888">
        <ele>313.9</ele>
        <time>2014-09-11T12:35:32Z</time>
      </trkpt>
      <trkpt lat="47.54965" lon="6.20898">
        <ele>313</ele>
        <time>2014-09-11T12:35:35Z</time>
      </trkpt>
      <trkpt lat="47.54958" lon="6.20909">
        <ele>312.3</ele>
        <time>2014-09-11T12:35:38Z</time>
      </trkpt>
      <trkpt lat="47.5495" lon="6.20921">
        <ele>311.5</ele>
        <time>2014-09-11T12:35:41Z</time>
      </trkpt>
      <trkpt lat="47.54941" lon="6.20933">
        <ele>310.8</ele>
        <time>2014-09-11T12:35:44Z</time>
      </trkpt>
      <trkpt lat="47.54933" lon="6.20944">
        <ele>310.5</ele>
        <time>2014-09-11T12:35:47Z</time>
      </trkpt>
      <trkpt lat="47.54925" lon="6.20951">
        <ele>310.2</ele>
        <time>2014-09-11T12:35:50Z</time>
      </trkpt>
      <trkpt lat="47.54914" lon="6.20959">
        <ele>309.3</ele>
        <time>2014-09-11T12:35:54Z</time>
      </trkpt>
      <trkpt lat="47.54905" lon="6.20966">
        <ele>308.5</ele>
        <time>2014-09-11T12:35:57Z</time>
      </trkpt>
      <trkpt lat="47.54896" lon="6.20976">
        <ele>307.5</ele>
        <time>2014-09-11T12:36:00Z</time>
      </trkpt>
      <trkpt lat="47.54888" lon="6.2099">
        <ele>306.9</ele>
        <time>2014-09-11T12:36:03Z</time>
      </trkpt>
      <trkpt lat="47.5488" lon="6.21004">
        <ele>306.3</ele>
        <time>2014-09-11T12:36:06Z</time>
      </trkpt>
      <trkpt lat="47.54873" lon="6.21018">
        <ele>305.9</ele>
        <time>2014-09-11T12:36:09Z</time>
      </trkpt>
      <trkpt lat="47.54864" lon="6.21032">
        <ele>305.5</ele>
        <time>2014-09-11T12:36:12Z</time>
      </trkpt>
      <trkpt lat="47.54856" lon="6.21044">
        <ele>305.1</ele>
        <time>2014-09-11T12:36:15Z</time>
      </trkpt>
      <trkpt lat="47.54847" lon="6.21053">
        <ele>304.8</ele>
        <time>2014-09-11T12:36:18Z</time>
      </trkpt>
      <trkpt lat="47.5484" lon="6.21061">
        <ele>304.6</ele>
        <time>2014-09-11T12:36:21Z</time>
      </trkpt>
      <trkpt lat="47.54831" lon="6.2107">
        <ele>304.2</ele>
        <time>2014-09-11T12:36:24Z</time>
      </trkpt>
      <trkpt lat="47.54821" lon="6.21078">
        <ele>303.8</ele>
        <time>2014-09-11T12:36:27Z</time>
      </trkpt>
      <trkpt lat="47.54811" lon="6.21086">
        <ele>303.4</ele>
        <time>2014-09-11T12:36:30Z</time>
      </trkpt>
      <trkpt lat="47.548" lon="6.21089">
        <ele>303</ele>
        <time>2014-09-11T12:36:33Z</time>
      </trkpt>
      <trkpt lat="47.5479" lon="6.21094">
        <ele>302.5</ele>
        <time>2014-09-11T12:36:36Z</time>
      </trkpt>
      <trkpt lat="47.54776" lon="6.21097">
        <ele>301.8</ele>
        <time>2014-09-11T12:36:39Z</time>
      </trkpt>
      <trkpt lat="47.54766" lon="6.21099">
        <ele>301.5</ele>
        <time>2014-09-11T12:36:41Z</time>
      </trkpt>
      <trkpt lat="47.54755" lon="6.211">
        <ele>301</ele>
        <time>2014-09-11T12:36:43Z</time>
      </trkpt>
      <trkpt lat="47.54743" lon="6.21102">
        <ele>300.6</ele>
        <time>2014-09-11T12:36:45Z</time>
      </trkpt>
      <trkpt lat="47.5473" lon="6.21104">
        <ele>300.2</ele>
        <time>2014-09-11T12:36:47Z</time>
      </trkpt>
      <trkpt lat="47.54716" lon="6.21106">
        <ele>299.6</ele>
        <time>2014-09-11T12:36:49Z</time>
      </trkpt>
      <trkpt lat="47.54702" lon="6.21108">
        <ele>299</ele>
        <time>2014-09-11T12:36:51Z</time>
      </trkpt>
      <trkpt lat="47.54687" lon="6.21111">
        <ele>298.5</ele>
        <time>2014-09-11T12:36:53Z</time>
      </trkpt>
      <trkpt lat="47.54673" lon="6.21114">
        <ele>297.9</ele>
        <time>2014-09-11T12:36:55Z</time>
      </trkpt>
      <trkpt lat="47.54658" lon="6.21116">
        <ele>297.3</ele>
        <time>2014-09-11T12:36:57Z</time>
      </trkpt>
      <trkpt lat="47.54645" lon="6.21119">
        <ele>296.9</ele>
        <time>2014-09-11T12:36:59Z</time>
      </trkpt>
      <trkpt lat="47.54632" lon="6.21122">
        <ele>296.3</ele>
        <time>2014-09-11T12:37:01Z</time>
      </trkpt>
      <trkpt lat="47.5462" lon="6.21126">
        <ele>296.1</ele>
        <time>2014-09-11T12:37:03Z</time>
      </trkpt>
      <trkpt lat="47.54609" lon="6.21129">
        <ele>296</ele>
        <time>2014-09-11T12:37:05Z</time>
      </trkpt>
      <trkpt lat="47.54599" lon="6.21133">
        <ele>296.3</ele>
        <time>2014-09-11T12:37:07Z</time>
      </trkpt>
      <trkpt lat="47.54588" lon="6.21139">
        <ele>296.6</ele>
        <time>2014-09-11T12:37:10Z</time>
      </trkpt>
      <trkpt lat="47.54578" lon="6.21143">
        <ele>296.9</ele>
        <time>2014-09-11T12:37:13Z</time>
      </trkpt>
      <trkpt lat="47.54569" lon="6.21147">
        <ele>297.4</ele>
        <time>2014-09-11T12:37:16Z</time>
      </trkpt>
      <trkpt lat="47.5456" lon="6.21152">
        <ele>297.9</ele>
        <time>2014-09-11T12:37:19Z</time>
      </trkpt>
      <trkpt lat="47.54551" lon="6.21157">
        <ele>298.4</ele>
        <time>2014-09-11T12:37:22Z</time>
      </trkpt>
      <trkpt lat="47.54543" lon="6.21162">
        <ele>298.9</ele>
        <time>2014-09-11T12:37:25Z</time>
      </trkpt>
      <trkpt lat="47.54532" lon="6.21168">
        <ele>299.2</ele>
        <time>2014-09-11T12:37:29Z</time>
      </trkpt>
      <trkpt lat="47.54523" lon="6.21172">
        <ele>299.6</ele>
        <time>2014-09-11T12:37:32Z</time>
      </trkpt>
      <trkpt lat="47.54513" lon="6.21175">
        <ele>300</ele>
        <time>2014-09-11T12:37:35Z</time>
      </trkpt>
      <trkpt lat="47.54504" lon="6.21177">
        <ele>300.2</ele>
        <time>2014-09-11T12:37:38Z</time>
      </trkpt>
      <trkpt lat="47.54495" lon="6.21177">
        <ele>300.2</ele>
        <time>2014-09-11T12:37:41Z</time>
      </trkpt>
      <trkpt lat="47.54484" lon="6.2118">
        <ele>299.6</ele>
        <time>2014-09-11T12:37:45Z</time>
      </trkpt>
      <trkpt lat="47.54474" lon="6.21179">
        <ele>299.2</ele>
        <time>2014-09-11T12:37:49Z</time>
      </trkpt>
      <trkpt lat="47.54462" lon="6.21181">
        <ele>298.9</ele>
        <time>2014-09-11T12:37:53Z</time>
      </trkpt>
      <trkpt lat="47.5445" lon="6.21182">
        <ele>298.3</ele>
        <time>2014-09-11T12:37:56Z</time>
      </trkpt>
      <trkpt lat="47.5444" lon="6.21182">
        <ele>297.7</ele>
        <time>2014-09-11T12:37:58Z</time>
      </trkpt>
      <trkpt lat="47.54429" lon="6.21182">
        <ele>297.1</ele>
        <time>2014-09-11T12:38:00Z</time>
      </trkpt>
      <trkpt lat="47.54417" lon="6.21182">
        <ele>296.8</ele>
        <time>2014-09-11T12:38:02Z</time>
      </trkpt>
      <trkpt lat="47.54405" lon="6.21183">
        <ele>296.6</ele>
        <time>2014-09-11T12:38:04Z</time>
      </trkpt>
      <trkpt lat="47.54394" lon="6.21186">
        <ele>296.6</ele>
        <time>2014-09-11T12:38:06Z</time>
      </trkpt>
      <trkpt lat="47.54383" lon="6.2119">
        <ele>296.6</ele>
        <time>2014-09-11T12:38:08Z</time>
      </trkpt>
      <trkpt lat="47.54374" lon="6.21195">
        <ele>296.9</ele>
        <time>2014-09-11T12:38:10Z</time>
      </trkpt>
      <trkpt lat="47.54364" lon="6.21205">
        <ele>297.4</ele>
        <time>2014-09-11T12:38:13Z</time>
      </trkpt>
      <trkpt lat="47.54355" lon="6.21219">
        <ele>297.9</ele>
        <time>2014-09-11T12:38:16Z</time>
      </trkpt>
      <trkpt lat="47.54345" lon="6.21232">
        <ele>298.2</ele>
        <time>2014-09-11T12:38:19Z</time>
      </trkpt>
      <trkpt lat="47.54334" lon="6.21243">
        <ele>298.6</ele>
        <time>2014-09-11T12:38:22Z</time>
      </trkpt>
      <trkpt lat="47.54325" lon="6.21253">
        <ele>298.6</ele>
        <time>2014-09-11T12:38:25Z</time>
      </trkpt>
      <trkpt lat="47.54315" lon="6.21264">
        <ele>298.7</ele>
        <time>2014-09-11T12:38:28Z</time>
      </trkpt>
      <trkpt lat="47.54304" lon="6.21274">
        <ele>298.5</ele>
        <time>2014-09-11T12:38:31Z</time>
      </trkpt>
      <trkpt lat="47.54296" lon="6.21282">
        <ele>298.2</ele>
        <time>2014-09-11T12:38:33Z</time>
      </trkpt>
      <trkpt lat="47.54287" lon="6.21289">
        <ele>297.8</ele>
        <time>2014-09-11T12:38:35Z</time>
      </trkpt>
      <trkpt lat="47.54277" lon="6.21297">
        <ele>297.4</ele>
        <time>2014-09-11T12:38:37Z</time>
      </trkpt>
      <trkpt lat="47.54266" lon="6.21306">
        <ele>296.9</ele>
        <time>2014-09-11T12:38:39Z</time>
      </trkpt>
      <trkpt lat="47.54254" lon="6.21317">
        <ele>296.1</ele>
        <time>2014-09-11T12:38:41Z</time>
      </trkpt>
      <trkpt lat="47.5424" lon="6.21329">
        <ele>295.6</ele>
        <time>2014-09-11T12:38:43Z</time>
      </trkpt>
      <trkpt lat="47.54227" lon="6.21341">
        <ele>295.1</ele>
        <time>2014-09-11T12:38:45Z</time>
      </trkpt>
      <trkpt lat="47.54213" lon="6.21351">
        <ele>295.1</ele>
        <time>2014-09-11T12:38:47Z</time>
      </trkpt>
      <trkpt lat="47.542" lon="6.21359">
        <ele>295</ele>
        <time>2014-09-11T12:38:49Z</time>
      </trkpt>
      <trkpt lat="47.54188" lon="6.21364">
        <ele>294.6</ele>
        <time>2014-09-11T12:38:51Z</time>
      </trkpt>
      <trkpt lat="47.54176" lon="6.21368">
        <ele>294.3</ele>
        <time>2014-09-11T12:38:53Z</time>
      </trkpt>
      <trkpt lat="47.54165" lon="6.21372">
        <ele>294.4</ele>
        <time>2014-09-11T12:38:55Z</time>
      </trkpt>
      <trkpt lat="47.54154" lon="6.21375">
        <ele>294.4</ele>
        <time>2014-09-11T12:38:57Z</time>
      </trkpt>
      <trkpt lat="47.54143" lon="6.2138">
        <ele>294.4</ele>
        <time>2014-09-11T12:38:59Z</time>
      </trkpt>
      <trkpt lat="47.54132" lon="6.21387">
        <ele>294.3</ele>
        <time>2014-09-11T12:39:01Z</time>
      </trkpt>
      <trkpt lat="47.54121" lon="6.21393">
        <ele>294.2</ele>
        <time>2014-09-11T12:39:03Z</time>
      </trkpt>
      <trkpt lat="47.54111" lon="6.21399">
        <ele>294.2</ele>
        <time>2014-09-11T12:39:05Z</time>
      </trkpt>
      <trkpt lat="47.541" lon="6.21405">
        <ele>294.1</ele>
        <time>2014-09-11T12:39:07Z</time>
      </trkpt>
      <trkpt lat="47.5409" lon="6.21411">
        <ele>293.9</ele>
        <time>2014-09-11T12:39:09Z</time>
      </trkpt>
      <trkpt lat="47.54079" lon="6.21416">
        <ele>294</ele>
        <time>2014-09-11T12:39:11Z</time>
      </trkpt>
      <trkpt lat="47.5407" lon="6.21422">
        <ele>294.2</ele>
        <time>2014-09-11T12:39:13Z</time>
      </trkpt>
      <trkpt lat="47.54061" lon="6.21428">
        <ele>294.6</ele>
        <time>2014-09-11T12:39:15Z</time>
      </trkpt>
      <trkpt lat="47.54049" lon="6.21437">
        <ele>294.9</ele>
        <time>2014-09-11T12:39:18Z</time>
      </trkpt>
      <trkpt lat="47.54041" lon="6.21442">
        <ele>295</ele>
        <time>2014-09-11T12:39:20Z</time>
      </trkpt>
      <trkpt lat="47.5403" lon="6.21453">
        <ele>295.8</ele>
        <time>2014-09-11T12:39:23Z</time>
      </trkpt>
      <trkpt lat="47.5402" lon="6.21461">
        <ele>296.1</ele>
        <time>2014-09-11T12:39:26Z</time>
      </trkpt>
      <trkpt lat="47.54012" lon="6.21468">
        <ele>296.9</ele>
        <time>2014-09-11T12:39:29Z</time>
      </trkpt>
      <trkpt lat="47.54002" lon="6.21479">
        <ele>297.6</ele>
        <time>2014-09-11T12:39:33Z</time>
      </trkpt>
      <trkpt lat="47.53993" lon="6.21488">
        <ele>298.3</ele>
        <time>2014-09-11T12:39:37Z</time>
      </trkpt>
      <trkpt lat="47.53983" lon="6.21498">
        <ele>298.7</ele>
        <time>2014-09-11T12:39:41Z</time>
      </trkpt>
      <trkpt lat="47.53975" lon="6.21505">
        <ele>298.9</ele>
        <time>2014-09-11T12:39:44Z</time>
      </trkpt>
      <trkpt lat="47.53966" lon="6.21513">
        <ele>299</ele>
        <time>2014-09-11T12:39:47Z</time>
      </trkpt>
      <trkpt lat="47.53958" lon="6.2152">
        <ele>299.3</ele>
        <time>2014-09-11T12:39:50Z</time>
      </trkpt>
      <trkpt lat="47.5395" lon="6.21527">
        <ele>299.4</ele>
        <time>2014-09-11T12:39:53Z</time>
      </trkpt>
      <trkpt lat="47.53942" lon="6.21535">
        <ele>299.8</ele>
        <time>2014-09-11T12:39:56Z</time>
      </trkpt>
      <trkpt lat="47.53934" lon="6.21542">
        <ele>300</ele>
        <time>2014-09-11T12:39:59Z</time>
      </trkpt>
      <trkpt lat="47.53926" lon="6.2155">
        <ele>300.5</ele>
        <time>2014-09-11T12:40:02Z</time>
      </trkpt>
      <trkpt lat="47.53918" lon="6.21558">
        <ele>300.6</ele>
        <time>2014-09-11T12:40:05Z</time>
      </trkpt>
      <trkpt lat="47.5391" lon="6.21565">
        <ele>301</ele>
        <time>2014-09-11T12:40:08Z</time>
      </trkpt>
      <trkpt lat="47.53902" lon="6.21574">
        <ele>301.3</ele>
        <time>2014-09-11T12:40:11Z</time>
      </trkpt>
      <trkpt lat="47.53894" lon="6.21582">
        <ele>301.5</ele>
        <time>2014-09-11T12:40:14Z</time>
      </trkpt>
      <trkpt lat="47.53887" lon="6.21591">
        <ele>301.8</ele>
        <time>2014-09-11T12:40:17Z</time>
      </trkpt>
      <trkpt lat="47.53879" lon="6.21599">
        <ele>302.2</ele>
        <time>2014-09-11T12:40:20Z</time>
      </trkpt>
      <trkpt lat="47.53871" lon="6.21607">
        <ele>302.6</ele>
        <time>2014-09-11T12:40:23Z</time>
      </trkpt>
      <trkpt lat="47.53863" lon="6.21616">
        <ele>303.1</ele>
        <time>2014-09-11T12:40:26Z</time>
      </trkpt>
      <trkpt lat="47.53856" lon="6.21625">
        <ele>303.3</ele>
        <time>2014-09-11T12:40:29Z</time>
      </trkpt>
      <trkpt lat="47.53849" lon="6.21633">
        <ele>303.7</ele>
        <time>2014-09-11T12:40:32Z</time>
      </trkpt>
      <trkpt lat="47.53842" lon="6.21642">
        <ele>303.9</ele>
        <time>2014-09-11T12:40:35Z</time>
      </trkpt>
      <trkpt lat="47.53834" lon="6.21652">
        <ele>304.4</ele>
        <time>2014-09-11T12:40:38Z</time>
      </trkpt>
      <trkpt lat="47.53827" lon="6.21661">
        <ele>304.6</ele>
        <time>2014-09-11T12:40:41Z</time>
      </trkpt>
      <trkpt lat="47.53819" lon="6.21669">
        <ele>304.8</ele>
        <time>2014-09-11T12:40:44Z</time>
      </trkpt>
      <trkpt lat="47.53812" lon="6.21677">
        <ele>304.9</ele>
        <time>2014-09-11T12:40:47Z</time>
      </trkpt>
      <trkpt lat="47.53804" lon="6.21685">
        <ele>305.1</ele>
        <time>2014-09-11T12:40:50Z</time>
      </trkpt>
      <trkpt lat="47.53796" lon="6.21691">
        <ele>305.2</ele>
        <time>2014-09-11T12:40:53Z</time>
      </trkpt>
      <trkpt lat="47.53787" lon="6.21696">
        <ele>305.4</ele>
        <time>2014-09-11T12:40:56Z</time>
      </trkpt>
      <trkpt lat="47.53776" lon="6.21698">
        <ele>305.4</ele>
        <time>2014-09-11T12:40:59Z</time>
      </trkpt>
      <trkpt lat="47.53766" lon="6.21699">
        <ele>305.5</ele>
        <time>2014-09-11T12:41:02Z</time>
      </trkpt>
      <trkpt lat="47.53756" lon="6.217">
        <ele>305.7</ele>
        <time>2014-09-11T12:41:05Z</time>
      </trkpt>
      <trkpt lat="47.53744" lon="6.217">
        <ele>306</ele>
        <time>2014-09-11T12:41:09Z</time>
      </trkpt>
      <trkpt lat="47.53734" lon="6.217">
        <ele>306.3</ele>
        <time>2014-09-11T12:41:13Z</time>
      </trkpt>
      <trkpt lat="47.53724" lon="6.21698">
        <ele>307</ele>
        <time>2014-09-11T12:41:17Z</time>
      </trkpt>
      <trkpt lat="47.53715" lon="6.21697">
        <ele>307.6</ele>
        <time>2014-09-11T12:41:21Z</time>
      </trkpt>
      <trkpt lat="47.53705" lon="6.21696">
        <ele>308</ele>
        <time>2014-09-11T12:41:26Z</time>
      </trkpt>
      <trkpt lat="47.53694" lon="6.21694">
        <ele>308.6</ele>
        <time>2014-09-11T12:41:31Z</time>
      </trkpt>
      <trkpt lat="47.53684" lon="6.21692">
        <ele>309.3</ele>
        <time>2014-09-11T12:41:36Z</time>
      </trkpt>
      <trkpt lat="47.53674" lon="6.21691">
        <ele>310.4</ele>
        <time>2014-09-11T12:41:41Z</time>
      </trkpt>
      <trkpt lat="47.53664" lon="6.21691">
        <ele>311.7</ele>
        <time>2014-09-11T12:41:46Z</time>
      </trkpt>
      <trkpt lat="47.53654" lon="6.2169">
        <ele>312.1</ele>
        <time>2014-09-11T12:41:51Z</time>
      </trkpt>
      <trkpt lat="47.53643" lon="6.21689">
        <ele>313.4</ele>
        <time>2014-09-11T12:41:56Z</time>
      </trkpt>
      <trkpt lat="47.53632" lon="6.21688">
        <ele>314.5</ele>
        <time>2014-09-11T12:42:01Z</time>
      </trkpt>
      <trkpt lat="47.53623" lon="6.21689">
        <ele>315.9</ele>
        <time>2014-09-11T12:42:06Z</time>
      </trkpt>
      <trkpt lat="47.53614" lon="6.21689">
        <ele>317.1</ele>
        <time>2014-09-11T12:42:11Z</time>
      </trkpt>
      <trkpt lat="47.53604" lon="6.21689">
        <ele>318.3</ele>
        <time>2014-09-11T12:42:16Z</time>
      </trkpt>
      <trkpt lat="47.53595" lon="6.21689">
        <ele>319.3</ele>
        <time>2014-09-11T12:42:21Z</time>
      </trkpt>
      <trkpt lat="47.53585" lon="6.21689">
        <ele>320.3</ele>
        <time>2014-09-11T12:42:26Z</time>
      </trkpt>
      <trkpt lat="47.53576" lon="6.21691">
        <ele>321.2</ele>
        <time>2014-09-11T12:42:31Z</time>
      </trkpt>
      <trkpt lat="47.53565" lon="6.21694">
        <ele>322.2</ele>
        <time>2014-09-11T12:42:37Z</time>
      </trkpt>
      <trkpt lat="47.53555" lon="6.21697">
        <ele>323</ele>
        <time>2014-09-11T12:42:42Z</time>
      </trkpt>
      <trkpt lat="47.53546" lon="6.21699">
        <ele>323.6</ele>
        <time>2014-09-11T12:42:46Z</time>
      </trkpt>
      <trkpt lat="47.53535" lon="6.21701">
        <ele>324.3</ele>
        <time>2014-09-11T12:42:51Z</time>
      </trkpt>
      <trkpt lat="47.53525" lon="6.21701">
        <ele>325.1</ele>
        <time>2014-09-11T12:42:55Z</time>
      </trkpt>
      <trkpt lat="47.53516" lon="6.21703">
        <ele>325.5</ele>
        <time>2014-09-11T12:42:59Z</time>
      </trkpt>
      <trkpt lat="47.53505" lon="6.21706">
        <ele>326.7</ele>
        <time>2014-09-11T12:43:04Z</time>
      </trkpt>
      <trkpt lat="47.53495" lon="6.2171">
        <ele>327.3</ele>
        <time>2014-09-11T12:43:08Z</time>
      </trkpt>
      <trkpt lat="47.53486" lon="6.2171">
        <ele>328</ele>
        <time>2014-09-11T12:43:12Z</time>
      </trkpt>
      <trkpt lat="47.53475" lon="6.21711">
        <ele>328.6</ele>
        <time>2014-09-11T12:43:18Z</time>
      </trkpt>
      <trkpt lat="47.53466" lon="6.21715">
        <ele>329.2</ele>
        <time>2014-09-11T12:43:24Z</time>
      </trkpt>
      <trkpt lat="47.53455" lon="6.21715">
        <ele>329.5</ele>
        <time>2014-09-11T12:43:29Z</time>
      </trkpt>
      <trkpt lat="47.53445" lon="6.21715">
        <ele>329.5</ele>
        <time>2014-09-11T12:43:34Z</time>
      </trkpt>
      <trkpt lat="47.53434" lon="6.21719">
        <ele>329.9</ele>
        <time>2014-09-11T12:43:39Z</time>
      </trkpt>
      <trkpt lat="47.53424" lon="6.21724">
        <ele>330.4</ele>
        <time>2014-09-11T12:43:44Z</time>
      </trkpt>
      <trkpt lat="47.53414" lon="6.21728">
        <ele>330.8</ele>
        <time>2014-09-11T12:43:49Z</time>
      </trkpt>
      <trkpt lat="47.53404" lon="6.21729">
        <ele>331</ele>
        <time>2014-09-11T12:43:53Z</time>
      </trkpt>
      <trkpt lat="47.53395" lon="6.21734">
        <ele>331.3</ele>
        <time>2014-09-11T12:43:57Z</time>
      </trkpt>
      <trkpt lat="47.53385" lon="6.21741">
        <ele>331.6</ele>
        <time>2014-09-11T12:44:02Z</time>
      </trkpt>
      <trkpt lat="47.53375" lon="6.21746">
        <ele>331.9</ele>
        <time>2014-09-11T12:44:07Z</time>
      </trkpt>
      <trkpt lat="47.53365" lon="6.21748">
        <ele>332.4</ele>
        <time>2014-09-11T12:44:11Z</time>
      </trkpt>
      <trkpt lat="47.53356" lon="6.21749">
        <ele>332.6</ele>
        <time>2014-09-11T12:44:15Z</time>
      </trkpt>
      <trkpt lat="47.53347" lon="6.21751">
        <ele>332.9</ele>
        <time>2014-09-11T12:44:19Z</time>
      </trkpt>
      <trkpt lat="47.53337" lon="6.21753">
        <ele>333.4</ele>
        <time>2014-09-11T12:44:23Z</time>
      </trkpt>
      <trkpt lat="47.53327" lon="6.21754">
        <ele>333.4</ele>
        <time>2014-09-11T12:44:28Z</time>
      </trkpt>
      <trkpt lat="47.53316" lon="6.21758">
        <ele>333.8</ele>
        <time>2014-09-11T12:44:33Z</time>
      </trkpt>
      <trkpt lat="47.53307" lon="6.2176">
        <ele>333.9</ele>
        <time>2014-09-11T12:44:37Z</time>
      </trkpt>
      <trkpt lat="47.53296" lon="6.21765">
        <ele>334</ele>
        <time>2014-09-11T12:44:41Z</time>
      </trkpt>
      <trkpt lat="47.53285" lon="6.21768">
        <ele>334.2</ele>
        <time>2014-09-11T12:44:45Z</time>
      </trkpt>
      <trkpt lat="47.53276" lon="6.2177">
        <ele>334.4</ele>
        <time>2014-09-11T12:44:48Z</time>
      </trkpt>
      <trkpt lat="47.53264" lon="6.21771">
        <ele>334.5</ele>
        <time>2014-09-11T12:44:52Z</time>
      </trkpt>
      <trkpt lat="47.53255" lon="6.21772">
        <ele>334.5</ele>
        <time>2014-09-11T12:44:55Z</time>
      </trkpt>
      <trkpt lat="47.53243" lon="6.21774">
        <ele>334.5</ele>
        <time>2014-09-11T12:44:59Z</time>
      </trkpt>
      <trkpt lat="47.53232" lon="6.21774">
        <ele>334.7</ele>
        <time>2014-09-11T12:45:03Z</time>
      </trkpt>
      <trkpt lat="47.53222" lon="6.21776">
        <ele>334.7</ele>
        <time>2014-09-11T12:45:06Z</time>
      </trkpt>
      <trkpt lat="47.53213" lon="6.21777">
        <ele>335</ele>
        <time>2014-09-11T12:45:09Z</time>
      </trkpt>
      <trkpt lat="47.53204" lon="6.2178">
        <ele>335.3</ele>
        <time>2014-09-11T12:45:12Z</time>
      </trkpt>
      <trkpt lat="47.53194" lon="6.21781">
        <ele>335.4</ele>
        <time>2014-09-11T12:45:15Z</time>
      </trkpt>
      <trkpt lat="47.53185" lon="6.21784">
        <ele>335.8</ele>
        <time>2014-09-11T12:45:18Z</time>
      </trkpt>
      <trkpt lat="47.53177" lon="6.21789">
        <ele>335.9</ele>
        <time>2014-09-11T12:45:21Z</time>
      </trkpt>
      <trkpt lat="47.53166" lon="6.21796">
        <ele>336.8</ele>
        <time>2014-09-11T12:45:25Z</time>
      </trkpt>
      <trkpt lat="47.53156" lon="6.21806">
        <ele>337.9</ele>
        <time>2014-09-11T12:45:29Z</time>
      </trkpt>
      <trkpt lat="47.53147" lon="6.21818">
        <ele>338.8</ele>
        <time>2014-09-11T12:45:33Z</time>
      </trkpt>
      <trkpt lat="47.5314" lon="6.21831">
        <ele>339.9</ele>
        <time>2014-09-11T12:45:37Z</time>
      </trkpt>
      <trkpt lat="47.53131" lon="6.21842">
        <ele>341</ele>
        <time>2014-09-11T12:45:41Z</time>
      </trkpt>
      <trkpt lat="47.53123" lon="6.21851">
        <ele>341.5</ele>
        <time>2014-09-11T12:45:44Z</time>
      </trkpt>
      <trkpt lat="47.53116" lon="6.21859">
        <ele>342.2</ele>
        <time>2014-09-11T12:45:47Z</time>
      </trkpt>
      <trkpt lat="47.53108" lon="6.21867">
        <ele>342.7</ele>
        <time>2014-09-11T12:45:50Z</time>
      </trkpt>
      <trkpt lat="47.53101" lon="6.21875">
        <ele>343.2</ele>
        <time>2014-09-11T12:45:53Z</time>
      </trkpt>
      <trkpt lat="47.5309" lon="6.21882">
        <ele>343.6</ele>
        <time>2014-09-11T12:45:57Z</time>
      </trkpt>
      <trkpt lat="47.53081" lon="6.2189">
        <ele>344.2</ele>
        <time>2014-09-11T12:46:01Z</time>
      </trkpt>
      <trkpt lat="47.53072" lon="6.21897">
        <ele>344.8</ele>
        <time>2014-09-11T12:46:05Z</time>
      </trkpt>
      <trkpt lat="47.53063" lon="6.21905">
        <ele>345.1</ele>
        <time>2014-09-11T12:46:09Z</time>
      </trkpt>
      <trkpt lat="47.53052" lon="6.21916">
        <ele>345.3</ele>
        <time>2014-09-11T12:46:13Z</time>
      </trkpt>
      <trkpt lat="47.53042" lon="6.21923">
        <ele>345.4</ele>
        <time>2014-09-11T12:46:16Z</time>
      </trkpt>
      <trkpt lat="47.53033" lon="6.21929">
        <ele>345</ele>
        <time>2014-09-11T12:46:19Z</time>
      </trkpt>
      <trkpt lat="47.53023" lon="6.21937">
        <ele>344.8</ele>
        <time>2014-09-11T12:46:23Z</time>
      </trkpt>
      <trkpt lat="47.53012" lon="6.21943">
        <ele>344.7</ele>
        <time>2014-09-11T12:46:27Z</time>
      </trkpt>
      <trkpt lat="47.53003" lon="6.21947">
        <ele>344.4</ele>
        <time>2014-09-11T12:46:30Z</time>
      </trkpt>
      <trkpt lat="47.52994" lon="6.2195">
        <ele>344.3</ele>
        <time>2014-09-11T12:46:33Z</time>
      </trkpt>
      <trkpt lat="47.52986" lon="6.21957">
        <ele>344.1</ele>
        <time>2014-09-11T12:46:36Z</time>
      </trkpt>
      <trkpt lat="47.52976" lon="6.21962">
        <ele>344</ele>
        <time>2014-09-11T12:46:39Z</time>
      </trkpt>
      <trkpt lat="47.52964" lon="6.21968">
        <ele>343.8</ele>
        <time>2014-09-11T12:46:42Z</time>
      </trkpt>
      <trkpt lat="47.52954" lon="6.21972">
        <ele>343.4</ele>
        <time>2014-09-11T12:46:44Z</time>
      </trkpt>
      <trkpt lat="47.52944" lon="6.21976">
        <ele>342.9</ele>
        <time>2014-09-11T12:46:46Z</time>
      </trkpt>
      <trkpt lat="47.52934" lon="6.21979">
        <ele>342.4</ele>
        <time>2014-09-11T12:46:48Z</time>
      </trkpt>
      <trkpt lat="47.52925" lon="6.21982">
        <ele>342.1</ele>
        <time>2014-09-11T12:46:50Z</time>
      </trkpt>
      <trkpt lat="47.52915" lon="6.21986">
        <ele>341.9</ele>
        <time>2014-09-11T12:46:52Z</time>
      </trkpt>
      <trkpt lat="47.52906" lon="6.21989">
        <ele>341.4</ele>
        <time>2014-09-11T12:46:54Z</time>
      </trkpt>
      <trkpt lat="47.52897" lon="6.21992">
        <ele>341.2</ele>
        <time>2014-09-11T12:46:56Z</time>
      </trkpt>
      <trkpt lat="47.52888" lon="6.21995">
        <ele>341.2</ele>
        <time>2014-09-11T12:46:58Z</time>
      </trkpt>
      <trkpt lat="47.52877" lon="6.21998">
        <ele>340.9</ele>
        <time>2014-09-11T12:47:01Z</time>
      </trkpt>
      <trkpt lat="47.52866" lon="6.22001">
        <ele>340.6</ele>
        <time>2014-09-11T12:47:04Z</time>
      </trkpt>
      <trkpt lat="47.52857" lon="6.22004">
        <ele>340.5</ele>
        <time>2014-09-11T12:47:07Z</time>
      </trkpt>
      <trkpt lat="47.52848" lon="6.22007">
        <ele>340.4</ele>
        <time>2014-09-11T12:47:10Z</time>
      </trkpt>
      <trkpt lat="47.52838" lon="6.22012">
        <ele>340.3</ele>
        <time>2014-09-11T12:47:14Z</time>
      </trkpt>
      <trkpt lat="47.52828" lon="6.22015">
        <ele>339.9</ele>
        <time>2014-09-11T12:47:19Z</time>
      </trkpt>
      <trkpt lat="47.52818" lon="6.22015">
        <ele>339.5</ele>
        <time>2014-09-11T12:47:27Z</time>
      </trkpt>
      <trkpt lat="47.52812" lon="6.22005">
        <ele>339.1</ele>
        <time>2014-09-11T12:47:35Z</time>
      </trkpt>
      <trkpt lat="47.52819" lon="6.22016">
        <ele>339.2</ele>
        <time>2014-09-11T12:47:47Z</time>
      </trkpt>
      <trkpt lat="47.52825" lon="6.22026">
        <ele>338.9</ele>
        <time>2014-09-11T12:48:55Z</time>
      </trkpt>
      <trkpt lat="47.52836" lon="6.22021">
        <ele>339.1</ele>
        <time>2014-09-11T12:49:00Z</time>
      </trkpt>
      <trkpt lat="47.52847" lon="6.22018">
        <ele>339.3</ele>
        <time>2014-09-11T12:49:05Z</time>
      </trkpt>
      <trkpt lat="47.52858" lon="6.22014">
        <ele>339.3</ele>
        <time>2014-09-11T12:49:10Z</time>
      </trkpt>
      <trkpt lat="47.52868" lon="6.22012">
        <ele>339.3</ele>
        <time>2014-09-11T12:49:15Z</time>
      </trkpt>
      <trkpt lat="47.52878" lon="6.22009">
        <ele>339.4</ele>
        <time>2014-09-11T12:49:21Z</time>
      </trkpt>
      <trkpt lat="47.52889" lon="6.22008">
        <ele>339.2</ele>
        <time>2014-09-11T12:49:26Z</time>
      </trkpt>
      <trkpt lat="47.52898" lon="6.22005">
        <ele>339</ele>
        <time>2014-09-11T12:49:31Z</time>
      </trkpt>
      <trkpt lat="47.52909" lon="6.22001">
        <ele>339.1</ele>
        <time>2014-09-11T12:49:36Z</time>
      </trkpt>
      <trkpt lat="47.52918" lon="6.21997">
        <ele>339.3</ele>
        <time>2014-09-11T12:49:40Z</time>
      </trkpt>
      <trkpt lat="47.5291" lon="6.21991">
        <ele>339.2</ele>
        <time>2014-09-11T12:49:54Z</time>
      </trkpt>
      <trkpt lat="47.52899" lon="6.21992">
        <ele>339.1</ele>
        <time>2014-09-11T12:49:57Z</time>
      </trkpt>
      <trkpt lat="47.52888" lon="6.21994">
        <ele>338.9</ele>
        <time>2014-09-11T12:50:00Z</time>
      </trkpt>
      <trkpt lat="47.52876" lon="6.21997">
        <ele>338.7</ele>
        <time>2014-09-11T12:50:03Z</time>
      </trkpt>
      <trkpt lat="47.52865" lon="6.22001">
        <ele>338.7</ele>
        <time>2014-09-11T12:50:06Z</time>
      </trkpt>
      <trkpt lat="47.52853" lon="6.22004">
        <ele>338.6</ele>
        <time>2014-09-11T12:50:09Z</time>
      </trkpt>
      <trkpt lat="47.52841" lon="6.22008">
        <ele>338.5</ele>
        <time>2014-09-11T12:50:12Z</time>
      </trkpt>
      <trkpt lat="47.5283" lon="6.22012">
        <ele>338.4</ele>
        <time>2014-09-11T12:50:15Z</time>
      </trkpt>
      <trkpt lat="47.52817" lon="6.22018">
        <ele>338.1</ele>
        <time>2014-09-11T12:50:18Z</time>
      </trkpt>
      <trkpt lat="47.52809" lon="6.22022">
        <ele>338</ele>
        <time>2014-09-11T12:50:20Z</time>
      </trkpt>
      <trkpt lat="47.528" lon="6.22028">
        <ele>337.7</ele>
        <time>2014-09-11T12:50:22Z</time>
      </trkpt>
      <trkpt lat="47.52791" lon="6.22035">
        <ele>337.4</ele>
        <time>2014-09-11T12:50:24Z</time>
      </trkpt>
      <trkpt lat="47.52781" lon="6.22043">
        <ele>337</ele>
        <time>2014-09-11T12:50:26Z</time>
      </trkpt>
      <trkpt lat="47.52769" lon="6.2205">
        <ele>336.3</ele>
        <time>2014-09-11T12:50:28Z</time>
      </trkpt>
      <trkpt lat="47.52759" lon="6.22058">
        <ele>335.9</ele>
        <time>2014-09-11T12:50:30Z</time>
      </trkpt>
      <trkpt lat="47.52748" lon="6.22065">
        <ele>335.8</ele>
        <time>2014-09-11T12:50:32Z</time>
      </trkpt>
      <trkpt lat="47.52738" lon="6.22073">
        <ele>335.7</ele>
        <time>2014-09-11T12:50:34Z</time>
      </trkpt>
      <trkpt lat="47.52728" lon="6.2208">
        <ele>335.6</ele>
        <time>2014-09-11T12:50:36Z</time>
      </trkpt>
      <trkpt lat="47.52719" lon="6.22086">
        <ele>335.4</ele>
        <time>2014-09-11T12:50:38Z</time>
      </trkpt>
      <trkpt lat="47.5271" lon="6.22092">
        <ele>334.8</ele>
        <time>2014-09-11T12:50:40Z</time>
      </trkpt>
      <trkpt lat="47.52701" lon="6.22097">
        <ele>334.5</ele>
        <time>2014-09-11T12:50:42Z</time>
      </trkpt>
      <trkpt lat="47.52693" lon="6.22102">
        <ele>334.4</ele>
        <time>2014-09-11T12:50:44Z</time>
      </trkpt>
      <trkpt lat="47.52684" lon="6.22108">
        <ele>333.9</ele>
        <time>2014-09-11T12:50:46Z</time>
      </trkpt>
      <trkpt lat="47.52674" lon="6.22115">
        <ele>333.4</ele>
        <time>2014-09-11T12:50:48Z</time>
      </trkpt>
      <trkpt lat="47.52665" lon="6.22123">
        <ele>333</ele>
        <time>2014-09-11T12:50:50Z</time>
      </trkpt>
      <trkpt lat="47.52655" lon="6.22134">
        <ele>332.5</ele>
        <time>2014-09-11T12:50:52Z</time>
      </trkpt>
      <trkpt lat="47.52645" lon="6.22145">
        <ele>332.1</ele>
        <time>2014-09-11T12:50:54Z</time>
      </trkpt>
      <trkpt lat="47.52635" lon="6.22158">
        <ele>331.8</ele>
        <time>2014-09-11T12:50:56Z</time>
      </trkpt>
      <trkpt lat="47.52626" lon="6.2217">
        <ele>331.5</ele>
        <time>2014-09-11T12:50:58Z</time>
      </trkpt>
      <trkpt lat="47.52615" lon="6.2218">
        <ele>331</ele>
        <time>2014-09-11T12:51:00Z</time>
      </trkpt>
      <trkpt lat="47.52604" lon="6.22189">
        <ele>330.5</ele>
        <time>2014-09-11T12:51:02Z</time>
      </trkpt>
      <trkpt lat="47.52593" lon="6.22196">
        <ele>329.9</ele>
        <time>2014-09-11T12:51:04Z</time>
      </trkpt>
      <trkpt lat="47.52582" lon="6.22203">
        <ele>329.8</ele>
        <time>2014-09-11T12:51:06Z</time>
      </trkpt>
      <trkpt lat="47.52572" lon="6.2221">
        <ele>329.5</ele>
        <time>2014-09-11T12:51:08Z</time>
      </trkpt>
      <trkpt lat="47.52562" lon="6.22218">
        <ele>329.6</ele>
        <time>2014-09-11T12:51:10Z</time>
      </trkpt>
      <trkpt lat="47.52553" lon="6.22227">
        <ele>329.5</ele>
        <time>2014-09-11T12:51:12Z</time>
      </trkpt>
      <trkpt lat="47.52545" lon="6.22236">
        <ele>329.5</ele>
        <time>2014-09-11T12:51:14Z</time>
      </trkpt>
      <trkpt lat="47.52538" lon="6.22248">
        <ele>329.5</ele>
        <time>2014-09-11T12:51:16Z</time>
      </trkpt>
      <trkpt lat="47.52532" lon="6.2226">
        <ele>329.6</ele>
        <time>2014-09-11T12:51:18Z</time>
      </trkpt>
      <trkpt lat="47.52527" lon="6.22272">
        <ele>329.7</ele>
        <time>2014-09-11T12:51:20Z</time>
      </trkpt>
      <trkpt lat="47.52521" lon="6.22283">
        <ele>329.6</ele>
        <time>2014-09-11T12:51:22Z</time>
      </trkpt>
      <trkpt lat="47.52514" lon="6.22294">
        <ele>329.6</ele>
        <time>2014-09-11T12:51:24Z</time>
      </trkpt>
      <trkpt lat="47.52508" lon="6.22303">
        <ele>329.8</ele>
        <time>2014-09-11T12:51:26Z</time>
      </trkpt>
      <trkpt lat="47.52498" lon="6.22315">
        <ele>329.8</ele>
        <time>2014-09-11T12:51:29Z</time>
      </trkpt>
      <trkpt lat="47.52489" lon="6.22326">
        <ele>330.3</ele>
        <time>2014-09-11T12:51:32Z</time>
      </trkpt>
      <trkpt lat="47.52481" lon="6.22337">
        <ele>330.2</ele>
        <time>2014-09-11T12:51:35Z</time>
      </trkpt>
      <trkpt lat="47.52471" lon="6.22348">
        <ele>330.1</ele>
        <time>2014-09-11T12:51:38Z</time>
      </trkpt>
      <trkpt lat="47.52463" lon="6.22356">
        <ele>330.1</ele>
        <time>2014-09-11T12:51:40Z</time>
      </trkpt>
      <trkpt lat="47.52456" lon="6.22365">
        <ele>330</ele>
        <time>2014-09-11T12:51:42Z</time>
      </trkpt>
      <trkpt lat="47.52448" lon="6.22376">
        <ele>329.8</ele>
        <time>2014-09-11T12:51:44Z</time>
      </trkpt>
      <trkpt lat="47.5244" lon="6.22387">
        <ele>329.2</ele>
        <time>2014-09-11T12:51:46Z</time>
      </trkpt>
      <trkpt lat="47.52431" lon="6.22399">
        <ele>328.8</ele>
        <time>2014-09-11T12:51:48Z</time>
      </trkpt>
      <trkpt lat="47.52424" lon="6.22412">
        <ele>328.7</ele>
        <time>2014-09-11T12:51:50Z</time>
      </trkpt>
      <trkpt lat="47.52416" lon="6.22426">
        <ele>328.4</ele>
        <time>2014-09-11T12:51:52Z</time>
      </trkpt>
      <trkpt lat="47.52409" lon="6.22442">
        <ele>328.1</ele>
        <time>2014-09-11T12:51:54Z</time>
      </trkpt>
      <trkpt lat="47.52402" lon="6.22458">
        <ele>327.6</ele>
        <time>2014-09-11T12:51:56Z</time>
      </trkpt>
      <trkpt lat="47.52393" lon="6.22476">
        <ele>327</ele>
        <time>2014-09-11T12:51:58Z</time>
      </trkpt>
      <trkpt lat="47.52383" lon="6.22495">
        <ele>326.1</ele>
        <time>2014-09-11T12:52:00Z</time>
      </trkpt>
      <trkpt lat="47.5237" lon="6.22512">
        <ele>325</ele>
        <time>2014-09-11T12:52:02Z</time>
      </trkpt>
      <trkpt lat="47.52356" lon="6.22526">
        <ele>324.3</ele>
        <time>2014-09-11T12:52:04Z</time>
      </trkpt>
      <trkpt lat="47.52348" lon="6.22532">
        <ele>323.9</ele>
        <time>2014-09-11T12:52:05Z</time>
      </trkpt>
      <trkpt lat="47.5234" lon="6.22539">
        <ele>323.5</ele>
        <time>2014-09-11T12:52:06Z</time>
      </trkpt>
      <trkpt lat="47.52331" lon="6.22545">
        <ele>323.2</ele>
        <time>2014-09-11T12:52:07Z</time>
      </trkpt>
      <trkpt lat="47.52323" lon="6.22551">
        <ele>322.8</ele>
        <time>2014-09-11T12:52:08Z</time>
      </trkpt>
      <trkpt lat="47.52314" lon="6.22557">
        <ele>322.6</ele>
        <time>2014-09-11T12:52:09Z</time>
      </trkpt>
      <trkpt lat="47.52306" lon="6.22562">
        <ele>322.2</ele>
        <time>2014-09-11T12:52:10Z</time>
      </trkpt>
      <trkpt lat="47.52297" lon="6.22568">
        <ele>321.6</ele>
        <time>2014-09-11T12:52:11Z</time>
      </trkpt>
      <trkpt lat="47.52289" lon="6.22574">
        <ele>321.2</ele>
        <time>2014-09-11T12:52:12Z</time>
      </trkpt>
      <trkpt lat="47.5228" lon="6.22581">
        <ele>320.6</ele>
        <time>2014-09-11T12:52:13Z</time>
      </trkpt>
      <trkpt lat="47.52273" lon="6.22588">
        <ele>320.3</ele>
        <time>2014-09-11T12:52:14Z</time>
      </trkpt>
      <trkpt lat="47.52265" lon="6.22597">
        <ele>319.7</ele>
        <time>2014-09-11T12:52:15Z</time>
      </trkpt>
      <trkpt lat="47.52257" lon="6.22606">
        <ele>319.5</ele>
        <time>2014-09-11T12:52:16Z</time>
      </trkpt>
      <trkpt lat="47.52249" lon="6.22616">
        <ele>319</ele>
        <time>2014-09-11T12:52:17Z</time>
      </trkpt>
      <trkpt lat="47.52241" lon="6.22626">
        <ele>318.4</ele>
        <time>2014-09-11T12:52:18Z</time>
      </trkpt>
      <trkpt lat="47.52233" lon="6.22637">
        <ele>318.1</ele>
        <time>2014-09-11T12:52:19Z</time>
      </trkpt>
      <trkpt lat="47.52226" lon="6.22647">
        <ele>317.5</ele>
        <time>2014-09-11T12:52:20Z</time>
      </trkpt>
      <trkpt lat="47.52218" lon="6.22657">
        <ele>316.9</ele>
        <time>2014-09-11T12:52:21Z</time>
      </trkpt>
      <trkpt lat="47.5221" lon="6.22667">
        <ele>316.2</ele>
        <time>2014-09-11T12:52:22Z</time>
      </trkpt>
      <trkpt lat="47.52202" lon="6.22677">
        <ele>315.7</ele>
        <time>2014-09-11T12:52:23Z</time>
      </trkpt>
      <trkpt lat="47.52195" lon="6.22687">
        <ele>315.3</ele>
        <time>2014-09-11T12:52:24Z</time>
      </trkpt>
      <trkpt lat="47.52187" lon="6.22697">
        <ele>314.6</ele>
        <time>2014-09-11T12:52:25Z</time>
      </trkpt>
      <trkpt lat="47.5218" lon="6.22708">
        <ele>314.2</ele>
        <time>2014-09-11T12:52:26Z</time>
      </trkpt>
      <trkpt lat="47.52173" lon="6.22718">
        <ele>313.8</ele>
        <time>2014-09-11T12:52:27Z</time>
      </trkpt>
      <trkpt lat="47.52167" lon="6.22729">
        <ele>313.3</ele>
        <time>2014-09-11T12:52:28Z</time>
      </trkpt>
      <trkpt lat="47.5216" lon="6.22739">
        <ele>312.9</ele>
        <time>2014-09-11T12:52:29Z</time>
      </trkpt>
      <trkpt lat="47.52154" lon="6.2275">
        <ele>312.5</ele>
        <time>2014-09-11T12:52:30Z</time>
      </trkpt>
      <trkpt lat="47.52147" lon="6.22761">
        <ele>312</ele>
        <time>2014-09-11T12:52:31Z</time>
      </trkpt>
      <trkpt lat="47.5214" lon="6.22771">
        <ele>311.4</ele>
        <time>2014-09-11T12:52:32Z</time>
      </trkpt>
      <trkpt lat="47.52132" lon="6.2278">
        <ele>310.8</ele>
        <time>2014-09-11T12:52:33Z</time>
      </trkpt>
      <trkpt lat="47.52124" lon="6.22788">
        <ele>310.4</ele>
        <time>2014-09-11T12:52:34Z</time>
      </trkpt>
      <trkpt lat="47.52114" lon="6.22794">
        <ele>309.9</ele>
        <time>2014-09-11T12:52:35Z</time>
      </trkpt>
      <trkpt lat="47.52105" lon="6.22799">
        <ele>309.2</ele>
        <time>2014-09-11T12:52:36Z</time>
      </trkpt>
      <trkpt lat="47.52095" lon="6.22803">
        <ele>308.8</ele>
        <time>2014-09-11T12:52:37Z</time>
      </trkpt>
      <trkpt lat="47.52085" lon="6.22807">
        <ele>308.3</ele>
        <time>2014-09-11T12:52:38Z</time>
      </trkpt>
      <trkpt lat="47.52075" lon="6.2281">
        <ele>307.8</ele>
        <time>2014-09-11T12:52:39Z</time>
      </trkpt>
      <trkpt lat="47.52064" lon="6.22814">
        <ele>307.3</ele>
        <time>2014-09-11T12:52:40Z</time>
      </trkpt>
      <trkpt lat="47.52054" lon="6.22818">
        <ele>306.8</ele>
        <time>2014-09-11T12:52:41Z</time>
      </trkpt>
      <trkpt lat="47.52044" lon="6.22822">
        <ele>306.2</ele>
        <time>2014-09-11T12:52:42Z</time>
      </trkpt>
      <trkpt lat="47.52034" lon="6.22826">
        <ele>305.7</ele>
        <time>2014-09-11T12:52:43Z</time>
      </trkpt>
      <trkpt lat="47.52023" lon="6.22829">
        <ele>305.2</ele>
        <time>2014-09-11T12:52:44Z</time>
      </trkpt>
      <trkpt lat="47.52013" lon="6.22833">
        <ele>304.5</ele>
        <time>2014-09-11T12:52:45Z</time>
      </trkpt>
      <trkpt lat="47.52002" lon="6.22838">
        <ele>303.8</ele>
        <time>2014-09-11T12:52:46Z</time>
      </trkpt>
      <trkpt lat="47.51992" lon="6.22843">
        <ele>303.2</ele>
        <time>2014-09-11T12:52:47Z</time>
      </trkpt>
      <trkpt lat="47.51982" lon="6.22848">
        <ele>302.6</ele>
        <time>2014-09-11T12:52:48Z</time>
      </trkpt>
      <trkpt lat="47.51972" lon="6.22853">
        <ele>302.3</ele>
        <time>2014-09-11T12:52:49Z</time>
      </trkpt>
      <trkpt lat="47.51962" lon="6.2286">
        <ele>302</ele>
        <time>2014-09-11T12:52:50Z</time>
      </trkpt>
      <trkpt lat="47.51952" lon="6.22866">
        <ele>301.5</ele>
        <time>2014-09-11T12:52:51Z</time>
      </trkpt>
      <trkpt lat="47.51943" lon="6.22873">
        <ele>301.3</ele>
        <time>2014-09-11T12:52:52Z</time>
      </trkpt>
      <trkpt lat="47.51934" lon="6.2288">
        <ele>300.8</ele>
        <time>2014-09-11T12:52:53Z</time>
      </trkpt>
      <trkpt lat="47.51925" lon="6.22887">
        <ele>300.5</ele>
        <time>2014-09-11T12:52:54Z</time>
      </trkpt>
      <trkpt lat="47.51916" lon="6.22894">
        <ele>300.1</ele>
        <time>2014-09-11T12:52:55Z</time>
      </trkpt>
      <trkpt lat="47.51907" lon="6.229">
        <ele>299.6</ele>
        <time>2014-09-11T12:52:56Z</time>
      </trkpt>
      <trkpt lat="47.51897" lon="6.22905">
        <ele>299.1</ele>
        <time>2014-09-11T12:52:57Z</time>
      </trkpt>
      <trkpt lat="47.51888" lon="6.22908">
        <ele>298.7</ele>
        <time>2014-09-11T12:52:58Z</time>
      </trkpt>
      <trkpt lat="47.51878" lon="6.22911">
        <ele>298.2</ele>
        <time>2014-09-11T12:52:59Z</time>
      </trkpt>
      <trkpt lat="47.51868" lon="6.22912">
        <ele>297.6</ele>
        <time>2014-09-11T12:53:00Z</time>
      </trkpt>
      <trkpt lat="47.51858" lon="6.22914">
        <ele>297.1</ele>
        <time>2014-09-11T12:53:01Z</time>
      </trkpt>
      <trkpt lat="47.51849" lon="6.22916">
        <ele>296.3</ele>
        <time>2014-09-11T12:53:02Z</time>
      </trkpt>
      <trkpt lat="47.51839" lon="6.22917">
        <ele>295.7</ele>
        <time>2014-09-11T12:53:03Z</time>
      </trkpt>
      <trkpt lat="47.51823" lon="6.22917">
        <ele>294.4</ele>
        <time>2014-09-11T12:53:05Z</time>
      </trkpt>
      <trkpt lat="47.51811" lon="6.22913">
        <ele>293.2</ele>
        <time>2014-09-11T12:53:07Z</time>
      </trkpt>
      <trkpt lat="47.51799" lon="6.22908">
        <ele>292.3</ele>
        <time>2014-09-11T12:53:09Z</time>
      </trkpt>
      <trkpt lat="47.51787" lon="6.22904">
        <ele>291.7</ele>
        <time>2014-09-11T12:53:11Z</time>
      </trkpt>
      <trkpt lat="47.51775" lon="6.229">
        <ele>291.2</ele>
        <time>2014-09-11T12:53:13Z</time>
      </trkpt>
      <trkpt lat="47.51763" lon="6.22897">
        <ele>291.1</ele>
        <time>2014-09-11T12:53:15Z</time>
      </trkpt>
      <trkpt lat="47.51751" lon="6.22895">
        <ele>290.8</ele>
        <time>2014-09-11T12:53:17Z</time>
      </trkpt>
      <trkpt lat="47.51739" lon="6.22893">
        <ele>290.4</ele>
        <time>2014-09-11T12:53:19Z</time>
      </trkpt>
      <trkpt lat="47.51728" lon="6.22894">
        <ele>290.1</ele>
        <time>2014-09-11T12:53:21Z</time>
      </trkpt>
      <trkpt lat="47.51717" lon="6.22895">
        <ele>290</ele>
        <time>2014-09-11T12:53:23Z</time>
      </trkpt>
      <trkpt lat="47.51707" lon="6.22897">
        <ele>289.5</ele>
        <time>2014-09-11T12:53:25Z</time>
      </trkpt>
      <trkpt lat="47.51697" lon="6.22901">
        <ele>289.2</ele>
        <time>2014-09-11T12:53:27Z</time>
      </trkpt>
      <trkpt lat="47.51687" lon="6.22905">
        <ele>288.8</ele>
        <time>2014-09-11T12:53:29Z</time>
      </trkpt>
      <trkpt lat="47.51678" lon="6.2291">
        <ele>288.6</ele>
        <time>2014-09-11T12:53:31Z</time>
      </trkpt>
      <trkpt lat="47.51669" lon="6.22917">
        <ele>288.4</ele>
        <time>2014-09-11T12:53:33Z</time>
      </trkpt>
      <trkpt lat="47.5166" lon="6.22923">
        <ele>288.1</ele>
        <time>2014-09-11T12:53:35Z</time>
      </trkpt>
      <trkpt lat="47.5165" lon="6.22931">
        <ele>287.7</ele>
        <time>2014-09-11T12:53:37Z</time>
      </trkpt>
      <trkpt lat="47.51641" lon="6.2294">
        <ele>287.4</ele>
        <time>2014-09-11T12:53:39Z</time>
      </trkpt>
      <trkpt lat="47.51631" lon="6.2295">
        <ele>287.2</ele>
        <time>2014-09-11T12:53:41Z</time>
      </trkpt>
      <trkpt lat="47.51621" lon="6.2296">
        <ele>286.9</ele>
        <time>2014-09-11T12:53:43Z</time>
      </trkpt>
      <trkpt lat="47.5161" lon="6.22971">
        <ele>286.3</ele>
        <time>2014-09-11T12:53:45Z</time>
      </trkpt>
      <trkpt lat="47.516" lon="6.22983">
        <ele>285.7</ele>
        <time>2014-09-11T12:53:47Z</time>
      </trkpt>
      <trkpt lat="47.51589" lon="6.22997">
        <ele>285.1</ele>
        <time>2014-09-11T12:53:49Z</time>
      </trkpt>
      <trkpt lat="47.51578" lon="6.23012">
        <ele>284.4</ele>
        <time>2014-09-11T12:53:51Z</time>
      </trkpt>
      <trkpt lat="47.51566" lon="6.23028">
        <ele>283.2</ele>
        <time>2014-09-11T12:53:53Z</time>
      </trkpt>
      <trkpt lat="47.51553" lon="6.23043">
        <ele>281.7</ele>
        <time>2014-09-11T12:53:55Z</time>
      </trkpt>
      <trkpt lat="47.51541" lon="6.23055">
        <ele>280.3</ele>
        <time>2014-09-11T12:53:57Z</time>
      </trkpt>
      <trkpt lat="47.5153" lon="6.23066">
        <ele>279.2</ele>
        <time>2014-09-11T12:53:59Z</time>
      </trkpt>
      <trkpt lat="47.51519" lon="6.23076">
        <ele>278.2</ele>
        <time>2014-09-11T12:54:01Z</time>
      </trkpt>
      <trkpt lat="47.51508" lon="6.23087">
        <ele>277.4</ele>
        <time>2014-09-11T12:54:03Z</time>
      </trkpt>
      <trkpt lat="47.51497" lon="6.23098">
        <ele>276.9</ele>
        <time>2014-09-11T12:54:05Z</time>
      </trkpt>
      <trkpt lat="47.51487" lon="6.2311">
        <ele>276.3</ele>
        <time>2014-09-11T12:54:07Z</time>
      </trkpt>
      <trkpt lat="47.51478" lon="6.23123">
        <ele>275.8</ele>
        <time>2014-09-11T12:54:09Z</time>
      </trkpt>
      <trkpt lat="47.5147" lon="6.23135">
        <ele>275.6</ele>
        <time>2014-09-11T12:54:11Z</time>
      </trkpt>
      <trkpt lat="47.51462" lon="6.23146">
        <ele>275.1</ele>
        <time>2014-09-11T12:54:13Z</time>
      </trkpt>
      <trkpt lat="47.51455" lon="6.23157">
        <ele>274.8</ele>
        <time>2014-09-11T12:54:15Z</time>
      </trkpt>
      <trkpt lat="47.51448" lon="6.23167">
        <ele>274.5</ele>
        <time>2014-09-11T12:54:17Z</time>
      </trkpt>
      <trkpt lat="47.5144" lon="6.23177">
        <ele>274.2</ele>
        <time>2014-09-11T12:54:19Z</time>
      </trkpt>
      <trkpt lat="47.51432" lon="6.23185">
        <ele>274</ele>
        <time>2014-09-11T12:54:21Z</time>
      </trkpt>
      <trkpt lat="47.51425" lon="6.23193">
        <ele>273.7</ele>
        <time>2014-09-11T12:54:23Z</time>
      </trkpt>
      <trkpt lat="47.51417" lon="6.23201">
        <ele>273.4</ele>
        <time>2014-09-11T12:54:25Z</time>
      </trkpt>
      <trkpt lat="47.51408" lon="6.23207">
        <ele>273</ele>
        <time>2014-09-11T12:54:27Z</time>
      </trkpt>
      <trkpt lat="47.51397" lon="6.23216">
        <ele>272.4</ele>
        <time>2014-09-11T12:54:30Z</time>
      </trkpt>
      <trkpt lat="47.51386" lon="6.23222">
        <ele>271.7</ele>
        <time>2014-09-11T12:54:33Z</time>
      </trkpt>
      <trkpt lat="47.51374" lon="6.23231">
        <ele>271</ele>
        <time>2014-09-11T12:54:36Z</time>
      </trkpt>
      <trkpt lat="47.51365" lon="6.23237">
        <ele>270.6</ele>
        <time>2014-09-11T12:54:38Z</time>
      </trkpt>
      <trkpt lat="47.51356" lon="6.23244">
        <ele>270.3</ele>
        <time>2014-09-11T12:54:40Z</time>
      </trkpt>
      <trkpt lat="47.51347" lon="6.23251">
        <ele>269.6</ele>
        <time>2014-09-11T12:54:42Z</time>
      </trkpt>
      <trkpt lat="47.51337" lon="6.23258">
        <ele>269.1</ele>
        <time>2014-09-11T12:54:44Z</time>
      </trkpt>
      <trkpt lat="47.51328" lon="6.23264">
        <ele>268.8</ele>
        <time>2014-09-11T12:54:46Z</time>
      </trkpt>
      <trkpt lat="47.51318" lon="6.23267">
        <ele>268.4</ele>
        <time>2014-09-11T12:54:48Z</time>
      </trkpt>
      <trkpt lat="47.51307" lon="6.23269">
        <ele>267.8</ele>
        <time>2014-09-11T12:54:50Z</time>
      </trkpt>
      <trkpt lat="47.51296" lon="6.23269">
        <ele>267.2</ele>
        <time>2014-09-11T12:54:52Z</time>
      </trkpt>
      <trkpt lat="47.51284" lon="6.23267">
        <ele>266.8</ele>
        <time>2014-09-11T12:54:54Z</time>
      </trkpt>
      <trkpt lat="47.51272" lon="6.23266">
        <ele>266.2</ele>
        <time>2014-09-11T12:54:56Z</time>
      </trkpt>
      <trkpt lat="47.5126" lon="6.23264">
        <ele>265.2</ele>
        <time>2014-09-11T12:54:58Z</time>
      </trkpt>
      <trkpt lat="47.51248" lon="6.23261">
        <ele>264.4</ele>
        <time>2014-09-11T12:55:00Z</time>
      </trkpt>
      <trkpt lat="47.51236" lon="6.23258">
        <ele>263.3</ele>
        <time>2014-09-11T12:55:02Z</time>
      </trkpt>
      <trkpt lat="47.51225" lon="6.23256">
        <ele>262.2</ele>
        <time>2014-09-11T12:55:04Z</time>
      </trkpt>
      <trkpt lat="47.51215" lon="6.23253">
        <ele>260.9</ele>
        <time>2014-09-11T12:55:07Z</time>
      </trkpt>
      <trkpt lat="47.51206" lon="6.23251">
        <ele>258.2</ele>
        <time>2014-09-11T12:56:21Z</time>
      </trkpt>
      <trkpt lat="47.51196" lon="6.23247">
        <ele>258.1</ele>
        <time>2014-09-11T12:56:25Z</time>
      </trkpt>
      <trkpt lat="47.51189" lon="6.23257">
        <ele>258.2</ele>
        <time>2014-09-11T12:56:29Z</time>
      </trkpt>
      <trkpt lat="47.51185" lon="6.2327">
        <ele>257.9</ele>
        <time>2014-09-11T12:56:33Z</time>
      </trkpt>
      <trkpt lat="47.51176" lon="6.2328">
        <ele>258</ele>
        <time>2014-09-11T12:56:37Z</time>
      </trkpt>
      <trkpt lat="47.51167" lon="6.23291">
        <ele>258.2</ele>
        <time>2014-09-11T12:56:41Z</time>
      </trkpt>
      <trkpt lat="47.51158" lon="6.23302">
        <ele>257.8</ele>
        <time>2014-09-11T12:56:45Z</time>
      </trkpt>
      <trkpt lat="47.51151" lon="6.23312">
        <ele>257.1</ele>
        <time>2014-09-11T12:57:23Z</time>
      </trkpt>
      <trkpt lat="47.51143" lon="6.23323">
        <ele>257.5</ele>
        <time>2014-09-11T12:57:29Z</time>
      </trkpt>
      <trkpt lat="47.51147" lon="6.23335">
        <ele>257.2</ele>
        <time>2014-09-11T12:57:36Z</time>
      </trkpt>
      <trkpt lat="47.51152" lon="6.23348">
        <ele>256.8</ele>
        <time>2014-09-11T12:57:41Z</time>
      </trkpt>
      <trkpt lat="47.51156" lon="6.23363">
        <ele>256.7</ele>
        <time>2014-09-11T12:57:47Z</time>
      </trkpt>
      <trkpt lat="47.5116" lon="6.23349">
        <ele>256.5</ele>
        <time>2014-09-11T13:20:29Z</time>
      </trkpt>
      <trkpt lat="47.51153" lon="6.23339">
        <ele>256.4</ele>
        <time>2014-09-11T13:20:34Z</time>
      </trkpt>
      <trkpt lat="47.51144" lon="6.23334">
        <ele>257.1</ele>
        <time>2014-09-11T13:20:39Z</time>
      </trkpt>
      <trkpt lat="47.51136" lon="6.23327">
        <ele>257.6</ele>
        <time>2014-09-11T13:20:44Z</time>
      </trkpt>
      <trkpt lat="47.51126" lon="6.23319">
        <ele>258.1</ele>
        <time>2014-09-11T13:20:49Z</time>
      </trkpt>
      <trkpt lat="47.51119" lon="6.23308">
        <ele>258.8</ele>
        <time>2014-09-11T13:20:55Z</time>
      </trkpt>
      <trkpt lat="47.51113" lon="6.23296">
        <ele>259</ele>
        <time>2014-09-11T13:21:01Z</time>
      </trkpt>
      <trkpt lat="47.51108" lon="6.23285">
        <ele>259.1</ele>
        <time>2014-09-11T13:21:07Z</time>
      </trkpt>
      <trkpt lat="47.51099" lon="6.23281">
        <ele>258.9</ele>
        <time>2014-09-11T13:21:14Z</time>
      </trkpt>
      <trkpt lat="47.51102" lon="6.23267">
        <ele>259</ele>
        <time>2014-09-11T13:21:18Z</time>
      </trkpt>
      <trkpt lat="47.51106" lon="6.23255">
        <ele>258.8</ele>
        <time>2014-09-11T13:21:22Z</time>
      </trkpt>
      <trkpt lat="47.51107" lon="6.23241">
        <ele>258.5</ele>
        <time>2014-09-11T13:21:27Z</time>
      </trkpt>
      <trkpt lat="47.51105" lon="6.23226">
        <ele>258.7</ele>
        <time>2014-09-11T13:21:31Z</time>
      </trkpt>
      <trkpt lat="47.51102" lon="6.23211">
        <ele>258.6</ele>
        <time>2014-09-11T13:21:35Z</time>
      </trkpt>
      <trkpt lat="47.51099" lon="6.23197">
        <ele>258.5</ele>
        <time>2014-09-11T13:21:39Z</time>
      </trkpt>
      <trkpt lat="47.51095" lon="6.23184">
        <ele>258.6</ele>
        <time>2014-09-11T13:21:43Z</time>
      </trkpt>
      <trkpt lat="47.51091" lon="6.23171">
        <ele>258.9</ele>
        <time>2014-09-11T13:21:47Z</time>
      </trkpt>
      <trkpt lat="47.51086" lon="6.23158">
        <ele>258.9</ele>
        <time>2014-09-11T13:21:51Z</time>
      </trkpt>
      <trkpt lat="47.51079" lon="6.23146">
        <ele>258.7</ele>
        <time>2014-09-11T13:21:55Z</time>
      </trkpt>
      <trkpt lat="47.51069" lon="6.23136">
        <ele>258.4</ele>
        <time>2014-09-11T13:21:58Z</time>
      </trkpt>
      <trkpt lat="47.51061" lon="6.23128">
        <ele>258.3</ele>
        <time>2014-09-11T13:22:01Z</time>
      </trkpt>
      <trkpt lat="47.51053" lon="6.23119">
        <ele>258.1</ele>
        <time>2014-09-11T13:22:04Z</time>
      </trkpt>
      <trkpt lat="47.51045" lon="6.2311">
        <ele>257.8</ele>
        <time>2014-09-11T13:22:07Z</time>
      </trkpt>
      <trkpt lat="47.51037" lon="6.231">
        <ele>257.7</ele>
        <time>2014-09-11T13:22:10Z</time>
      </trkpt>
      <trkpt lat="47.51028" lon="6.23093">
        <ele>257.6</ele>
        <time>2014-09-11T13:22:13Z</time>
      </trkpt>
      <trkpt lat="47.51021" lon="6.23084">
        <ele>257.3</ele>
        <time>2014-09-11T13:22:16Z</time>
      </trkpt>
      <trkpt lat="47.51013" lon="6.23075">
        <ele>257</ele>
        <time>2014-09-11T13:22:19Z</time>
      </trkpt>
      <trkpt lat="47.51006" lon="6.23066">
        <ele>256.7</ele>
        <time>2014-09-11T13:22:22Z</time>
      </trkpt>
      <trkpt lat="47.50997" lon="6.23057">
        <ele>256.6</ele>
        <time>2014-09-11T13:22:25Z</time>
      </trkpt>
      <trkpt lat="47.50987" lon="6.23049">
        <ele>256.3</ele>
        <time>2014-09-11T13:22:28Z</time>
      </trkpt>
      <trkpt lat="47.50976" lon="6.2304">
        <ele>256</ele>
        <time>2014-09-11T13:22:31Z</time>
      </trkpt>
      <trkpt lat="47.50967" lon="6.23034">
        <ele>255.7</ele>
        <time>2014-09-11T13:22:33Z</time>
      </trkpt>
      <trkpt lat="47.50957" lon="6.23026">
        <ele>255.2</ele>
        <time>2014-09-11T13:22:35Z</time>
      </trkpt>
      <trkpt lat="47.50947" lon="6.23018">
        <ele>254.7</ele>
        <time>2014-09-11T13:22:37Z</time>
      </trkpt>
      <trkpt lat="47.50938" lon="6.23012">
        <ele>254</ele>
        <time>2014-09-11T13:22:39Z</time>
      </trkpt>
      <trkpt lat="47.50928" lon="6.23006">
        <ele>253.5</ele>
        <time>2014-09-11T13:22:41Z</time>
      </trkpt>
      <trkpt lat="47.50918" lon="6.23">
        <ele>253.3</ele>
        <time>2014-09-11T13:22:43Z</time>
      </trkpt>
      <trkpt lat="47.50909" lon="6.22995">
        <ele>253.2</ele>
        <time>2014-09-11T13:22:45Z</time>
      </trkpt>
      <trkpt lat="47.50897" lon="6.22987">
        <ele>253.1</ele>
        <time>2014-09-11T13:22:48Z</time>
      </trkpt>
      <trkpt lat="47.50887" lon="6.22981">
        <ele>253.3</ele>
        <time>2014-09-11T13:22:51Z</time>
      </trkpt>
      <trkpt lat="47.50878" lon="6.22973">
        <ele>253.2</ele>
        <time>2014-09-11T13:22:54Z</time>
      </trkpt>
      <trkpt lat="47.50869" lon="6.22968">
        <ele>253.1</ele>
        <time>2014-09-11T13:22:57Z</time>
      </trkpt>
      <trkpt lat="47.50859" lon="6.22961">
        <ele>253.4</ele>
        <time>2014-09-11T13:23:00Z</time>
      </trkpt>
      <trkpt lat="47.50848" lon="6.22955">
        <ele>253.4</ele>
        <time>2014-09-11T13:23:03Z</time>
      </trkpt>
      <trkpt lat="47.50838" lon="6.22949">
        <ele>253.2</ele>
        <time>2014-09-11T13:23:06Z</time>
      </trkpt>
      <trkpt lat="47.50827" lon="6.22943">
        <ele>253</ele>
        <time>2014-09-11T13:23:09Z</time>
      </trkpt>
      <trkpt lat="47.50816" lon="6.22936">
        <ele>252.6</ele>
        <time>2014-09-11T13:23:12Z</time>
      </trkpt>
      <trkpt lat="47.50803" lon="6.22929">
        <ele>252.2</ele>
        <time>2014-09-11T13:23:15Z</time>
      </trkpt>
      <trkpt lat="47.50791" lon="6.22922">
        <ele>252</ele>
        <time>2014-09-11T13:23:18Z</time>
      </trkpt>
      <trkpt lat="47.5078" lon="6.22914">
        <ele>251.5</ele>
        <time>2014-09-11T13:23:21Z</time>
      </trkpt>
      <trkpt lat="47.50769" lon="6.22907">
        <ele>251.1</ele>
        <time>2014-09-11T13:23:24Z</time>
      </trkpt>
      <trkpt lat="47.50758" lon="6.22899">
        <ele>250.7</ele>
        <time>2014-09-11T13:23:27Z</time>
      </trkpt>
      <trkpt lat="47.50747" lon="6.22892">
        <ele>250.6</ele>
        <time>2014-09-11T13:23:30Z</time>
      </trkpt>
      <trkpt lat="47.50738" lon="6.22886">
        <ele>250.3</ele>
        <time>2014-09-11T13:23:32Z</time>
      </trkpt>
      <trkpt lat="47.50726" lon="6.22877">
        <ele>250</ele>
        <time>2014-09-11T13:23:35Z</time>
      </trkpt>
      <trkpt lat="47.50717" lon="6.22871">
        <ele>249.9</ele>
        <time>2014-09-11T13:23:37Z</time>
      </trkpt>
      <trkpt lat="47.50709" lon="6.22865">
        <ele>249.9</ele>
        <time>2014-09-11T13:23:39Z</time>
      </trkpt>
      <trkpt lat="47.50701" lon="6.22859">
        <ele>249.8</ele>
        <time>2014-09-11T13:23:41Z</time>
      </trkpt>
      <trkpt lat="47.50692" lon="6.22852">
        <ele>250.3</ele>
        <time>2014-09-11T13:23:43Z</time>
      </trkpt>
      <trkpt lat="47.50684" lon="6.22845">
        <ele>250.1</ele>
        <time>2014-09-11T13:23:45Z</time>
      </trkpt>
      <trkpt lat="47.50676" lon="6.22838">
        <ele>250</ele>
        <time>2014-09-11T13:23:47Z</time>
      </trkpt>
      <trkpt lat="47.50668" lon="6.22831">
        <ele>250</ele>
        <time>2014-09-11T13:23:49Z</time>
      </trkpt>
      <trkpt lat="47.50659" lon="6.22824">
        <ele>249.9</ele>
        <time>2014-09-11T13:23:51Z</time>
      </trkpt>
      <trkpt lat="47.50652" lon="6.22817">
        <ele>249.7</ele>
        <time>2014-09-11T13:23:53Z</time>
      </trkpt>
      <trkpt lat="47.50641" lon="6.22806">
        <ele>249.6</ele>
        <time>2014-09-11T13:23:56Z</time>
      </trkpt>
      <trkpt lat="47.5063" lon="6.22796">
        <ele>249.6</ele>
        <time>2014-09-11T13:23:59Z</time>
      </trkpt>
      <trkpt lat="47.5062" lon="6.22784">
        <ele>249.8</ele>
        <time>2014-09-11T13:24:02Z</time>
      </trkpt>
      <trkpt lat="47.5061" lon="6.22772">
        <ele>249.7</ele>
        <time>2014-09-11T13:24:05Z</time>
      </trkpt>
      <trkpt lat="47.506" lon="6.2276">
        <ele>249.8</ele>
        <time>2014-09-11T13:24:08Z</time>
      </trkpt>
      <trkpt lat="47.50589" lon="6.22748">
        <ele>249.7</ele>
        <time>2014-09-11T13:24:11Z</time>
      </trkpt>
      <trkpt lat="47.50582" lon="6.2274">
        <ele>249.7</ele>
        <time>2014-09-11T13:24:13Z</time>
      </trkpt>
      <trkpt lat="47.50575" lon="6.22732">
        <ele>249.6</ele>
        <time>2014-09-11T13:24:15Z</time>
      </trkpt>
      <trkpt lat="47.50567" lon="6.22724">
        <ele>249.8</ele>
        <time>2014-09-11T13:24:17Z</time>
      </trkpt>
      <trkpt lat="47.50557" lon="6.22712">
        <ele>249.8</ele>
        <time>2014-09-11T13:24:20Z</time>
      </trkpt>
      <trkpt lat="47.5055" lon="6.22703">
        <ele>249.9</ele>
        <time>2014-09-11T13:24:22Z</time>
      </trkpt>
      <trkpt lat="47.50543" lon="6.22695">
        <ele>249.8</ele>
        <time>2014-09-11T13:24:24Z</time>
      </trkpt>
      <trkpt lat="47.50536" lon="6.22686">
        <ele>249.7</ele>
        <time>2014-09-11T13:24:26Z</time>
      </trkpt>
      <trkpt lat="47.50528" lon="6.22678">
        <ele>249.6</ele>
        <time>2014-09-11T13:24:28Z</time>
      </trkpt>
      <trkpt lat="47.50521" lon="6.22669">
        <ele>249.5</ele>
        <time>2014-09-11T13:24:30Z</time>
      </trkpt>
      <trkpt lat="47.50514" lon="6.2266">
        <ele>249.5</ele>
        <time>2014-09-11T13:24:32Z</time>
      </trkpt>
      <trkpt lat="47.50506" lon="6.22651">
        <ele>249.4</ele>
        <time>2014-09-11T13:24:34Z</time>
      </trkpt>
      <trkpt lat="47.50499" lon="6.22642">
        <ele>249.2</ele>
        <time>2014-09-11T13:24:36Z</time>
      </trkpt>
      <trkpt lat="47.50492" lon="6.22633">
        <ele>249.2</ele>
        <time>2014-09-11T13:24:38Z</time>
      </trkpt>
      <trkpt lat="47.50485" lon="6.22624">
        <ele>249.2</ele>
        <time>2014-09-11T13:24:40Z</time>
      </trkpt>
      <trkpt lat="47.50478" lon="6.22616">
        <ele>249</ele>
        <time>2014-09-11T13:24:42Z</time>
      </trkpt>
      <trkpt lat="47.50468" lon="6.22603">
        <ele>248.8</ele>
        <time>2014-09-11T13:24:45Z</time>
      </trkpt>
      <trkpt lat="47.50458" lon="6.22591">
        <ele>248.7</ele>
        <time>2014-09-11T13:24:48Z</time>
      </trkpt>
      <trkpt lat="47.50448" lon="6.2258">
        <ele>248.7</ele>
        <time>2014-09-11T13:24:51Z</time>
      </trkpt>
      <trkpt lat="47.50438" lon="6.22567">
        <ele>248.5</ele>
        <time>2014-09-11T13:24:54Z</time>
      </trkpt>
      <trkpt lat="47.50428" lon="6.22555">
        <ele>248.4</ele>
        <time>2014-09-11T13:24:57Z</time>
      </trkpt>
      <trkpt lat="47.50418" lon="6.22543">
        <ele>248.2</ele>
        <time>2014-09-11T13:25:00Z</time>
      </trkpt>
      <trkpt lat="47.50409" lon="6.22531">
        <ele>248.3</ele>
        <time>2014-09-11T13:25:03Z</time>
      </trkpt>
      <trkpt lat="47.50399" lon="6.22519">
        <ele>248.1</ele>
        <time>2014-09-11T13:25:06Z</time>
      </trkpt>
      <trkpt lat="47.50389" lon="6.22506">
        <ele>248.2</ele>
        <time>2014-09-11T13:25:09Z</time>
      </trkpt>
      <trkpt lat="47.50379" lon="6.22493">
        <ele>248.3</ele>
        <time>2014-09-11T13:25:12Z</time>
      </trkpt>
      <trkpt lat="47.50372" lon="6.22485">
        <ele>248.1</ele>
        <time>2014-09-11T13:25:14Z</time>
      </trkpt>
      <trkpt lat="47.50365" lon="6.22476">
        <ele>248.2</ele>
        <time>2014-09-11T13:25:16Z</time>
      </trkpt>
      <trkpt lat="47.50354" lon="6.22465">
        <ele>248.5</ele>
        <time>2014-09-11T13:25:19Z</time>
      </trkpt>
      <trkpt lat="47.50346" lon="6.22457">
        <ele>248.5</ele>
        <time>2014-09-11T13:25:21Z</time>
      </trkpt>
      <trkpt lat="47.50339" lon="6.22451">
        <ele>248.7</ele>
        <time>2014-09-11T13:25:23Z</time>
      </trkpt>
      <trkpt lat="47.50331" lon="6.22444">
        <ele>248.5</ele>
        <time>2014-09-11T13:25:25Z</time>
      </trkpt>
      <trkpt lat="47.50322" lon="6.22438">
        <ele>248.3</ele>
        <time>2014-09-11T13:25:27Z</time>
      </trkpt>
      <trkpt lat="47.50314" lon="6.22432">
        <ele>248.2</ele>
        <time>2014-09-11T13:25:29Z</time>
      </trkpt>
      <trkpt lat="47.50306" lon="6.22426">
        <ele>248.3</ele>
        <time>2014-09-11T13:25:31Z</time>
      </trkpt>
      <trkpt lat="47.50297" lon="6.22421">
        <ele>248.2</ele>
        <time>2014-09-11T13:25:33Z</time>
      </trkpt>
      <trkpt lat="47.50289" lon="6.22415">
        <ele>248.3</ele>
        <time>2014-09-11T13:25:35Z</time>
      </trkpt>
      <trkpt lat="47.50278" lon="6.22407">
        <ele>248.4</ele>
        <time>2014-09-11T13:25:38Z</time>
      </trkpt>
      <trkpt lat="47.50266" lon="6.22399">
        <ele>248.5</ele>
        <time>2014-09-11T13:25:41Z</time>
      </trkpt>
      <trkpt lat="47.50254" lon="6.2239">
        <ele>248.4</ele>
        <time>2014-09-11T13:25:44Z</time>
      </trkpt>
      <trkpt lat="47.50245" lon="6.22384">
        <ele>248.4</ele>
        <time>2014-09-11T13:25:46Z</time>
      </trkpt>
      <trkpt lat="47.50237" lon="6.22377">
        <ele>248.4</ele>
        <time>2014-09-11T13:25:48Z</time>
      </trkpt>
      <trkpt lat="47.50225" lon="6.22369">
        <ele>248.4</ele>
        <time>2014-09-11T13:25:51Z</time>
      </trkpt>
      <trkpt lat="47.50213" lon="6.2236">
        <ele>248.6</ele>
        <time>2014-09-11T13:25:54Z</time>
      </trkpt>
      <trkpt lat="47.50205" lon="6.22354">
        <ele>248.7</ele>
        <time>2014-09-11T13:25:56Z</time>
      </trkpt>
      <trkpt lat="47.50196" lon="6.22348">
        <ele>248.6</ele>
        <time>2014-09-11T13:25:58Z</time>
      </trkpt>
      <trkpt lat="47.50188" lon="6.22341">
        <ele>248.7</ele>
        <time>2014-09-11T13:26:00Z</time>
      </trkpt>
      <trkpt lat="47.5018" lon="6.22335">
        <ele>249</ele>
        <time>2014-09-11T13:26:02Z</time>
      </trkpt>
      <trkpt lat="47.50172" lon="6.22329">
        <ele>248.9</ele>
        <time>2014-09-11T13:26:04Z</time>
      </trkpt>
      <trkpt lat="47.50161" lon="6.22321">
        <ele>248.9</ele>
        <time>2014-09-11T13:26:07Z</time>
      </trkpt>
      <trkpt lat="47.5015" lon="6.22311">
        <ele>249.1</ele>
        <time>2014-09-11T13:26:10Z</time>
      </trkpt>
      <trkpt lat="47.5014" lon="6.22301">
        <ele>249.2</ele>
        <time>2014-09-11T13:26:13Z</time>
      </trkpt>
      <trkpt lat="47.5013" lon="6.22289">
        <ele>249.4</ele>
        <time>2014-09-11T13:26:16Z</time>
      </trkpt>
      <trkpt lat="47.5012" lon="6.22277">
        <ele>249.5</ele>
        <time>2014-09-11T13:26:19Z</time>
      </trkpt>
      <trkpt lat="47.50111" lon="6.22265">
        <ele>249.5</ele>
        <time>2014-09-11T13:26:22Z</time>
      </trkpt>
      <trkpt lat="47.50103" lon="6.22253">
        <ele>249.7</ele>
        <time>2014-09-11T13:26:25Z</time>
      </trkpt>
      <trkpt lat="47.50094" lon="6.22241">
        <ele>249.8</ele>
        <time>2014-09-11T13:26:28Z</time>
      </trkpt>
      <trkpt lat="47.50085" lon="6.22228">
        <ele>250</ele>
        <time>2014-09-11T13:26:31Z</time>
      </trkpt>
      <trkpt lat="47.50076" lon="6.22215">
        <ele>250.4</ele>
        <time>2014-09-11T13:26:34Z</time>
      </trkpt>
      <trkpt lat="47.50066" lon="6.22203">
        <ele>250.6</ele>
        <time>2014-09-11T13:26:37Z</time>
      </trkpt>
      <trkpt lat="47.50056" lon="6.22192">
        <ele>250.8</ele>
        <time>2014-09-11T13:26:40Z</time>
      </trkpt>
      <trkpt lat="47.50046" lon="6.22181">
        <ele>250.9</ele>
        <time>2014-09-11T13:26:43Z</time>
      </trkpt>
      <trkpt lat="47.50036" lon="6.22171">
        <ele>250.7</ele>
        <time>2014-09-11T13:26:46Z</time>
      </trkpt>
      <trkpt lat="47.50025" lon="6.22161">
        <ele>250.7</ele>
        <time>2014-09-11T13:26:49Z</time>
      </trkpt>
      <trkpt lat="47.50014" lon="6.22152">
        <ele>250.7</ele>
        <time>2014-09-11T13:26:52Z</time>
      </trkpt>
      <trkpt lat="47.50003" lon="6.22143">
        <ele>250.8</ele>
        <time>2014-09-11T13:26:55Z</time>
      </trkpt>
      <trkpt lat="47.49992" lon="6.22135">
        <ele>250.9</ele>
        <time>2014-09-11T13:26:58Z</time>
      </trkpt>
      <trkpt lat="47.4998" lon="6.22127">
        <ele>251.1</ele>
        <time>2014-09-11T13:27:01Z</time>
      </trkpt>
      <trkpt lat="47.49968" lon="6.22119">
        <ele>251.3</ele>
        <time>2014-09-11T13:27:04Z</time>
      </trkpt>
      <trkpt lat="47.49956" lon="6.22112">
        <ele>251.3</ele>
        <time>2014-09-11T13:27:07Z</time>
      </trkpt>
      <trkpt lat="47.49947" lon="6.22108">
        <ele>251.4</ele>
        <time>2014-09-11T13:27:09Z</time>
      </trkpt>
      <trkpt lat="47.49938" lon="6.22104">
        <ele>251.5</ele>
        <time>2014-09-11T13:27:11Z</time>
      </trkpt>
      <trkpt lat="47.49925" lon="6.22099">
        <ele>251.5</ele>
        <time>2014-09-11T13:27:14Z</time>
      </trkpt>
      <trkpt lat="47.49916" lon="6.22096">
        <ele>251.5</ele>
        <time>2014-09-11T13:27:16Z</time>
      </trkpt>
      <trkpt lat="47.49903" lon="6.22092">
        <ele>251.7</ele>
        <time>2014-09-11T13:27:19Z</time>
      </trkpt>
      <trkpt lat="47.4989" lon="6.22089">
        <ele>251.8</ele>
        <time>2014-09-11T13:27:22Z</time>
      </trkpt>
      <trkpt lat="47.49877" lon="6.22086">
        <ele>251.9</ele>
        <time>2014-09-11T13:27:25Z</time>
      </trkpt>
      <trkpt lat="47.49868" lon="6.22084">
        <ele>252.1</ele>
        <time>2014-09-11T13:27:27Z</time>
      </trkpt>
      <trkpt lat="47.49859" lon="6.22083">
        <ele>252.2</ele>
        <time>2014-09-11T13:27:29Z</time>
      </trkpt>
      <trkpt lat="47.49845" lon="6.22082">
        <ele>252.3</ele>
        <time>2014-09-11T13:27:32Z</time>
      </trkpt>
      <trkpt lat="47.49836" lon="6.22081">
        <ele>252.4</ele>
        <time>2014-09-11T13:27:34Z</time>
      </trkpt>
      <trkpt lat="47.49827" lon="6.2208">
        <ele>252.2</ele>
        <time>2014-09-11T13:27:36Z</time>
      </trkpt>
      <trkpt lat="47.49815" lon="6.22082">
        <ele>252.2</ele>
        <time>2014-09-11T13:27:39Z</time>
      </trkpt>
      <trkpt lat="47.49803" lon="6.22084">
        <ele>252.3</ele>
        <time>2014-09-11T13:27:42Z</time>
      </trkpt>
      <trkpt lat="47.49791" lon="6.22085">
        <ele>252.3</ele>
        <time>2014-09-11T13:27:45Z</time>
      </trkpt>
      <trkpt lat="47.49778" lon="6.22086">
        <ele>252.2</ele>
        <time>2014-09-11T13:27:48Z</time>
      </trkpt>
      <trkpt lat="47.49765" lon="6.22086">
        <ele>252.5</ele>
        <time>2014-09-11T13:27:51Z</time>
      </trkpt>
      <trkpt lat="47.49752" lon="6.22087">
        <ele>252.5</ele>
        <time>2014-09-11T13:27:54Z</time>
      </trkpt>
      <trkpt lat="47.4974" lon="6.22087">
        <ele>252.5</ele>
        <time>2014-09-11T13:27:57Z</time>
      </trkpt>
      <trkpt lat="47.49728" lon="6.22088">
        <ele>252.7</ele>
        <time>2014-09-11T13:28:00Z</time>
      </trkpt>
      <trkpt lat="47.49716" lon="6.22088">
        <ele>252.8</ele>
        <time>2014-09-11T13:28:03Z</time>
      </trkpt>
      <trkpt lat="47.49705" lon="6.22088">
        <ele>252.6</ele>
        <time>2014-09-11T13:28:06Z</time>
      </trkpt>
      <trkpt lat="47.49692" lon="6.22086">
        <ele>252.6</ele>
        <time>2014-09-11T13:28:09Z</time>
      </trkpt>
      <trkpt lat="47.49681" lon="6.22085">
        <ele>252.4</ele>
        <time>2014-09-11T13:28:12Z</time>
      </trkpt>
      <trkpt lat="47.49668" lon="6.22085">
        <ele>252.4</ele>
        <time>2014-09-11T13:28:15Z</time>
      </trkpt>
      <trkpt lat="47.49656" lon="6.22085">
        <ele>252.2</ele>
        <time>2014-09-11T13:28:18Z</time>
      </trkpt>
      <trkpt lat="47.49643" lon="6.22084">
        <ele>252.2</ele>
        <time>2014-09-11T13:28:21Z</time>
      </trkpt>
      <trkpt lat="47.49633" lon="6.22084">
        <ele>251.8</ele>
        <time>2014-09-11T13:28:23Z</time>
      </trkpt>
      <trkpt lat="47.49624" lon="6.22084">
        <ele>251.6</ele>
        <time>2014-09-11T13:28:25Z</time>
      </trkpt>
      <trkpt lat="47.49614" lon="6.22085">
        <ele>251.6</ele>
        <time>2014-09-11T13:28:27Z</time>
      </trkpt>
      <trkpt lat="47.49604" lon="6.22086">
        <ele>251.7</ele>
        <time>2014-09-11T13:28:29Z</time>
      </trkpt>
      <trkpt lat="47.49595" lon="6.22088">
        <ele>251.4</ele>
        <time>2014-09-11T13:28:31Z</time>
      </trkpt>
      <trkpt lat="47.49585" lon="6.22091">
        <ele>251.2</ele>
        <time>2014-09-11T13:28:33Z</time>
      </trkpt>
      <trkpt lat="47.49575" lon="6.22095">
        <ele>250.9</ele>
        <time>2014-09-11T13:28:35Z</time>
      </trkpt>
      <trkpt lat="47.49565" lon="6.221">
        <ele>250.9</ele>
        <time>2014-09-11T13:28:37Z</time>
      </trkpt>
      <trkpt lat="47.49554" lon="6.22105">
        <ele>250.6</ele>
        <time>2014-09-11T13:28:39Z</time>
      </trkpt>
      <trkpt lat="47.49543" lon="6.22113">
        <ele>250.1</ele>
        <time>2014-09-11T13:28:41Z</time>
      </trkpt>
      <trkpt lat="47.49532" lon="6.22123">
        <ele>249.6</ele>
        <time>2014-09-11T13:28:43Z</time>
      </trkpt>
      <trkpt lat="47.4952" lon="6.22134">
        <ele>249.3</ele>
        <time>2014-09-11T13:28:45Z</time>
      </trkpt>
      <trkpt lat="47.49509" lon="6.22147">
        <ele>249</ele>
        <time>2014-09-11T13:28:47Z</time>
      </trkpt>
      <trkpt lat="47.49498" lon="6.22163">
        <ele>248.5</ele>
        <time>2014-09-11T13:28:49Z</time>
      </trkpt>
      <trkpt lat="47.49488" lon="6.2218">
        <ele>248.1</ele>
        <time>2014-09-11T13:28:51Z</time>
      </trkpt>
      <trkpt lat="47.49478" lon="6.22199">
        <ele>247.6</ele>
        <time>2014-09-11T13:28:53Z</time>
      </trkpt>
      <trkpt lat="47.49469" lon="6.22219">
        <ele>247.3</ele>
        <time>2014-09-11T13:28:55Z</time>
      </trkpt>
      <trkpt lat="47.49459" lon="6.22238">
        <ele>246.8</ele>
        <time>2014-09-11T13:28:57Z</time>
      </trkpt>
      <trkpt lat="47.4945" lon="6.22256">
        <ele>246.3</ele>
        <time>2014-09-11T13:28:59Z</time>
      </trkpt>
      <trkpt lat="47.49441" lon="6.22273">
        <ele>246.1</ele>
        <time>2014-09-11T13:29:01Z</time>
      </trkpt>
      <trkpt lat="47.49432" lon="6.22288">
        <ele>246.1</ele>
        <time>2014-09-11T13:29:03Z</time>
      </trkpt>
      <trkpt lat="47.49424" lon="6.22301">
        <ele>246.2</ele>
        <time>2014-09-11T13:29:05Z</time>
      </trkpt>
      <trkpt lat="47.49416" lon="6.22311">
        <ele>246.3</ele>
        <time>2014-09-11T13:29:07Z</time>
      </trkpt>
      <trkpt lat="47.49408" lon="6.2232">
        <ele>246.3</ele>
        <time>2014-09-11T13:29:09Z</time>
      </trkpt>
      <trkpt lat="47.49396" lon="6.22329">
        <ele>246.3</ele>
        <time>2014-09-11T13:29:12Z</time>
      </trkpt>
      <trkpt lat="47.49388" lon="6.22335">
        <ele>246.6</ele>
        <time>2014-09-11T13:29:14Z</time>
      </trkpt>
      <trkpt lat="47.49379" lon="6.22341">
        <ele>246.7</ele>
        <time>2014-09-11T13:29:16Z</time>
      </trkpt>
      <trkpt lat="47.49371" lon="6.22346">
        <ele>247</ele>
        <time>2014-09-11T13:29:18Z</time>
      </trkpt>
      <trkpt lat="47.49358" lon="6.22353">
        <ele>247.5</ele>
        <time>2014-09-11T13:29:21Z</time>
      </trkpt>
      <trkpt lat="47.49345" lon="6.22357">
        <ele>247.8</ele>
        <time>2014-09-11T13:29:24Z</time>
      </trkpt>
      <trkpt lat="47.49332" lon="6.2236">
        <ele>247.9</ele>
        <time>2014-09-11T13:29:27Z</time>
      </trkpt>
      <trkpt lat="47.49323" lon="6.22361">
        <ele>247.9</ele>
        <time>2014-09-11T13:29:29Z</time>
      </trkpt>
      <trkpt lat="47.49314" lon="6.22361">
        <ele>248</ele>
        <time>2014-09-11T13:29:31Z</time>
      </trkpt>
      <trkpt lat="47.49305" lon="6.22362">
        <ele>247.9</ele>
        <time>2014-09-11T13:29:33Z</time>
      </trkpt>
      <trkpt lat="47.49295" lon="6.22362">
        <ele>248.1</ele>
        <time>2014-09-11T13:29:35Z</time>
      </trkpt>
      <trkpt lat="47.49282" lon="6.22362">
        <ele>248.2</ele>
        <time>2014-09-11T13:29:38Z</time>
      </trkpt>
      <trkpt lat="47.49269" lon="6.22363">
        <ele>248.3</ele>
        <time>2014-09-11T13:29:41Z</time>
      </trkpt>
      <trkpt lat="47.49256" lon="6.22363">
        <ele>248.5</ele>
        <time>2014-09-11T13:29:44Z</time>
      </trkpt>
      <trkpt lat="47.49243" lon="6.22362">
        <ele>248.6</ele>
        <time>2014-09-11T13:29:47Z</time>
      </trkpt>
      <trkpt lat="47.4923" lon="6.22361">
        <ele>248.6</ele>
        <time>2014-09-11T13:29:50Z</time>
      </trkpt>
      <trkpt lat="47.49217" lon="6.22361">
        <ele>248.6</ele>
        <time>2014-09-11T13:29:53Z</time>
      </trkpt>
      <trkpt lat="47.49205" lon="6.22361">
        <ele>248.7</ele>
        <time>2014-09-11T13:29:56Z</time>
      </trkpt>
      <trkpt lat="47.49192" lon="6.22361">
        <ele>249</ele>
        <time>2014-09-11T13:29:59Z</time>
      </trkpt>
      <trkpt lat="47.4918" lon="6.22362">
        <ele>249.2</ele>
        <time>2014-09-11T13:30:02Z</time>
      </trkpt>
      <trkpt lat="47.49168" lon="6.22362">
        <ele>249.2</ele>
        <time>2014-09-11T13:30:05Z</time>
      </trkpt>
      <trkpt lat="47.49155" lon="6.22362">
        <ele>249.5</ele>
        <time>2014-09-11T13:30:08Z</time>
      </trkpt>
      <trkpt lat="47.49142" lon="6.22363">
        <ele>249.5</ele>
        <time>2014-09-11T13:30:11Z</time>
      </trkpt>
      <trkpt lat="47.4913" lon="6.22365">
        <ele>249.7</ele>
        <time>2014-09-11T13:30:14Z</time>
      </trkpt>
      <trkpt lat="47.49121" lon="6.22364">
        <ele>249.7</ele>
        <time>2014-09-11T13:30:16Z</time>
      </trkpt>
      <trkpt lat="47.49112" lon="6.22363">
        <ele>249.7</ele>
        <time>2014-09-11T13:30:18Z</time>
      </trkpt>
      <trkpt lat="47.49099" lon="6.22363">
        <ele>249.9</ele>
        <time>2014-09-11T13:30:21Z</time>
      </trkpt>
      <trkpt lat="47.4909" lon="6.22363">
        <ele>250.1</ele>
        <time>2014-09-11T13:30:23Z</time>
      </trkpt>
      <trkpt lat="47.49077" lon="6.22363">
        <ele>250.3</ele>
        <time>2014-09-11T13:30:26Z</time>
      </trkpt>
      <trkpt lat="47.49064" lon="6.22363">
        <ele>250.5</ele>
        <time>2014-09-11T13:30:29Z</time>
      </trkpt>
      <trkpt lat="47.49052" lon="6.22363">
        <ele>250.9</ele>
        <time>2014-09-11T13:30:32Z</time>
      </trkpt>
      <trkpt lat="47.49042" lon="6.22367">
        <ele>251.2</ele>
        <time>2014-09-11T13:30:35Z</time>
      </trkpt>
      <trkpt lat="47.49033" lon="6.22374">
        <ele>251.6</ele>
        <time>2014-09-11T13:30:38Z</time>
      </trkpt>
      <trkpt lat="47.49027" lon="6.22385">
        <ele>251.7</ele>
        <time>2014-09-11T13:30:41Z</time>
      </trkpt>
      <trkpt lat="47.49023" lon="6.22398">
        <ele>251.7</ele>
        <time>2014-09-11T13:30:45Z</time>
      </trkpt>
      <trkpt lat="47.49013" lon="6.22401">
        <ele>251.9</ele>
        <time>2014-09-11T13:30:51Z</time>
      </trkpt>
      <trkpt lat="47.49004" lon="6.22405">
        <ele>252</ele>
        <time>2014-09-11T13:36:58Z</time>
      </trkpt>
      <trkpt lat="47.48995" lon="6.22406">
        <ele>252.2</ele>
        <time>2014-09-11T13:37:05Z</time>
      </trkpt>
      <trkpt lat="47.48985" lon="6.22409">
        <ele>252.4</ele>
        <time>2014-09-11T13:37:10Z</time>
      </trkpt>
      <trkpt lat="47.48976" lon="6.22412">
        <ele>252.5</ele>
        <time>2014-09-11T13:37:15Z</time>
      </trkpt>
      <trkpt lat="47.48967" lon="6.22415">
        <ele>252.7</ele>
        <time>2014-09-11T13:37:20Z</time>
      </trkpt>
      <trkpt lat="47.48958" lon="6.2242">
        <ele>252.8</ele>
        <time>2014-09-11T13:37:25Z</time>
      </trkpt>
      <trkpt lat="47.48948" lon="6.22424">
        <ele>252.9</ele>
        <time>2014-09-11T13:37:30Z</time>
      </trkpt>
      <trkpt lat="47.48938" lon="6.22426">
        <ele>253.1</ele>
        <time>2014-09-11T13:37:34Z</time>
      </trkpt>
      <trkpt lat="47.48927" lon="6.22429">
        <ele>253.2</ele>
        <time>2014-09-11T13:37:38Z</time>
      </trkpt>
      <trkpt lat="47.48917" lon="6.22434">
        <ele>253.4</ele>
        <time>2014-09-11T13:37:42Z</time>
      </trkpt>
      <trkpt lat="47.48907" lon="6.22439">
        <ele>253.5</ele>
        <time>2014-09-11T13:37:46Z</time>
      </trkpt>
      <trkpt lat="47.48895" lon="6.22443">
        <ele>253.4</ele>
        <time>2014-09-11T13:37:50Z</time>
      </trkpt>
      <trkpt lat="47.48885" lon="6.22448">
        <ele>253.7</ele>
        <time>2014-09-11T13:37:54Z</time>
      </trkpt>
      <trkpt lat="47.48874" lon="6.22452">
        <ele>254.1</ele>
        <time>2014-09-11T13:37:58Z</time>
      </trkpt>
      <trkpt lat="47.48864" lon="6.22459">
        <ele>254.3</ele>
        <time>2014-09-11T13:38:02Z</time>
      </trkpt>
      <trkpt lat="47.48853" lon="6.22467">
        <ele>254.3</ele>
        <time>2014-09-11T13:38:06Z</time>
      </trkpt>
      <trkpt lat="47.48844" lon="6.22474">
        <ele>254.7</ele>
        <time>2014-09-11T13:38:10Z</time>
      </trkpt>
      <trkpt lat="47.48836" lon="6.2248">
        <ele>254.8</ele>
        <time>2014-09-11T13:38:14Z</time>
      </trkpt>
      <trkpt lat="47.48828" lon="6.22488">
        <ele>255.1</ele>
        <time>2014-09-11T13:38:18Z</time>
      </trkpt>
      <trkpt lat="47.4882" lon="6.22496">
        <ele>255.3</ele>
        <time>2014-09-11T13:38:22Z</time>
      </trkpt>
      <trkpt lat="47.4881" lon="6.22502">
        <ele>255.6</ele>
        <time>2014-09-11T13:38:26Z</time>
      </trkpt>
      <trkpt lat="47.48802" lon="6.22512">
        <ele>255.8</ele>
        <time>2014-09-11T13:38:30Z</time>
      </trkpt>
      <trkpt lat="47.48794" lon="6.22519">
        <ele>255.9</ele>
        <time>2014-09-11T13:38:33Z</time>
      </trkpt>
      <trkpt lat="47.48785" lon="6.22526">
        <ele>255.9</ele>
        <time>2014-09-11T13:38:36Z</time>
      </trkpt>
      <trkpt lat="47.48777" lon="6.22535">
        <ele>256.1</ele>
        <time>2014-09-11T13:38:39Z</time>
      </trkpt>
      <trkpt lat="47.48769" lon="6.22546">
        <ele>256.2</ele>
        <time>2014-09-11T13:38:43Z</time>
      </trkpt>
      <trkpt lat="47.4876" lon="6.22557">
        <ele>256.2</ele>
        <time>2014-09-11T13:38:47Z</time>
      </trkpt>
      <trkpt lat="47.48752" lon="6.2257">
        <ele>256.4</ele>
        <time>2014-09-11T13:38:51Z</time>
      </trkpt>
      <trkpt lat="47.48745" lon="6.2258">
        <ele>256.6</ele>
        <time>2014-09-11T13:38:54Z</time>
      </trkpt>
      <trkpt lat="47.48738" lon="6.2259">
        <ele>256.8</ele>
        <time>2014-09-11T13:38:57Z</time>
      </trkpt>
      <trkpt lat="47.48731" lon="6.22599">
        <ele>256.9</ele>
        <time>2014-09-11T13:39:00Z</time>
      </trkpt>
      <trkpt lat="47.48724" lon="6.22609">
        <ele>257.1</ele>
        <time>2014-09-11T13:39:03Z</time>
      </trkpt>
      <trkpt lat="47.48716" lon="6.22621">
        <ele>257.2</ele>
        <time>2014-09-11T13:39:06Z</time>
      </trkpt>
      <trkpt lat="47.48709" lon="6.22632">
        <ele>257.3</ele>
        <time>2014-09-11T13:39:09Z</time>
      </trkpt>
      <trkpt lat="47.48702" lon="6.22644">
        <ele>257.5</ele>
        <time>2014-09-11T13:39:12Z</time>
      </trkpt>
      <trkpt lat="47.48696" lon="6.22656">
        <ele>257.7</ele>
        <time>2014-09-11T13:39:15Z</time>
      </trkpt>
      <trkpt lat="47.48689" lon="6.22668">
        <ele>257.9</ele>
        <time>2014-09-11T13:39:18Z</time>
      </trkpt>
      <trkpt lat="47.48683" lon="6.22679">
        <ele>258</ele>
        <time>2014-09-11T13:39:21Z</time>
      </trkpt>
      <trkpt lat="47.48677" lon="6.22694">
        <ele>258.2</ele>
        <time>2014-09-11T13:39:25Z</time>
      </trkpt>
      <trkpt lat="47.48671" lon="6.22707">
        <ele>258.1</ele>
        <time>2014-09-11T13:39:29Z</time>
      </trkpt>
      <trkpt lat="47.48664" lon="6.22722">
        <ele>257.3</ele>
        <time>2014-09-11T13:39:33Z</time>
      </trkpt>
      <trkpt lat="47.48661" lon="6.22739">
        <ele>256.3</ele>
        <time>2014-09-11T13:39:36Z</time>
      </trkpt>
      <trkpt lat="47.48662" lon="6.22753">
        <ele>255.1</ele>
        <time>2014-09-11T13:39:39Z</time>
      </trkpt>
      <trkpt lat="47.48658" lon="6.22765">
        <ele>254.3</ele>
        <time>2014-09-11T13:39:43Z</time>
      </trkpt>
      <trkpt lat="47.4865" lon="6.22759">
        <ele>254.3</ele>
        <time>2014-09-11T13:39:49Z</time>
      </trkpt>
      <trkpt lat="47.48646" lon="6.22744">
        <ele>255.2</ele>
        <time>2014-09-11T13:39:55Z</time>
      </trkpt>
      <trkpt lat="47.48641" lon="6.22732">
        <ele>256.4</ele>
        <time>2014-09-11T13:40:01Z</time>
      </trkpt>
      <trkpt lat="47.48637" lon="6.22747">
        <ele>257.1</ele>
        <time>2014-09-11T13:40:07Z</time>
      </trkpt>
      <trkpt lat="47.48637" lon="6.2276">
        <ele>257.4</ele>
        <time>2014-09-11T13:40:11Z</time>
      </trkpt>
      <trkpt lat="47.48636" lon="6.22776">
        <ele>257.9</ele>
        <time>2014-09-11T13:40:16Z</time>
      </trkpt>
      <trkpt lat="47.48636" lon="6.22791">
        <ele>258.8</ele>
        <time>2014-09-11T13:40:22Z</time>
      </trkpt>
      <trkpt lat="47.48638" lon="6.22804">
        <ele>259.9</ele>
        <time>2014-09-11T13:40:27Z</time>
      </trkpt>
      <trkpt lat="47.48636" lon="6.2282">
        <ele>260.2</ele>
        <time>2014-09-11T13:40:33Z</time>
      </trkpt>
      <trkpt lat="47.48632" lon="6.22833">
        <ele>260.5</ele>
        <time>2014-09-11T13:40:37Z</time>
      </trkpt>
      <trkpt lat="47.48628" lon="6.22846">
        <ele>260.7</ele>
        <time>2014-09-11T13:40:41Z</time>
      </trkpt>
      <trkpt lat="47.48626" lon="6.22859">
        <ele>260.6</ele>
        <time>2014-09-11T13:40:45Z</time>
      </trkpt>
      <trkpt lat="47.4862" lon="6.22872">
        <ele>261.1</ele>
        <time>2014-09-11T13:40:49Z</time>
      </trkpt>
      <trkpt lat="47.48617" lon="6.22886">
        <ele>261.4</ele>
        <time>2014-09-11T13:40:53Z</time>
      </trkpt>
      <trkpt lat="47.48613" lon="6.229">
        <ele>261.4</ele>
        <time>2014-09-11T13:40:57Z</time>
      </trkpt>
      <trkpt lat="47.48608" lon="6.22911">
        <ele>261.5</ele>
        <time>2014-09-11T13:41:01Z</time>
      </trkpt>
      <trkpt lat="47.48602" lon="6.22926">
        <ele>261.8</ele>
        <time>2014-09-11T13:41:05Z</time>
      </trkpt>
      <trkpt lat="47.48598" lon="6.2294">
        <ele>261.9</ele>
        <time>2014-09-11T13:41:08Z</time>
      </trkpt>
      <trkpt lat="47.48595" lon="6.22955">
        <ele>262</ele>
        <time>2014-09-11T13:41:11Z</time>
      </trkpt>
      <trkpt lat="47.4859" lon="6.22969">
        <ele>262</ele>
        <time>2014-09-11T13:41:15Z</time>
      </trkpt>
      <trkpt lat="47.48587" lon="6.22982">
        <ele>262.1</ele>
        <time>2014-09-11T13:41:18Z</time>
      </trkpt>
      <trkpt lat="47.48584" lon="6.22995">
        <ele>262.2</ele>
        <time>2014-09-11T13:41:21Z</time>
      </trkpt>
      <trkpt lat="47.48581" lon="6.2301">
        <ele>262.4</ele>
        <time>2014-09-11T13:41:25Z</time>
      </trkpt>
      <trkpt lat="47.48575" lon="6.23024">
        <ele>262.6</ele>
        <time>2014-09-11T13:41:29Z</time>
      </trkpt>
      <trkpt lat="47.48572" lon="6.23038">
        <ele>262.7</ele>
        <time>2014-09-11T13:41:33Z</time>
      </trkpt>
      <trkpt lat="47.48569" lon="6.23053">
        <ele>263.1</ele>
        <time>2014-09-11T13:41:37Z</time>
      </trkpt>
      <trkpt lat="47.48565" lon="6.23066">
        <ele>263.4</ele>
        <time>2014-09-11T13:41:40Z</time>
      </trkpt>
      <trkpt lat="47.48562" lon="6.23081">
        <ele>263.4</ele>
        <time>2014-09-11T13:41:43Z</time>
      </trkpt>
      <trkpt lat="47.48558" lon="6.23097">
        <ele>263.8</ele>
        <time>2014-09-11T13:41:47Z</time>
      </trkpt>
      <trkpt lat="47.48553" lon="6.23112">
        <ele>264.1</ele>
        <time>2014-09-11T13:41:51Z</time>
      </trkpt>
      <trkpt lat="47.48548" lon="6.23127">
        <ele>264.4</ele>
        <time>2014-09-11T13:41:55Z</time>
      </trkpt>
      <trkpt lat="47.48543" lon="6.23139">
        <ele>264.4</ele>
        <time>2014-09-11T13:41:58Z</time>
      </trkpt>
      <trkpt lat="47.48538" lon="6.2315">
        <ele>264.9</ele>
        <time>2014-09-11T13:42:01Z</time>
      </trkpt>
      <trkpt lat="47.48532" lon="6.23161">
        <ele>265</ele>
        <time>2014-09-11T13:42:04Z</time>
      </trkpt>
      <trkpt lat="47.48527" lon="6.23173">
        <ele>265</ele>
        <time>2014-09-11T13:42:07Z</time>
      </trkpt>
      <trkpt lat="47.48521" lon="6.23186">
        <ele>265.2</ele>
        <time>2014-09-11T13:42:11Z</time>
      </trkpt>
      <trkpt lat="47.48514" lon="6.23199">
        <ele>265.2</ele>
        <time>2014-09-11T13:42:15Z</time>
      </trkpt>
      <trkpt lat="47.48508" lon="6.2321">
        <ele>265.4</ele>
        <time>2014-09-11T13:42:18Z</time>
      </trkpt>
      <trkpt lat="47.48502" lon="6.23221">
        <ele>265.6</ele>
        <time>2014-09-11T13:42:21Z</time>
      </trkpt>
      <trkpt lat="47.48496" lon="6.23232">
        <ele>265.7</ele>
        <time>2014-09-11T13:42:24Z</time>
      </trkpt>
      <trkpt lat="47.4849" lon="6.23247">
        <ele>265.8</ele>
        <time>2014-09-11T13:42:28Z</time>
      </trkpt>
      <trkpt lat="47.48484" lon="6.23257">
        <ele>265.9</ele>
        <time>2014-09-11T13:42:31Z</time>
      </trkpt>
      <trkpt lat="47.48478" lon="6.23267">
        <ele>265.9</ele>
        <time>2014-09-11T13:42:34Z</time>
      </trkpt>
      <trkpt lat="47.48472" lon="6.23276">
        <ele>266.2</ele>
        <time>2014-09-11T13:42:37Z</time>
      </trkpt>
      <trkpt lat="47.48465" lon="6.2329">
        <ele>266.3</ele>
        <time>2014-09-11T13:42:41Z</time>
      </trkpt>
      <trkpt lat="47.48458" lon="6.23303">
        <ele>266.2</ele>
        <time>2014-09-11T13:42:45Z</time>
      </trkpt>
      <trkpt lat="47.48451" lon="6.23312">
        <ele>266.2</ele>
        <time>2014-09-11T13:42:48Z</time>
      </trkpt>
      <trkpt lat="47.48442" lon="6.23322">
        <ele>266.3</ele>
        <time>2014-09-11T13:42:52Z</time>
      </trkpt>
      <trkpt lat="47.48434" lon="6.23331">
        <ele>266.4</ele>
        <time>2014-09-11T13:42:55Z</time>
      </trkpt>
      <trkpt lat="47.48425" lon="6.23342">
        <ele>266.5</ele>
        <time>2014-09-11T13:42:59Z</time>
      </trkpt>
      <trkpt lat="47.48415" lon="6.23352">
        <ele>266.8</ele>
        <time>2014-09-11T13:43:03Z</time>
      </trkpt>
      <trkpt lat="47.48406" lon="6.23361">
        <ele>267</ele>
        <time>2014-09-11T13:43:07Z</time>
      </trkpt>
      <trkpt lat="47.48398" lon="6.23368">
        <ele>267</ele>
        <time>2014-09-11T13:43:10Z</time>
      </trkpt>
      <trkpt lat="47.48388" lon="6.23375">
        <ele>267.4</ele>
        <time>2014-09-11T13:43:13Z</time>
      </trkpt>
      <trkpt lat="47.48379" lon="6.23382">
        <ele>267.7</ele>
        <time>2014-09-11T13:43:16Z</time>
      </trkpt>
      <trkpt lat="47.48371" lon="6.23388">
        <ele>267.9</ele>
        <time>2014-09-11T13:43:19Z</time>
      </trkpt>
      <trkpt lat="47.48363" lon="6.23395">
        <ele>268</ele>
        <time>2014-09-11T13:43:22Z</time>
      </trkpt>
      <trkpt lat="47.48354" lon="6.23401">
        <ele>268.2</ele>
        <time>2014-09-11T13:43:25Z</time>
      </trkpt>
      <trkpt lat="47.48345" lon="6.23407">
        <ele>268.4</ele>
        <time>2014-09-11T13:43:28Z</time>
      </trkpt>
      <trkpt lat="47.48336" lon="6.23413">
        <ele>268.5</ele>
        <time>2014-09-11T13:43:31Z</time>
      </trkpt>
      <trkpt lat="47.48326" lon="6.2342">
        <ele>268.8</ele>
        <time>2014-09-11T13:43:35Z</time>
      </trkpt>
      <trkpt lat="47.48317" lon="6.23425">
        <ele>269.1</ele>
        <time>2014-09-11T13:43:38Z</time>
      </trkpt>
      <trkpt lat="47.48309" lon="6.23431">
        <ele>269.5</ele>
        <time>2014-09-11T13:43:41Z</time>
      </trkpt>
      <trkpt lat="47.483" lon="6.23437">
        <ele>269.5</ele>
        <time>2014-09-11T13:43:44Z</time>
      </trkpt>
      <trkpt lat="47.4829" lon="6.23443">
        <ele>269.5</ele>
        <time>2014-09-11T13:43:47Z</time>
      </trkpt>
      <trkpt lat="47.4828" lon="6.23448">
        <ele>269.7</ele>
        <time>2014-09-11T13:43:50Z</time>
      </trkpt>
      <trkpt lat="47.48271" lon="6.23451">
        <ele>269.7</ele>
        <time>2014-09-11T13:43:53Z</time>
      </trkpt>
      <trkpt lat="47.48262" lon="6.23455">
        <ele>269.7</ele>
        <time>2014-09-11T13:43:56Z</time>
      </trkpt>
      <trkpt lat="47.48252" lon="6.23459">
        <ele>269.8</ele>
        <time>2014-09-11T13:43:59Z</time>
      </trkpt>
      <trkpt lat="47.48242" lon="6.23462">
        <ele>270</ele>
        <time>2014-09-11T13:44:02Z</time>
      </trkpt>
      <trkpt lat="47.48233" lon="6.23466">
        <ele>270.3</ele>
        <time>2014-09-11T13:44:05Z</time>
      </trkpt>
      <trkpt lat="47.48223" lon="6.23468">
        <ele>270.5</ele>
        <time>2014-09-11T13:44:08Z</time>
      </trkpt>
      <trkpt lat="47.48213" lon="6.23469">
        <ele>270.7</ele>
        <time>2014-09-11T13:44:11Z</time>
      </trkpt>
      <trkpt lat="47.48204" lon="6.23471">
        <ele>270.7</ele>
        <time>2014-09-11T13:44:14Z</time>
      </trkpt>
      <trkpt lat="47.48194" lon="6.23471">
        <ele>270.8</ele>
        <time>2014-09-11T13:44:17Z</time>
      </trkpt>
      <trkpt lat="47.48184" lon="6.23472">
        <ele>270.9</ele>
        <time>2014-09-11T13:44:20Z</time>
      </trkpt>
      <trkpt lat="47.48174" lon="6.23472">
        <ele>271.3</ele>
        <time>2014-09-11T13:44:23Z</time>
      </trkpt>
      <trkpt lat="47.48164" lon="6.23471">
        <ele>271.5</ele>
        <time>2014-09-11T13:44:26Z</time>
      </trkpt>
      <trkpt lat="47.48154" lon="6.23471">
        <ele>271.6</ele>
        <time>2014-09-11T13:44:29Z</time>
      </trkpt>
      <trkpt lat="47.48145" lon="6.23471">
        <ele>271.8</ele>
        <time>2014-09-11T13:44:32Z</time>
      </trkpt>
      <trkpt lat="47.48135" lon="6.23471">
        <ele>272.1</ele>
        <time>2014-09-11T13:44:35Z</time>
      </trkpt>
      <trkpt lat="47.48125" lon="6.23471">
        <ele>272.1</ele>
        <time>2014-09-11T13:44:38Z</time>
      </trkpt>
      <trkpt lat="47.48115" lon="6.23469">
        <ele>272.3</ele>
        <time>2014-09-11T13:44:41Z</time>
      </trkpt>
      <trkpt lat="47.48106" lon="6.23469">
        <ele>272.7</ele>
        <time>2014-09-11T13:44:44Z</time>
      </trkpt>
      <trkpt lat="47.48096" lon="6.23467">
        <ele>273</ele>
        <time>2014-09-11T13:44:47Z</time>
      </trkpt>
      <trkpt lat="47.48085" lon="6.23465">
        <ele>273.1</ele>
        <time>2014-09-11T13:44:50Z</time>
      </trkpt>
      <trkpt lat="47.48076" lon="6.23465">
        <ele>273.1</ele>
        <time>2014-09-11T13:44:53Z</time>
      </trkpt>
      <trkpt lat="47.48066" lon="6.23464">
        <ele>273</ele>
        <time>2014-09-11T13:44:56Z</time>
      </trkpt>
      <trkpt lat="47.48056" lon="6.23464">
        <ele>273.3</ele>
        <time>2014-09-11T13:44:59Z</time>
      </trkpt>
      <trkpt lat="47.48047" lon="6.23464">
        <ele>273.5</ele>
        <time>2014-09-11T13:45:02Z</time>
      </trkpt>
      <trkpt lat="47.48037" lon="6.23465">
        <ele>273.6</ele>
        <time>2014-09-11T13:45:05Z</time>
      </trkpt>
      <trkpt lat="47.48026" lon="6.23465">
        <ele>273.8</ele>
        <time>2014-09-11T13:45:08Z</time>
      </trkpt>
      <trkpt lat="47.48016" lon="6.23466">
        <ele>274.1</ele>
        <time>2014-09-11T13:45:11Z</time>
      </trkpt>
      <trkpt lat="47.48006" lon="6.23466">
        <ele>274.2</ele>
        <time>2014-09-11T13:45:14Z</time>
      </trkpt>
      <trkpt lat="47.47996" lon="6.23465">
        <ele>274.4</ele>
        <time>2014-09-11T13:45:17Z</time>
      </trkpt>
      <trkpt lat="47.47986" lon="6.23465">
        <ele>274.6</ele>
        <time>2014-09-11T13:45:20Z</time>
      </trkpt>
      <trkpt lat="47.47975" lon="6.23468">
        <ele>274.7</ele>
        <time>2014-09-11T13:45:23Z</time>
      </trkpt>
      <trkpt lat="47.47964" lon="6.23469">
        <ele>274.7</ele>
        <time>2014-09-11T13:45:26Z</time>
      </trkpt>
      <trkpt lat="47.47953" lon="6.23471">
        <ele>274.8</ele>
        <time>2014-09-11T13:45:29Z</time>
      </trkpt>
      <trkpt lat="47.47943" lon="6.23473">
        <ele>275.4</ele>
        <time>2014-09-11T13:45:32Z</time>
      </trkpt>
      <trkpt lat="47.47933" lon="6.23474">
        <ele>275.5</ele>
        <time>2014-09-11T13:45:35Z</time>
      </trkpt>
      <trkpt lat="47.47923" lon="6.23474">
        <ele>275.5</ele>
        <time>2014-09-11T13:45:38Z</time>
      </trkpt>
      <trkpt lat="47.47912" lon="6.23475">
        <ele>275.8</ele>
        <time>2014-09-11T13:45:41Z</time>
      </trkpt>
      <trkpt lat="47.47902" lon="6.23475">
        <ele>276</ele>
        <time>2014-09-11T13:45:44Z</time>
      </trkpt>
      <trkpt lat="47.47893" lon="6.23477">
        <ele>276.1</ele>
        <time>2014-09-11T13:45:47Z</time>
      </trkpt>
      <trkpt lat="47.47883" lon="6.23479">
        <ele>276.2</ele>
        <time>2014-09-11T13:45:50Z</time>
      </trkpt>
      <trkpt lat="47.47874" lon="6.23481">
        <ele>276.4</ele>
        <time>2014-09-11T13:45:53Z</time>
      </trkpt>
      <trkpt lat="47.47864" lon="6.23481">
        <ele>276.6</ele>
        <time>2014-09-11T13:45:56Z</time>
      </trkpt>
      <trkpt lat="47.47854" lon="6.23484">
        <ele>276.6</ele>
        <time>2014-09-11T13:45:59Z</time>
      </trkpt>
      <trkpt lat="47.47844" lon="6.23486">
        <ele>276.7</ele>
        <time>2014-09-11T13:46:02Z</time>
      </trkpt>
      <trkpt lat="47.47835" lon="6.23487">
        <ele>277.1</ele>
        <time>2014-09-11T13:46:05Z</time>
      </trkpt>
      <trkpt lat="47.47824" lon="6.23488">
        <ele>277.3</ele>
        <time>2014-09-11T13:46:09Z</time>
      </trkpt>
      <trkpt lat="47.47815" lon="6.2349">
        <ele>277.5</ele>
        <time>2014-09-11T13:46:12Z</time>
      </trkpt>
      <trkpt lat="47.47806" lon="6.23493">
        <ele>277.5</ele>
        <time>2014-09-11T13:46:15Z</time>
      </trkpt>
      <trkpt lat="47.47797" lon="6.23496">
        <ele>277.7</ele>
        <time>2014-09-11T13:46:18Z</time>
      </trkpt>
      <trkpt lat="47.47788" lon="6.23499">
        <ele>277.9</ele>
        <time>2014-09-11T13:46:21Z</time>
      </trkpt>
      <trkpt lat="47.47777" lon="6.23501">
        <ele>278.2</ele>
        <time>2014-09-11T13:46:25Z</time>
      </trkpt>
      <trkpt lat="47.47767" lon="6.23505">
        <ele>278.6</ele>
        <time>2014-09-11T13:46:29Z</time>
      </trkpt>
      <trkpt lat="47.47758" lon="6.23508">
        <ele>278.9</ele>
        <time>2014-09-11T13:46:32Z</time>
      </trkpt>
      <trkpt lat="47.47749" lon="6.23512">
        <ele>278.8</ele>
        <time>2014-09-11T13:46:35Z</time>
      </trkpt>
      <trkpt lat="47.47739" lon="6.23515">
        <ele>279.1</ele>
        <time>2014-09-11T13:46:40Z</time>
      </trkpt>
      <trkpt lat="47.47729" lon="6.23518">
        <ele>279.2</ele>
        <time>2014-09-11T13:46:45Z</time>
      </trkpt>
      <trkpt lat="47.47719" lon="6.23518">
        <ele>279.3</ele>
        <time>2014-09-11T13:46:48Z</time>
      </trkpt>
      <trkpt lat="47.47709" lon="6.23521">
        <ele>279.3</ele>
        <time>2014-09-11T13:46:51Z</time>
      </trkpt>
      <trkpt lat="47.47698" lon="6.23524">
        <ele>279.6</ele>
        <time>2014-09-11T13:46:55Z</time>
      </trkpt>
      <trkpt lat="47.47686" lon="6.23528">
        <ele>279.6</ele>
        <time>2014-09-11T13:46:59Z</time>
      </trkpt>
      <trkpt lat="47.47677" lon="6.23532">
        <ele>279.7</ele>
        <time>2014-09-11T13:47:02Z</time>
      </trkpt>
      <trkpt lat="47.47666" lon="6.23536">
        <ele>279.9</ele>
        <time>2014-09-11T13:47:06Z</time>
      </trkpt>
      <trkpt lat="47.47657" lon="6.2354">
        <ele>279.9</ele>
        <time>2014-09-11T13:47:09Z</time>
      </trkpt>
      <trkpt lat="47.47648" lon="6.23544">
        <ele>279.9</ele>
        <time>2014-09-11T13:47:12Z</time>
      </trkpt>
      <trkpt lat="47.47637" lon="6.23549">
        <ele>280.1</ele>
        <time>2014-09-11T13:47:16Z</time>
      </trkpt>
      <trkpt lat="47.47629" lon="6.23553">
        <ele>280</ele>
        <time>2014-09-11T13:47:19Z</time>
      </trkpt>
      <trkpt lat="47.47619" lon="6.23557">
        <ele>280</ele>
        <time>2014-09-11T13:47:22Z</time>
      </trkpt>
      <trkpt lat="47.47611" lon="6.2356">
        <ele>280.1</ele>
        <time>2014-09-11T13:47:25Z</time>
      </trkpt>
      <trkpt lat="47.47602" lon="6.23564">
        <ele>280.2</ele>
        <time>2014-09-11T13:47:28Z</time>
      </trkpt>
      <trkpt lat="47.47591" lon="6.2357">
        <ele>280.3</ele>
        <time>2014-09-11T13:47:32Z</time>
      </trkpt>
      <trkpt lat="47.47581" lon="6.23576">
        <ele>280.4</ele>
        <time>2014-09-11T13:47:35Z</time>
      </trkpt>
      <trkpt lat="47.47571" lon="6.2358">
        <ele>280.5</ele>
        <time>2014-09-11T13:47:38Z</time>
      </trkpt>
      <trkpt lat="47.47561" lon="6.23584">
        <ele>280.5</ele>
        <time>2014-09-11T13:47:41Z</time>
      </trkpt>
      <trkpt lat="47.4755" lon="6.23589">
        <ele>280.3</ele>
        <time>2014-09-11T13:47:45Z</time>
      </trkpt>
      <trkpt lat="47.47539" lon="6.23596">
        <ele>280.5</ele>
        <time>2014-09-11T13:47:49Z</time>
      </trkpt>
      <trkpt lat="47.47528" lon="6.236">
        <ele>280.5</ele>
        <time>2014-09-11T13:47:52Z</time>
      </trkpt>
      <trkpt lat="47.47517" lon="6.23605">
        <ele>280.4</ele>
        <time>2014-09-11T13:47:55Z</time>
      </trkpt>
      <trkpt lat="47.47505" lon="6.23606">
        <ele>280.1</ele>
        <time>2014-09-11T13:47:58Z</time>
      </trkpt>
      <trkpt lat="47.47495" lon="6.23609">
        <ele>280</ele>
        <time>2014-09-11T13:48:01Z</time>
      </trkpt>
      <trkpt lat="47.47486" lon="6.23613">
        <ele>279.9</ele>
        <time>2014-09-11T13:48:04Z</time>
      </trkpt>
      <trkpt lat="47.47477" lon="6.23617">
        <ele>279.9</ele>
        <time>2014-09-11T13:48:07Z</time>
      </trkpt>
      <trkpt lat="47.47466" lon="6.23621">
        <ele>280</ele>
        <time>2014-09-11T13:48:10Z</time>
      </trkpt>
      <trkpt lat="47.47456" lon="6.23624">
        <ele>279.9</ele>
        <time>2014-09-11T13:48:13Z</time>
      </trkpt>
      <trkpt lat="47.47446" lon="6.23627">
        <ele>279.9</ele>
        <time>2014-09-11T13:48:16Z</time>
      </trkpt>
      <trkpt lat="47.47436" lon="6.23631">
        <ele>279.9</ele>
        <time>2014-09-11T13:48:19Z</time>
      </trkpt>
      <trkpt lat="47.47425" lon="6.23635">
        <ele>279.9</ele>
        <time>2014-09-11T13:48:22Z</time>
      </trkpt>
      <trkpt lat="47.47414" lon="6.23639">
        <ele>280</ele>
        <time>2014-09-11T13:48:25Z</time>
      </trkpt>
      <trkpt lat="47.47403" lon="6.23644">
        <ele>280</ele>
        <time>2014-09-11T13:48:28Z</time>
      </trkpt>
      <trkpt lat="47.47393" lon="6.23647">
        <ele>280.2</ele>
        <time>2014-09-11T13:48:31Z</time>
      </trkpt>
      <trkpt lat="47.47384" lon="6.2365">
        <ele>280.4</ele>
        <time>2014-09-11T13:48:34Z</time>
      </trkpt>
      <trkpt lat="47.47375" lon="6.23653">
        <ele>280.4</ele>
        <time>2014-09-11T13:48:37Z</time>
      </trkpt>
      <trkpt lat="47.47368" lon="6.23667">
        <ele>280.6</ele>
        <time>2014-09-11T13:48:41Z</time>
      </trkpt>
      <trkpt lat="47.47368" lon="6.2368">
        <ele>280.5</ele>
        <time>2014-09-11T13:48:44Z</time>
      </trkpt>
      <trkpt lat="47.47363" lon="6.23696">
        <ele>280.6</ele>
        <time>2014-09-11T13:48:48Z</time>
      </trkpt>
      <trkpt lat="47.47355" lon="6.237">
        <ele>280.7</ele>
        <time>2014-09-11T13:48:51Z</time>
      </trkpt>
      <trkpt lat="47.47345" lon="6.23704">
        <ele>280.7</ele>
        <time>2014-09-11T13:48:55Z</time>
      </trkpt>
      <trkpt lat="47.47334" lon="6.23708">
        <ele>280.5</ele>
        <time>2014-09-11T13:48:59Z</time>
      </trkpt>
      <trkpt lat="47.47326" lon="6.23717">
        <ele>280.9</ele>
        <time>2014-09-11T13:49:03Z</time>
      </trkpt>
      <trkpt lat="47.47322" lon="6.2373">
        <ele>280.8</ele>
        <time>2014-09-11T13:49:07Z</time>
      </trkpt>
      <trkpt lat="47.47318" lon="6.23743">
        <ele>281.4</ele>
        <time>2014-09-11T13:49:11Z</time>
      </trkpt>
      <trkpt lat="47.47308" lon="6.23748">
        <ele>281.7</ele>
        <time>2014-09-11T13:49:16Z</time>
      </trkpt>
      <trkpt lat="47.47298" lon="6.23754">
        <ele>282.1</ele>
        <time>2014-09-11T13:49:20Z</time>
      </trkpt>
      <trkpt lat="47.47299" lon="6.23769">
        <ele>282.4</ele>
        <time>2014-09-11T13:49:25Z</time>
      </trkpt>
      <trkpt lat="47.47307" lon="6.23777">
        <ele>282.8</ele>
        <time>2014-09-11T13:49:31Z</time>
      </trkpt>
      <trkpt lat="47.47315" lon="6.23787">
        <ele>283.5</ele>
        <time>2014-09-11T13:49:37Z</time>
      </trkpt>
      <trkpt lat="47.47324" lon="6.23796">
        <ele>284.2</ele>
        <time>2014-09-11T13:49:43Z</time>
      </trkpt>
      <trkpt lat="47.47332" lon="6.23805">
        <ele>284.8</ele>
        <time>2014-09-11T13:49:48Z</time>
      </trkpt>
      <trkpt lat="47.4734" lon="6.23815">
        <ele>285.7</ele>
        <time>2014-09-11T13:49:53Z</time>
      </trkpt>
      <trkpt lat="47.47347" lon="6.23824">
        <ele>286.4</ele>
        <time>2014-09-11T13:49:58Z</time>
      </trkpt>
      <trkpt lat="47.4735" lon="6.23836">
        <ele>287.5</ele>
        <time>2014-09-11T13:50:04Z</time>
      </trkpt>
      <trkpt lat="47.47342" lon="6.23848">
        <ele>288.2</ele>
        <time>2014-09-11T13:50:10Z</time>
      </trkpt>
      <trkpt lat="47.47335" lon="6.23857">
        <ele>288.7</ele>
        <time>2014-09-11T13:50:15Z</time>
      </trkpt>
      <trkpt lat="47.47327" lon="6.23866">
        <ele>289.1</ele>
        <time>2014-09-11T13:50:21Z</time>
      </trkpt>
      <trkpt lat="47.4732" lon="6.23876">
        <ele>289.7</ele>
        <time>2014-09-11T13:50:26Z</time>
      </trkpt>
      <trkpt lat="47.47312" lon="6.23887">
        <ele>290</ele>
        <time>2014-09-11T13:50:31Z</time>
      </trkpt>
      <trkpt lat="47.47305" lon="6.23898">
        <ele>290.5</ele>
        <time>2014-09-11T13:50:35Z</time>
      </trkpt>
      <trkpt lat="47.47298" lon="6.23908">
        <ele>290.5</ele>
        <time>2014-09-11T13:50:40Z</time>
      </trkpt>
      <trkpt lat="47.47292" lon="6.23918">
        <ele>290.4</ele>
        <time>2014-09-11T13:50:44Z</time>
      </trkpt>
      <trkpt lat="47.47285" lon="6.2393">
        <ele>290.2</ele>
        <time>2014-09-11T13:50:48Z</time>
      </trkpt>
      <trkpt lat="47.47277" lon="6.23943">
        <ele>290.1</ele>
        <time>2014-09-11T13:50:52Z</time>
      </trkpt>
      <trkpt lat="47.47271" lon="6.23955">
        <ele>290.4</ele>
        <time>2014-09-11T13:50:56Z</time>
      </trkpt>
      <trkpt lat="47.47264" lon="6.23966">
        <ele>290.3</ele>
        <time>2014-09-11T13:51:00Z</time>
      </trkpt>
      <trkpt lat="47.47258" lon="6.23979">
        <ele>290.9</ele>
        <time>2014-09-11T13:51:04Z</time>
      </trkpt>
      <trkpt lat="47.4725" lon="6.23987">
        <ele>290.8</ele>
        <time>2014-09-11T13:51:08Z</time>
      </trkpt>
      <trkpt lat="47.47243" lon="6.23999">
        <ele>290.3</ele>
        <time>2014-09-11T13:51:12Z</time>
      </trkpt>
      <trkpt lat="47.47238" lon="6.24012">
        <ele>290.1</ele>
        <time>2014-09-11T13:51:16Z</time>
      </trkpt>
      <trkpt lat="47.47228" lon="6.24013">
        <ele>290.1</ele>
        <time>2014-09-11T13:51:22Z</time>
      </trkpt>
      <trkpt lat="47.47222" lon="6.24002">
        <ele>290.3</ele>
        <time>2014-09-11T13:51:26Z</time>
      </trkpt>
      <trkpt lat="47.47214" lon="6.23991">
        <ele>290.3</ele>
        <time>2014-09-11T13:51:30Z</time>
      </trkpt>
      <trkpt lat="47.47207" lon="6.2398">
        <ele>290.9</ele>
        <time>2014-09-11T13:51:34Z</time>
      </trkpt>
      <trkpt lat="47.472" lon="6.23969">
        <ele>291.2</ele>
        <time>2014-09-11T13:51:38Z</time>
      </trkpt>
      <trkpt lat="47.47193" lon="6.23958">
        <ele>291.5</ele>
        <time>2014-09-11T13:51:42Z</time>
      </trkpt>
      <trkpt lat="47.47186" lon="6.23947">
        <ele>292</ele>
        <time>2014-09-11T13:51:46Z</time>
      </trkpt>
      <trkpt lat="47.47178" lon="6.23937">
        <ele>292.3</ele>
        <time>2014-09-11T13:51:50Z</time>
      </trkpt>
      <trkpt lat="47.47171" lon="6.23926">
        <ele>292.6</ele>
        <time>2014-09-11T13:51:54Z</time>
      </trkpt>
      <trkpt lat="47.47164" lon="6.23915">
        <ele>292.9</ele>
        <time>2014-09-11T13:51:59Z</time>
      </trkpt>
      <trkpt lat="47.47157" lon="6.23904">
        <ele>293.1</ele>
        <time>2014-09-11T13:52:03Z</time>
      </trkpt>
      <trkpt lat="47.4715" lon="6.23893">
        <ele>293.1</ele>
        <time>2014-09-11T13:52:07Z</time>
      </trkpt>
      <trkpt lat="47.47142" lon="6.23883">
        <ele>293.7</ele>
        <time>2014-09-11T13:52:11Z</time>
      </trkpt>
      <trkpt lat="47.47135" lon="6.23873">
        <ele>293.8</ele>
        <time>2014-09-11T13:52:15Z</time>
      </trkpt>
      <trkpt lat="47.47128" lon="6.23862">
        <ele>294</ele>
        <time>2014-09-11T13:52:19Z</time>
      </trkpt>
      <trkpt lat="47.47121" lon="6.23851">
        <ele>294.3</ele>
        <time>2014-09-11T13:52:23Z</time>
      </trkpt>
      <trkpt lat="47.47113" lon="6.23841">
        <ele>294.5</ele>
        <time>2014-09-11T13:52:27Z</time>
      </trkpt>
      <trkpt lat="47.47106" lon="6.2383">
        <ele>295</ele>
        <time>2014-09-11T13:52:31Z</time>
      </trkpt>
      <trkpt lat="47.47098" lon="6.2382">
        <ele>295.1</ele>
        <time>2014-09-11T13:52:35Z</time>
      </trkpt>
      <trkpt lat="47.47091" lon="6.23809">
        <ele>295.6</ele>
        <time>2014-09-11T13:52:39Z</time>
      </trkpt>
      <trkpt lat="47.47084" lon="6.23798">
        <ele>295.8</ele>
        <time>2014-09-11T13:52:43Z</time>
      </trkpt>
      <trkpt lat="47.47076" lon="6.23788">
        <ele>296.2</ele>
        <time>2014-09-11T13:52:47Z</time>
      </trkpt>
      <trkpt lat="47.47069" lon="6.23778">
        <ele>296.6</ele>
        <time>2014-09-11T13:52:51Z</time>
      </trkpt>
      <trkpt lat="47.47061" lon="6.23766">
        <ele>296.8</ele>
        <time>2014-09-11T13:52:55Z</time>
      </trkpt>
      <trkpt lat="47.47053" lon="6.23756">
        <ele>297</ele>
        <time>2014-09-11T13:52:59Z</time>
      </trkpt>
      <trkpt lat="47.47046" lon="6.23745">
        <ele>297.2</ele>
        <time>2014-09-11T13:53:04Z</time>
      </trkpt>
      <trkpt lat="47.4704" lon="6.23735">
        <ele>297.4</ele>
        <time>2014-09-11T13:53:08Z</time>
      </trkpt>
      <trkpt lat="47.47032" lon="6.23724">
        <ele>297.8</ele>
        <time>2014-09-11T13:53:12Z</time>
      </trkpt>
      <trkpt lat="47.47025" lon="6.23714">
        <ele>297.8</ele>
        <time>2014-09-11T13:53:17Z</time>
      </trkpt>
      <trkpt lat="47.47017" lon="6.23703">
        <ele>297.7</ele>
        <time>2014-09-11T13:54:55Z</time>
      </trkpt>
      <trkpt lat="47.4701" lon="6.23693">
        <ele>297.8</ele>
        <time>2014-09-11T13:55:00Z</time>
      </trkpt>
      <trkpt lat="47.47003" lon="6.23684">
        <ele>297.8</ele>
        <time>2014-09-11T13:55:04Z</time>
      </trkpt>
      <trkpt lat="47.46995" lon="6.23673">
        <ele>297.8</ele>
        <time>2014-09-11T13:55:08Z</time>
      </trkpt>
      <trkpt lat="47.46986" lon="6.23661">
        <ele>297.4</ele>
        <time>2014-09-11T13:55:12Z</time>
      </trkpt>
      <trkpt lat="47.46979" lon="6.23652">
        <ele>297.3</ele>
        <time>2014-09-11T13:55:15Z</time>
      </trkpt>
      <trkpt lat="47.46971" lon="6.23641">
        <ele>297.1</ele>
        <time>2014-09-11T13:55:18Z</time>
      </trkpt>
      <trkpt lat="47.46962" lon="6.23629">
        <ele>297</ele>
        <time>2014-09-11T13:55:21Z</time>
      </trkpt>
      <trkpt lat="47.46953" lon="6.23616">
        <ele>296.8</ele>
        <time>2014-09-11T13:55:24Z</time>
      </trkpt>
      <trkpt lat="47.46943" lon="6.23603">
        <ele>296.5</ele>
        <time>2014-09-11T13:55:27Z</time>
      </trkpt>
      <trkpt lat="47.46937" lon="6.23593">
        <ele>296.3</ele>
        <time>2014-09-11T13:55:29Z</time>
      </trkpt>
      <trkpt lat="47.4693" lon="6.23584">
        <ele>296.2</ele>
        <time>2014-09-11T13:55:31Z</time>
      </trkpt>
      <trkpt lat="47.46923" lon="6.23574">
        <ele>296.1</ele>
        <time>2014-09-11T13:55:33Z</time>
      </trkpt>
      <trkpt lat="47.46916" lon="6.23564">
        <ele>296</ele>
        <time>2014-09-11T13:55:35Z</time>
      </trkpt>
      <trkpt lat="47.46909" lon="6.23554">
        <ele>295.7</ele>
        <time>2014-09-11T13:55:37Z</time>
      </trkpt>
      <trkpt lat="47.46901" lon="6.23543">
        <ele>295.3</ele>
        <time>2014-09-11T13:55:39Z</time>
      </trkpt>
      <trkpt lat="47.46894" lon="6.23533">
        <ele>295.1</ele>
        <time>2014-09-11T13:55:41Z</time>
      </trkpt>
      <trkpt lat="47.46887" lon="6.23523">
        <ele>294.9</ele>
        <time>2014-09-11T13:55:43Z</time>
      </trkpt>
      <trkpt lat="47.46881" lon="6.23514">
        <ele>295.1</ele>
        <time>2014-09-11T13:55:45Z</time>
      </trkpt>
      <trkpt lat="47.46872" lon="6.23501">
        <ele>295.5</ele>
        <time>2014-09-11T13:55:48Z</time>
      </trkpt>
      <trkpt lat="47.46864" lon="6.2349">
        <ele>296.1</ele>
        <time>2014-09-11T13:55:52Z</time>
      </trkpt>
      <trkpt lat="47.46857" lon="6.23481">
        <ele>297.1</ele>
        <time>2014-09-11T13:55:56Z</time>
      </trkpt>
      <trkpt lat="47.4685" lon="6.2347">
        <ele>298</ele>
        <time>2014-09-11T13:56:01Z</time>
      </trkpt>
      <trkpt lat="47.46843" lon="6.2346">
        <ele>299.1</ele>
        <time>2014-09-11T13:56:06Z</time>
      </trkpt>
      <trkpt lat="47.46835" lon="6.23448">
        <ele>300</ele>
        <time>2014-09-11T13:56:11Z</time>
      </trkpt>
      <trkpt lat="47.46828" lon="6.2344">
        <ele>300.8</ele>
        <time>2014-09-11T13:56:15Z</time>
      </trkpt>
      <trkpt lat="47.4682" lon="6.23429">
        <ele>301.3</ele>
        <time>2014-09-11T13:56:19Z</time>
      </trkpt>
      <trkpt lat="47.46814" lon="6.23418">
        <ele>301.9</ele>
        <time>2014-09-11T13:56:23Z</time>
      </trkpt>
      <trkpt lat="47.46807" lon="6.23404">
        <ele>302.1</ele>
        <time>2014-09-11T13:56:28Z</time>
      </trkpt>
      <trkpt lat="47.46801" lon="6.23394">
        <ele>302.5</ele>
        <time>2014-09-11T13:56:32Z</time>
      </trkpt>
      <trkpt lat="47.46794" lon="6.23384">
        <ele>302.6</ele>
        <time>2014-09-11T13:56:36Z</time>
      </trkpt>
      <trkpt lat="47.46788" lon="6.23374">
        <ele>302.8</ele>
        <time>2014-09-11T13:56:40Z</time>
      </trkpt>
      <trkpt lat="47.46781" lon="6.23362">
        <ele>302.8</ele>
        <time>2014-09-11T13:56:44Z</time>
      </trkpt>
      <trkpt lat="47.46775" lon="6.2335">
        <ele>302.7</ele>
        <time>2014-09-11T13:56:48Z</time>
      </trkpt>
      <trkpt lat="47.46766" lon="6.23339">
        <ele>302.4</ele>
        <time>2014-09-11T13:56:52Z</time>
      </trkpt>
      <trkpt lat="47.46755" lon="6.23331">
        <ele>301.9</ele>
        <time>2014-09-11T13:56:55Z</time>
      </trkpt>
      <trkpt lat="47.46749" lon="6.2332">
        <ele>301.7</ele>
        <time>2014-09-11T13:56:57Z</time>
      </trkpt>
      <trkpt lat="47.46741" lon="6.23305">
        <ele>301.5</ele>
        <time>2014-09-11T13:57:00Z</time>
      </trkpt>
      <trkpt lat="47.46735" lon="6.23294">
        <ele>301.4</ele>
        <time>2014-09-11T13:57:02Z</time>
      </trkpt>
      <trkpt lat="47.4673" lon="6.23283">
        <ele>301.1</ele>
        <time>2014-09-11T13:57:04Z</time>
      </trkpt>
      <trkpt lat="47.46723" lon="6.23272">
        <ele>300.6</ele>
        <time>2014-09-11T13:57:06Z</time>
      </trkpt>
      <trkpt lat="47.46717" lon="6.2326">
        <ele>300.4</ele>
        <time>2014-09-11T13:57:08Z</time>
      </trkpt>
      <trkpt lat="47.46713" lon="6.23246">
        <ele>300</ele>
        <time>2014-09-11T13:57:10Z</time>
      </trkpt>
      <trkpt lat="47.4671" lon="6.23231">
        <ele>299.8</ele>
        <time>2014-09-11T13:57:12Z</time>
      </trkpt>
      <trkpt lat="47.46705" lon="6.23219">
        <ele>299.4</ele>
        <time>2014-09-11T13:57:14Z</time>
      </trkpt>
      <trkpt lat="47.46698" lon="6.23208">
        <ele>299</ele>
        <time>2014-09-11T13:57:16Z</time>
      </trkpt>
      <trkpt lat="47.46691" lon="6.23199">
        <ele>298.5</ele>
        <time>2014-09-11T13:57:18Z</time>
      </trkpt>
      <trkpt lat="47.46682" lon="6.23189">
        <ele>297.9</ele>
        <time>2014-09-11T13:57:20Z</time>
      </trkpt>
      <trkpt lat="47.46674" lon="6.23179">
        <ele>297.3</ele>
        <time>2014-09-11T13:57:22Z</time>
      </trkpt>
      <trkpt lat="47.46665" lon="6.23169">
        <ele>296.6</ele>
        <time>2014-09-11T13:57:24Z</time>
      </trkpt>
      <trkpt lat="47.46655" lon="6.2316">
        <ele>295.9</ele>
        <time>2014-09-11T13:57:26Z</time>
      </trkpt>
      <trkpt lat="47.46644" lon="6.23161">
        <ele>295.1</ele>
        <time>2014-09-11T13:57:28Z</time>
      </trkpt>
      <trkpt lat="47.46636" lon="6.2317">
        <ele>294.6</ele>
        <time>2014-09-11T13:57:30Z</time>
      </trkpt>
      <trkpt lat="47.46629" lon="6.2318">
        <ele>294.1</ele>
        <time>2014-09-11T13:57:32Z</time>
      </trkpt>
      <trkpt lat="47.46621" lon="6.2319">
        <ele>293.7</ele>
        <time>2014-09-11T13:57:34Z</time>
      </trkpt>
      <trkpt lat="47.46613" lon="6.23199">
        <ele>293.3</ele>
        <time>2014-09-11T13:57:36Z</time>
      </trkpt>
      <trkpt lat="47.46605" lon="6.23209">
        <ele>292.7</ele>
        <time>2014-09-11T13:57:38Z</time>
      </trkpt>
      <trkpt lat="47.46595" lon="6.2322">
        <ele>291.9</ele>
        <time>2014-09-11T13:57:40Z</time>
      </trkpt>
      <trkpt lat="47.46584" lon="6.23233">
        <ele>291.4</ele>
        <time>2014-09-11T13:57:42Z</time>
      </trkpt>
      <trkpt lat="47.46572" lon="6.23247">
        <ele>290.7</ele>
        <time>2014-09-11T13:57:44Z</time>
      </trkpt>
      <trkpt lat="47.4656" lon="6.23264">
        <ele>289.9</ele>
        <time>2014-09-11T13:57:46Z</time>
      </trkpt>
      <trkpt lat="47.46549" lon="6.23281">
        <ele>289.4</ele>
        <time>2014-09-11T13:57:48Z</time>
      </trkpt>
      <trkpt lat="47.4654" lon="6.23299">
        <ele>288.1</ele>
        <time>2014-09-11T13:57:50Z</time>
      </trkpt>
      <trkpt lat="47.46532" lon="6.23316">
        <ele>287.2</ele>
        <time>2014-09-11T13:57:52Z</time>
      </trkpt>
      <trkpt lat="47.46525" lon="6.23332">
        <ele>286.2</ele>
        <time>2014-09-11T13:57:54Z</time>
      </trkpt>
      <trkpt lat="47.46522" lon="6.23348">
        <ele>285.3</ele>
        <time>2014-09-11T13:57:56Z</time>
      </trkpt>
      <trkpt lat="47.4652" lon="6.23362">
        <ele>284.7</ele>
        <time>2014-09-11T13:57:58Z</time>
      </trkpt>
      <trkpt lat="47.46514" lon="6.23381">
        <ele>283.3</ele>
        <time>2014-09-11T13:58:01Z</time>
      </trkpt>
      <trkpt lat="47.46508" lon="6.23397">
        <ele>282.3</ele>
        <time>2014-09-11T13:58:03Z</time>
      </trkpt>
      <trkpt lat="47.465" lon="6.23416">
        <ele>281.5</ele>
        <time>2014-09-11T13:58:05Z</time>
      </trkpt>
      <trkpt lat="47.46492" lon="6.23436">
        <ele>280.6</ele>
        <time>2014-09-11T13:58:07Z</time>
      </trkpt>
      <trkpt lat="47.46485" lon="6.23458">
        <ele>279.8</ele>
        <time>2014-09-11T13:58:09Z</time>
      </trkpt>
      <trkpt lat="47.46477" lon="6.23478">
        <ele>279.4</ele>
        <time>2014-09-11T13:58:11Z</time>
      </trkpt>
      <trkpt lat="47.4647" lon="6.23498">
        <ele>279.6</ele>
        <time>2014-09-11T13:58:13Z</time>
      </trkpt>
      <trkpt lat="47.46464" lon="6.23516">
        <ele>279.7</ele>
        <time>2014-09-11T13:58:15Z</time>
      </trkpt>
      <trkpt lat="47.46458" lon="6.23532">
        <ele>279.8</ele>
        <time>2014-09-11T13:58:17Z</time>
      </trkpt>
      <trkpt lat="47.46453" lon="6.23547">
        <ele>279.9</ele>
        <time>2014-09-11T13:58:19Z</time>
      </trkpt>
      <trkpt lat="47.46449" lon="6.2356">
        <ele>279.9</ele>
        <time>2014-09-11T13:58:21Z</time>
      </trkpt>
      <trkpt lat="47.46443" lon="6.23576">
        <ele>280</ele>
        <time>2014-09-11T13:58:24Z</time>
      </trkpt>
      <trkpt lat="47.46438" lon="6.23588">
        <ele>280.2</ele>
        <time>2014-09-11T13:58:27Z</time>
      </trkpt>
      <trkpt lat="47.46432" lon="6.23603">
        <ele>281.4</ele>
        <time>2014-09-11T13:58:31Z</time>
      </trkpt>
      <trkpt lat="47.46428" lon="6.23615">
        <ele>282.8</ele>
        <time>2014-09-11T13:58:35Z</time>
      </trkpt>
      <trkpt lat="47.46424" lon="6.23628">
        <ele>283.8</ele>
        <time>2014-09-11T13:58:39Z</time>
      </trkpt>
      <trkpt lat="47.46422" lon="6.23643">
        <ele>285</ele>
        <time>2014-09-11T13:58:44Z</time>
      </trkpt>
      <trkpt lat="47.46422" lon="6.23659">
        <ele>286.2</ele>
        <time>2014-09-11T13:58:49Z</time>
      </trkpt>
      <trkpt lat="47.46421" lon="6.23672">
        <ele>286.8</ele>
        <time>2014-09-11T13:58:53Z</time>
      </trkpt>
      <trkpt lat="47.46413" lon="6.23681">
        <ele>287</ele>
        <time>2014-09-11T13:58:58Z</time>
      </trkpt>
      <trkpt lat="47.46403" lon="6.23683">
        <ele>286.8</ele>
        <time>2014-09-11T13:59:02Z</time>
      </trkpt>
      <trkpt lat="47.46392" lon="6.23683">
        <ele>286.7</ele>
        <time>2014-09-11T13:59:06Z</time>
      </trkpt>
      <trkpt lat="47.46383" lon="6.23684">
        <ele>286.4</ele>
        <time>2014-09-11T13:59:09Z</time>
      </trkpt>
      <trkpt lat="47.46373" lon="6.23682">
        <ele>286.5</ele>
        <time>2014-09-11T13:59:12Z</time>
      </trkpt>
      <trkpt lat="47.46363" lon="6.23683">
        <ele>286.5</ele>
        <time>2014-09-11T13:59:15Z</time>
      </trkpt>
      <trkpt lat="47.46352" lon="6.2368">
        <ele>286.3</ele>
        <time>2014-09-11T13:59:18Z</time>
      </trkpt>
      <trkpt lat="47.4634" lon="6.23679">
        <ele>286.2</ele>
        <time>2014-09-11T13:59:21Z</time>
      </trkpt>
      <trkpt lat="47.46328" lon="6.23677">
        <ele>286</ele>
        <time>2014-09-11T13:59:24Z</time>
      </trkpt>
      <trkpt lat="47.46315" lon="6.23674">
        <ele>285.9</ele>
        <time>2014-09-11T13:59:27Z</time>
      </trkpt>
      <trkpt lat="47.46303" lon="6.23672">
        <ele>285.8</ele>
        <time>2014-09-11T13:59:30Z</time>
      </trkpt>
      <trkpt lat="47.4629" lon="6.23669">
        <ele>285.6</ele>
        <time>2014-09-11T13:59:33Z</time>
      </trkpt>
      <trkpt lat="47.46277" lon="6.23665">
        <ele>285.6</ele>
        <time>2014-09-11T13:59:36Z</time>
      </trkpt>
      <trkpt lat="47.46265" lon="6.23661">
        <ele>285.3</ele>
        <time>2014-09-11T13:59:39Z</time>
      </trkpt>
      <trkpt lat="47.46252" lon="6.23656">
        <ele>285.1</ele>
        <time>2014-09-11T13:59:42Z</time>
      </trkpt>
      <trkpt lat="47.46239" lon="6.23652">
        <ele>285</ele>
        <time>2014-09-11T13:59:45Z</time>
      </trkpt>
      <trkpt lat="47.46226" lon="6.23649">
        <ele>284.8</ele>
        <time>2014-09-11T13:59:48Z</time>
      </trkpt>
      <trkpt lat="47.46213" lon="6.23645">
        <ele>284.5</ele>
        <time>2014-09-11T13:59:51Z</time>
      </trkpt>
      <trkpt lat="47.462" lon="6.23641">
        <ele>284.2</ele>
        <time>2014-09-11T13:59:54Z</time>
      </trkpt>
      <trkpt lat="47.46191" lon="6.23638">
        <ele>283.9</ele>
        <time>2014-09-11T13:59:56Z</time>
      </trkpt>
      <trkpt lat="47.46178" lon="6.23635">
        <ele>283.8</ele>
        <time>2014-09-11T13:59:59Z</time>
      </trkpt>
      <trkpt lat="47.46169" lon="6.23632">
        <ele>283.8</ele>
        <time>2014-09-11T14:00:01Z</time>
      </trkpt>
      <trkpt lat="47.4616" lon="6.23629">
        <ele>283.4</ele>
        <time>2014-09-11T14:00:03Z</time>
      </trkpt>
      <trkpt lat="47.46151" lon="6.23626">
        <ele>283.3</ele>
        <time>2014-09-11T14:00:05Z</time>
      </trkpt>
      <trkpt lat="47.46142" lon="6.23623">
        <ele>283.1</ele>
        <time>2014-09-11T14:00:07Z</time>
      </trkpt>
      <trkpt lat="47.46133" lon="6.2362">
        <ele>282.8</ele>
        <time>2014-09-11T14:00:09Z</time>
      </trkpt>
      <trkpt lat="47.46124" lon="6.23616">
        <ele>282.7</ele>
        <time>2014-09-11T14:00:11Z</time>
      </trkpt>
      <trkpt lat="47.46114" lon="6.23614">
        <ele>282.5</ele>
        <time>2014-09-11T14:00:13Z</time>
      </trkpt>
      <trkpt lat="47.46105" lon="6.23612">
        <ele>282.5</ele>
        <time>2014-09-11T14:00:15Z</time>
      </trkpt>
      <trkpt lat="47.46093" lon="6.23609">
        <ele>282.2</ele>
        <time>2014-09-11T14:00:18Z</time>
      </trkpt>
      <trkpt lat="47.46084" lon="6.23607">
        <ele>282</ele>
        <time>2014-09-11T14:00:20Z</time>
      </trkpt>
      <trkpt lat="47.46071" lon="6.23603">
        <ele>281.8</ele>
        <time>2014-09-11T14:00:23Z</time>
      </trkpt>
      <trkpt lat="47.46058" lon="6.23597">
        <ele>281.8</ele>
        <time>2014-09-11T14:00:26Z</time>
      </trkpt>
      <trkpt lat="47.46045" lon="6.23593">
        <ele>281.6</ele>
        <time>2014-09-11T14:00:29Z</time>
      </trkpt>
      <trkpt lat="47.46032" lon="6.23587">
        <ele>281.6</ele>
        <time>2014-09-11T14:00:32Z</time>
      </trkpt>
      <trkpt lat="47.46019" lon="6.23582">
        <ele>281.2</ele>
        <time>2014-09-11T14:00:35Z</time>
      </trkpt>
      <trkpt lat="47.46007" lon="6.23577">
        <ele>280.9</ele>
        <time>2014-09-11T14:00:38Z</time>
      </trkpt>
      <trkpt lat="47.45998" lon="6.23573">
        <ele>280.9</ele>
        <time>2014-09-11T14:00:40Z</time>
      </trkpt>
      <trkpt lat="47.45986" lon="6.23566">
        <ele>280.9</ele>
        <time>2014-09-11T14:00:43Z</time>
      </trkpt>
      <trkpt lat="47.45974" lon="6.2356">
        <ele>280.6</ele>
        <time>2014-09-11T14:00:46Z</time>
      </trkpt>
      <trkpt lat="47.45965" lon="6.23556">
        <ele>280.5</ele>
        <time>2014-09-11T14:00:48Z</time>
      </trkpt>
      <trkpt lat="47.45957" lon="6.23551">
        <ele>280.3</ele>
        <time>2014-09-11T14:00:50Z</time>
      </trkpt>
      <trkpt lat="47.45948" lon="6.23544">
        <ele>280.1</ele>
        <time>2014-09-11T14:00:52Z</time>
      </trkpt>
      <trkpt lat="47.4594" lon="6.23537">
        <ele>279.9</ele>
        <time>2014-09-11T14:00:54Z</time>
      </trkpt>
      <trkpt lat="47.45932" lon="6.23531">
        <ele>279.8</ele>
        <time>2014-09-11T14:00:56Z</time>
      </trkpt>
      <trkpt lat="47.45923" lon="6.23523">
        <ele>279.6</ele>
        <time>2014-09-11T14:00:58Z</time>
      </trkpt>
      <trkpt lat="47.45915" lon="6.23514">
        <ele>279.6</ele>
        <time>2014-09-11T14:01:00Z</time>
      </trkpt>
      <trkpt lat="47.45907" lon="6.23507">
        <ele>279.4</ele>
        <time>2014-09-11T14:01:02Z</time>
      </trkpt>
      <trkpt lat="47.45899" lon="6.23499">
        <ele>279.2</ele>
        <time>2014-09-11T14:01:04Z</time>
      </trkpt>
      <trkpt lat="47.45891" lon="6.23492">
        <ele>279.1</ele>
        <time>2014-09-11T14:01:06Z</time>
      </trkpt>
      <trkpt lat="47.45883" lon="6.23484">
        <ele>278.8</ele>
        <time>2014-09-11T14:01:08Z</time>
      </trkpt>
      <trkpt lat="47.45872" lon="6.23474">
        <ele>278.8</ele>
        <time>2014-09-11T14:01:11Z</time>
      </trkpt>
      <trkpt lat="47.45861" lon="6.23463">
        <ele>278.1</ele>
        <time>2014-09-11T14:01:14Z</time>
      </trkpt>
      <trkpt lat="47.45854" lon="6.23454">
        <ele>277.9</ele>
        <time>2014-09-11T14:01:16Z</time>
      </trkpt>
      <trkpt lat="47.45843" lon="6.23442">
        <ele>277.8</ele>
        <time>2014-09-11T14:01:19Z</time>
      </trkpt>
      <trkpt lat="47.45836" lon="6.23433">
        <ele>277.5</ele>
        <time>2014-09-11T14:01:21Z</time>
      </trkpt>
      <trkpt lat="47.45829" lon="6.23423">
        <ele>277.3</ele>
        <time>2014-09-11T14:01:23Z</time>
      </trkpt>
      <trkpt lat="47.45822" lon="6.23414">
        <ele>277</ele>
        <time>2014-09-11T14:01:25Z</time>
      </trkpt>
      <trkpt lat="47.45815" lon="6.23404">
        <ele>276.8</ele>
        <time>2014-09-11T14:01:27Z</time>
      </trkpt>
      <trkpt lat="47.45808" lon="6.23394">
        <ele>276.5</ele>
        <time>2014-09-11T14:01:29Z</time>
      </trkpt>
      <trkpt lat="47.45802" lon="6.23385">
        <ele>276.2</ele>
        <time>2014-09-11T14:01:31Z</time>
      </trkpt>
      <trkpt lat="47.45794" lon="6.23376">
        <ele>276.1</ele>
        <time>2014-09-11T14:01:33Z</time>
      </trkpt>
      <trkpt lat="47.45786" lon="6.23367">
        <ele>275.9</ele>
        <time>2014-09-11T14:01:36Z</time>
      </trkpt>
      <trkpt lat="47.45778" lon="6.23357">
        <ele>275.7</ele>
        <time>2014-09-11T14:01:39Z</time>
      </trkpt>
      <trkpt lat="47.45769" lon="6.23347">
        <ele>275.4</ele>
        <time>2014-09-11T14:01:43Z</time>
      </trkpt>
      <trkpt lat="47.45761" lon="6.23337">
        <ele>275.4</ele>
        <time>2014-09-11T14:01:46Z</time>
      </trkpt>
      <trkpt lat="47.45755" lon="6.23326">
        <ele>275.1</ele>
        <time>2014-09-11T14:01:49Z</time>
      </trkpt>
      <trkpt lat="47.45748" lon="6.23316">
        <ele>275.2</ele>
        <time>2014-09-11T14:01:52Z</time>
      </trkpt>
      <trkpt lat="47.45741" lon="6.23306">
        <ele>275.1</ele>
        <time>2014-09-11T14:01:55Z</time>
      </trkpt>
      <trkpt lat="47.45735" lon="6.23295">
        <ele>275.2</ele>
        <time>2014-09-11T14:01:58Z</time>
      </trkpt>
      <trkpt lat="47.45728" lon="6.23284">
        <ele>275</ele>
        <time>2014-09-11T14:02:01Z</time>
      </trkpt>
      <trkpt lat="47.45721" lon="6.23271">
        <ele>274.9</ele>
        <time>2014-09-11T14:02:04Z</time>
      </trkpt>
      <trkpt lat="47.45712" lon="6.2326">
        <ele>274.9</ele>
        <time>2014-09-11T14:02:07Z</time>
      </trkpt>
      <trkpt lat="47.45703" lon="6.23248">
        <ele>274.9</ele>
        <time>2014-09-11T14:02:10Z</time>
      </trkpt>
      <trkpt lat="47.45694" lon="6.23237">
        <ele>274.6</ele>
        <time>2014-09-11T14:02:13Z</time>
      </trkpt>
      <trkpt lat="47.45686" lon="6.23226">
        <ele>274.5</ele>
        <time>2014-09-11T14:02:16Z</time>
      </trkpt>
      <trkpt lat="47.45679" lon="6.23214">
        <ele>274.5</ele>
        <time>2014-09-11T14:02:19Z</time>
      </trkpt>
      <trkpt lat="47.45672" lon="6.23201">
        <ele>274.3</ele>
        <time>2014-09-11T14:02:23Z</time>
      </trkpt>
      <trkpt lat="47.45663" lon="6.23191">
        <ele>274.1</ele>
        <time>2014-09-11T14:02:26Z</time>
      </trkpt>
      <trkpt lat="47.45655" lon="6.23182">
        <ele>274</ele>
        <time>2014-09-11T14:02:29Z</time>
      </trkpt>
      <trkpt lat="47.45646" lon="6.23172">
        <ele>273.7</ele>
        <time>2014-09-11T14:02:32Z</time>
      </trkpt>
      <trkpt lat="47.45638" lon="6.23162">
        <ele>273.4</ele>
        <time>2014-09-11T14:02:34Z</time>
      </trkpt>
      <trkpt lat="47.45629" lon="6.23156">
        <ele>273.3</ele>
        <time>2014-09-11T14:02:36Z</time>
      </trkpt>
      <trkpt lat="47.45619" lon="6.23147">
        <ele>273</ele>
        <time>2014-09-11T14:02:39Z</time>
      </trkpt>
      <trkpt lat="47.45608" lon="6.23139">
        <ele>272.8</ele>
        <time>2014-09-11T14:02:42Z</time>
      </trkpt>
      <trkpt lat="47.45594" lon="6.23133">
        <ele>272.6</ele>
        <time>2014-09-11T14:02:45Z</time>
      </trkpt>
      <trkpt lat="47.45584" lon="6.23126">
        <ele>272.5</ele>
        <time>2014-09-11T14:02:47Z</time>
      </trkpt>
      <trkpt lat="47.45575" lon="6.23122">
        <ele>272.6</ele>
        <time>2014-09-11T14:02:49Z</time>
      </trkpt>
      <trkpt lat="47.45564" lon="6.23116">
        <ele>272.3</ele>
        <time>2014-09-11T14:02:52Z</time>
      </trkpt>
      <trkpt lat="47.45555" lon="6.23113">
        <ele>272</ele>
        <time>2014-09-11T14:02:55Z</time>
      </trkpt>
      <trkpt lat="47.45545" lon="6.2311">
        <ele>272</ele>
        <time>2014-09-11T14:02:57Z</time>
      </trkpt>
      <trkpt lat="47.45535" lon="6.23107">
        <ele>271.8</ele>
        <time>2014-09-11T14:02:59Z</time>
      </trkpt>
      <trkpt lat="47.45523" lon="6.23102">
        <ele>271.5</ele>
        <time>2014-09-11T14:03:02Z</time>
      </trkpt>
      <trkpt lat="47.45514" lon="6.23093">
        <ele>271.4</ele>
        <time>2014-09-11T14:03:04Z</time>
      </trkpt>
      <trkpt lat="47.45502" lon="6.23086">
        <ele>271.1</ele>
        <time>2014-09-11T14:03:07Z</time>
      </trkpt>
      <trkpt lat="47.45491" lon="6.23081">
        <ele>270.8</ele>
        <time>2014-09-11T14:03:10Z</time>
      </trkpt>
      <trkpt lat="47.4548" lon="6.23075">
        <ele>270.6</ele>
        <time>2014-09-11T14:03:13Z</time>
      </trkpt>
      <trkpt lat="47.45468" lon="6.23068">
        <ele>270.3</ele>
        <time>2014-09-11T14:03:16Z</time>
      </trkpt>
      <trkpt lat="47.45455" lon="6.23061">
        <ele>270.1</ele>
        <time>2014-09-11T14:03:19Z</time>
      </trkpt>
      <trkpt lat="47.45447" lon="6.23057">
        <ele>269.9</ele>
        <time>2014-09-11T14:03:21Z</time>
      </trkpt>
      <trkpt lat="47.45435" lon="6.2305">
        <ele>269.8</ele>
        <time>2014-09-11T14:03:24Z</time>
      </trkpt>
      <trkpt lat="47.45425" lon="6.23043">
        <ele>269.5</ele>
        <time>2014-09-11T14:03:27Z</time>
      </trkpt>
      <trkpt lat="47.45416" lon="6.23037">
        <ele>269.3</ele>
        <time>2014-09-11T14:03:29Z</time>
      </trkpt>
      <trkpt lat="47.45405" lon="6.23028">
        <ele>269.4</ele>
        <time>2014-09-11T14:03:32Z</time>
      </trkpt>
      <trkpt lat="47.45397" lon="6.23021">
        <ele>269.3</ele>
        <time>2014-09-11T14:03:34Z</time>
      </trkpt>
      <trkpt lat="47.45388" lon="6.23013">
        <ele>269.2</ele>
        <time>2014-09-11T14:03:36Z</time>
      </trkpt>
      <trkpt lat="47.45379" lon="6.23007">
        <ele>269</ele>
        <time>2014-09-11T14:03:38Z</time>
      </trkpt>
      <trkpt lat="47.45369" lon="6.23">
        <ele>268.8</ele>
        <time>2014-09-11T14:03:40Z</time>
      </trkpt>
      <trkpt lat="47.4536" lon="6.22994">
        <ele>268.7</ele>
        <time>2014-09-11T14:03:42Z</time>
      </trkpt>
      <trkpt lat="47.45348" lon="6.22988">
        <ele>268.4</ele>
        <time>2014-09-11T14:03:45Z</time>
      </trkpt>
      <trkpt lat="47.45337" lon="6.22984">
        <ele>268.2</ele>
        <time>2014-09-11T14:03:48Z</time>
      </trkpt>
      <trkpt lat="47.45325" lon="6.22978">
        <ele>268.1</ele>
        <time>2014-09-11T14:03:51Z</time>
      </trkpt>
      <trkpt lat="47.45315" lon="6.22971">
        <ele>267.7</ele>
        <time>2014-09-11T14:03:54Z</time>
      </trkpt>
      <trkpt lat="47.45303" lon="6.22965">
        <ele>267.7</ele>
        <time>2014-09-11T14:03:57Z</time>
      </trkpt>
      <trkpt lat="47.45292" lon="6.22959">
        <ele>267.6</ele>
        <time>2014-09-11T14:04:00Z</time>
      </trkpt>
      <trkpt lat="47.4528" lon="6.22952">
        <ele>267.3</ele>
        <time>2014-09-11T14:04:03Z</time>
      </trkpt>
      <trkpt lat="47.45267" lon="6.22944">
        <ele>267.1</ele>
        <time>2014-09-11T14:04:06Z</time>
      </trkpt>
      <trkpt lat="47.45255" lon="6.22938">
        <ele>266.8</ele>
        <time>2014-09-11T14:04:09Z</time>
      </trkpt>
      <trkpt lat="47.45244" lon="6.2293">
        <ele>266.7</ele>
        <time>2014-09-11T14:04:12Z</time>
      </trkpt>
      <trkpt lat="47.45233" lon="6.22924">
        <ele>266.7</ele>
        <time>2014-09-11T14:04:15Z</time>
      </trkpt>
      <trkpt lat="47.45223" lon="6.22917">
        <ele>266.5</ele>
        <time>2014-09-11T14:04:18Z</time>
      </trkpt>
      <trkpt lat="47.45213" lon="6.22909">
        <ele>266.1</ele>
        <time>2014-09-11T14:04:21Z</time>
      </trkpt>
      <trkpt lat="47.45201" lon="6.22903">
        <ele>265.8</ele>
        <time>2014-09-11T14:04:25Z</time>
      </trkpt>
      <trkpt lat="47.4519" lon="6.22897">
        <ele>265.6</ele>
        <time>2014-09-11T14:04:28Z</time>
      </trkpt>
      <trkpt lat="47.45181" lon="6.22888">
        <ele>265.5</ele>
        <time>2014-09-11T14:04:32Z</time>
      </trkpt>
      <trkpt lat="47.45171" lon="6.22879">
        <ele>265.2</ele>
        <time>2014-09-11T14:04:36Z</time>
      </trkpt>
      <trkpt lat="47.45161" lon="6.22871">
        <ele>265.2</ele>
        <time>2014-09-11T14:04:38Z</time>
      </trkpt>
      <trkpt lat="47.4515" lon="6.22863">
        <ele>265</ele>
        <time>2014-09-11T14:04:40Z</time>
      </trkpt>
      <trkpt lat="47.45139" lon="6.22851">
        <ele>264.6</ele>
        <time>2014-09-11T14:04:42Z</time>
      </trkpt>
      <trkpt lat="47.4513" lon="6.22842">
        <ele>264.3</ele>
        <time>2014-09-11T14:04:44Z</time>
      </trkpt>
      <trkpt lat="47.45123" lon="6.22834">
        <ele>264.3</ele>
        <time>2014-09-11T14:04:46Z</time>
      </trkpt>
      <trkpt lat="47.45113" lon="6.22823">
        <ele>263.8</ele>
        <time>2014-09-11T14:04:49Z</time>
      </trkpt>
      <trkpt lat="47.45102" lon="6.22812">
        <ele>263.7</ele>
        <time>2014-09-11T14:04:52Z</time>
      </trkpt>
      <trkpt lat="47.45091" lon="6.22801">
        <ele>263.5</ele>
        <time>2014-09-11T14:04:55Z</time>
      </trkpt>
      <trkpt lat="47.45081" lon="6.2279">
        <ele>263.4</ele>
        <time>2014-09-11T14:04:58Z</time>
      </trkpt>
      <trkpt lat="47.45071" lon="6.2278">
        <ele>263.1</ele>
        <time>2014-09-11T14:05:01Z</time>
      </trkpt>
      <trkpt lat="47.4506" lon="6.22769">
        <ele>263</ele>
        <time>2014-09-11T14:05:04Z</time>
      </trkpt>
      <trkpt lat="47.45052" lon="6.22763">
        <ele>262.9</ele>
        <time>2014-09-11T14:05:06Z</time>
      </trkpt>
      <trkpt lat="47.45043" lon="6.22754">
        <ele>262.8</ele>
        <time>2014-09-11T14:05:08Z</time>
      </trkpt>
      <trkpt lat="47.45036" lon="6.22745">
        <ele>262.7</ele>
        <time>2014-09-11T14:05:10Z</time>
      </trkpt>
      <trkpt lat="47.45028" lon="6.22737">
        <ele>262.5</ele>
        <time>2014-09-11T14:05:12Z</time>
      </trkpt>
      <trkpt lat="47.45018" lon="6.22725">
        <ele>262.1</ele>
        <time>2014-09-11T14:05:15Z</time>
      </trkpt>
      <trkpt lat="47.45009" lon="6.22718">
        <ele>262.1</ele>
        <time>2014-09-11T14:05:17Z</time>
      </trkpt>
      <trkpt lat="47.45001" lon="6.22711">
        <ele>261.9</ele>
        <time>2014-09-11T14:05:19Z</time>
      </trkpt>
      <trkpt lat="47.44992" lon="6.22703">
        <ele>261.8</ele>
        <time>2014-09-11T14:05:21Z</time>
      </trkpt>
      <trkpt lat="47.44984" lon="6.22695">
        <ele>261.7</ele>
        <time>2014-09-11T14:05:23Z</time>
      </trkpt>
      <trkpt lat="47.44973" lon="6.22684">
        <ele>261.3</ele>
        <time>2014-09-11T14:05:26Z</time>
      </trkpt>
      <trkpt lat="47.44965" lon="6.22676">
        <ele>261.4</ele>
        <time>2014-09-11T14:05:28Z</time>
      </trkpt>
      <trkpt lat="47.44954" lon="6.22665">
        <ele>261</ele>
        <time>2014-09-11T14:05:31Z</time>
      </trkpt>
      <trkpt lat="47.44946" lon="6.22658">
        <ele>260.9</ele>
        <time>2014-09-11T14:05:33Z</time>
      </trkpt>
      <trkpt lat="47.44935" lon="6.22648">
        <ele>260.9</ele>
        <time>2014-09-11T14:05:36Z</time>
      </trkpt>
      <trkpt lat="47.44927" lon="6.22636">
        <ele>260.8</ele>
        <time>2014-09-11T14:05:39Z</time>
      </trkpt>
      <trkpt lat="47.4492" lon="6.22626">
        <ele>260.7</ele>
        <time>2014-09-11T14:05:41Z</time>
      </trkpt>
      <trkpt lat="47.44913" lon="6.22615">
        <ele>260.5</ele>
        <time>2014-09-11T14:05:44Z</time>
      </trkpt>
      <trkpt lat="47.44905" lon="6.22603">
        <ele>260.1</ele>
        <time>2014-09-11T14:05:47Z</time>
      </trkpt>
      <trkpt lat="47.44897" lon="6.22594">
        <ele>260</ele>
        <time>2014-09-11T14:05:50Z</time>
      </trkpt>
      <trkpt lat="47.44889" lon="6.22587">
        <ele>259.7</ele>
        <time>2014-09-11T14:05:52Z</time>
      </trkpt>
      <trkpt lat="47.44877" lon="6.22579">
        <ele>259.7</ele>
        <time>2014-09-11T14:05:55Z</time>
      </trkpt>
      <trkpt lat="47.44868" lon="6.22573">
        <ele>259.4</ele>
        <time>2014-09-11T14:05:57Z</time>
      </trkpt>
      <trkpt lat="47.44859" lon="6.22565">
        <ele>259.2</ele>
        <time>2014-09-11T14:05:59Z</time>
      </trkpt>
      <trkpt lat="47.44849" lon="6.22556">
        <ele>259</ele>
        <time>2014-09-11T14:06:01Z</time>
      </trkpt>
      <trkpt lat="47.44839" lon="6.22547">
        <ele>258.8</ele>
        <time>2014-09-11T14:06:03Z</time>
      </trkpt>
      <trkpt lat="47.44828" lon="6.22538">
        <ele>258.6</ele>
        <time>2014-09-11T14:06:05Z</time>
      </trkpt>
      <trkpt lat="47.44817" lon="6.22531">
        <ele>258.5</ele>
        <time>2014-09-11T14:06:07Z</time>
      </trkpt>
      <trkpt lat="47.44807" lon="6.22525">
        <ele>258.4</ele>
        <time>2014-09-11T14:06:09Z</time>
      </trkpt>
      <trkpt lat="47.44795" lon="6.22516">
        <ele>258.2</ele>
        <time>2014-09-11T14:06:11Z</time>
      </trkpt>
      <trkpt lat="47.44785" lon="6.2251">
        <ele>258.1</ele>
        <time>2014-09-11T14:06:13Z</time>
      </trkpt>
      <trkpt lat="47.44775" lon="6.22505">
        <ele>257.9</ele>
        <time>2014-09-11T14:06:15Z</time>
      </trkpt>
      <trkpt lat="47.44766" lon="6.22498">
        <ele>257.8</ele>
        <time>2014-09-11T14:06:17Z</time>
      </trkpt>
      <trkpt lat="47.44757" lon="6.22494">
        <ele>257.5</ele>
        <time>2014-09-11T14:06:19Z</time>
      </trkpt>
      <trkpt lat="47.44748" lon="6.2249">
        <ele>257.6</ele>
        <time>2014-09-11T14:06:21Z</time>
      </trkpt>
      <trkpt lat="47.44739" lon="6.22483">
        <ele>257.5</ele>
        <time>2014-09-11T14:06:23Z</time>
      </trkpt>
      <trkpt lat="47.44731" lon="6.22478">
        <ele>257.3</ele>
        <time>2014-09-11T14:06:25Z</time>
      </trkpt>
      <trkpt lat="47.44722" lon="6.22473">
        <ele>257.2</ele>
        <time>2014-09-11T14:06:27Z</time>
      </trkpt>
      <trkpt lat="47.44713" lon="6.22468">
        <ele>257.2</ele>
        <time>2014-09-11T14:06:29Z</time>
      </trkpt>
      <trkpt lat="47.44704" lon="6.22461">
        <ele>257</ele>
        <time>2014-09-11T14:06:31Z</time>
      </trkpt>
      <trkpt lat="47.44695" lon="6.22455">
        <ele>256.8</ele>
        <time>2014-09-11T14:06:33Z</time>
      </trkpt>
      <trkpt lat="47.44685" lon="6.22451">
        <ele>256.4</ele>
        <time>2014-09-11T14:06:35Z</time>
      </trkpt>
      <trkpt lat="47.44676" lon="6.22447">
        <ele>256.2</ele>
        <time>2014-09-11T14:06:37Z</time>
      </trkpt>
      <trkpt lat="47.44667" lon="6.22442">
        <ele>256.1</ele>
        <time>2014-09-11T14:06:39Z</time>
      </trkpt>
      <trkpt lat="47.44658" lon="6.22438">
        <ele>255.9</ele>
        <time>2014-09-11T14:06:41Z</time>
      </trkpt>
      <trkpt lat="47.44648" lon="6.2243">
        <ele>255.6</ele>
        <time>2014-09-11T14:06:43Z</time>
      </trkpt>
      <trkpt lat="47.44639" lon="6.22426">
        <ele>255.5</ele>
        <time>2014-09-11T14:06:45Z</time>
      </trkpt>
      <trkpt lat="47.44629" lon="6.2242">
        <ele>255.2</ele>
        <time>2014-09-11T14:06:47Z</time>
      </trkpt>
      <trkpt lat="47.44619" lon="6.22414">
        <ele>254.9</ele>
        <time>2014-09-11T14:06:49Z</time>
      </trkpt>
      <trkpt lat="47.4461" lon="6.2241">
        <ele>254.7</ele>
        <time>2014-09-11T14:06:51Z</time>
      </trkpt>
      <trkpt lat="47.446" lon="6.22405">
        <ele>254.5</ele>
        <time>2014-09-11T14:06:53Z</time>
      </trkpt>
      <trkpt lat="47.44591" lon="6.22401">
        <ele>254.3</ele>
        <time>2014-09-11T14:06:55Z</time>
      </trkpt>
      <trkpt lat="47.44579" lon="6.22394">
        <ele>254.3</ele>
        <time>2014-09-11T14:06:58Z</time>
      </trkpt>
      <trkpt lat="47.4457" lon="6.22391">
        <ele>254.2</ele>
        <time>2014-09-11T14:07:00Z</time>
      </trkpt>
      <trkpt lat="47.44561" lon="6.22387">
        <ele>254.2</ele>
        <time>2014-09-11T14:07:02Z</time>
      </trkpt>
      <trkpt lat="47.4455" lon="6.22383">
        <ele>253.9</ele>
        <time>2014-09-11T14:07:04Z</time>
      </trkpt>
      <trkpt lat="47.4454" lon="6.22378">
        <ele>254</ele>
        <time>2014-09-11T14:07:06Z</time>
      </trkpt>
      <trkpt lat="47.4453" lon="6.22373">
        <ele>253.9</ele>
        <time>2014-09-11T14:07:08Z</time>
      </trkpt>
      <trkpt lat="47.4452" lon="6.22368">
        <ele>253.8</ele>
        <time>2014-09-11T14:07:10Z</time>
      </trkpt>
      <trkpt lat="47.44508" lon="6.22362">
        <ele>253.6</ele>
        <time>2014-09-11T14:07:13Z</time>
      </trkpt>
      <trkpt lat="47.44498" lon="6.22355">
        <ele>253.2</ele>
        <time>2014-09-11T14:07:15Z</time>
      </trkpt>
      <trkpt lat="47.44488" lon="6.22348">
        <ele>253</ele>
        <time>2014-09-11T14:07:17Z</time>
      </trkpt>
      <trkpt lat="47.44478" lon="6.22341">
        <ele>252.8</ele>
        <time>2014-09-11T14:07:19Z</time>
      </trkpt>
      <trkpt lat="47.4447" lon="6.22334">
        <ele>252.6</ele>
        <time>2014-09-11T14:07:21Z</time>
      </trkpt>
      <trkpt lat="47.44463" lon="6.22327">
        <ele>252.5</ele>
        <time>2014-09-11T14:07:23Z</time>
      </trkpt>
      <trkpt lat="47.44455" lon="6.2232">
        <ele>252.3</ele>
        <time>2014-09-11T14:07:25Z</time>
      </trkpt>
      <trkpt lat="47.44445" lon="6.22312">
        <ele>252.3</ele>
        <time>2014-09-11T14:07:27Z</time>
      </trkpt>
      <trkpt lat="47.44436" lon="6.22304">
        <ele>252.2</ele>
        <time>2014-09-11T14:07:29Z</time>
      </trkpt>
      <trkpt lat="47.44427" lon="6.22296">
        <ele>252</ele>
        <time>2014-09-11T14:07:31Z</time>
      </trkpt>
      <trkpt lat="47.4442" lon="6.22288">
        <ele>251.7</ele>
        <time>2014-09-11T14:07:33Z</time>
      </trkpt>
      <trkpt lat="47.44411" lon="6.2228">
        <ele>251.5</ele>
        <time>2014-09-11T14:07:35Z</time>
      </trkpt>
      <trkpt lat="47.44403" lon="6.22272">
        <ele>251.3</ele>
        <time>2014-09-11T14:07:37Z</time>
      </trkpt>
      <trkpt lat="47.44394" lon="6.22263">
        <ele>251.2</ele>
        <time>2014-09-11T14:07:39Z</time>
      </trkpt>
      <trkpt lat="47.44386" lon="6.22254">
        <ele>251.2</ele>
        <time>2014-09-11T14:07:41Z</time>
      </trkpt>
      <trkpt lat="47.44378" lon="6.22244">
        <ele>250.9</ele>
        <time>2014-09-11T14:07:43Z</time>
      </trkpt>
      <trkpt lat="47.4437" lon="6.22234">
        <ele>250.7</ele>
        <time>2014-09-11T14:07:45Z</time>
      </trkpt>
      <trkpt lat="47.44361" lon="6.22225">
        <ele>250.5</ele>
        <time>2014-09-11T14:07:47Z</time>
      </trkpt>
      <trkpt lat="47.44352" lon="6.22216">
        <ele>250.3</ele>
        <time>2014-09-11T14:07:49Z</time>
      </trkpt>
      <trkpt lat="47.44344" lon="6.22207">
        <ele>250.4</ele>
        <time>2014-09-11T14:07:51Z</time>
      </trkpt>
      <trkpt lat="47.44335" lon="6.22197">
        <ele>250.2</ele>
        <time>2014-09-11T14:07:53Z</time>
      </trkpt>
      <trkpt lat="47.44326" lon="6.22188">
        <ele>250.1</ele>
        <time>2014-09-11T14:07:55Z</time>
      </trkpt>
      <trkpt lat="47.44318" lon="6.22178">
        <ele>250</ele>
        <time>2014-09-11T14:07:57Z</time>
      </trkpt>
      <trkpt lat="47.4431" lon="6.22168">
        <ele>250</ele>
        <time>2014-09-11T14:07:59Z</time>
      </trkpt>
      <trkpt lat="47.44303" lon="6.22157">
        <ele>249.8</ele>
        <time>2014-09-11T14:08:01Z</time>
      </trkpt>
      <trkpt lat="47.44296" lon="6.22147">
        <ele>249.7</ele>
        <time>2014-09-11T14:08:03Z</time>
      </trkpt>
      <trkpt lat="47.44289" lon="6.22137">
        <ele>249.4</ele>
        <time>2014-09-11T14:08:05Z</time>
      </trkpt>
      <trkpt lat="47.44282" lon="6.22126">
        <ele>249</ele>
        <time>2014-09-11T14:08:07Z</time>
      </trkpt>
      <trkpt lat="47.44275" lon="6.22116">
        <ele>248.8</ele>
        <time>2014-09-11T14:08:09Z</time>
      </trkpt>
      <trkpt lat="47.44268" lon="6.22106">
        <ele>248.6</ele>
        <time>2014-09-11T14:08:11Z</time>
      </trkpt>
      <trkpt lat="47.44261" lon="6.22097">
        <ele>248.5</ele>
        <time>2014-09-11T14:08:13Z</time>
      </trkpt>
      <trkpt lat="47.44254" lon="6.22086">
        <ele>248.4</ele>
        <time>2014-09-11T14:08:15Z</time>
      </trkpt>
      <trkpt lat="47.44247" lon="6.22076">
        <ele>248.3</ele>
        <time>2014-09-11T14:08:17Z</time>
      </trkpt>
      <trkpt lat="47.44239" lon="6.22066">
        <ele>248.1</ele>
        <time>2014-09-11T14:08:19Z</time>
      </trkpt>
      <trkpt lat="47.44232" lon="6.22056">
        <ele>247.9</ele>
        <time>2014-09-11T14:08:21Z</time>
      </trkpt>
      <trkpt lat="47.44225" lon="6.22046">
        <ele>247.9</ele>
        <time>2014-09-11T14:08:23Z</time>
      </trkpt>
      <trkpt lat="47.44218" lon="6.22034">
        <ele>247.8</ele>
        <time>2014-09-11T14:08:25Z</time>
      </trkpt>
      <trkpt lat="47.44211" lon="6.22023">
        <ele>247.8</ele>
        <time>2014-09-11T14:08:27Z</time>
      </trkpt>
      <trkpt lat="47.44204" lon="6.22012">
        <ele>247.6</ele>
        <time>2014-09-11T14:08:29Z</time>
      </trkpt>
      <trkpt lat="47.44197" lon="6.22">
        <ele>247.4</ele>
        <time>2014-09-11T14:08:31Z</time>
      </trkpt>
      <trkpt lat="47.44191" lon="6.21988">
        <ele>247.2</ele>
        <time>2014-09-11T14:08:33Z</time>
      </trkpt>
      <trkpt lat="47.44185" lon="6.21975">
        <ele>246.9</ele>
        <time>2014-09-11T14:08:35Z</time>
      </trkpt>
      <trkpt lat="47.4418" lon="6.21963">
        <ele>246.6</ele>
        <time>2014-09-11T14:08:37Z</time>
      </trkpt>
      <trkpt lat="47.44173" lon="6.21951">
        <ele>246.3</ele>
        <time>2014-09-11T14:08:39Z</time>
      </trkpt>
      <trkpt lat="47.44167" lon="6.21937">
        <ele>246.1</ele>
        <time>2014-09-11T14:08:41Z</time>
      </trkpt>
      <trkpt lat="47.44161" lon="6.21923">
        <ele>245.9</ele>
        <time>2014-09-11T14:08:43Z</time>
      </trkpt>
      <trkpt lat="47.44156" lon="6.21909">
        <ele>245.5</ele>
        <time>2014-09-11T14:08:45Z</time>
      </trkpt>
      <trkpt lat="47.4415" lon="6.21895">
        <ele>245.2</ele>
        <time>2014-09-11T14:08:47Z</time>
      </trkpt>
      <trkpt lat="47.44144" lon="6.21881">
        <ele>245.1</ele>
        <time>2014-09-11T14:08:49Z</time>
      </trkpt>
      <trkpt lat="47.44138" lon="6.21867">
        <ele>244.8</ele>
        <time>2014-09-11T14:08:51Z</time>
      </trkpt>
      <trkpt lat="47.44133" lon="6.21852">
        <ele>244.8</ele>
        <time>2014-09-11T14:08:53Z</time>
      </trkpt>
      <trkpt lat="47.44127" lon="6.21838">
        <ele>244.7</ele>
        <time>2014-09-11T14:08:55Z</time>
      </trkpt>
      <trkpt lat="47.44122" lon="6.21823">
        <ele>244.6</ele>
        <time>2014-09-11T14:08:57Z</time>
      </trkpt>
      <trkpt lat="47.44117" lon="6.21809">
        <ele>244.1</ele>
        <time>2014-09-11T14:08:59Z</time>
      </trkpt>
      <trkpt lat="47.44111" lon="6.21795">
        <ele>243.8</ele>
        <time>2014-09-11T14:09:01Z</time>
      </trkpt>
      <trkpt lat="47.44107" lon="6.2178">
        <ele>243.6</ele>
        <time>2014-09-11T14:09:03Z</time>
      </trkpt>
      <trkpt lat="47.44102" lon="6.21765">
        <ele>243.4</ele>
        <time>2014-09-11T14:09:05Z</time>
      </trkpt>
      <trkpt lat="47.44096" lon="6.21751">
        <ele>243.2</ele>
        <time>2014-09-11T14:09:07Z</time>
      </trkpt>
      <trkpt lat="47.44091" lon="6.21737">
        <ele>242.9</ele>
        <time>2014-09-11T14:09:09Z</time>
      </trkpt>
      <trkpt lat="47.44086" lon="6.21722">
        <ele>242.9</ele>
        <time>2014-09-11T14:09:11Z</time>
      </trkpt>
      <trkpt lat="47.44081" lon="6.21707">
        <ele>242.8</ele>
        <time>2014-09-11T14:09:13Z</time>
      </trkpt>
      <trkpt lat="47.44076" lon="6.21692">
        <ele>242.5</ele>
        <time>2014-09-11T14:09:15Z</time>
      </trkpt>
      <trkpt lat="47.4407" lon="6.21678">
        <ele>242.2</ele>
        <time>2014-09-11T14:09:17Z</time>
      </trkpt>
      <trkpt lat="47.44065" lon="6.21663">
        <ele>242</ele>
        <time>2014-09-11T14:09:19Z</time>
      </trkpt>
      <trkpt lat="47.44059" lon="6.21648">
        <ele>242</ele>
        <time>2014-09-11T14:09:21Z</time>
      </trkpt>
      <trkpt lat="47.44054" lon="6.21633">
        <ele>241.9</ele>
        <time>2014-09-11T14:09:23Z</time>
      </trkpt>
      <trkpt lat="47.44048" lon="6.21618">
        <ele>241.7</ele>
        <time>2014-09-11T14:09:25Z</time>
      </trkpt>
      <trkpt lat="47.44042" lon="6.21603">
        <ele>241.7</ele>
        <time>2014-09-11T14:09:27Z</time>
      </trkpt>
      <trkpt lat="47.44036" lon="6.21589">
        <ele>241.5</ele>
        <time>2014-09-11T14:09:29Z</time>
      </trkpt>
      <trkpt lat="47.4403" lon="6.21575">
        <ele>241.3</ele>
        <time>2014-09-11T14:09:31Z</time>
      </trkpt>
      <trkpt lat="47.44023" lon="6.21561">
        <ele>241.1</ele>
        <time>2014-09-11T14:09:33Z</time>
      </trkpt>
      <trkpt lat="47.44016" lon="6.21547">
        <ele>240.9</ele>
        <time>2014-09-11T14:09:35Z</time>
      </trkpt>
      <trkpt lat="47.44009" lon="6.21534">
        <ele>240.7</ele>
        <time>2014-09-11T14:09:37Z</time>
      </trkpt>
      <trkpt lat="47.44002" lon="6.21522">
        <ele>240.7</ele>
        <time>2014-09-11T14:09:39Z</time>
      </trkpt>
      <trkpt lat="47.43995" lon="6.2151">
        <ele>240.5</ele>
        <time>2014-09-11T14:09:41Z</time>
      </trkpt>
      <trkpt lat="47.43988" lon="6.21499">
        <ele>240.2</ele>
        <time>2014-09-11T14:09:43Z</time>
      </trkpt>
      <trkpt lat="47.43982" lon="6.21489">
        <ele>240</ele>
        <time>2014-09-11T14:09:45Z</time>
      </trkpt>
      <trkpt lat="47.43975" lon="6.2148">
        <ele>239.9</ele>
        <time>2014-09-11T14:09:47Z</time>
      </trkpt>
      <trkpt lat="47.43966" lon="6.21468">
        <ele>239.6</ele>
        <time>2014-09-11T14:09:50Z</time>
      </trkpt>
      <trkpt lat="47.43959" lon="6.21459">
        <ele>239.7</ele>
        <time>2014-09-11T14:09:53Z</time>
      </trkpt>
      <trkpt lat="47.43951" lon="6.21448">
        <ele>239.9</ele>
        <time>2014-09-11T14:09:58Z</time>
      </trkpt>
      <trkpt lat="47.43954" lon="6.21435">
        <ele>240</ele>
        <time>2014-09-11T14:10:02Z</time>
      </trkpt>
      <trkpt lat="47.43959" lon="6.21422">
        <ele>239.9</ele>
        <time>2014-09-11T14:10:05Z</time>
      </trkpt>
      <trkpt lat="47.43957" lon="6.21406">
        <ele>239.8</ele>
        <time>2014-09-11T14:10:08Z</time>
      </trkpt>
      <trkpt lat="47.43951" lon="6.21391">
        <ele>239.7</ele>
        <time>2014-09-11T14:10:11Z</time>
      </trkpt>
      <trkpt lat="47.43945" lon="6.21379">
        <ele>239.8</ele>
        <time>2014-09-11T14:10:14Z</time>
      </trkpt>
      <trkpt lat="47.43936" lon="6.21368">
        <ele>239.6</ele>
        <time>2014-09-11T14:10:17Z</time>
      </trkpt>
      <trkpt lat="47.43929" lon="6.2136">
        <ele>239.3</ele>
        <time>2014-09-11T14:10:20Z</time>
      </trkpt>
      <trkpt lat="47.4392" lon="6.21348">
        <ele>238.7</ele>
        <time>2014-09-11T14:10:23Z</time>
      </trkpt>
      <trkpt lat="47.43913" lon="6.21339">
        <ele>238.5</ele>
        <time>2014-09-11T14:10:25Z</time>
      </trkpt>
      <trkpt lat="47.43906" lon="6.21328">
        <ele>238.2</ele>
        <time>2014-09-11T14:10:27Z</time>
      </trkpt>
      <trkpt lat="47.43899" lon="6.21317">
        <ele>237.9</ele>
        <time>2014-09-11T14:10:29Z</time>
      </trkpt>
      <trkpt lat="47.43891" lon="6.21306">
        <ele>237.4</ele>
        <time>2014-09-11T14:10:31Z</time>
      </trkpt>
      <trkpt lat="47.43883" lon="6.21293">
        <ele>236.7</ele>
        <time>2014-09-11T14:10:33Z</time>
      </trkpt>
      <trkpt lat="47.43874" lon="6.2128">
        <ele>236.3</ele>
        <time>2014-09-11T14:10:35Z</time>
      </trkpt>
      <trkpt lat="47.43866" lon="6.21267">
        <ele>235.9</ele>
        <time>2014-09-11T14:10:37Z</time>
      </trkpt>
      <trkpt lat="47.43857" lon="6.21252">
        <ele>235.5</ele>
        <time>2014-09-11T14:10:39Z</time>
      </trkpt>
      <trkpt lat="47.43849" lon="6.21239">
        <ele>235.1</ele>
        <time>2014-09-11T14:10:41Z</time>
      </trkpt>
      <trkpt lat="47.43842" lon="6.21226">
        <ele>234.7</ele>
        <time>2014-09-11T14:10:43Z</time>
      </trkpt>
      <trkpt lat="47.43835" lon="6.21215">
        <ele>234.4</ele>
        <time>2014-09-11T14:10:45Z</time>
      </trkpt>
      <trkpt lat="47.43828" lon="6.21204">
        <ele>233.9</ele>
        <time>2014-09-11T14:10:47Z</time>
      </trkpt>
      <trkpt lat="47.4382" lon="6.2119">
        <ele>233.8</ele>
        <time>2014-09-11T14:10:50Z</time>
      </trkpt>
      <trkpt lat="47.43813" lon="6.21179">
        <ele>233.8</ele>
        <time>2014-09-11T14:10:53Z</time>
      </trkpt>
      <trkpt lat="47.43811" lon="6.21166">
        <ele>233.7</ele>
        <time>2014-09-11T14:10:58Z</time>
      </trkpt>
      <trkpt lat="47.43815" lon="6.21164">
        <ele>233</ele>
        <time>2014-09-11T14:11:59Z</time>
      </trkpt>
    </trkseg>
  </trk>
</gpx>